<?xml version="1.0" encoding="UTF-8" standalone="no" ?>
<gpx xmlns="http://www.topografix.com/GPX/1/1" xmlns:xsi="http://www.w3.org/2001/XMLSchema-instance" xsi:schemaLocation="http://www.topografix.com/GPX/1/1 http://www.topografix.com/GPX/1/1/gpx.xsd" version="1.1" creator="VisuGPX - https://www.visugpx.com">
  <metadata>
    <name>RoadTrip Moto Ecosse Juin 2021 - V3</name>
  </metadata>
  <trk>
    <name><![CDATA[J2-Ardrossan - Oban Youth Hostel, Oban]]></name>
    <extensions>
      <line xmlns="http://www.topografix.com/GPX/gpx_style/0/2">
        <color>00FFFF</color>
        <width>4</width>
      </line>
    </extensions>
    <trkseg>
      <trkpt lat="55.63951" lon="-4.81045">
        <ele>4.46</ele>
        <time>2021-03-19T18:53:48Z</time>
      </trkpt>
      <trkpt lat="55.63921" lon="-4.81082">
        <ele>5.11</ele>
        <time>2021-03-19T18:53:53Z</time>
      </trkpt>
      <trkpt lat="55.63917" lon="-4.81091">
        <ele>5.27</ele>
        <time>2021-03-19T18:53:58Z</time>
      </trkpt>
      <trkpt lat="55.63912" lon="-4.81112">
        <ele>5.83</ele>
        <time>2021-03-19T18:54:03Z</time>
      </trkpt>
      <trkpt lat="55.6391" lon="-4.81137">
        <ele>6.68</ele>
        <time>2021-03-19T18:54:08Z</time>
      </trkpt>
      <trkpt lat="55.63911" lon="-4.8115">
        <ele>6.78</ele>
        <time>2021-03-19T18:54:13Z</time>
      </trkpt>
      <trkpt lat="55.64008" lon="-4.81492">
        <ele>7</ele>
        <time>2021-03-19T18:54:18Z</time>
      </trkpt>
      <trkpt lat="55.63957" lon="-4.81538">
        <ele>5</ele>
        <time>2021-03-19T18:54:20Z</time>
      </trkpt>
      <trkpt lat="55.63949" lon="-4.81548">
        <ele>5</ele>
        <time>2021-03-19T18:54:22Z</time>
      </trkpt>
      <trkpt lat="55.6394" lon="-4.81565">
        <ele>5</ele>
        <time>2021-03-19T18:54:23Z</time>
      </trkpt>
      <trkpt lat="55.63938" lon="-4.81574">
        <ele>5</ele>
        <time>2021-03-19T18:54:25Z</time>
      </trkpt>
      <trkpt lat="55.63936" lon="-4.81622">
        <ele>4.74</ele>
        <time>2021-03-19T18:54:27Z</time>
      </trkpt>
      <trkpt lat="55.63931" lon="-4.81642">
        <ele>4.48</ele>
        <time>2021-03-19T18:54:29Z</time>
      </trkpt>
      <trkpt lat="55.63913" lon="-4.81689">
        <ele>4.32</ele>
        <time>2021-03-19T18:54:31Z</time>
      </trkpt>
      <trkpt lat="55.63905" lon="-4.81686">
        <ele>4.59</ele>
        <time>2021-03-19T18:54:33Z</time>
      </trkpt>
      <trkpt lat="55.63898" lon="-4.81692">
        <ele>4.68</ele>
        <time>2021-03-19T18:54:35Z</time>
      </trkpt>
      <trkpt lat="55.63896" lon="-4.81697">
        <ele>4.74</ele>
        <time>2021-03-19T18:54:36Z</time>
      </trkpt>
      <trkpt lat="55.63895" lon="-4.81703">
        <ele>4.78</ele>
        <time>2021-03-19T18:54:38Z</time>
      </trkpt>
      <trkpt lat="55.63896" lon="-4.81716">
        <ele>4.76</ele>
        <time>2021-03-19T18:54:40Z</time>
      </trkpt>
      <trkpt lat="55.639" lon="-4.81726">
        <ele>4.57</ele>
        <time>2021-03-19T18:54:41Z</time>
      </trkpt>
      <trkpt lat="55.63878" lon="-4.81802">
        <ele>4</ele>
        <time>2021-03-19T18:54:43Z</time>
      </trkpt>
      <trkpt lat="55.63875" lon="-4.81807">
        <ele>4</ele>
        <time>2021-03-19T18:54:45Z</time>
      </trkpt>
      <trkpt lat="55.63858" lon="-4.81825">
        <ele>4.1</ele>
        <time>2021-03-19T18:54:46Z</time>
      </trkpt>
      <trkpt lat="55.63852" lon="-4.8184">
        <ele>4.57</ele>
        <time>2021-03-19T18:54:48Z</time>
      </trkpt>
      <trkpt lat="55.63806" lon="-4.82098">
        <ele>5</ele>
        <time>2021-03-19T18:54:50Z</time>
      </trkpt>
      <trkpt lat="55.63806" lon="-4.82127">
        <ele>5</ele>
        <time>2021-03-19T18:54:51Z</time>
      </trkpt>
      <trkpt lat="55.63808" lon="-4.82155">
        <ele>5</ele>
        <time>2021-03-19T18:54:53Z</time>
      </trkpt>
      <trkpt lat="55.6381" lon="-4.82168">
        <ele>4.95</ele>
        <time>2021-03-19T18:54:55Z</time>
      </trkpt>
      <trkpt lat="55.63819" lon="-4.82185">
        <ele>4.65</ele>
        <time>2021-03-19T18:54:56Z</time>
      </trkpt>
      <trkpt lat="55.63839" lon="-4.82206">
        <ele>5</ele>
        <time>2021-03-19T18:54:58Z</time>
      </trkpt>
      <trkpt lat="55.6384" lon="-4.82217">
        <ele>5</ele>
        <time>2021-03-19T18:55:00Z</time>
      </trkpt>
      <trkpt lat="55.63952" lon="-4.8232">
        <ele>5</ele>
        <time>2021-03-19T18:55:17Z</time>
      </trkpt>
      <trkpt lat="55.63967" lon="-4.82351">
        <ele>4.36</ele>
        <time>2021-03-19T18:55:35Z</time>
      </trkpt>
      <trkpt lat="55.64018" lon="-4.82397">
        <ele>3.5</ele>
        <time>2021-03-19T18:55:52Z</time>
      </trkpt>
      <trkpt lat="55.64137" lon="-4.82586">
        <ele>3.56</ele>
        <time>2021-03-19T19:05:37Z</time>
      </trkpt>
      <trkpt lat="55.63393" lon="-4.85118">
        <ele>4.24</ele>
        <time>2021-03-19T19:15:22Z</time>
      </trkpt>
      <trkpt lat="55.60426" lon="-4.99672">
        <ele>8.21</ele>
        <time>2021-03-19T19:25:07Z</time>
      </trkpt>
      <trkpt lat="55.58302" lon="-5.12541">
        <ele>11.67</ele>
        <time>2021-03-19T19:34:52Z</time>
      </trkpt>
      <trkpt lat="55.57864" lon="-5.13626">
        <ele>11.97</ele>
        <time>2021-03-19T19:44:37Z</time>
      </trkpt>
      <trkpt lat="55.5774" lon="-5.13624">
        <ele>12</ele>
        <time>2021-03-19T19:54:22Z</time>
      </trkpt>
      <trkpt lat="55.577" lon="-5.13657">
        <ele>3.19</ele>
        <time>2021-03-19T20:04:07Z</time>
      </trkpt>
      <trkpt lat="55.5768" lon="-5.13665">
        <ele>0.49</ele>
        <time>2021-03-19T20:13:52Z</time>
      </trkpt>
      <trkpt lat="55.57656" lon="-5.13659">
        <ele>1.11</ele>
        <time>2021-03-19T20:23:37Z</time>
      </trkpt>
      <trkpt lat="55.5761" lon="-5.1366">
        <ele>5.3</ele>
        <time>2021-03-19T20:33:22Z</time>
      </trkpt>
      <trkpt lat="55.57613" lon="-5.13747">
        <ele>4.93</ele>
        <time>2021-03-19T20:33:28Z</time>
      </trkpt>
      <trkpt lat="55.57615" lon="-5.13763">
        <ele>4.53</ele>
        <time>2021-03-19T20:33:33Z</time>
      </trkpt>
      <trkpt lat="55.5762" lon="-5.1378">
        <ele>3.99</ele>
        <time>2021-03-19T20:33:38Z</time>
      </trkpt>
      <trkpt lat="55.57632" lon="-5.13812">
        <ele>3.24</ele>
        <time>2021-03-19T20:33:43Z</time>
      </trkpt>
      <trkpt lat="55.57637" lon="-5.13866">
        <ele>3.15</ele>
        <time>2021-03-19T20:33:49Z</time>
      </trkpt>
      <trkpt lat="55.57636" lon="-5.13902">
        <ele>3.81</ele>
        <time>2021-03-19T20:33:54Z</time>
      </trkpt>
      <trkpt lat="55.57633" lon="-5.13929">
        <ele>4.64</ele>
        <time>2021-03-19T20:33:59Z</time>
      </trkpt>
      <trkpt lat="55.57618" lon="-5.13973">
        <ele>6.27</ele>
        <time>2021-03-19T20:34:04Z</time>
      </trkpt>
      <trkpt lat="55.57605" lon="-5.13995">
        <ele>7.66</ele>
        <time>2021-03-19T20:34:10Z</time>
      </trkpt>
      <trkpt lat="55.57619" lon="-5.14041">
        <ele>7.13</ele>
        <time>2021-03-19T20:34:20Z</time>
      </trkpt>
      <trkpt lat="55.57648" lon="-5.14127">
        <ele>4.06</ele>
        <time>2021-03-19T20:34:31Z</time>
      </trkpt>
      <trkpt lat="55.57657" lon="-5.1416">
        <ele>3.72</ele>
        <time>2021-03-19T20:34:42Z</time>
      </trkpt>
      <trkpt lat="55.57664" lon="-5.14196">
        <ele>3.11</ele>
        <time>2021-03-19T20:34:53Z</time>
      </trkpt>
      <trkpt lat="55.57667" lon="-5.14218">
        <ele>3</ele>
        <time>2021-03-19T20:35:04Z</time>
      </trkpt>
      <trkpt lat="55.57673" lon="-5.14317">
        <ele>1</ele>
        <time>2021-03-19T20:35:15Z</time>
      </trkpt>
      <trkpt lat="55.57686" lon="-5.14419">
        <ele>2.03</ele>
        <time>2021-03-19T20:35:25Z</time>
      </trkpt>
      <trkpt lat="55.57758" lon="-5.14938">
        <ele>4.35</ele>
        <time>2021-03-19T20:35:36Z</time>
      </trkpt>
      <trkpt lat="55.5776" lon="-5.14978">
        <ele>3.64</ele>
        <time>2021-03-19T20:35:47Z</time>
      </trkpt>
      <trkpt lat="55.57733" lon="-5.15508">
        <ele>6.29</ele>
        <time>2021-03-19T20:35:58Z</time>
      </trkpt>
      <trkpt lat="55.57735" lon="-5.15531">
        <ele>7</ele>
        <time>2021-03-19T20:36:09Z</time>
      </trkpt>
      <trkpt lat="55.57749" lon="-5.15558">
        <ele>7</ele>
        <time>2021-03-19T20:36:20Z</time>
      </trkpt>
      <trkpt lat="55.57758" lon="-5.15565">
        <ele>6.72</ele>
        <time>2021-03-19T20:36:30Z</time>
      </trkpt>
      <trkpt lat="55.5805" lon="-5.15755">
        <ele>5.84</ele>
        <time>2021-03-19T20:36:41Z</time>
      </trkpt>
      <trkpt lat="55.5805" lon="-5.15755">
        <ele>5.84</ele>
        <time>2021-03-19T20:36:41Z</time>
      </trkpt>
      <trkpt lat="55.58159" lon="-5.15824">
        <ele>6.68</ele>
        <time>2021-03-19T20:36:48Z</time>
      </trkpt>
      <trkpt lat="55.5822" lon="-5.1587">
        <ele>9.03</ele>
        <time>2021-03-19T20:36:55Z</time>
      </trkpt>
      <trkpt lat="55.58293" lon="-5.16019">
        <ele>11.98</ele>
        <time>2021-03-19T20:37:02Z</time>
      </trkpt>
      <trkpt lat="55.58338" lon="-5.16151">
        <ele>12.3</ele>
        <time>2021-03-19T20:37:09Z</time>
      </trkpt>
      <trkpt lat="55.58347" lon="-5.16185">
        <ele>12.81</ele>
        <time>2021-03-19T20:37:16Z</time>
      </trkpt>
      <trkpt lat="55.58383" lon="-5.16331">
        <ele>10.44</ele>
        <time>2021-03-19T20:37:23Z</time>
      </trkpt>
      <trkpt lat="55.58409" lon="-5.16518">
        <ele>11.76</ele>
        <time>2021-03-19T20:37:30Z</time>
      </trkpt>
      <trkpt lat="55.58416" lon="-5.16587">
        <ele>12.31</ele>
        <time>2021-03-19T20:37:36Z</time>
      </trkpt>
      <trkpt lat="55.5842" lon="-5.16599">
        <ele>11.55</ele>
        <time>2021-03-19T20:37:43Z</time>
      </trkpt>
      <trkpt lat="55.58423" lon="-5.1671">
        <ele>12.66</ele>
        <time>2021-03-19T20:37:47Z</time>
      </trkpt>
      <trkpt lat="55.58421" lon="-5.16737">
        <ele>14.42</ele>
        <time>2021-03-19T20:37:50Z</time>
      </trkpt>
      <trkpt lat="55.58416" lon="-5.16769">
        <ele>17.38</ele>
        <time>2021-03-19T20:37:54Z</time>
      </trkpt>
      <trkpt lat="55.58404" lon="-5.16811">
        <ele>24.27</ele>
        <time>2021-03-19T20:37:57Z</time>
      </trkpt>
      <trkpt lat="55.58372" lon="-5.16878">
        <ele>37.92</ele>
        <time>2021-03-19T20:38:01Z</time>
      </trkpt>
      <trkpt lat="55.58353" lon="-5.16997">
        <ele>44.28</ele>
        <time>2021-03-19T20:38:04Z</time>
      </trkpt>
      <trkpt lat="55.58353" lon="-5.17009">
        <ele>44.46</ele>
        <time>2021-03-19T20:38:08Z</time>
      </trkpt>
      <trkpt lat="55.58371" lon="-5.17072">
        <ele>40.19</ele>
        <time>2021-03-19T20:38:11Z</time>
      </trkpt>
      <trkpt lat="55.58368" lon="-5.17097">
        <ele>41.19</ele>
        <time>2021-03-19T20:38:15Z</time>
      </trkpt>
      <trkpt lat="55.58334" lon="-5.17239">
        <ele>48.06</ele>
        <time>2021-03-19T20:38:18Z</time>
      </trkpt>
      <trkpt lat="55.58273" lon="-5.17476">
        <ele>56.49</ele>
        <time>2021-03-19T20:38:22Z</time>
      </trkpt>
      <trkpt lat="55.5822" lon="-5.17662">
        <ele>62.88</ele>
        <time>2021-03-19T20:38:25Z</time>
      </trkpt>
      <trkpt lat="55.58175" lon="-5.17804">
        <ele>69.74</ele>
        <time>2021-03-19T20:38:29Z</time>
      </trkpt>
      <trkpt lat="55.58115" lon="-5.17982">
        <ele>74.87</ele>
        <time>2021-03-19T20:38:32Z</time>
      </trkpt>
      <trkpt lat="55.58048" lon="-5.18167">
        <ele>83.3</ele>
        <time>2021-03-19T20:38:36Z</time>
      </trkpt>
      <trkpt lat="55.58018" lon="-5.18238">
        <ele>86.14</ele>
        <time>2021-03-19T20:38:39Z</time>
      </trkpt>
      <trkpt lat="55.58015" lon="-5.18253">
        <ele>86.31</ele>
        <time>2021-03-19T20:38:43Z</time>
      </trkpt>
      <trkpt lat="55.58011" lon="-5.18282">
        <ele>86.97</ele>
        <time>2021-03-19T20:38:46Z</time>
      </trkpt>
      <trkpt lat="55.58008" lon="-5.18297">
        <ele>87.94</ele>
        <time>2021-03-19T20:38:50Z</time>
      </trkpt>
      <trkpt lat="55.57968" lon="-5.18403">
        <ele>92.72</ele>
        <time>2021-03-19T20:38:53Z</time>
      </trkpt>
      <trkpt lat="55.57942" lon="-5.18498">
        <ele>93.74</ele>
        <time>2021-03-19T20:38:57Z</time>
      </trkpt>
      <trkpt lat="55.57931" lon="-5.18529">
        <ele>97.01</ele>
        <time>2021-03-19T20:39:00Z</time>
      </trkpt>
      <trkpt lat="55.57865" lon="-5.18679">
        <ele>100.76</ele>
        <time>2021-03-19T20:39:04Z</time>
      </trkpt>
      <trkpt lat="55.57855" lon="-5.18699">
        <ele>101.75</ele>
        <time>2021-03-19T20:39:07Z</time>
      </trkpt>
      <trkpt lat="55.57651" lon="-5.18971">
        <ele>122.29</ele>
        <time>2021-03-19T20:39:11Z</time>
      </trkpt>
      <trkpt lat="55.57623" lon="-5.19019">
        <ele>125.89</ele>
        <time>2021-03-19T20:39:14Z</time>
      </trkpt>
      <trkpt lat="55.57602" lon="-5.19052">
        <ele>128.64</ele>
        <time>2021-03-19T20:39:18Z</time>
      </trkpt>
      <trkpt lat="55.57599" lon="-5.19062">
        <ele>129.19</ele>
        <time>2021-03-19T20:39:21Z</time>
      </trkpt>
      <trkpt lat="55.57598" lon="-5.19077">
        <ele>129.45</ele>
        <time>2021-03-19T20:39:25Z</time>
      </trkpt>
      <trkpt lat="55.57598" lon="-5.19091">
        <ele>129.37</ele>
        <time>2021-03-19T20:39:28Z</time>
      </trkpt>
      <trkpt lat="55.57614" lon="-5.19203">
        <ele>128.7</ele>
        <time>2021-03-19T20:39:32Z</time>
      </trkpt>
      <trkpt lat="55.57619" lon="-5.19256">
        <ele>128.46</ele>
        <time>2021-03-19T20:39:35Z</time>
      </trkpt>
      <trkpt lat="55.57615" lon="-5.19319">
        <ele>128.92</ele>
        <time>2021-03-19T20:39:39Z</time>
      </trkpt>
      <trkpt lat="55.57617" lon="-5.19378">
        <ele>131.61</ele>
        <time>2021-03-19T20:39:42Z</time>
      </trkpt>
      <trkpt lat="55.57601" lon="-5.19934">
        <ele>165.37</ele>
        <time>2021-03-19T20:39:46Z</time>
      </trkpt>
      <trkpt lat="55.57589" lon="-5.20527">
        <ele>204.96</ele>
        <time>2021-03-19T20:39:49Z</time>
      </trkpt>
      <trkpt lat="55.57585" lon="-5.20558">
        <ele>206.76</ele>
        <time>2021-03-19T20:39:53Z</time>
      </trkpt>
      <trkpt lat="55.57533" lon="-5.20789">
        <ele>225.08</ele>
        <time>2021-03-19T20:39:56Z</time>
      </trkpt>
      <trkpt lat="55.57521" lon="-5.20828">
        <ele>228.63</ele>
        <time>2021-03-19T20:40:00Z</time>
      </trkpt>
      <trkpt lat="55.57511" lon="-5.20852">
        <ele>230.72</ele>
        <time>2021-03-19T20:40:03Z</time>
      </trkpt>
      <trkpt lat="55.57501" lon="-5.20868">
        <ele>231.96</ele>
        <time>2021-03-19T20:40:07Z</time>
      </trkpt>
      <trkpt lat="55.57447" lon="-5.20918">
        <ele>235</ele>
        <time>2021-03-19T20:40:10Z</time>
      </trkpt>
      <trkpt lat="55.57405" lon="-5.20963">
        <ele>233.32</ele>
        <time>2021-03-19T20:40:13Z</time>
      </trkpt>
      <trkpt lat="55.57383" lon="-5.20978">
        <ele>231.96</ele>
        <time>2021-03-19T20:40:17Z</time>
      </trkpt>
      <trkpt lat="55.57343" lon="-5.20992">
        <ele>231.27</ele>
        <time>2021-03-19T20:40:20Z</time>
      </trkpt>
      <trkpt lat="55.57304" lon="-5.21017">
        <ele>230.81</ele>
        <time>2021-03-19T20:40:24Z</time>
      </trkpt>
      <trkpt lat="55.57285" lon="-5.21034">
        <ele>229.59</ele>
        <time>2021-03-19T20:40:27Z</time>
      </trkpt>
      <trkpt lat="55.57258" lon="-5.21067">
        <ele>227.81</ele>
        <time>2021-03-19T20:40:31Z</time>
      </trkpt>
      <trkpt lat="55.57236" lon="-5.21099">
        <ele>227.39</ele>
        <time>2021-03-19T20:40:34Z</time>
      </trkpt>
      <trkpt lat="55.57201" lon="-5.21192">
        <ele>224.89</ele>
        <time>2021-03-19T20:40:38Z</time>
      </trkpt>
      <trkpt lat="55.57194" lon="-5.21214">
        <ele>223.94</ele>
        <time>2021-03-19T20:40:41Z</time>
      </trkpt>
      <trkpt lat="55.57187" lon="-5.2125">
        <ele>222.79</ele>
        <time>2021-03-19T20:40:45Z</time>
      </trkpt>
      <trkpt lat="55.57162" lon="-5.21358">
        <ele>222.29</ele>
        <time>2021-03-19T20:40:48Z</time>
      </trkpt>
      <trkpt lat="55.57134" lon="-5.21463">
        <ele>220.35</ele>
        <time>2021-03-19T20:40:52Z</time>
      </trkpt>
      <trkpt lat="55.57119" lon="-5.21526">
        <ele>219.34</ele>
        <time>2021-03-19T20:40:55Z</time>
      </trkpt>
      <trkpt lat="55.57114" lon="-5.2156">
        <ele>217.7</ele>
        <time>2021-03-19T20:40:59Z</time>
      </trkpt>
      <trkpt lat="55.57106" lon="-5.21657">
        <ele>214.5</ele>
        <time>2021-03-19T20:41:02Z</time>
      </trkpt>
      <trkpt lat="55.57105" lon="-5.21726">
        <ele>211.32</ele>
        <time>2021-03-19T20:41:06Z</time>
      </trkpt>
      <trkpt lat="55.57105" lon="-5.21834">
        <ele>205.98</ele>
        <time>2021-03-19T20:41:09Z</time>
      </trkpt>
      <trkpt lat="55.57095" lon="-5.21885">
        <ele>204.26</ele>
        <time>2021-03-19T20:41:13Z</time>
      </trkpt>
      <trkpt lat="55.57086" lon="-5.21918">
        <ele>201.93</ele>
        <time>2021-03-19T20:41:16Z</time>
      </trkpt>
      <trkpt lat="55.57076" lon="-5.21983">
        <ele>197.04</ele>
        <time>2021-03-19T20:41:20Z</time>
      </trkpt>
      <trkpt lat="55.57067" lon="-5.22022">
        <ele>194.52</ele>
        <time>2021-03-19T20:41:23Z</time>
      </trkpt>
      <trkpt lat="55.57045" lon="-5.22094">
        <ele>192.23</ele>
        <time>2021-03-19T20:41:27Z</time>
      </trkpt>
      <trkpt lat="55.57025" lon="-5.22143">
        <ele>192.16</ele>
        <time>2021-03-19T20:41:30Z</time>
      </trkpt>
      <trkpt lat="55.5699" lon="-5.22221">
        <ele>190.26</ele>
        <time>2021-03-19T20:41:34Z</time>
      </trkpt>
      <trkpt lat="55.56982" lon="-5.22232">
        <ele>190.59</ele>
        <time>2021-03-19T20:41:37Z</time>
      </trkpt>
      <trkpt lat="55.56969" lon="-5.22242">
        <ele>191.9</ele>
        <time>2021-03-19T20:41:41Z</time>
      </trkpt>
      <trkpt lat="55.56953" lon="-5.22248">
        <ele>194.42</ele>
        <time>2021-03-19T20:41:44Z</time>
      </trkpt>
      <trkpt lat="55.56948" lon="-5.22255">
        <ele>194.74</ele>
        <time>2021-03-19T20:41:48Z</time>
      </trkpt>
      <trkpt lat="55.56946" lon="-5.22264">
        <ele>194.21</ele>
        <time>2021-03-19T20:41:51Z</time>
      </trkpt>
      <trkpt lat="55.56945" lon="-5.22284">
        <ele>192.25</ele>
        <time>2021-03-19T20:41:55Z</time>
      </trkpt>
      <trkpt lat="55.56951" lon="-5.22327">
        <ele>187.24</ele>
        <time>2021-03-19T20:41:58Z</time>
      </trkpt>
      <trkpt lat="55.56953" lon="-5.22352">
        <ele>184.97</ele>
        <time>2021-03-19T20:42:02Z</time>
      </trkpt>
      <trkpt lat="55.56946" lon="-5.22449">
        <ele>180.4</ele>
        <time>2021-03-19T20:42:05Z</time>
      </trkpt>
      <trkpt lat="55.56951" lon="-5.22675">
        <ele>167.15</ele>
        <time>2021-03-19T20:42:09Z</time>
      </trkpt>
      <trkpt lat="55.56954" lon="-5.22867">
        <ele>157.45</ele>
        <time>2021-03-19T20:42:12Z</time>
      </trkpt>
      <trkpt lat="55.56951" lon="-5.22893">
        <ele>157.05</ele>
        <time>2021-03-19T20:42:16Z</time>
      </trkpt>
      <trkpt lat="55.56936" lon="-5.22959">
        <ele>155.27</ele>
        <time>2021-03-19T20:42:19Z</time>
      </trkpt>
      <trkpt lat="55.56936" lon="-5.22972">
        <ele>154.84</ele>
        <time>2021-03-19T20:42:23Z</time>
      </trkpt>
      <trkpt lat="55.56943" lon="-5.23036">
        <ele>151.13</ele>
        <time>2021-03-19T20:42:26Z</time>
      </trkpt>
      <trkpt lat="55.56943" lon="-5.23062">
        <ele>150.23</ele>
        <time>2021-03-19T20:42:30Z</time>
      </trkpt>
      <trkpt lat="55.56938" lon="-5.23122">
        <ele>149.09</ele>
        <time>2021-03-19T20:42:33Z</time>
      </trkpt>
      <trkpt lat="55.56936" lon="-5.23161">
        <ele>148.02</ele>
        <time>2021-03-19T20:42:37Z</time>
      </trkpt>
      <trkpt lat="55.56945" lon="-5.23362">
        <ele>135.93</ele>
        <time>2021-03-19T20:42:40Z</time>
      </trkpt>
      <trkpt lat="55.56945" lon="-5.23426">
        <ele>133.97</ele>
        <time>2021-03-19T20:42:44Z</time>
      </trkpt>
      <trkpt lat="55.56941" lon="-5.23483">
        <ele>133.73</ele>
        <time>2021-03-19T20:42:47Z</time>
      </trkpt>
      <trkpt lat="55.56942" lon="-5.235">
        <ele>132.72</ele>
        <time>2021-03-19T20:42:51Z</time>
      </trkpt>
      <trkpt lat="55.56951" lon="-5.23553">
        <ele>130.21</ele>
        <time>2021-03-19T20:42:54Z</time>
      </trkpt>
      <trkpt lat="55.56964" lon="-5.23691">
        <ele>121.46</ele>
        <time>2021-03-19T20:42:58Z</time>
      </trkpt>
      <trkpt lat="55.56972" lon="-5.2379">
        <ele>118.57</ele>
        <time>2021-03-19T20:43:01Z</time>
      </trkpt>
      <trkpt lat="55.56975" lon="-5.23912">
        <ele>111.54</ele>
        <time>2021-03-19T20:43:05Z</time>
      </trkpt>
      <trkpt lat="55.56974" lon="-5.23959">
        <ele>109.88</ele>
        <time>2021-03-19T20:43:08Z</time>
      </trkpt>
      <trkpt lat="55.56971" lon="-5.24035">
        <ele>109.74</ele>
        <time>2021-03-19T20:43:12Z</time>
      </trkpt>
      <trkpt lat="55.56967" lon="-5.24071">
        <ele>110.5</ele>
        <time>2021-03-19T20:43:15Z</time>
      </trkpt>
      <trkpt lat="55.56966" lon="-5.24131">
        <ele>108.57</ele>
        <time>2021-03-19T20:43:19Z</time>
      </trkpt>
      <trkpt lat="55.56962" lon="-5.24214">
        <ele>105.43</ele>
        <time>2021-03-19T20:43:22Z</time>
      </trkpt>
      <trkpt lat="55.56962" lon="-5.24413">
        <ele>96.79</ele>
        <time>2021-03-19T20:43:26Z</time>
      </trkpt>
      <trkpt lat="55.56958" lon="-5.24562">
        <ele>93.54</ele>
        <time>2021-03-19T20:43:29Z</time>
      </trkpt>
      <trkpt lat="55.56951" lon="-5.24655">
        <ele>92.7</ele>
        <time>2021-03-19T20:43:32Z</time>
      </trkpt>
      <trkpt lat="55.56947" lon="-5.24685">
        <ele>92.01</ele>
        <time>2021-03-19T20:43:36Z</time>
      </trkpt>
      <trkpt lat="55.56936" lon="-5.24732">
        <ele>92.45</ele>
        <time>2021-03-19T20:43:39Z</time>
      </trkpt>
      <trkpt lat="55.56916" lon="-5.24797">
        <ele>92.02</ele>
        <time>2021-03-19T20:43:43Z</time>
      </trkpt>
      <trkpt lat="55.56873" lon="-5.24894">
        <ele>89.08</ele>
        <time>2021-03-19T20:43:46Z</time>
      </trkpt>
      <trkpt lat="55.56857" lon="-5.24937">
        <ele>88.38</ele>
        <time>2021-03-19T20:43:50Z</time>
      </trkpt>
      <trkpt lat="55.56848" lon="-5.24969">
        <ele>88.11</ele>
        <time>2021-03-19T20:43:53Z</time>
      </trkpt>
      <trkpt lat="55.56808" lon="-5.25131">
        <ele>86.85</ele>
        <time>2021-03-19T20:43:57Z</time>
      </trkpt>
      <trkpt lat="55.56789" lon="-5.25217">
        <ele>87.04</ele>
        <time>2021-03-19T20:44:00Z</time>
      </trkpt>
      <trkpt lat="55.56611" lon="-5.25822">
        <ele>82.99</ele>
        <time>2021-03-19T20:44:04Z</time>
      </trkpt>
      <trkpt lat="55.56596" lon="-5.2587">
        <ele>83.11</ele>
        <time>2021-03-19T20:44:07Z</time>
      </trkpt>
      <trkpt lat="55.56553" lon="-5.25955">
        <ele>84.8</ele>
        <time>2021-03-19T20:44:11Z</time>
      </trkpt>
      <trkpt lat="55.56482" lon="-5.26123">
        <ele>81.86</ele>
        <time>2021-03-19T20:44:14Z</time>
      </trkpt>
      <trkpt lat="55.56454" lon="-5.26239">
        <ele>80.31</ele>
        <time>2021-03-19T20:44:18Z</time>
      </trkpt>
      <trkpt lat="55.56438" lon="-5.26317">
        <ele>78.5</ele>
        <time>2021-03-19T20:44:21Z</time>
      </trkpt>
      <trkpt lat="55.56405" lon="-5.26516">
        <ele>81.82</ele>
        <time>2021-03-19T20:44:25Z</time>
      </trkpt>
      <trkpt lat="55.56383" lon="-5.26664">
        <ele>83.61</ele>
        <time>2021-03-19T20:44:28Z</time>
      </trkpt>
      <trkpt lat="55.56312" lon="-5.2702">
        <ele>74.14</ele>
        <time>2021-03-19T20:44:32Z</time>
      </trkpt>
      <trkpt lat="55.56304" lon="-5.27046">
        <ele>73.56</ele>
        <time>2021-03-19T20:44:35Z</time>
      </trkpt>
      <trkpt lat="55.56274" lon="-5.27115">
        <ele>72.14</ele>
        <time>2021-03-19T20:44:39Z</time>
      </trkpt>
      <trkpt lat="55.56228" lon="-5.27215">
        <ele>69.1</ele>
        <time>2021-03-19T20:44:42Z</time>
      </trkpt>
      <trkpt lat="55.56166" lon="-5.27339">
        <ele>68.61</ele>
        <time>2021-03-19T20:44:46Z</time>
      </trkpt>
      <trkpt lat="55.56128" lon="-5.2741">
        <ele>68.76</ele>
        <time>2021-03-19T20:44:49Z</time>
      </trkpt>
      <trkpt lat="55.56083" lon="-5.27464">
        <ele>67.95</ele>
        <time>2021-03-19T20:44:53Z</time>
      </trkpt>
      <trkpt lat="55.56047" lon="-5.27499">
        <ele>68.41</ele>
        <time>2021-03-19T20:44:56Z</time>
      </trkpt>
      <trkpt lat="55.55907" lon="-5.2758">
        <ele>65.95</ele>
        <time>2021-03-19T20:45:00Z</time>
      </trkpt>
      <trkpt lat="55.55871" lon="-5.27609">
        <ele>65.53</ele>
        <time>2021-03-19T20:45:03Z</time>
      </trkpt>
      <trkpt lat="55.55856" lon="-5.27624">
        <ele>65.8</ele>
        <time>2021-03-19T20:45:07Z</time>
      </trkpt>
      <trkpt lat="55.55848" lon="-5.27635">
        <ele>65.69</ele>
        <time>2021-03-19T20:45:10Z</time>
      </trkpt>
      <trkpt lat="55.55796" lon="-5.2772">
        <ele>64.15</ele>
        <time>2021-03-19T20:45:14Z</time>
      </trkpt>
      <trkpt lat="55.55775" lon="-5.27753">
        <ele>65.42</ele>
        <time>2021-03-19T20:45:17Z</time>
      </trkpt>
      <trkpt lat="55.55715" lon="-5.27835">
        <ele>64.11</ele>
        <time>2021-03-19T20:45:21Z</time>
      </trkpt>
      <trkpt lat="55.55666" lon="-5.27888">
        <ele>64.07</ele>
        <time>2021-03-19T20:45:24Z</time>
      </trkpt>
      <trkpt lat="55.55606" lon="-5.27938">
        <ele>63.58</ele>
        <time>2021-03-19T20:45:28Z</time>
      </trkpt>
      <trkpt lat="55.55584" lon="-5.27975">
        <ele>63.96</ele>
        <time>2021-03-19T20:45:31Z</time>
      </trkpt>
      <trkpt lat="55.5556" lon="-5.28033">
        <ele>66.5</ele>
        <time>2021-03-19T20:45:35Z</time>
      </trkpt>
      <trkpt lat="55.55527" lon="-5.28097">
        <ele>67.57</ele>
        <time>2021-03-19T20:45:38Z</time>
      </trkpt>
      <trkpt lat="55.55504" lon="-5.2813">
        <ele>68</ele>
        <time>2021-03-19T20:45:42Z</time>
      </trkpt>
      <trkpt lat="55.55452" lon="-5.28185">
        <ele>71.47</ele>
        <time>2021-03-19T20:45:45Z</time>
      </trkpt>
      <trkpt lat="55.55425" lon="-5.28217">
        <ele>71.88</ele>
        <time>2021-03-19T20:45:49Z</time>
      </trkpt>
      <trkpt lat="55.55379" lon="-5.28296">
        <ele>70.53</ele>
        <time>2021-03-19T20:45:52Z</time>
      </trkpt>
      <trkpt lat="55.55369" lon="-5.28309">
        <ele>70.15</ele>
        <time>2021-03-19T20:45:56Z</time>
      </trkpt>
      <trkpt lat="55.55356" lon="-5.28317">
        <ele>70.17</ele>
        <time>2021-03-19T20:45:59Z</time>
      </trkpt>
      <trkpt lat="55.55342" lon="-5.28321">
        <ele>70.78</ele>
        <time>2021-03-19T20:46:03Z</time>
      </trkpt>
      <trkpt lat="55.55231" lon="-5.28331">
        <ele>76.17</ele>
        <time>2021-03-19T20:46:06Z</time>
      </trkpt>
      <trkpt lat="55.55128" lon="-5.28356">
        <ele>75.14</ele>
        <time>2021-03-19T20:46:10Z</time>
      </trkpt>
      <trkpt lat="55.55095" lon="-5.28368">
        <ele>76.1</ele>
        <time>2021-03-19T20:46:13Z</time>
      </trkpt>
      <trkpt lat="55.54976" lon="-5.28426">
        <ele>73.94</ele>
        <time>2021-03-19T20:46:17Z</time>
      </trkpt>
      <trkpt lat="55.54939" lon="-5.28456">
        <ele>72.53</ele>
        <time>2021-03-19T20:46:20Z</time>
      </trkpt>
      <trkpt lat="55.54867" lon="-5.28524">
        <ele>69.25</ele>
        <time>2021-03-19T20:46:24Z</time>
      </trkpt>
      <trkpt lat="55.54854" lon="-5.28534">
        <ele>69.23</ele>
        <time>2021-03-19T20:46:27Z</time>
      </trkpt>
      <trkpt lat="55.54839" lon="-5.28542">
        <ele>69.7</ele>
        <time>2021-03-19T20:46:31Z</time>
      </trkpt>
      <trkpt lat="55.5475" lon="-5.28575">
        <ele>69.28</ele>
        <time>2021-03-19T20:46:34Z</time>
      </trkpt>
      <trkpt lat="55.54713" lon="-5.28586">
        <ele>67.88</ele>
        <time>2021-03-19T20:46:38Z</time>
      </trkpt>
      <trkpt lat="55.54656" lon="-5.28598">
        <ele>67.56</ele>
        <time>2021-03-19T20:46:41Z</time>
      </trkpt>
      <trkpt lat="55.54641" lon="-5.28597">
        <ele>67.11</ele>
        <time>2021-03-19T20:46:44Z</time>
      </trkpt>
      <trkpt lat="55.54575" lon="-5.28581">
        <ele>65.18</ele>
        <time>2021-03-19T20:46:48Z</time>
      </trkpt>
      <trkpt lat="55.54483" lon="-5.28552">
        <ele>67.14</ele>
        <time>2021-03-19T20:46:51Z</time>
      </trkpt>
      <trkpt lat="55.54443" lon="-5.2855">
        <ele>68.19</ele>
        <time>2021-03-19T20:46:55Z</time>
      </trkpt>
      <trkpt lat="55.54412" lon="-5.28554">
        <ele>68.41</ele>
        <time>2021-03-19T20:46:58Z</time>
      </trkpt>
      <trkpt lat="55.54345" lon="-5.28572">
        <ele>70.06</ele>
        <time>2021-03-19T20:47:02Z</time>
      </trkpt>
      <trkpt lat="55.54262" lon="-5.28587">
        <ele>71.42</ele>
        <time>2021-03-19T20:47:05Z</time>
      </trkpt>
      <trkpt lat="55.54181" lon="-5.28623">
        <ele>72.06</ele>
        <time>2021-03-19T20:47:09Z</time>
      </trkpt>
      <trkpt lat="55.54105" lon="-5.28636">
        <ele>71.19</ele>
        <time>2021-03-19T20:47:12Z</time>
      </trkpt>
      <trkpt lat="55.53964" lon="-5.2867">
        <ele>69.87</ele>
        <time>2021-03-19T20:47:16Z</time>
      </trkpt>
      <trkpt lat="55.53919" lon="-5.28691">
        <ele>69.14</ele>
        <time>2021-03-19T20:47:19Z</time>
      </trkpt>
      <trkpt lat="55.53842" lon="-5.28731">
        <ele>66.69</ele>
        <time>2021-03-19T20:47:23Z</time>
      </trkpt>
      <trkpt lat="55.53814" lon="-5.2874">
        <ele>66.35</ele>
        <time>2021-03-19T20:47:26Z</time>
      </trkpt>
      <trkpt lat="55.53635" lon="-5.28746">
        <ele>63.27</ele>
        <time>2021-03-19T20:47:30Z</time>
      </trkpt>
      <trkpt lat="55.53556" lon="-5.28764">
        <ele>66.44</ele>
        <time>2021-03-19T20:47:33Z</time>
      </trkpt>
      <trkpt lat="55.53485" lon="-5.28777">
        <ele>65.04</ele>
        <time>2021-03-19T20:47:37Z</time>
      </trkpt>
      <trkpt lat="55.53317" lon="-5.28834">
        <ele>60.15</ele>
        <time>2021-03-19T20:47:40Z</time>
      </trkpt>
      <trkpt lat="55.5319" lon="-5.28909">
        <ele>59.88</ele>
        <time>2021-03-19T20:47:44Z</time>
      </trkpt>
      <trkpt lat="55.5313" lon="-5.29004">
        <ele>53.64</ele>
        <time>2021-03-19T20:47:47Z</time>
      </trkpt>
      <trkpt lat="55.53119" lon="-5.29017">
        <ele>53.49</ele>
        <time>2021-03-19T20:47:51Z</time>
      </trkpt>
      <trkpt lat="55.53072" lon="-5.29059">
        <ele>52.65</ele>
        <time>2021-03-19T20:47:54Z</time>
      </trkpt>
      <trkpt lat="55.53022" lon="-5.29092">
        <ele>51.94</ele>
        <time>2021-03-19T20:47:58Z</time>
      </trkpt>
      <trkpt lat="55.52957" lon="-5.29145">
        <ele>52.87</ele>
        <time>2021-03-19T20:48:01Z</time>
      </trkpt>
      <trkpt lat="55.5266" lon="-5.29394">
        <ele>55.24</ele>
        <time>2021-03-19T20:48:05Z</time>
      </trkpt>
      <trkpt lat="55.52612" lon="-5.29432">
        <ele>55.86</ele>
        <time>2021-03-19T20:48:08Z</time>
      </trkpt>
      <trkpt lat="55.52315" lon="-5.29619">
        <ele>57.52</ele>
        <time>2021-03-19T20:48:12Z</time>
      </trkpt>
      <trkpt lat="55.52249" lon="-5.29665">
        <ele>58.81</ele>
        <time>2021-03-19T20:48:15Z</time>
      </trkpt>
      <trkpt lat="55.52246" lon="-5.29668">
        <ele>58.35</ele>
        <time>2021-03-19T20:48:19Z</time>
      </trkpt>
      <trkpt lat="55.52229" lon="-5.29683">
        <ele>55.32</ele>
        <time>2021-03-19T20:48:22Z</time>
      </trkpt>
      <trkpt lat="55.5222" lon="-5.29695">
        <ele>54.18</ele>
        <time>2021-03-19T20:48:26Z</time>
      </trkpt>
      <trkpt lat="55.52214" lon="-5.29721">
        <ele>54.33</ele>
        <time>2021-03-19T20:48:29Z</time>
      </trkpt>
      <trkpt lat="55.52232" lon="-5.29969">
        <ele>46.12</ele>
        <time>2021-03-19T20:48:33Z</time>
      </trkpt>
      <trkpt lat="55.52231" lon="-5.29994">
        <ele>45.45</ele>
        <time>2021-03-19T20:48:36Z</time>
      </trkpt>
      <trkpt lat="55.52128" lon="-5.30422">
        <ele>36</ele>
        <time>2021-03-19T20:48:40Z</time>
      </trkpt>
      <trkpt lat="55.52092" lon="-5.30561">
        <ele>34.5</ele>
        <time>2021-03-19T20:48:43Z</time>
      </trkpt>
      <trkpt lat="55.52085" lon="-5.30577">
        <ele>34.17</ele>
        <time>2021-03-19T20:48:47Z</time>
      </trkpt>
      <trkpt lat="55.52073" lon="-5.30594">
        <ele>34.37</ele>
        <time>2021-03-19T20:48:50Z</time>
      </trkpt>
      <trkpt lat="55.52046" lon="-5.30624">
        <ele>34.53</ele>
        <time>2021-03-19T20:48:54Z</time>
      </trkpt>
      <trkpt lat="55.51863" lon="-5.30779">
        <ele>31.78</ele>
        <time>2021-03-19T20:48:57Z</time>
      </trkpt>
      <trkpt lat="55.51639" lon="-5.31026">
        <ele>29.99</ele>
        <time>2021-03-19T20:49:01Z</time>
      </trkpt>
      <trkpt lat="55.51607" lon="-5.31055">
        <ele>32.15</ele>
        <time>2021-03-19T20:49:04Z</time>
      </trkpt>
      <trkpt lat="55.51571" lon="-5.31081">
        <ele>32.5</ele>
        <time>2021-03-19T20:49:08Z</time>
      </trkpt>
      <trkpt lat="55.51422" lon="-5.31173">
        <ele>33.76</ele>
        <time>2021-03-19T20:49:11Z</time>
      </trkpt>
      <trkpt lat="55.51404" lon="-5.31186">
        <ele>33.74</ele>
        <time>2021-03-19T20:49:15Z</time>
      </trkpt>
      <trkpt lat="55.51371" lon="-5.31222">
        <ele>33.67</ele>
        <time>2021-03-19T20:49:18Z</time>
      </trkpt>
      <trkpt lat="55.51" lon="-5.3168">
        <ele>21.56</ele>
        <time>2021-03-19T20:49:22Z</time>
      </trkpt>
      <trkpt lat="55.50979" lon="-5.31702">
        <ele>22.23</ele>
        <time>2021-03-19T20:49:25Z</time>
      </trkpt>
      <trkpt lat="55.50963" lon="-5.31716">
        <ele>22.23</ele>
        <time>2021-03-19T20:49:29Z</time>
      </trkpt>
      <trkpt lat="55.50737" lon="-5.31864">
        <ele>18.61</ele>
        <time>2021-03-19T20:49:32Z</time>
      </trkpt>
      <trkpt lat="55.50737" lon="-5.31864">
        <ele>18.61</ele>
        <time>2021-03-19T20:49:32Z</time>
      </trkpt>
      <trkpt lat="55.50549" lon="-5.31988">
        <ele>19.14</ele>
        <time>2021-03-19T20:49:35Z</time>
      </trkpt>
      <trkpt lat="55.50512" lon="-5.3202">
        <ele>19.94</ele>
        <time>2021-03-19T20:49:37Z</time>
      </trkpt>
      <trkpt lat="55.50491" lon="-5.32055">
        <ele>19.67</ele>
        <time>2021-03-19T20:49:40Z</time>
      </trkpt>
      <trkpt lat="55.50477" lon="-5.32099">
        <ele>20.68</ele>
        <time>2021-03-19T20:49:42Z</time>
      </trkpt>
      <trkpt lat="55.50468" lon="-5.32134">
        <ele>20.33</ele>
        <time>2021-03-19T20:49:45Z</time>
      </trkpt>
      <trkpt lat="55.50455" lon="-5.32176">
        <ele>19.28</ele>
        <time>2021-03-19T20:49:47Z</time>
      </trkpt>
      <trkpt lat="55.50446" lon="-5.32196">
        <ele>18.88</ele>
        <time>2021-03-19T20:49:50Z</time>
      </trkpt>
      <trkpt lat="55.5037" lon="-5.32326">
        <ele>18.25</ele>
        <time>2021-03-19T20:49:52Z</time>
      </trkpt>
      <trkpt lat="55.50353" lon="-5.32351">
        <ele>17.07</ele>
        <time>2021-03-19T20:49:55Z</time>
      </trkpt>
      <trkpt lat="55.50353" lon="-5.3236">
        <ele>16.75</ele>
        <time>2021-03-19T20:50:00Z</time>
      </trkpt>
      <trkpt lat="55.50222" lon="-5.33022">
        <ele>11.99</ele>
        <time>2021-03-19T20:50:06Z</time>
      </trkpt>
      <trkpt lat="55.50175" lon="-5.33249">
        <ele>6.77</ele>
        <time>2021-03-19T20:50:11Z</time>
      </trkpt>
      <trkpt lat="55.50176" lon="-5.33266">
        <ele>6.11</ele>
        <time>2021-03-19T20:50:17Z</time>
      </trkpt>
      <trkpt lat="55.50178" lon="-5.33273">
        <ele>5.77</ele>
        <time>2021-03-19T20:50:22Z</time>
      </trkpt>
      <trkpt lat="55.50187" lon="-5.33282">
        <ele>5.11</ele>
        <time>2021-03-19T20:50:28Z</time>
      </trkpt>
      <trkpt lat="55.50193" lon="-5.33283">
        <ele>4.87</ele>
        <time>2021-03-19T20:50:33Z</time>
      </trkpt>
      <trkpt lat="55.502" lon="-5.33288">
        <ele>4.58</ele>
        <time>2021-03-19T20:50:38Z</time>
      </trkpt>
      <trkpt lat="55.50212" lon="-5.33308">
        <ele>4.62</ele>
        <time>2021-03-19T20:50:44Z</time>
      </trkpt>
      <trkpt lat="55.50216" lon="-5.3335">
        <ele>4.62</ele>
        <time>2021-03-19T20:50:49Z</time>
      </trkpt>
      <trkpt lat="55.50209" lon="-5.3347">
        <ele>4.03</ele>
        <time>2021-03-19T20:50:55Z</time>
      </trkpt>
      <trkpt lat="55.50211" lon="-5.33487">
        <ele>4.22</ele>
        <time>2021-03-19T20:51:00Z</time>
      </trkpt>
      <trkpt lat="55.50262" lon="-5.3361">
        <ele>5.24</ele>
        <time>2021-03-19T20:51:06Z</time>
      </trkpt>
      <trkpt lat="55.50266" lon="-5.33615">
        <ele>5.72</ele>
        <time>2021-03-19T20:51:11Z</time>
      </trkpt>
      <trkpt lat="55.50275" lon="-5.3362">
        <ele>7.07</ele>
        <time>2021-03-19T20:51:16Z</time>
      </trkpt>
      <trkpt lat="55.50349" lon="-5.33613">
        <ele>13.76</ele>
        <time>2021-03-19T20:51:22Z</time>
      </trkpt>
      <trkpt lat="55.50385" lon="-5.33618">
        <ele>17.73</ele>
        <time>2021-03-19T20:51:27Z</time>
      </trkpt>
      <trkpt lat="55.50385" lon="-5.33618">
        <ele>17.73</ele>
        <time>2021-03-19T20:51:27Z</time>
      </trkpt>
      <trkpt lat="55.50458" lon="-5.33624">
        <ele>20.39</ele>
        <time>2021-03-19T20:51:31Z</time>
      </trkpt>
      <trkpt lat="55.50476" lon="-5.33615">
        <ele>21.25</ele>
        <time>2021-03-19T20:51:34Z</time>
      </trkpt>
      <trkpt lat="55.50655" lon="-5.33444">
        <ele>23.57</ele>
        <time>2021-03-19T20:51:38Z</time>
      </trkpt>
      <trkpt lat="55.50744" lon="-5.33347">
        <ele>25.38</ele>
        <time>2021-03-19T20:51:42Z</time>
      </trkpt>
      <trkpt lat="55.50806" lon="-5.33276">
        <ele>26.01</ele>
        <time>2021-03-19T20:51:45Z</time>
      </trkpt>
      <trkpt lat="55.50832" lon="-5.33255">
        <ele>28.27</ele>
        <time>2021-03-19T20:51:49Z</time>
      </trkpt>
      <trkpt lat="55.50917" lon="-5.33198">
        <ele>31.31</ele>
        <time>2021-03-19T20:51:52Z</time>
      </trkpt>
      <trkpt lat="55.50958" lon="-5.33176">
        <ele>34.53</ele>
        <time>2021-03-19T20:51:56Z</time>
      </trkpt>
      <trkpt lat="55.51016" lon="-5.33154">
        <ele>38.04</ele>
        <time>2021-03-19T20:51:59Z</time>
      </trkpt>
      <trkpt lat="55.51043" lon="-5.3314">
        <ele>39.14</ele>
        <time>2021-03-19T20:52:03Z</time>
      </trkpt>
      <trkpt lat="55.51132" lon="-5.33065">
        <ele>41.96</ele>
        <time>2021-03-19T20:52:06Z</time>
      </trkpt>
      <trkpt lat="55.51161" lon="-5.33036">
        <ele>42.85</ele>
        <time>2021-03-19T20:52:10Z</time>
      </trkpt>
      <trkpt lat="55.51387" lon="-5.32742">
        <ele>32.04</ele>
        <time>2021-03-19T20:52:13Z</time>
      </trkpt>
      <trkpt lat="55.51405" lon="-5.32721">
        <ele>29.95</ele>
        <time>2021-03-19T20:52:17Z</time>
      </trkpt>
      <trkpt lat="55.5156" lon="-5.32626">
        <ele>24.11</ele>
        <time>2021-03-19T20:52:20Z</time>
      </trkpt>
      <trkpt lat="55.51626" lon="-5.32608">
        <ele>24.29</ele>
        <time>2021-03-19T20:52:24Z</time>
      </trkpt>
      <trkpt lat="55.51843" lon="-5.32563">
        <ele>20</ele>
        <time>2021-03-19T20:52:28Z</time>
      </trkpt>
      <trkpt lat="55.51864" lon="-5.3256">
        <ele>20</ele>
        <time>2021-03-19T20:52:31Z</time>
      </trkpt>
      <trkpt lat="55.5191" lon="-5.32564">
        <ele>19.46</ele>
        <time>2021-03-19T20:52:35Z</time>
      </trkpt>
      <trkpt lat="55.52013" lon="-5.32586">
        <ele>20.63</ele>
        <time>2021-03-19T20:52:38Z</time>
      </trkpt>
      <trkpt lat="55.52044" lon="-5.32597">
        <ele>21.05</ele>
        <time>2021-03-19T20:52:42Z</time>
      </trkpt>
      <trkpt lat="55.52058" lon="-5.32609">
        <ele>22</ele>
        <time>2021-03-19T20:52:45Z</time>
      </trkpt>
      <trkpt lat="55.52079" lon="-5.32649">
        <ele>24.2</ele>
        <time>2021-03-19T20:52:49Z</time>
      </trkpt>
      <trkpt lat="55.52101" lon="-5.3271">
        <ele>27.19</ele>
        <time>2021-03-19T20:52:52Z</time>
      </trkpt>
      <trkpt lat="55.52107" lon="-5.32715">
        <ele>27.59</ele>
        <time>2021-03-19T20:52:56Z</time>
      </trkpt>
      <trkpt lat="55.52115" lon="-5.3272">
        <ele>28.07</ele>
        <time>2021-03-19T20:52:59Z</time>
      </trkpt>
      <trkpt lat="55.5219" lon="-5.32743">
        <ele>32.29</ele>
        <time>2021-03-19T20:53:03Z</time>
      </trkpt>
      <trkpt lat="55.522" lon="-5.32748">
        <ele>33.01</ele>
        <time>2021-03-19T20:53:06Z</time>
      </trkpt>
      <trkpt lat="55.52222" lon="-5.32766">
        <ele>34.56</ele>
        <time>2021-03-19T20:53:10Z</time>
      </trkpt>
      <trkpt lat="55.52297" lon="-5.3284">
        <ele>39.08</ele>
        <time>2021-03-19T20:53:13Z</time>
      </trkpt>
      <trkpt lat="55.52329" lon="-5.32885">
        <ele>43.38</ele>
        <time>2021-03-19T20:53:17Z</time>
      </trkpt>
      <trkpt lat="55.52366" lon="-5.32918">
        <ele>45.08</ele>
        <time>2021-03-19T20:53:21Z</time>
      </trkpt>
      <trkpt lat="55.52408" lon="-5.32974">
        <ele>48.07</ele>
        <time>2021-03-19T20:53:24Z</time>
      </trkpt>
      <trkpt lat="55.52444" lon="-5.32999">
        <ele>48.95</ele>
        <time>2021-03-19T20:53:28Z</time>
      </trkpt>
      <trkpt lat="55.52506" lon="-5.33024">
        <ele>52.65</ele>
        <time>2021-03-19T20:53:31Z</time>
      </trkpt>
      <trkpt lat="55.52539" lon="-5.33033">
        <ele>53.79</ele>
        <time>2021-03-19T20:53:35Z</time>
      </trkpt>
      <trkpt lat="55.52586" lon="-5.33039">
        <ele>55.15</ele>
        <time>2021-03-19T20:53:38Z</time>
      </trkpt>
      <trkpt lat="55.527" lon="-5.3304">
        <ele>56.35</ele>
        <time>2021-03-19T20:53:42Z</time>
      </trkpt>
      <trkpt lat="55.52739" lon="-5.33053">
        <ele>58.27</ele>
        <time>2021-03-19T20:53:45Z</time>
      </trkpt>
      <trkpt lat="55.52774" lon="-5.33071">
        <ele>58.55</ele>
        <time>2021-03-19T20:53:49Z</time>
      </trkpt>
      <trkpt lat="55.52792" lon="-5.33085">
        <ele>57.64</ele>
        <time>2021-03-19T20:53:52Z</time>
      </trkpt>
      <trkpt lat="55.52851" lon="-5.33147">
        <ele>56.12</ele>
        <time>2021-03-19T20:53:56Z</time>
      </trkpt>
      <trkpt lat="55.52876" lon="-5.33166">
        <ele>54.4</ele>
        <time>2021-03-19T20:53:59Z</time>
      </trkpt>
      <trkpt lat="55.52943" lon="-5.3321">
        <ele>51.66</ele>
        <time>2021-03-19T20:54:03Z</time>
      </trkpt>
      <trkpt lat="55.52952" lon="-5.33213">
        <ele>51.39</ele>
        <time>2021-03-19T20:54:07Z</time>
      </trkpt>
      <trkpt lat="55.52993" lon="-5.33215">
        <ele>48.49</ele>
        <time>2021-03-19T20:54:10Z</time>
      </trkpt>
      <trkpt lat="55.53061" lon="-5.33215">
        <ele>45.35</ele>
        <time>2021-03-19T20:54:14Z</time>
      </trkpt>
      <trkpt lat="55.53224" lon="-5.33208">
        <ele>40.01</ele>
        <time>2021-03-19T20:54:17Z</time>
      </trkpt>
      <trkpt lat="55.53267" lon="-5.33216">
        <ele>38.67</ele>
        <time>2021-03-19T20:54:21Z</time>
      </trkpt>
      <trkpt lat="55.53299" lon="-5.33217">
        <ele>35.46</ele>
        <time>2021-03-19T20:54:24Z</time>
      </trkpt>
      <trkpt lat="55.53316" lon="-5.33215">
        <ele>34.01</ele>
        <time>2021-03-19T20:54:28Z</time>
      </trkpt>
      <trkpt lat="55.53487" lon="-5.33174">
        <ele>26.74</ele>
        <time>2021-03-19T20:54:31Z</time>
      </trkpt>
      <trkpt lat="55.53514" lon="-5.33173">
        <ele>26.11</ele>
        <time>2021-03-19T20:54:35Z</time>
      </trkpt>
      <trkpt lat="55.53522" lon="-5.33175">
        <ele>26.07</ele>
        <time>2021-03-19T20:54:38Z</time>
      </trkpt>
      <trkpt lat="55.53531" lon="-5.33183">
        <ele>25.88</ele>
        <time>2021-03-19T20:54:42Z</time>
      </trkpt>
      <trkpt lat="55.5369" lon="-5.33371">
        <ele>20.65</ele>
        <time>2021-03-19T20:54:45Z</time>
      </trkpt>
      <trkpt lat="55.53787" lon="-5.33479">
        <ele>19.68</ele>
        <time>2021-03-19T20:54:49Z</time>
      </trkpt>
      <trkpt lat="55.53822" lon="-5.33522">
        <ele>19</ele>
        <time>2021-03-19T20:54:53Z</time>
      </trkpt>
      <trkpt lat="55.53837" lon="-5.33548">
        <ele>18.85</ele>
        <time>2021-03-19T20:54:56Z</time>
      </trkpt>
      <trkpt lat="55.53854" lon="-5.33591">
        <ele>18</ele>
        <time>2021-03-19T20:55:00Z</time>
      </trkpt>
      <trkpt lat="55.53861" lon="-5.33602">
        <ele>18</ele>
        <time>2021-03-19T20:55:03Z</time>
      </trkpt>
      <trkpt lat="55.53917" lon="-5.33663">
        <ele>18</ele>
        <time>2021-03-19T20:55:07Z</time>
      </trkpt>
      <trkpt lat="55.53961" lon="-5.33729">
        <ele>17.41</ele>
        <time>2021-03-19T20:55:10Z</time>
      </trkpt>
      <trkpt lat="55.54006" lon="-5.33774">
        <ele>16.6</ele>
        <time>2021-03-19T20:55:14Z</time>
      </trkpt>
      <trkpt lat="55.54051" lon="-5.33813">
        <ele>14.32</ele>
        <time>2021-03-19T20:55:17Z</time>
      </trkpt>
      <trkpt lat="55.54075" lon="-5.33819">
        <ele>13.3</ele>
        <time>2021-03-19T20:55:21Z</time>
      </trkpt>
      <trkpt lat="55.54453" lon="-5.33813">
        <ele>8.59</ele>
        <time>2021-03-19T20:55:24Z</time>
      </trkpt>
      <trkpt lat="55.54576" lon="-5.33821">
        <ele>9.28</ele>
        <time>2021-03-19T20:55:28Z</time>
      </trkpt>
      <trkpt lat="55.54616" lon="-5.33815">
        <ele>7.84</ele>
        <time>2021-03-19T20:55:31Z</time>
      </trkpt>
      <trkpt lat="55.54637" lon="-5.33813">
        <ele>7.06</ele>
        <time>2021-03-19T20:55:35Z</time>
      </trkpt>
      <trkpt lat="55.54652" lon="-5.33818">
        <ele>7</ele>
        <time>2021-03-19T20:55:39Z</time>
      </trkpt>
      <trkpt lat="55.54677" lon="-5.3384">
        <ele>6.86</ele>
        <time>2021-03-19T20:55:42Z</time>
      </trkpt>
      <trkpt lat="55.54689" lon="-5.33847">
        <ele>6.68</ele>
        <time>2021-03-19T20:55:46Z</time>
      </trkpt>
      <trkpt lat="55.54701" lon="-5.33844">
        <ele>5.93</ele>
        <time>2021-03-19T20:55:49Z</time>
      </trkpt>
      <trkpt lat="55.5481" lon="-5.33786">
        <ele>5.05</ele>
        <time>2021-03-19T20:55:53Z</time>
      </trkpt>
      <trkpt lat="55.54832" lon="-5.33767">
        <ele>5</ele>
        <time>2021-03-19T20:55:56Z</time>
      </trkpt>
      <trkpt lat="55.54879" lon="-5.33719">
        <ele>5.13</ele>
        <time>2021-03-19T20:56:00Z</time>
      </trkpt>
      <trkpt lat="55.549" lon="-5.33706">
        <ele>5.16</ele>
        <time>2021-03-19T20:56:03Z</time>
      </trkpt>
      <trkpt lat="55.54913" lon="-5.33702">
        <ele>4.87</ele>
        <time>2021-03-19T20:56:07Z</time>
      </trkpt>
      <trkpt lat="55.54934" lon="-5.33703">
        <ele>4.07</ele>
        <time>2021-03-19T20:56:10Z</time>
      </trkpt>
      <trkpt lat="55.5495" lon="-5.33715">
        <ele>3.22</ele>
        <time>2021-03-19T20:56:14Z</time>
      </trkpt>
      <trkpt lat="55.54954" lon="-5.33722">
        <ele>3.01</ele>
        <time>2021-03-19T20:56:17Z</time>
      </trkpt>
      <trkpt lat="55.5496" lon="-5.33743">
        <ele>3.42</ele>
        <time>2021-03-19T20:56:21Z</time>
      </trkpt>
      <trkpt lat="55.5496" lon="-5.3377">
        <ele>3.56</ele>
        <time>2021-03-19T20:56:24Z</time>
      </trkpt>
      <trkpt lat="55.54955" lon="-5.33815">
        <ele>4.39</ele>
        <time>2021-03-19T20:56:28Z</time>
      </trkpt>
      <trkpt lat="55.54955" lon="-5.33864">
        <ele>4.38</ele>
        <time>2021-03-19T20:56:32Z</time>
      </trkpt>
      <trkpt lat="55.5496" lon="-5.33913">
        <ele>4.57</ele>
        <time>2021-03-19T20:56:35Z</time>
      </trkpt>
      <trkpt lat="55.54967" lon="-5.33936">
        <ele>4.82</ele>
        <time>2021-03-19T20:56:39Z</time>
      </trkpt>
      <trkpt lat="55.54975" lon="-5.33956">
        <ele>4.81</ele>
        <time>2021-03-19T20:56:42Z</time>
      </trkpt>
      <trkpt lat="55.5499" lon="-5.33982">
        <ele>5.05</ele>
        <time>2021-03-19T20:56:46Z</time>
      </trkpt>
      <trkpt lat="55.55062" lon="-5.34065">
        <ele>3.79</ele>
        <time>2021-03-19T20:56:49Z</time>
      </trkpt>
      <trkpt lat="55.55129" lon="-5.34128">
        <ele>3.67</ele>
        <time>2021-03-19T20:56:53Z</time>
      </trkpt>
      <trkpt lat="55.55179" lon="-5.34169">
        <ele>4.92</ele>
        <time>2021-03-19T20:56:56Z</time>
      </trkpt>
      <trkpt lat="55.55281" lon="-5.34235">
        <ele>2.56</ele>
        <time>2021-03-19T20:57:00Z</time>
      </trkpt>
      <trkpt lat="55.55289" lon="-5.34235">
        <ele>2.53</ele>
        <time>2021-03-19T20:57:03Z</time>
      </trkpt>
      <trkpt lat="55.55391" lon="-5.34222">
        <ele>3</ele>
        <time>2021-03-19T20:57:07Z</time>
      </trkpt>
      <trkpt lat="55.5544" lon="-5.34219">
        <ele>3.85</ele>
        <time>2021-03-19T20:57:10Z</time>
      </trkpt>
      <trkpt lat="55.55474" lon="-5.34226">
        <ele>3.8</ele>
        <time>2021-03-19T20:57:14Z</time>
      </trkpt>
      <trkpt lat="55.55533" lon="-5.3425">
        <ele>2</ele>
        <time>2021-03-19T20:57:18Z</time>
      </trkpt>
      <trkpt lat="55.55565" lon="-5.34268">
        <ele>2.34</ele>
        <time>2021-03-19T20:57:21Z</time>
      </trkpt>
      <trkpt lat="55.55581" lon="-5.34281">
        <ele>2.82</ele>
        <time>2021-03-19T20:57:25Z</time>
      </trkpt>
      <trkpt lat="55.55587" lon="-5.34289">
        <ele>2.6</ele>
        <time>2021-03-19T20:57:28Z</time>
      </trkpt>
      <trkpt lat="55.55608" lon="-5.34322">
        <ele>2</ele>
        <time>2021-03-19T20:57:32Z</time>
      </trkpt>
      <trkpt lat="55.55626" lon="-5.34339">
        <ele>1.79</ele>
        <time>2021-03-19T20:57:35Z</time>
      </trkpt>
      <trkpt lat="55.55687" lon="-5.34365">
        <ele>1.23</ele>
        <time>2021-03-19T20:57:39Z</time>
      </trkpt>
      <trkpt lat="55.55864" lon="-5.3446">
        <ele>2.56</ele>
        <time>2021-03-19T20:57:42Z</time>
      </trkpt>
      <trkpt lat="55.56117" lon="-5.34609">
        <ele>2.32</ele>
        <time>2021-03-19T20:57:46Z</time>
      </trkpt>
      <trkpt lat="55.56281" lon="-5.34699">
        <ele>2.1</ele>
        <time>2021-03-19T20:57:49Z</time>
      </trkpt>
      <trkpt lat="55.56471" lon="-5.34742">
        <ele>1.57</ele>
        <time>2021-03-19T20:57:53Z</time>
      </trkpt>
      <trkpt lat="55.56557" lon="-5.3478">
        <ele>1.93</ele>
        <time>2021-03-19T20:57:56Z</time>
      </trkpt>
      <trkpt lat="55.56619" lon="-5.34796">
        <ele>2.34</ele>
        <time>2021-03-19T20:58:00Z</time>
      </trkpt>
      <trkpt lat="55.56673" lon="-5.348">
        <ele>1.98</ele>
        <time>2021-03-19T20:58:04Z</time>
      </trkpt>
      <trkpt lat="55.56715" lon="-5.348">
        <ele>1.93</ele>
        <time>2021-03-19T20:58:07Z</time>
      </trkpt>
      <trkpt lat="55.56733" lon="-5.34797">
        <ele>1.93</ele>
        <time>2021-03-19T20:58:11Z</time>
      </trkpt>
      <trkpt lat="55.56756" lon="-5.34783">
        <ele>1.62</ele>
        <time>2021-03-19T20:58:14Z</time>
      </trkpt>
      <trkpt lat="55.5678" lon="-5.34757">
        <ele>1.74</ele>
        <time>2021-03-19T20:58:18Z</time>
      </trkpt>
      <trkpt lat="55.56796" lon="-5.34745">
        <ele>2.18</ele>
        <time>2021-03-19T20:58:21Z</time>
      </trkpt>
      <trkpt lat="55.56816" lon="-5.34735">
        <ele>2.54</ele>
        <time>2021-03-19T20:58:25Z</time>
      </trkpt>
      <trkpt lat="55.56845" lon="-5.34728">
        <ele>2.79</ele>
        <time>2021-03-19T20:58:28Z</time>
      </trkpt>
      <trkpt lat="55.56869" lon="-5.3473">
        <ele>3.2</ele>
        <time>2021-03-19T20:58:32Z</time>
      </trkpt>
      <trkpt lat="55.56909" lon="-5.34743">
        <ele>3.73</ele>
        <time>2021-03-19T20:58:35Z</time>
      </trkpt>
      <trkpt lat="55.56968" lon="-5.34767">
        <ele>3.24</ele>
        <time>2021-03-19T20:58:39Z</time>
      </trkpt>
      <trkpt lat="55.56984" lon="-5.34778">
        <ele>3.42</ele>
        <time>2021-03-19T20:58:42Z</time>
      </trkpt>
      <trkpt lat="55.57073" lon="-5.3485">
        <ele>1.4</ele>
        <time>2021-03-19T20:58:46Z</time>
      </trkpt>
      <trkpt lat="55.57094" lon="-5.34871">
        <ele>1.26</ele>
        <time>2021-03-19T20:58:50Z</time>
      </trkpt>
      <trkpt lat="55.57201" lon="-5.34996">
        <ele>2.13</ele>
        <time>2021-03-19T20:58:53Z</time>
      </trkpt>
      <trkpt lat="55.57232" lon="-5.35037">
        <ele>1.36</ele>
        <time>2021-03-19T20:58:57Z</time>
      </trkpt>
      <trkpt lat="55.57274" lon="-5.35113">
        <ele>2.64</ele>
        <time>2021-03-19T20:59:00Z</time>
      </trkpt>
      <trkpt lat="55.57316" lon="-5.35209">
        <ele>1.67</ele>
        <time>2021-03-19T20:59:04Z</time>
      </trkpt>
      <trkpt lat="55.57342" lon="-5.35258">
        <ele>1.31</ele>
        <time>2021-03-19T20:59:07Z</time>
      </trkpt>
      <trkpt lat="55.57358" lon="-5.35282">
        <ele>1.77</ele>
        <time>2021-03-19T20:59:11Z</time>
      </trkpt>
      <trkpt lat="55.57383" lon="-5.35307">
        <ele>1</ele>
        <time>2021-03-19T20:59:14Z</time>
      </trkpt>
      <trkpt lat="55.575" lon="-5.35419">
        <ele>1.93</ele>
        <time>2021-03-19T20:59:18Z</time>
      </trkpt>
      <trkpt lat="55.57535" lon="-5.35468">
        <ele>1.39</ele>
        <time>2021-03-19T20:59:21Z</time>
      </trkpt>
      <trkpt lat="55.57577" lon="-5.3554">
        <ele>1</ele>
        <time>2021-03-19T20:59:25Z</time>
      </trkpt>
      <trkpt lat="55.57596" lon="-5.35562">
        <ele>1.34</ele>
        <time>2021-03-19T20:59:28Z</time>
      </trkpt>
      <trkpt lat="55.57604" lon="-5.35569">
        <ele>1.38</ele>
        <time>2021-03-19T20:59:32Z</time>
      </trkpt>
      <trkpt lat="55.57619" lon="-5.35576">
        <ele>1.25</ele>
        <time>2021-03-19T20:59:35Z</time>
      </trkpt>
      <trkpt lat="55.57686" lon="-5.35585">
        <ele>0.93</ele>
        <time>2021-03-19T20:59:39Z</time>
      </trkpt>
      <trkpt lat="55.57702" lon="-5.35592">
        <ele>1.22</ele>
        <time>2021-03-19T20:59:43Z</time>
      </trkpt>
      <trkpt lat="55.57721" lon="-5.35609">
        <ele>2</ele>
        <time>2021-03-19T20:59:46Z</time>
      </trkpt>
      <trkpt lat="55.578" lon="-5.3571">
        <ele>1.68</ele>
        <time>2021-03-19T20:59:50Z</time>
      </trkpt>
      <trkpt lat="55.57816" lon="-5.35738">
        <ele>1.66</ele>
        <time>2021-03-19T20:59:53Z</time>
      </trkpt>
      <trkpt lat="55.57832" lon="-5.35775">
        <ele>1.93</ele>
        <time>2021-03-19T20:59:57Z</time>
      </trkpt>
      <trkpt lat="55.57856" lon="-5.3585">
        <ele>1.33</ele>
        <time>2021-03-19T21:00:00Z</time>
      </trkpt>
      <trkpt lat="55.57873" lon="-5.3588">
        <ele>1.41</ele>
        <time>2021-03-19T21:00:04Z</time>
      </trkpt>
      <trkpt lat="55.57885" lon="-5.35897">
        <ele>1.62</ele>
        <time>2021-03-19T21:00:07Z</time>
      </trkpt>
      <trkpt lat="55.57907" lon="-5.35916">
        <ele>1.04</ele>
        <time>2021-03-19T21:00:11Z</time>
      </trkpt>
      <trkpt lat="55.57926" lon="-5.35924">
        <ele>1.34</ele>
        <time>2021-03-19T21:00:14Z</time>
      </trkpt>
      <trkpt lat="55.57964" lon="-5.35915">
        <ele>2.05</ele>
        <time>2021-03-19T21:00:18Z</time>
      </trkpt>
      <trkpt lat="55.57974" lon="-5.35917">
        <ele>2</ele>
        <time>2021-03-19T21:00:21Z</time>
      </trkpt>
      <trkpt lat="55.57982" lon="-5.35921">
        <ele>2</ele>
        <time>2021-03-19T21:00:25Z</time>
      </trkpt>
      <trkpt lat="55.5799" lon="-5.35936">
        <ele>2</ele>
        <time>2021-03-19T21:00:29Z</time>
      </trkpt>
      <trkpt lat="55.58015" lon="-5.36004">
        <ele>2.63</ele>
        <time>2021-03-19T21:00:32Z</time>
      </trkpt>
      <trkpt lat="55.58016" lon="-5.36023">
        <ele>3.06</ele>
        <time>2021-03-19T21:00:36Z</time>
      </trkpt>
      <trkpt lat="55.58014" lon="-5.36035">
        <ele>3</ele>
        <time>2021-03-19T21:00:39Z</time>
      </trkpt>
      <trkpt lat="55.58003" lon="-5.3606">
        <ele>2.19</ele>
        <time>2021-03-19T21:00:43Z</time>
      </trkpt>
      <trkpt lat="55.57999" lon="-5.36074">
        <ele>1.91</ele>
        <time>2021-03-19T21:00:46Z</time>
      </trkpt>
      <trkpt lat="55.57997" lon="-5.36091">
        <ele>1.8</ele>
        <time>2021-03-19T21:00:50Z</time>
      </trkpt>
      <trkpt lat="55.58" lon="-5.36109">
        <ele>1.96</ele>
        <time>2021-03-19T21:00:53Z</time>
      </trkpt>
      <trkpt lat="55.58003" lon="-5.36124">
        <ele>1.81</ele>
        <time>2021-03-19T21:00:57Z</time>
      </trkpt>
      <trkpt lat="55.58031" lon="-5.36206">
        <ele>2.77</ele>
        <time>2021-03-19T21:01:00Z</time>
      </trkpt>
      <trkpt lat="55.58071" lon="-5.36313">
        <ele>2.12</ele>
        <time>2021-03-19T21:01:04Z</time>
      </trkpt>
      <trkpt lat="55.58137" lon="-5.36471">
        <ele>1.99</ele>
        <time>2021-03-19T21:01:07Z</time>
      </trkpt>
      <trkpt lat="55.58155" lon="-5.36506">
        <ele>2.03</ele>
        <time>2021-03-19T21:01:11Z</time>
      </trkpt>
      <trkpt lat="55.58195" lon="-5.36577">
        <ele>1.32</ele>
        <time>2021-03-19T21:01:15Z</time>
      </trkpt>
      <trkpt lat="55.58237" lon="-5.36638">
        <ele>2.06</ele>
        <time>2021-03-19T21:01:18Z</time>
      </trkpt>
      <trkpt lat="55.58258" lon="-5.36664">
        <ele>1.71</ele>
        <time>2021-03-19T21:01:22Z</time>
      </trkpt>
      <trkpt lat="55.58298" lon="-5.367">
        <ele>2.53</ele>
        <time>2021-03-19T21:01:25Z</time>
      </trkpt>
      <trkpt lat="55.58312" lon="-5.36723">
        <ele>2.63</ele>
        <time>2021-03-19T21:01:29Z</time>
      </trkpt>
      <trkpt lat="55.58348" lon="-5.36799">
        <ele>1.64</ele>
        <time>2021-03-19T21:01:32Z</time>
      </trkpt>
      <trkpt lat="55.58379" lon="-5.36855">
        <ele>1.07</ele>
        <time>2021-03-19T21:01:36Z</time>
      </trkpt>
      <trkpt lat="55.58421" lon="-5.36913">
        <ele>1.48</ele>
        <time>2021-03-19T21:01:39Z</time>
      </trkpt>
      <trkpt lat="55.58468" lon="-5.3697">
        <ele>2.01</ele>
        <time>2021-03-19T21:01:43Z</time>
      </trkpt>
      <trkpt lat="55.58522" lon="-5.37039">
        <ele>2.82</ele>
        <time>2021-03-19T21:01:46Z</time>
      </trkpt>
      <trkpt lat="55.58593" lon="-5.37144">
        <ele>2.4</ele>
        <time>2021-03-19T21:01:50Z</time>
      </trkpt>
      <trkpt lat="55.58609" lon="-5.37162">
        <ele>2.23</ele>
        <time>2021-03-19T21:01:53Z</time>
      </trkpt>
      <trkpt lat="55.58644" lon="-5.37192">
        <ele>3.26</ele>
        <time>2021-03-19T21:01:57Z</time>
      </trkpt>
      <trkpt lat="55.58692" lon="-5.37223">
        <ele>2.99</ele>
        <time>2021-03-19T21:02:01Z</time>
      </trkpt>
      <trkpt lat="55.58739" lon="-5.37243">
        <ele>4.73</ele>
        <time>2021-03-19T21:02:04Z</time>
      </trkpt>
      <trkpt lat="55.58763" lon="-5.37262">
        <ele>4.84</ele>
        <time>2021-03-19T21:02:08Z</time>
      </trkpt>
      <trkpt lat="55.58817" lon="-5.37312">
        <ele>4.91</ele>
        <time>2021-03-19T21:02:11Z</time>
      </trkpt>
      <trkpt lat="55.58889" lon="-5.37355">
        <ele>0.71</ele>
        <time>2021-03-19T21:02:15Z</time>
      </trkpt>
      <trkpt lat="55.5896" lon="-5.37411">
        <ele>3.06</ele>
        <time>2021-03-19T21:02:18Z</time>
      </trkpt>
      <trkpt lat="55.59043" lon="-5.37501">
        <ele>3.05</ele>
        <time>2021-03-19T21:02:22Z</time>
      </trkpt>
      <trkpt lat="55.5909" lon="-5.37557">
        <ele>1.87</ele>
        <time>2021-03-19T21:02:25Z</time>
      </trkpt>
      <trkpt lat="55.59156" lon="-5.37611">
        <ele>2.59</ele>
        <time>2021-03-19T21:02:29Z</time>
      </trkpt>
      <trkpt lat="55.59192" lon="-5.37653">
        <ele>2.76</ele>
        <time>2021-03-19T21:02:32Z</time>
      </trkpt>
      <trkpt lat="55.59255" lon="-5.37734">
        <ele>1.49</ele>
        <time>2021-03-19T21:02:36Z</time>
      </trkpt>
      <trkpt lat="55.59273" lon="-5.37751">
        <ele>2.6</ele>
        <time>2021-03-19T21:02:39Z</time>
      </trkpt>
      <trkpt lat="55.59388" lon="-5.37827">
        <ele>3.38</ele>
        <time>2021-03-19T21:02:43Z</time>
      </trkpt>
      <trkpt lat="55.59411" lon="-5.37837">
        <ele>3.53</ele>
        <time>2021-03-19T21:02:46Z</time>
      </trkpt>
      <trkpt lat="55.59458" lon="-5.3785">
        <ele>4.49</ele>
        <time>2021-03-19T21:02:50Z</time>
      </trkpt>
      <trkpt lat="55.59488" lon="-5.37863">
        <ele>5.34</ele>
        <time>2021-03-19T21:02:54Z</time>
      </trkpt>
      <trkpt lat="55.59554" lon="-5.37906">
        <ele>6.38</ele>
        <time>2021-03-19T21:02:57Z</time>
      </trkpt>
      <trkpt lat="55.59632" lon="-5.37972">
        <ele>4.59</ele>
        <time>2021-03-19T21:03:01Z</time>
      </trkpt>
      <trkpt lat="55.5966" lon="-5.37998">
        <ele>5.25</ele>
        <time>2021-03-19T21:03:04Z</time>
      </trkpt>
      <trkpt lat="55.59685" lon="-5.38029">
        <ele>4.85</ele>
        <time>2021-03-19T21:03:08Z</time>
      </trkpt>
      <trkpt lat="55.59761" lon="-5.38152">
        <ele>1.73</ele>
        <time>2021-03-19T21:03:11Z</time>
      </trkpt>
      <trkpt lat="55.59778" lon="-5.38168">
        <ele>1</ele>
        <time>2021-03-19T21:03:15Z</time>
      </trkpt>
      <trkpt lat="55.59815" lon="-5.38193">
        <ele>1.35</ele>
        <time>2021-03-19T21:03:18Z</time>
      </trkpt>
      <trkpt lat="55.5984" lon="-5.38217">
        <ele>1.42</ele>
        <time>2021-03-19T21:03:22Z</time>
      </trkpt>
      <trkpt lat="55.59856" lon="-5.38226">
        <ele>1.7</ele>
        <time>2021-03-19T21:03:25Z</time>
      </trkpt>
      <trkpt lat="55.59906" lon="-5.38244">
        <ele>2.37</ele>
        <time>2021-03-19T21:03:29Z</time>
      </trkpt>
      <trkpt lat="55.59973" lon="-5.38281">
        <ele>1.77</ele>
        <time>2021-03-19T21:03:32Z</time>
      </trkpt>
      <trkpt lat="55.6" lon="-5.38289">
        <ele>2.16</ele>
        <time>2021-03-19T21:03:36Z</time>
      </trkpt>
      <trkpt lat="55.60061" lon="-5.38299">
        <ele>2.24</ele>
        <time>2021-03-19T21:03:40Z</time>
      </trkpt>
      <trkpt lat="55.60083" lon="-5.38308">
        <ele>2.01</ele>
        <time>2021-03-19T21:03:43Z</time>
      </trkpt>
      <trkpt lat="55.60107" lon="-5.38321">
        <ele>3.2</ele>
        <time>2021-03-19T21:03:47Z</time>
      </trkpt>
      <trkpt lat="55.60148" lon="-5.38353">
        <ele>2.72</ele>
        <time>2021-03-19T21:03:50Z</time>
      </trkpt>
      <trkpt lat="55.60173" lon="-5.38385">
        <ele>1.77</ele>
        <time>2021-03-19T21:03:54Z</time>
      </trkpt>
      <trkpt lat="55.60209" lon="-5.3844">
        <ele>2.19</ele>
        <time>2021-03-19T21:03:57Z</time>
      </trkpt>
      <trkpt lat="55.60231" lon="-5.38464">
        <ele>2.01</ele>
        <time>2021-03-19T21:04:01Z</time>
      </trkpt>
      <trkpt lat="55.60331" lon="-5.38546">
        <ele>1.68</ele>
        <time>2021-03-19T21:04:04Z</time>
      </trkpt>
      <trkpt lat="55.6042" lon="-5.38604">
        <ele>3.01</ele>
        <time>2021-03-19T21:04:08Z</time>
      </trkpt>
      <trkpt lat="55.60482" lon="-5.38639">
        <ele>6.47</ele>
        <time>2021-03-19T21:04:11Z</time>
      </trkpt>
      <trkpt lat="55.60492" lon="-5.38647">
        <ele>6.6</ele>
        <time>2021-03-19T21:04:15Z</time>
      </trkpt>
      <trkpt lat="55.60517" lon="-5.38672">
        <ele>5.88</ele>
        <time>2021-03-19T21:04:18Z</time>
      </trkpt>
      <trkpt lat="55.60555" lon="-5.38724">
        <ele>3.83</ele>
        <time>2021-03-19T21:04:22Z</time>
      </trkpt>
      <trkpt lat="55.60649" lon="-5.38869">
        <ele>5.03</ele>
        <time>2021-03-19T21:04:26Z</time>
      </trkpt>
      <trkpt lat="55.60678" lon="-5.38923">
        <ele>4.18</ele>
        <time>2021-03-19T21:04:29Z</time>
      </trkpt>
      <trkpt lat="55.60708" lon="-5.38968">
        <ele>3.16</ele>
        <time>2021-03-19T21:04:33Z</time>
      </trkpt>
      <trkpt lat="55.60745" lon="-5.39005">
        <ele>1.82</ele>
        <time>2021-03-19T21:04:36Z</time>
      </trkpt>
      <trkpt lat="55.60754" lon="-5.39017">
        <ele>1.7</ele>
        <time>2021-03-19T21:04:40Z</time>
      </trkpt>
      <trkpt lat="55.60761" lon="-5.39031">
        <ele>1.74</ele>
        <time>2021-03-19T21:04:43Z</time>
      </trkpt>
      <trkpt lat="55.60783" lon="-5.39103">
        <ele>1.24</ele>
        <time>2021-03-19T21:04:47Z</time>
      </trkpt>
      <trkpt lat="55.60787" lon="-5.39113">
        <ele>1.29</ele>
        <time>2021-03-19T21:04:50Z</time>
      </trkpt>
      <trkpt lat="55.608" lon="-5.39132">
        <ele>1.64</ele>
        <time>2021-03-19T21:04:54Z</time>
      </trkpt>
      <trkpt lat="55.60832" lon="-5.39163">
        <ele>3.05</ele>
        <time>2021-03-19T21:04:57Z</time>
      </trkpt>
      <trkpt lat="55.6085" lon="-5.39185">
        <ele>3.82</ele>
        <time>2021-03-19T21:05:01Z</time>
      </trkpt>
      <trkpt lat="55.60856" lon="-5.39188">
        <ele>3.98</ele>
        <time>2021-03-19T21:05:04Z</time>
      </trkpt>
      <trkpt lat="55.60863" lon="-5.39189">
        <ele>4.33</ele>
        <time>2021-03-19T21:05:08Z</time>
      </trkpt>
      <trkpt lat="55.60879" lon="-5.39182">
        <ele>6.02</ele>
        <time>2021-03-19T21:05:12Z</time>
      </trkpt>
      <trkpt lat="55.60937" lon="-5.39149">
        <ele>15.51</ele>
        <time>2021-03-19T21:05:15Z</time>
      </trkpt>
      <trkpt lat="55.60944" lon="-5.39147">
        <ele>16.38</ele>
        <time>2021-03-19T21:05:19Z</time>
      </trkpt>
      <trkpt lat="55.60986" lon="-5.3915">
        <ele>20.87</ele>
        <time>2021-03-19T21:05:22Z</time>
      </trkpt>
      <trkpt lat="55.61045" lon="-5.39125">
        <ele>28.38</ele>
        <time>2021-03-19T21:05:26Z</time>
      </trkpt>
      <trkpt lat="55.61088" lon="-5.3912">
        <ele>31.23</ele>
        <time>2021-03-19T21:05:29Z</time>
      </trkpt>
      <trkpt lat="55.611" lon="-5.39125">
        <ele>31.86</ele>
        <time>2021-03-19T21:05:33Z</time>
      </trkpt>
      <trkpt lat="55.61113" lon="-5.39155">
        <ele>33.05</ele>
        <time>2021-03-19T21:05:36Z</time>
      </trkpt>
      <trkpt lat="55.61125" lon="-5.39177">
        <ele>33.11</ele>
        <time>2021-03-19T21:05:40Z</time>
      </trkpt>
      <trkpt lat="55.6113" lon="-5.39182">
        <ele>33.12</ele>
        <time>2021-03-19T21:05:43Z</time>
      </trkpt>
      <trkpt lat="55.61143" lon="-5.39188">
        <ele>33.24</ele>
        <time>2021-03-19T21:05:47Z</time>
      </trkpt>
      <trkpt lat="55.61156" lon="-5.39186">
        <ele>33.31</ele>
        <time>2021-03-19T21:05:50Z</time>
      </trkpt>
      <trkpt lat="55.61196" lon="-5.39154">
        <ele>35.54</ele>
        <time>2021-03-19T21:05:54Z</time>
      </trkpt>
      <trkpt lat="55.61225" lon="-5.39164">
        <ele>37.22</ele>
        <time>2021-03-19T21:05:57Z</time>
      </trkpt>
      <trkpt lat="55.61233" lon="-5.39162">
        <ele>37.62</ele>
        <time>2021-03-19T21:06:01Z</time>
      </trkpt>
      <trkpt lat="55.61264" lon="-5.39151">
        <ele>39.63</ele>
        <time>2021-03-19T21:06:05Z</time>
      </trkpt>
      <trkpt lat="55.61278" lon="-5.39152">
        <ele>40.07</ele>
        <time>2021-03-19T21:06:08Z</time>
      </trkpt>
      <trkpt lat="55.61304" lon="-5.39168">
        <ele>40.76</ele>
        <time>2021-03-19T21:06:12Z</time>
      </trkpt>
      <trkpt lat="55.61332" lon="-5.39199">
        <ele>41.55</ele>
        <time>2021-03-19T21:06:15Z</time>
      </trkpt>
      <trkpt lat="55.61357" lon="-5.39234">
        <ele>40.85</ele>
        <time>2021-03-19T21:06:19Z</time>
      </trkpt>
      <trkpt lat="55.61371" lon="-5.39259">
        <ele>40.37</ele>
        <time>2021-03-19T21:06:22Z</time>
      </trkpt>
      <trkpt lat="55.61388" lon="-5.39285">
        <ele>40.44</ele>
        <time>2021-03-19T21:06:26Z</time>
      </trkpt>
      <trkpt lat="55.61408" lon="-5.39301">
        <ele>40.69</ele>
        <time>2021-03-19T21:06:29Z</time>
      </trkpt>
      <trkpt lat="55.61465" lon="-5.39329">
        <ele>42.79</ele>
        <time>2021-03-19T21:06:33Z</time>
      </trkpt>
      <trkpt lat="55.61504" lon="-5.3934">
        <ele>44.83</ele>
        <time>2021-03-19T21:06:36Z</time>
      </trkpt>
      <trkpt lat="55.61564" lon="-5.39346">
        <ele>48.38</ele>
        <time>2021-03-19T21:06:40Z</time>
      </trkpt>
      <trkpt lat="55.61714" lon="-5.3938">
        <ele>53.31</ele>
        <time>2021-03-19T21:06:43Z</time>
      </trkpt>
      <trkpt lat="55.61741" lon="-5.39377">
        <ele>52.88</ele>
        <time>2021-03-19T21:06:47Z</time>
      </trkpt>
      <trkpt lat="55.6176" lon="-5.39383">
        <ele>51.85</ele>
        <time>2021-03-19T21:06:51Z</time>
      </trkpt>
      <trkpt lat="55.61808" lon="-5.39426">
        <ele>45.1</ele>
        <time>2021-03-19T21:06:54Z</time>
      </trkpt>
      <trkpt lat="55.61822" lon="-5.39435">
        <ele>43.47</ele>
        <time>2021-03-19T21:06:58Z</time>
      </trkpt>
      <trkpt lat="55.61835" lon="-5.39439">
        <ele>42.26</ele>
        <time>2021-03-19T21:07:01Z</time>
      </trkpt>
      <trkpt lat="55.61847" lon="-5.39436">
        <ele>41.1</ele>
        <time>2021-03-19T21:07:05Z</time>
      </trkpt>
      <trkpt lat="55.61862" lon="-5.39427">
        <ele>40.2</ele>
        <time>2021-03-19T21:07:08Z</time>
      </trkpt>
      <trkpt lat="55.61883" lon="-5.39404">
        <ele>39.98</ele>
        <time>2021-03-19T21:07:12Z</time>
      </trkpt>
      <trkpt lat="55.61891" lon="-5.39399">
        <ele>39.69</ele>
        <time>2021-03-19T21:07:15Z</time>
      </trkpt>
      <trkpt lat="55.61909" lon="-5.39393">
        <ele>38.38</ele>
        <time>2021-03-19T21:07:19Z</time>
      </trkpt>
      <trkpt lat="55.61951" lon="-5.39386">
        <ele>35.73</ele>
        <time>2021-03-19T21:07:22Z</time>
      </trkpt>
      <trkpt lat="55.62011" lon="-5.39388">
        <ele>30.42</ele>
        <time>2021-03-19T21:07:26Z</time>
      </trkpt>
      <trkpt lat="55.62081" lon="-5.39376">
        <ele>29.39</ele>
        <time>2021-03-19T21:07:29Z</time>
      </trkpt>
      <trkpt lat="55.62165" lon="-5.3938">
        <ele>27.4</ele>
        <time>2021-03-19T21:07:33Z</time>
      </trkpt>
      <trkpt lat="55.62319" lon="-5.39373">
        <ele>24.99</ele>
        <time>2021-03-19T21:07:37Z</time>
      </trkpt>
      <trkpt lat="55.62355" lon="-5.39364">
        <ele>24.7</ele>
        <time>2021-03-19T21:07:40Z</time>
      </trkpt>
      <trkpt lat="55.62397" lon="-5.39358">
        <ele>23.44</ele>
        <time>2021-03-19T21:07:44Z</time>
      </trkpt>
      <trkpt lat="55.62415" lon="-5.39352">
        <ele>24.01</ele>
        <time>2021-03-19T21:07:47Z</time>
      </trkpt>
      <trkpt lat="55.62527" lon="-5.39333">
        <ele>22.21</ele>
        <time>2021-03-19T21:07:51Z</time>
      </trkpt>
      <trkpt lat="55.62574" lon="-5.3931">
        <ele>20.25</ele>
        <time>2021-03-19T21:07:54Z</time>
      </trkpt>
      <trkpt lat="55.62626" lon="-5.39293">
        <ele>19.06</ele>
        <time>2021-03-19T21:07:58Z</time>
      </trkpt>
      <trkpt lat="55.62685" lon="-5.39293">
        <ele>15.02</ele>
        <time>2021-03-19T21:08:01Z</time>
      </trkpt>
      <trkpt lat="55.6269" lon="-5.39294">
        <ele>14.51</ele>
        <time>2021-03-19T21:08:05Z</time>
      </trkpt>
      <trkpt lat="55.62701" lon="-5.39301">
        <ele>13.17</ele>
        <time>2021-03-19T21:08:08Z</time>
      </trkpt>
      <trkpt lat="55.6272" lon="-5.39304">
        <ele>12.16</ele>
        <time>2021-03-19T21:08:12Z</time>
      </trkpt>
      <trkpt lat="55.62733" lon="-5.39298">
        <ele>11.52</ele>
        <time>2021-03-19T21:08:15Z</time>
      </trkpt>
      <trkpt lat="55.62774" lon="-5.39255">
        <ele>11.75</ele>
        <time>2021-03-19T21:08:19Z</time>
      </trkpt>
      <trkpt lat="55.62788" lon="-5.39245">
        <ele>11.78</ele>
        <time>2021-03-19T21:08:23Z</time>
      </trkpt>
      <trkpt lat="55.62856" lon="-5.39206">
        <ele>9.66</ele>
        <time>2021-03-19T21:08:26Z</time>
      </trkpt>
      <trkpt lat="55.62886" lon="-5.39186">
        <ele>9.72</ele>
        <time>2021-03-19T21:08:30Z</time>
      </trkpt>
      <trkpt lat="55.62898" lon="-5.39176">
        <ele>10.12</ele>
        <time>2021-03-19T21:08:33Z</time>
      </trkpt>
      <trkpt lat="55.62909" lon="-5.39162">
        <ele>10.64</ele>
        <time>2021-03-19T21:08:37Z</time>
      </trkpt>
      <trkpt lat="55.62939" lon="-5.39116">
        <ele>12.06</ele>
        <time>2021-03-19T21:08:40Z</time>
      </trkpt>
      <trkpt lat="55.62982" lon="-5.39066">
        <ele>13.03</ele>
        <time>2021-03-19T21:08:44Z</time>
      </trkpt>
      <trkpt lat="55.63008" lon="-5.39022">
        <ele>13.51</ele>
        <time>2021-03-19T21:08:47Z</time>
      </trkpt>
      <trkpt lat="55.63044" lon="-5.38971">
        <ele>15.43</ele>
        <time>2021-03-19T21:08:51Z</time>
      </trkpt>
      <trkpt lat="55.63103" lon="-5.38913">
        <ele>15.07</ele>
        <time>2021-03-19T21:08:54Z</time>
      </trkpt>
      <trkpt lat="55.63152" lon="-5.38862">
        <ele>12.1</ele>
        <time>2021-03-19T21:08:58Z</time>
      </trkpt>
      <trkpt lat="55.6331" lon="-5.38741">
        <ele>7.55</ele>
        <time>2021-03-19T21:09:01Z</time>
      </trkpt>
      <trkpt lat="55.63658" lon="-5.38518">
        <ele>3.02</ele>
        <time>2021-03-19T21:09:05Z</time>
      </trkpt>
      <trkpt lat="55.63756" lon="-5.38463">
        <ele>3.38</ele>
        <time>2021-03-19T21:09:08Z</time>
      </trkpt>
      <trkpt lat="55.63923" lon="-5.38387">
        <ele>2.88</ele>
        <time>2021-03-19T21:09:12Z</time>
      </trkpt>
      <trkpt lat="55.64045" lon="-5.38348">
        <ele>1.96</ele>
        <time>2021-03-19T21:09:16Z</time>
      </trkpt>
      <trkpt lat="55.64102" lon="-5.3831">
        <ele>3.68</ele>
        <time>2021-03-19T21:09:19Z</time>
      </trkpt>
      <trkpt lat="55.64145" lon="-5.38298">
        <ele>3.76</ele>
        <time>2021-03-19T21:09:23Z</time>
      </trkpt>
      <trkpt lat="55.6418" lon="-5.38293">
        <ele>4.87</ele>
        <time>2021-03-19T21:09:26Z</time>
      </trkpt>
      <trkpt lat="55.64246" lon="-5.38286">
        <ele>5.43</ele>
        <time>2021-03-19T21:09:30Z</time>
      </trkpt>
      <trkpt lat="55.64396" lon="-5.38304">
        <ele>3.1</ele>
        <time>2021-03-19T21:09:33Z</time>
      </trkpt>
      <trkpt lat="55.6446" lon="-5.38285">
        <ele>2.95</ele>
        <time>2021-03-19T21:09:37Z</time>
      </trkpt>
      <trkpt lat="55.64529" lon="-5.38242">
        <ele>3.49</ele>
        <time>2021-03-19T21:09:40Z</time>
      </trkpt>
      <trkpt lat="55.64555" lon="-5.38232">
        <ele>3.34</ele>
        <time>2021-03-19T21:09:44Z</time>
      </trkpt>
      <trkpt lat="55.64625" lon="-5.38217">
        <ele>3</ele>
        <time>2021-03-19T21:09:47Z</time>
      </trkpt>
      <trkpt lat="55.64755" lon="-5.38181">
        <ele>2.87</ele>
        <time>2021-03-19T21:09:51Z</time>
      </trkpt>
      <trkpt lat="55.64803" lon="-5.3817">
        <ele>1.95</ele>
        <time>2021-03-19T21:09:54Z</time>
      </trkpt>
      <trkpt lat="55.64878" lon="-5.38146">
        <ele>1.9</ele>
        <time>2021-03-19T21:09:58Z</time>
      </trkpt>
      <trkpt lat="55.64937" lon="-5.38132">
        <ele>2.61</ele>
        <time>2021-03-19T21:10:02Z</time>
      </trkpt>
      <trkpt lat="55.64993" lon="-5.38111">
        <ele>1.31</ele>
        <time>2021-03-19T21:10:05Z</time>
      </trkpt>
      <trkpt lat="55.65103" lon="-5.38099">
        <ele>1.06</ele>
        <time>2021-03-19T21:10:09Z</time>
      </trkpt>
      <trkpt lat="55.6515" lon="-5.38078">
        <ele>2.41</ele>
        <time>2021-03-19T21:10:12Z</time>
      </trkpt>
      <trkpt lat="55.65165" lon="-5.38073">
        <ele>2.73</ele>
        <time>2021-03-19T21:10:16Z</time>
      </trkpt>
      <trkpt lat="55.65212" lon="-5.38071">
        <ele>2.92</ele>
        <time>2021-03-19T21:10:19Z</time>
      </trkpt>
      <trkpt lat="55.65251" lon="-5.38076">
        <ele>1.52</ele>
        <time>2021-03-19T21:10:23Z</time>
      </trkpt>
      <trkpt lat="55.65347" lon="-5.38099">
        <ele>3.22</ele>
        <time>2021-03-19T21:10:26Z</time>
      </trkpt>
      <trkpt lat="55.65381" lon="-5.38104">
        <ele>1.75</ele>
        <time>2021-03-19T21:10:30Z</time>
      </trkpt>
      <trkpt lat="55.65401" lon="-5.38104">
        <ele>1.26</ele>
        <time>2021-03-19T21:10:33Z</time>
      </trkpt>
      <trkpt lat="55.65421" lon="-5.38099">
        <ele>1.59</ele>
        <time>2021-03-19T21:10:37Z</time>
      </trkpt>
      <trkpt lat="55.65488" lon="-5.38072">
        <ele>2.57</ele>
        <time>2021-03-19T21:10:40Z</time>
      </trkpt>
      <trkpt lat="55.65528" lon="-5.38052">
        <ele>2.28</ele>
        <time>2021-03-19T21:10:44Z</time>
      </trkpt>
      <trkpt lat="55.65573" lon="-5.3802">
        <ele>2.4</ele>
        <time>2021-03-19T21:10:48Z</time>
      </trkpt>
      <trkpt lat="55.65673" lon="-5.37976">
        <ele>5.35</ele>
        <time>2021-03-19T21:10:51Z</time>
      </trkpt>
      <trkpt lat="55.65716" lon="-5.37949">
        <ele>6.08</ele>
        <time>2021-03-19T21:10:55Z</time>
      </trkpt>
      <trkpt lat="55.65988" lon="-5.37809">
        <ele>3.12</ele>
        <time>2021-03-19T21:10:58Z</time>
      </trkpt>
      <trkpt lat="55.6601" lon="-5.37794">
        <ele>3.68</ele>
        <time>2021-03-19T21:11:02Z</time>
      </trkpt>
      <trkpt lat="55.66055" lon="-5.37753">
        <ele>5.59</ele>
        <time>2021-03-19T21:11:05Z</time>
      </trkpt>
      <trkpt lat="55.66082" lon="-5.37732">
        <ele>7.06</ele>
        <time>2021-03-19T21:11:09Z</time>
      </trkpt>
      <trkpt lat="55.66126" lon="-5.37713">
        <ele>3.86</ele>
        <time>2021-03-19T21:11:12Z</time>
      </trkpt>
      <trkpt lat="55.66141" lon="-5.37704">
        <ele>3.25</ele>
        <time>2021-03-19T21:11:16Z</time>
      </trkpt>
      <trkpt lat="55.66151" lon="-5.37694">
        <ele>3.61</ele>
        <time>2021-03-19T21:11:19Z</time>
      </trkpt>
      <trkpt lat="55.6618" lon="-5.37653">
        <ele>6.83</ele>
        <time>2021-03-19T21:11:23Z</time>
      </trkpt>
      <trkpt lat="55.66197" lon="-5.37639">
        <ele>7.79</ele>
        <time>2021-03-19T21:11:26Z</time>
      </trkpt>
      <trkpt lat="55.66284" lon="-5.37583">
        <ele>7.1</ele>
        <time>2021-03-19T21:11:30Z</time>
      </trkpt>
      <trkpt lat="55.66316" lon="-5.3756">
        <ele>6</ele>
        <time>2021-03-19T21:11:33Z</time>
      </trkpt>
      <trkpt lat="55.66442" lon="-5.37438">
        <ele>6.73</ele>
        <time>2021-03-19T21:11:37Z</time>
      </trkpt>
      <trkpt lat="55.66483" lon="-5.37411">
        <ele>4.63</ele>
        <time>2021-03-19T21:11:41Z</time>
      </trkpt>
      <trkpt lat="55.66562" lon="-5.37364">
        <ele>2.37</ele>
        <time>2021-03-19T21:11:44Z</time>
      </trkpt>
      <trkpt lat="55.66645" lon="-5.37321">
        <ele>2.07</ele>
        <time>2021-03-19T21:11:48Z</time>
      </trkpt>
      <trkpt lat="55.66688" lon="-5.37282">
        <ele>3.86</ele>
        <time>2021-03-19T21:11:51Z</time>
      </trkpt>
      <trkpt lat="55.6675" lon="-5.37248">
        <ele>2.15</ele>
        <time>2021-03-19T21:11:55Z</time>
      </trkpt>
      <trkpt lat="55.668" lon="-5.37198">
        <ele>3.96</ele>
        <time>2021-03-19T21:11:58Z</time>
      </trkpt>
      <trkpt lat="55.66818" lon="-5.37192">
        <ele>3.7</ele>
        <time>2021-03-19T21:12:02Z</time>
      </trkpt>
      <trkpt lat="55.66875" lon="-5.37189">
        <ele>1.88</ele>
        <time>2021-03-19T21:12:05Z</time>
      </trkpt>
      <trkpt lat="55.66915" lon="-5.37179">
        <ele>2.12</ele>
        <time>2021-03-19T21:12:09Z</time>
      </trkpt>
      <trkpt lat="55.66925" lon="-5.37181">
        <ele>2.26</ele>
        <time>2021-03-19T21:12:12Z</time>
      </trkpt>
      <trkpt lat="55.66943" lon="-5.3719">
        <ele>2.24</ele>
        <time>2021-03-19T21:12:16Z</time>
      </trkpt>
      <trkpt lat="55.66961" lon="-5.37192">
        <ele>2.18</ele>
        <time>2021-03-19T21:12:19Z</time>
      </trkpt>
      <trkpt lat="55.67014" lon="-5.37178">
        <ele>2.15</ele>
        <time>2021-03-19T21:12:23Z</time>
      </trkpt>
      <trkpt lat="55.6706" lon="-5.37178">
        <ele>1.49</ele>
        <time>2021-03-19T21:12:27Z</time>
      </trkpt>
      <trkpt lat="55.67087" lon="-5.37173">
        <ele>1</ele>
        <time>2021-03-19T21:12:30Z</time>
      </trkpt>
      <trkpt lat="55.67201" lon="-5.37102">
        <ele>2.42</ele>
        <time>2021-03-19T21:12:34Z</time>
      </trkpt>
      <trkpt lat="55.67235" lon="-5.37071">
        <ele>3.24</ele>
        <time>2021-03-19T21:12:37Z</time>
      </trkpt>
      <trkpt lat="55.67251" lon="-5.3706">
        <ele>2.76</ele>
        <time>2021-03-19T21:12:41Z</time>
      </trkpt>
      <trkpt lat="55.67299" lon="-5.37035">
        <ele>1.89</ele>
        <time>2021-03-19T21:12:44Z</time>
      </trkpt>
      <trkpt lat="55.67394" lon="-5.3693">
        <ele>5.95</ele>
        <time>2021-03-19T21:12:48Z</time>
      </trkpt>
      <trkpt lat="55.67428" lon="-5.36895">
        <ele>5.76</ele>
        <time>2021-03-19T21:12:51Z</time>
      </trkpt>
      <trkpt lat="55.67447" lon="-5.36869">
        <ele>7.89</ele>
        <time>2021-03-19T21:12:55Z</time>
      </trkpt>
      <trkpt lat="55.67469" lon="-5.36831">
        <ele>8.83</ele>
        <time>2021-03-19T21:12:58Z</time>
      </trkpt>
      <trkpt lat="55.67481" lon="-5.36817">
        <ele>8.68</ele>
        <time>2021-03-19T21:13:02Z</time>
      </trkpt>
      <trkpt lat="55.67506" lon="-5.36791">
        <ele>7.91</ele>
        <time>2021-03-19T21:13:05Z</time>
      </trkpt>
      <trkpt lat="55.6753" lon="-5.36773">
        <ele>7.51</ele>
        <time>2021-03-19T21:13:09Z</time>
      </trkpt>
      <trkpt lat="55.67553" lon="-5.36739">
        <ele>8.36</ele>
        <time>2021-03-19T21:13:13Z</time>
      </trkpt>
      <trkpt lat="55.67583" lon="-5.3671">
        <ele>7.69</ele>
        <time>2021-03-19T21:13:16Z</time>
      </trkpt>
      <trkpt lat="55.6759" lon="-5.36701">
        <ele>8.34</ele>
        <time>2021-03-19T21:13:20Z</time>
      </trkpt>
      <trkpt lat="55.67618" lon="-5.3665">
        <ele>10.45</ele>
        <time>2021-03-19T21:13:23Z</time>
      </trkpt>
      <trkpt lat="55.67639" lon="-5.36618">
        <ele>10.59</ele>
        <time>2021-03-19T21:13:27Z</time>
      </trkpt>
      <trkpt lat="55.67684" lon="-5.36547">
        <ele>12.13</ele>
        <time>2021-03-19T21:13:30Z</time>
      </trkpt>
      <trkpt lat="55.67713" lon="-5.36492">
        <ele>12.81</ele>
        <time>2021-03-19T21:13:34Z</time>
      </trkpt>
      <trkpt lat="55.67722" lon="-5.36483">
        <ele>10.65</ele>
        <time>2021-03-19T21:13:37Z</time>
      </trkpt>
      <trkpt lat="55.67769" lon="-5.36453">
        <ele>5.46</ele>
        <time>2021-03-19T21:13:41Z</time>
      </trkpt>
      <trkpt lat="55.67775" lon="-5.36448">
        <ele>5.2</ele>
        <time>2021-03-19T21:13:44Z</time>
      </trkpt>
      <trkpt lat="55.67794" lon="-5.36424">
        <ele>3.75</ele>
        <time>2021-03-19T21:13:48Z</time>
      </trkpt>
      <trkpt lat="55.67849" lon="-5.36331">
        <ele>5.55</ele>
        <time>2021-03-19T21:13:51Z</time>
      </trkpt>
      <trkpt lat="55.67876" lon="-5.36262">
        <ele>6.47</ele>
        <time>2021-03-19T21:13:55Z</time>
      </trkpt>
      <trkpt lat="55.6792" lon="-5.3617">
        <ele>7.55</ele>
        <time>2021-03-19T21:13:59Z</time>
      </trkpt>
      <trkpt lat="55.67942" lon="-5.36119">
        <ele>7.17</ele>
        <time>2021-03-19T21:14:02Z</time>
      </trkpt>
      <trkpt lat="55.67977" lon="-5.36019">
        <ele>4.7</ele>
        <time>2021-03-19T21:14:06Z</time>
      </trkpt>
      <trkpt lat="55.68003" lon="-5.35916">
        <ele>8.21</ele>
        <time>2021-03-19T21:14:09Z</time>
      </trkpt>
      <trkpt lat="55.68016" lon="-5.35877">
        <ele>10.21</ele>
        <time>2021-03-19T21:14:13Z</time>
      </trkpt>
      <trkpt lat="55.68063" lon="-5.35759">
        <ele>15.7</ele>
        <time>2021-03-19T21:14:16Z</time>
      </trkpt>
      <trkpt lat="55.68105" lon="-5.35662">
        <ele>11.97</ele>
        <time>2021-03-19T21:14:20Z</time>
      </trkpt>
      <trkpt lat="55.68196" lon="-5.35467">
        <ele>13.17</ele>
        <time>2021-03-19T21:14:23Z</time>
      </trkpt>
      <trkpt lat="55.6828" lon="-5.35327">
        <ele>11.47</ele>
        <time>2021-03-19T21:14:27Z</time>
      </trkpt>
      <trkpt lat="55.6829" lon="-5.35307">
        <ele>11.77</ele>
        <time>2021-03-19T21:14:30Z</time>
      </trkpt>
      <trkpt lat="55.68308" lon="-5.35255">
        <ele>14.03</ele>
        <time>2021-03-19T21:14:34Z</time>
      </trkpt>
      <trkpt lat="55.6833" lon="-5.35198">
        <ele>12.11</ele>
        <time>2021-03-19T21:14:37Z</time>
      </trkpt>
      <trkpt lat="55.68341" lon="-5.35159">
        <ele>14.51</ele>
        <time>2021-03-19T21:14:41Z</time>
      </trkpt>
      <trkpt lat="55.68354" lon="-5.35124">
        <ele>14.26</ele>
        <time>2021-03-19T21:14:44Z</time>
      </trkpt>
      <trkpt lat="55.6838" lon="-5.35015">
        <ele>17.94</ele>
        <time>2021-03-19T21:14:48Z</time>
      </trkpt>
      <trkpt lat="55.68398" lon="-5.34981">
        <ele>14.99</ele>
        <time>2021-03-19T21:14:52Z</time>
      </trkpt>
      <trkpt lat="55.68413" lon="-5.34925">
        <ele>16.19</ele>
        <time>2021-03-19T21:14:55Z</time>
      </trkpt>
      <trkpt lat="55.68418" lon="-5.34913">
        <ele>15.25</ele>
        <time>2021-03-19T21:14:59Z</time>
      </trkpt>
      <trkpt lat="55.68441" lon="-5.34871">
        <ele>11.05</ele>
        <time>2021-03-19T21:15:02Z</time>
      </trkpt>
      <trkpt lat="55.68447" lon="-5.34853">
        <ele>11.92</ele>
        <time>2021-03-19T21:15:06Z</time>
      </trkpt>
      <trkpt lat="55.68475" lon="-5.3473">
        <ele>13.58</ele>
        <time>2021-03-19T21:15:09Z</time>
      </trkpt>
      <trkpt lat="55.68508" lon="-5.34612">
        <ele>11.31</ele>
        <time>2021-03-19T21:15:13Z</time>
      </trkpt>
      <trkpt lat="55.68523" lon="-5.34571">
        <ele>9.26</ele>
        <time>2021-03-19T21:15:16Z</time>
      </trkpt>
      <trkpt lat="55.68534" lon="-5.34535">
        <ele>8.39</ele>
        <time>2021-03-19T21:15:20Z</time>
      </trkpt>
      <trkpt lat="55.68539" lon="-5.34511">
        <ele>9.13</ele>
        <time>2021-03-19T21:15:23Z</time>
      </trkpt>
      <trkpt lat="55.68549" lon="-5.34441">
        <ele>9</ele>
        <time>2021-03-19T21:15:27Z</time>
      </trkpt>
      <trkpt lat="55.68554" lon="-5.34357">
        <ele>10.26</ele>
        <time>2021-03-19T21:15:30Z</time>
      </trkpt>
      <trkpt lat="55.68557" lon="-5.34337">
        <ele>9.5</ele>
        <time>2021-03-19T21:15:34Z</time>
      </trkpt>
      <trkpt lat="55.68571" lon="-5.34273">
        <ele>8.32</ele>
        <time>2021-03-19T21:15:38Z</time>
      </trkpt>
      <trkpt lat="55.68599" lon="-5.34004">
        <ele>7.87</ele>
        <time>2021-03-19T21:15:41Z</time>
      </trkpt>
      <trkpt lat="55.68606" lon="-5.33956">
        <ele>7.59</ele>
        <time>2021-03-19T21:15:45Z</time>
      </trkpt>
      <trkpt lat="55.68652" lon="-5.33713">
        <ele>7.66</ele>
        <time>2021-03-19T21:15:48Z</time>
      </trkpt>
      <trkpt lat="55.68703" lon="-5.33471">
        <ele>10.45</ele>
        <time>2021-03-19T21:15:52Z</time>
      </trkpt>
      <trkpt lat="55.68738" lon="-5.33328">
        <ele>13.5</ele>
        <time>2021-03-19T21:15:55Z</time>
      </trkpt>
      <trkpt lat="55.68776" lon="-5.33191">
        <ele>8.4</ele>
        <time>2021-03-19T21:15:59Z</time>
      </trkpt>
      <trkpt lat="55.68808" lon="-5.33112">
        <ele>8.2</ele>
        <time>2021-03-19T21:16:02Z</time>
      </trkpt>
      <trkpt lat="55.68824" lon="-5.33059">
        <ele>6.43</ele>
        <time>2021-03-19T21:16:06Z</time>
      </trkpt>
      <trkpt lat="55.68827" lon="-5.33038">
        <ele>5.56</ele>
        <time>2021-03-19T21:16:09Z</time>
      </trkpt>
      <trkpt lat="55.68834" lon="-5.32884">
        <ele>3.97</ele>
        <time>2021-03-19T21:16:13Z</time>
      </trkpt>
      <trkpt lat="55.6884" lon="-5.32795">
        <ele>4.77</ele>
        <time>2021-03-19T21:16:16Z</time>
      </trkpt>
      <trkpt lat="55.68847" lon="-5.32766">
        <ele>4.56</ele>
        <time>2021-03-19T21:16:20Z</time>
      </trkpt>
      <trkpt lat="55.68871" lon="-5.32705">
        <ele>2.3</ele>
        <time>2021-03-19T21:16:24Z</time>
      </trkpt>
      <trkpt lat="55.689" lon="-5.32678">
        <ele>1.6</ele>
        <time>2021-03-19T21:16:27Z</time>
      </trkpt>
      <trkpt lat="55.68922" lon="-5.32665">
        <ele>2.19</ele>
        <time>2021-03-19T21:16:31Z</time>
      </trkpt>
      <trkpt lat="55.68931" lon="-5.32663">
        <ele>2.51</ele>
        <time>2021-03-19T21:16:34Z</time>
      </trkpt>
      <trkpt lat="55.6894" lon="-5.32665">
        <ele>2.82</ele>
        <time>2021-03-19T21:16:38Z</time>
      </trkpt>
      <trkpt lat="55.68991" lon="-5.32688">
        <ele>2.24</ele>
        <time>2021-03-19T21:16:41Z</time>
      </trkpt>
      <trkpt lat="55.69005" lon="-5.3269">
        <ele>2.34</ele>
        <time>2021-03-19T21:16:45Z</time>
      </trkpt>
      <trkpt lat="55.69386" lon="-5.32612">
        <ele>3.81</ele>
        <time>2021-03-19T21:16:48Z</time>
      </trkpt>
      <trkpt lat="55.69419" lon="-5.32612">
        <ele>3.97</ele>
        <time>2021-03-19T21:16:52Z</time>
      </trkpt>
      <trkpt lat="55.69432" lon="-5.32616">
        <ele>3.62</ele>
        <time>2021-03-19T21:16:55Z</time>
      </trkpt>
      <trkpt lat="55.69474" lon="-5.32642">
        <ele>2.96</ele>
        <time>2021-03-19T21:16:59Z</time>
      </trkpt>
      <trkpt lat="55.6951" lon="-5.32648">
        <ele>3.56</ele>
        <time>2021-03-19T21:17:02Z</time>
      </trkpt>
      <trkpt lat="55.69543" lon="-5.32645">
        <ele>3.04</ele>
        <time>2021-03-19T21:17:06Z</time>
      </trkpt>
      <trkpt lat="55.69574" lon="-5.32636">
        <ele>2.49</ele>
        <time>2021-03-19T21:17:10Z</time>
      </trkpt>
      <trkpt lat="55.69599" lon="-5.32625">
        <ele>1.95</ele>
        <time>2021-03-19T21:17:13Z</time>
      </trkpt>
      <trkpt lat="55.69643" lon="-5.326">
        <ele>3.12</ele>
        <time>2021-03-19T21:17:17Z</time>
      </trkpt>
      <trkpt lat="55.69712" lon="-5.32536">
        <ele>6.24</ele>
        <time>2021-03-19T21:17:20Z</time>
      </trkpt>
      <trkpt lat="55.6973" lon="-5.32523">
        <ele>7.3</ele>
        <time>2021-03-19T21:17:24Z</time>
      </trkpt>
      <trkpt lat="55.69741" lon="-5.32517">
        <ele>7.32</ele>
        <time>2021-03-19T21:17:27Z</time>
      </trkpt>
      <trkpt lat="55.69781" lon="-5.32507">
        <ele>6.91</ele>
        <time>2021-03-19T21:17:31Z</time>
      </trkpt>
      <trkpt lat="55.69829" lon="-5.32485">
        <ele>9.15</ele>
        <time>2021-03-19T21:17:34Z</time>
      </trkpt>
      <trkpt lat="55.69922" lon="-5.32422">
        <ele>12.25</ele>
        <time>2021-03-19T21:17:38Z</time>
      </trkpt>
      <trkpt lat="55.69999" lon="-5.32338">
        <ele>13.81</ele>
        <time>2021-03-19T21:17:41Z</time>
      </trkpt>
      <trkpt lat="55.70091" lon="-5.32253">
        <ele>8.39</ele>
        <time>2021-03-19T21:17:45Z</time>
      </trkpt>
      <trkpt lat="55.70256" lon="-5.32082">
        <ele>9.4</ele>
        <time>2021-03-19T21:17:48Z</time>
      </trkpt>
      <trkpt lat="55.70372" lon="-5.31943">
        <ele>4.39</ele>
        <time>2021-03-19T21:17:52Z</time>
      </trkpt>
      <trkpt lat="55.70423" lon="-5.31861">
        <ele>4.71</ele>
        <time>2021-03-19T21:17:55Z</time>
      </trkpt>
      <trkpt lat="55.70566" lon="-5.31641">
        <ele>2.23</ele>
        <time>2021-03-19T21:17:59Z</time>
      </trkpt>
      <trkpt lat="55.70591" lon="-5.31559">
        <ele>3.22</ele>
        <time>2021-03-19T21:18:03Z</time>
      </trkpt>
      <trkpt lat="55.70608" lon="-5.31475">
        <ele>6.02</ele>
        <time>2021-03-19T21:18:06Z</time>
      </trkpt>
      <trkpt lat="55.70621" lon="-5.3139">
        <ele>6.85</ele>
        <time>2021-03-19T21:18:10Z</time>
      </trkpt>
      <trkpt lat="55.7064" lon="-5.31241">
        <ele>8.37</ele>
        <time>2021-03-19T21:18:13Z</time>
      </trkpt>
      <trkpt lat="55.7064" lon="-5.31241">
        <ele>8.37</ele>
        <time>2021-03-19T21:18:13Z</time>
      </trkpt>
      <trkpt lat="55.70657" lon="-5.31114">
        <ele>9.88</ele>
        <time>2021-03-19T21:18:17Z</time>
      </trkpt>
      <trkpt lat="55.70679" lon="-5.30983">
        <ele>12.55</ele>
        <time>2021-03-19T21:18:21Z</time>
      </trkpt>
      <trkpt lat="55.70687" lon="-5.30907">
        <ele>13.11</ele>
        <time>2021-03-19T21:18:25Z</time>
      </trkpt>
      <trkpt lat="55.707" lon="-5.30838">
        <ele>11.03</ele>
        <time>2021-03-19T21:18:29Z</time>
      </trkpt>
      <trkpt lat="55.70716" lon="-5.30709">
        <ele>11.11</ele>
        <time>2021-03-19T21:18:33Z</time>
      </trkpt>
      <trkpt lat="55.70723" lon="-5.30679">
        <ele>8.83</ele>
        <time>2021-03-19T21:18:37Z</time>
      </trkpt>
      <trkpt lat="55.70745" lon="-5.30609">
        <ele>5.06</ele>
        <time>2021-03-19T21:18:41Z</time>
      </trkpt>
      <trkpt lat="55.70747" lon="-5.30583">
        <ele>5.19</ele>
        <time>2021-03-19T21:18:45Z</time>
      </trkpt>
      <trkpt lat="55.70746" lon="-5.30491">
        <ele>7.7</ele>
        <time>2021-03-19T21:18:48Z</time>
      </trkpt>
      <trkpt lat="55.70747" lon="-5.30457">
        <ele>7.05</ele>
        <time>2021-03-19T21:18:52Z</time>
      </trkpt>
      <trkpt lat="55.70752" lon="-5.30417">
        <ele>6.53</ele>
        <time>2021-03-19T21:18:56Z</time>
      </trkpt>
      <trkpt lat="55.70754" lon="-5.30383">
        <ele>8.12</ele>
        <time>2021-03-19T21:19:00Z</time>
      </trkpt>
      <trkpt lat="55.70749" lon="-5.30315">
        <ele>8.66</ele>
        <time>2021-03-19T21:19:04Z</time>
      </trkpt>
      <trkpt lat="55.70754" lon="-5.30232">
        <ele>4.97</ele>
        <time>2021-03-19T21:19:08Z</time>
      </trkpt>
      <trkpt lat="55.70753" lon="-5.30196">
        <ele>4.76</ele>
        <time>2021-03-19T21:19:12Z</time>
      </trkpt>
      <trkpt lat="55.7075" lon="-5.30168">
        <ele>4.03</ele>
        <time>2021-03-19T21:19:16Z</time>
      </trkpt>
      <trkpt lat="55.70728" lon="-5.30057">
        <ele>3.41</ele>
        <time>2021-03-19T21:19:20Z</time>
      </trkpt>
      <trkpt lat="55.70712" lon="-5.29959">
        <ele>2.58</ele>
        <time>2021-03-19T21:19:24Z</time>
      </trkpt>
      <trkpt lat="55.70707" lon="-5.29908">
        <ele>1.73</ele>
        <time>2021-03-19T21:19:27Z</time>
      </trkpt>
      <trkpt lat="55.70704" lon="-5.29894">
        <ele>1.22</ele>
        <time>2021-03-19T21:19:31Z</time>
      </trkpt>
      <trkpt lat="55.70693" lon="-5.29881">
        <ele>1.08</ele>
        <time>2021-03-19T21:19:35Z</time>
      </trkpt>
      <trkpt lat="55.70647" lon="-5.29865">
        <ele>2.82</ele>
        <time>2021-03-19T21:19:39Z</time>
      </trkpt>
      <trkpt lat="55.70642" lon="-5.29859">
        <ele>2.75</ele>
        <time>2021-03-19T21:19:43Z</time>
      </trkpt>
      <trkpt lat="55.70616" lon="-5.29801">
        <ele>1.58</ele>
        <time>2021-03-19T21:19:47Z</time>
      </trkpt>
      <trkpt lat="55.70568" lon="-5.29706">
        <ele>1.92</ele>
        <time>2021-03-19T21:19:51Z</time>
      </trkpt>
      <trkpt lat="55.70542" lon="-5.29638">
        <ele>2.96</ele>
        <time>2021-03-19T21:19:55Z</time>
      </trkpt>
      <trkpt lat="55.70505" lon="-5.29549">
        <ele>1.83</ele>
        <time>2021-03-19T21:19:59Z</time>
      </trkpt>
      <trkpt lat="55.70494" lon="-5.29512">
        <ele>3.14</ele>
        <time>2021-03-19T21:20:03Z</time>
      </trkpt>
      <trkpt lat="55.70481" lon="-5.29439">
        <ele>4.26</ele>
        <time>2021-03-19T21:20:07Z</time>
      </trkpt>
      <trkpt lat="55.70477" lon="-5.29423">
        <ele>4.53</ele>
        <time>2021-03-19T21:20:10Z</time>
      </trkpt>
      <trkpt lat="55.70395" lon="-5.29174">
        <ele>6.88</ele>
        <time>2021-03-19T21:20:14Z</time>
      </trkpt>
      <trkpt lat="55.70393" lon="-5.29124">
        <ele>5.13</ele>
        <time>2021-03-19T21:20:18Z</time>
      </trkpt>
      <trkpt lat="55.70401" lon="-5.29037">
        <ele>1.77</ele>
        <time>2021-03-19T21:20:22Z</time>
      </trkpt>
      <trkpt lat="55.70401" lon="-5.29018">
        <ele>1.37</ele>
        <time>2021-03-19T21:20:26Z</time>
      </trkpt>
      <trkpt lat="55.70398" lon="-5.28995">
        <ele>1</ele>
        <time>2021-03-19T21:20:30Z</time>
      </trkpt>
      <trkpt lat="55.70393" lon="-5.28974">
        <ele>1</ele>
        <time>2021-03-19T21:20:34Z</time>
      </trkpt>
      <trkpt lat="55.70354" lon="-5.28861">
        <ele>1.51</ele>
        <time>2021-03-19T21:20:38Z</time>
      </trkpt>
      <trkpt lat="55.70346" lon="-5.28846">
        <ele>1.52</ele>
        <time>2021-03-19T21:20:42Z</time>
      </trkpt>
      <trkpt lat="55.70329" lon="-5.2882">
        <ele>2.14</ele>
        <time>2021-03-19T21:20:46Z</time>
      </trkpt>
      <trkpt lat="55.70256" lon="-5.28743">
        <ele>6.77</ele>
        <time>2021-03-19T21:20:49Z</time>
      </trkpt>
      <trkpt lat="55.70233" lon="-5.28711">
        <ele>6.85</ele>
        <time>2021-03-19T21:20:53Z</time>
      </trkpt>
      <trkpt lat="55.70223" lon="-5.28688">
        <ele>6.53</ele>
        <time>2021-03-19T21:20:57Z</time>
      </trkpt>
      <trkpt lat="55.7018" lon="-5.28509">
        <ele>3.53</ele>
        <time>2021-03-19T21:21:01Z</time>
      </trkpt>
      <trkpt lat="55.70147" lon="-5.28363">
        <ele>3.69</ele>
        <time>2021-03-19T21:21:05Z</time>
      </trkpt>
      <trkpt lat="55.70082" lon="-5.28173">
        <ele>3.99</ele>
        <time>2021-03-19T21:21:09Z</time>
      </trkpt>
      <trkpt lat="55.69977" lon="-5.27903">
        <ele>8.31</ele>
        <time>2021-03-19T21:21:13Z</time>
      </trkpt>
      <trkpt lat="55.69917" lon="-5.27741">
        <ele>8.33</ele>
        <time>2021-03-19T21:21:17Z</time>
      </trkpt>
      <trkpt lat="55.69904" lon="-5.27711">
        <ele>9.84</ele>
        <time>2021-03-19T21:21:21Z</time>
      </trkpt>
      <trkpt lat="55.69844" lon="-5.27549">
        <ele>12</ele>
        <time>2021-03-19T21:21:25Z</time>
      </trkpt>
      <trkpt lat="55.69802" lon="-5.27431">
        <ele>15</ele>
        <time>2021-03-19T21:21:29Z</time>
      </trkpt>
      <trkpt lat="55.69792" lon="-5.27375">
        <ele>15.48</ele>
        <time>2021-03-19T21:21:32Z</time>
      </trkpt>
      <trkpt lat="55.69791" lon="-5.2735">
        <ele>15.12</ele>
        <time>2021-03-19T21:21:36Z</time>
      </trkpt>
      <trkpt lat="55.6979" lon="-5.27305">
        <ele>15</ele>
        <time>2021-03-19T21:21:40Z</time>
      </trkpt>
      <trkpt lat="55.69792" lon="-5.27258">
        <ele>16.36</ele>
        <time>2021-03-19T21:21:44Z</time>
      </trkpt>
      <trkpt lat="55.69801" lon="-5.2722">
        <ele>18.69</ele>
        <time>2021-03-19T21:21:48Z</time>
      </trkpt>
      <trkpt lat="55.69872" lon="-5.27024">
        <ele>30.22</ele>
        <time>2021-03-19T21:21:52Z</time>
      </trkpt>
      <trkpt lat="55.69878" lon="-5.27004">
        <ele>31.45</ele>
        <time>2021-03-19T21:21:56Z</time>
      </trkpt>
      <trkpt lat="55.69904" lon="-5.26836">
        <ele>39.23</ele>
        <time>2021-03-19T21:22:00Z</time>
      </trkpt>
      <trkpt lat="55.69911" lon="-5.26805">
        <ele>40.81</ele>
        <time>2021-03-19T21:22:04Z</time>
      </trkpt>
      <trkpt lat="55.69922" lon="-5.26782">
        <ele>41.62</ele>
        <time>2021-03-19T21:22:08Z</time>
      </trkpt>
      <trkpt lat="55.69965" lon="-5.26724">
        <ele>40.15</ele>
        <time>2021-03-19T21:22:11Z</time>
      </trkpt>
      <trkpt lat="55.6999" lon="-5.26683">
        <ele>43.92</ele>
        <time>2021-03-19T21:22:15Z</time>
      </trkpt>
      <trkpt lat="55.70008" lon="-5.26643">
        <ele>46.81</ele>
        <time>2021-03-19T21:22:19Z</time>
      </trkpt>
      <trkpt lat="55.70028" lon="-5.26586">
        <ele>48.76</ele>
        <time>2021-03-19T21:22:23Z</time>
      </trkpt>
      <trkpt lat="55.70035" lon="-5.26556">
        <ele>50.32</ele>
        <time>2021-03-19T21:22:27Z</time>
      </trkpt>
      <trkpt lat="55.70049" lon="-5.26463">
        <ele>54.67</ele>
        <time>2021-03-19T21:22:31Z</time>
      </trkpt>
      <trkpt lat="55.7007" lon="-5.26384">
        <ele>59.89</ele>
        <time>2021-03-19T21:22:35Z</time>
      </trkpt>
      <trkpt lat="55.70076" lon="-5.26354">
        <ele>61.3</ele>
        <time>2021-03-19T21:22:39Z</time>
      </trkpt>
      <trkpt lat="55.70084" lon="-5.26291">
        <ele>63.38</ele>
        <time>2021-03-19T21:22:43Z</time>
      </trkpt>
      <trkpt lat="55.70088" lon="-5.26203">
        <ele>64.04</ele>
        <time>2021-03-19T21:22:47Z</time>
      </trkpt>
      <trkpt lat="55.70085" lon="-5.2613">
        <ele>66.01</ele>
        <time>2021-03-19T21:22:50Z</time>
      </trkpt>
      <trkpt lat="55.70079" lon="-5.26058">
        <ele>68.83</ele>
        <time>2021-03-19T21:22:54Z</time>
      </trkpt>
      <trkpt lat="55.70063" lon="-5.25952">
        <ele>70.29</ele>
        <time>2021-03-19T21:22:58Z</time>
      </trkpt>
      <trkpt lat="55.70051" lon="-5.25892">
        <ele>70.89</ele>
        <time>2021-03-19T21:23:02Z</time>
      </trkpt>
      <trkpt lat="55.70037" lon="-5.25837">
        <ele>72.23</ele>
        <time>2021-03-19T21:23:06Z</time>
      </trkpt>
      <trkpt lat="55.70008" lon="-5.25758">
        <ele>72.45</ele>
        <time>2021-03-19T21:23:10Z</time>
      </trkpt>
      <trkpt lat="55.69971" lon="-5.25682">
        <ele>70.43</ele>
        <time>2021-03-19T21:23:14Z</time>
      </trkpt>
      <trkpt lat="55.69943" lon="-5.25633">
        <ele>69.53</ele>
        <time>2021-03-19T21:23:18Z</time>
      </trkpt>
      <trkpt lat="55.69916" lon="-5.2559">
        <ele>68.61</ele>
        <time>2021-03-19T21:23:22Z</time>
      </trkpt>
      <trkpt lat="55.69891" lon="-5.2554">
        <ele>68.61</ele>
        <time>2021-03-19T21:23:26Z</time>
      </trkpt>
      <trkpt lat="55.69875" lon="-5.25517">
        <ele>68.84</ele>
        <time>2021-03-19T21:23:30Z</time>
      </trkpt>
      <trkpt lat="55.69772" lon="-5.25444">
        <ele>74.88</ele>
        <time>2021-03-19T21:23:33Z</time>
      </trkpt>
      <trkpt lat="55.69718" lon="-5.25393">
        <ele>77.1</ele>
        <time>2021-03-19T21:23:37Z</time>
      </trkpt>
      <trkpt lat="55.6968" lon="-5.25362">
        <ele>78.21</ele>
        <time>2021-03-19T21:23:41Z</time>
      </trkpt>
      <trkpt lat="55.69659" lon="-5.25341">
        <ele>79.59</ele>
        <time>2021-03-19T21:23:45Z</time>
      </trkpt>
      <trkpt lat="55.69622" lon="-5.25299">
        <ele>82.31</ele>
        <time>2021-03-19T21:23:49Z</time>
      </trkpt>
      <trkpt lat="55.69599" lon="-5.2527">
        <ele>83.03</ele>
        <time>2021-03-19T21:23:53Z</time>
      </trkpt>
      <trkpt lat="55.69568" lon="-5.25221">
        <ele>83.7</ele>
        <time>2021-03-19T21:23:57Z</time>
      </trkpt>
      <trkpt lat="55.69531" lon="-5.25191">
        <ele>89</ele>
        <time>2021-03-19T21:24:01Z</time>
      </trkpt>
      <trkpt lat="55.69508" lon="-5.25165">
        <ele>91.15</ele>
        <time>2021-03-19T21:24:05Z</time>
      </trkpt>
      <trkpt lat="55.69389" lon="-5.24992">
        <ele>99.39</ele>
        <time>2021-03-19T21:24:09Z</time>
      </trkpt>
      <trkpt lat="55.69374" lon="-5.24967">
        <ele>101.21</ele>
        <time>2021-03-19T21:24:12Z</time>
      </trkpt>
      <trkpt lat="55.69358" lon="-5.24936">
        <ele>102.23</ele>
        <time>2021-03-19T21:24:16Z</time>
      </trkpt>
      <trkpt lat="55.69332" lon="-5.24869">
        <ele>101.78</ele>
        <time>2021-03-19T21:24:20Z</time>
      </trkpt>
      <trkpt lat="55.69313" lon="-5.24813">
        <ele>104.44</ele>
        <time>2021-03-19T21:24:24Z</time>
      </trkpt>
      <trkpt lat="55.69305" lon="-5.24799">
        <ele>105.68</ele>
        <time>2021-03-19T21:24:28Z</time>
      </trkpt>
      <trkpt lat="55.69299" lon="-5.24776">
        <ele>105.88</ele>
        <time>2021-03-19T21:24:32Z</time>
      </trkpt>
      <trkpt lat="55.69286" lon="-5.24696">
        <ele>108.9</ele>
        <time>2021-03-19T21:24:36Z</time>
      </trkpt>
      <trkpt lat="55.69272" lon="-5.2464">
        <ele>112.06</ele>
        <time>2021-03-19T21:24:40Z</time>
      </trkpt>
      <trkpt lat="55.69202" lon="-5.24315">
        <ele>134.41</ele>
        <time>2021-03-19T21:24:44Z</time>
      </trkpt>
      <trkpt lat="55.69175" lon="-5.2421">
        <ele>138.81</ele>
        <time>2021-03-19T21:24:48Z</time>
      </trkpt>
      <trkpt lat="55.69057" lon="-5.23827">
        <ele>157.43</ele>
        <time>2021-03-19T21:24:52Z</time>
      </trkpt>
      <trkpt lat="55.69008" lon="-5.23695">
        <ele>163.88</ele>
        <time>2021-03-19T21:24:55Z</time>
      </trkpt>
      <trkpt lat="55.68965" lon="-5.23554">
        <ele>172.15</ele>
        <time>2021-03-19T21:24:59Z</time>
      </trkpt>
      <trkpt lat="55.68875" lon="-5.23308">
        <ele>184.12</ele>
        <time>2021-03-19T21:25:03Z</time>
      </trkpt>
      <trkpt lat="55.68831" lon="-5.23138">
        <ele>188.59</ele>
        <time>2021-03-19T21:25:07Z</time>
      </trkpt>
      <trkpt lat="55.68737" lon="-5.22857">
        <ele>197.67</ele>
        <time>2021-03-19T21:25:11Z</time>
      </trkpt>
      <trkpt lat="55.68642" lon="-5.22647">
        <ele>199.82</ele>
        <time>2021-03-19T21:25:15Z</time>
      </trkpt>
      <trkpt lat="55.6859" lon="-5.22552">
        <ele>203</ele>
        <time>2021-03-19T21:25:19Z</time>
      </trkpt>
      <trkpt lat="55.68537" lon="-5.22465">
        <ele>202.81</ele>
        <time>2021-03-19T21:25:23Z</time>
      </trkpt>
      <trkpt lat="55.68387" lon="-5.22267">
        <ele>199.01</ele>
        <time>2021-03-19T21:25:27Z</time>
      </trkpt>
      <trkpt lat="55.68305" lon="-5.22121">
        <ele>193.19</ele>
        <time>2021-03-19T21:25:31Z</time>
      </trkpt>
      <trkpt lat="55.68224" lon="-5.22012">
        <ele>188.39</ele>
        <time>2021-03-19T21:25:34Z</time>
      </trkpt>
      <trkpt lat="55.68136" lon="-5.21872">
        <ele>180.75</ele>
        <time>2021-03-19T21:25:38Z</time>
      </trkpt>
      <trkpt lat="55.68047" lon="-5.21757">
        <ele>175.86</ele>
        <time>2021-03-19T21:25:42Z</time>
      </trkpt>
      <trkpt lat="55.67867" lon="-5.21483">
        <ele>163.91</ele>
        <time>2021-03-19T21:25:46Z</time>
      </trkpt>
      <trkpt lat="55.6785" lon="-5.21449">
        <ele>161.78</ele>
        <time>2021-03-19T21:25:50Z</time>
      </trkpt>
      <trkpt lat="55.67816" lon="-5.21327">
        <ele>158.29</ele>
        <time>2021-03-19T21:25:54Z</time>
      </trkpt>
      <trkpt lat="55.67764" lon="-5.21173">
        <ele>154.46</ele>
        <time>2021-03-19T21:25:58Z</time>
      </trkpt>
      <trkpt lat="55.67694" lon="-5.20957">
        <ele>141.91</ele>
        <time>2021-03-19T21:26:02Z</time>
      </trkpt>
      <trkpt lat="55.67681" lon="-5.20903">
        <ele>139.6</ele>
        <time>2021-03-19T21:26:06Z</time>
      </trkpt>
      <trkpt lat="55.67662" lon="-5.20855">
        <ele>136.32</ele>
        <time>2021-03-19T21:26:10Z</time>
      </trkpt>
      <trkpt lat="55.67639" lon="-5.20774">
        <ele>130.83</ele>
        <time>2021-03-19T21:26:14Z</time>
      </trkpt>
      <trkpt lat="55.6763" lon="-5.20725">
        <ele>126.89</ele>
        <time>2021-03-19T21:26:17Z</time>
      </trkpt>
      <trkpt lat="55.67613" lon="-5.20652">
        <ele>120.9</ele>
        <time>2021-03-19T21:26:21Z</time>
      </trkpt>
      <trkpt lat="55.67606" lon="-5.20575">
        <ele>117.1</ele>
        <time>2021-03-19T21:26:25Z</time>
      </trkpt>
      <trkpt lat="55.67599" lon="-5.20545">
        <ele>114.51</ele>
        <time>2021-03-19T21:26:29Z</time>
      </trkpt>
      <trkpt lat="55.67586" lon="-5.205">
        <ele>111.54</ele>
        <time>2021-03-19T21:26:33Z</time>
      </trkpt>
      <trkpt lat="55.67572" lon="-5.20437">
        <ele>108.94</ele>
        <time>2021-03-19T21:26:37Z</time>
      </trkpt>
      <trkpt lat="55.67553" lon="-5.20341">
        <ele>101.67</ele>
        <time>2021-03-19T21:26:41Z</time>
      </trkpt>
      <trkpt lat="55.67533" lon="-5.20264">
        <ele>95.11</ele>
        <time>2021-03-19T21:26:45Z</time>
      </trkpt>
      <trkpt lat="55.67517" lon="-5.20165">
        <ele>89.4</ele>
        <time>2021-03-19T21:26:49Z</time>
      </trkpt>
      <trkpt lat="55.67473" lon="-5.19939">
        <ele>78.25</ele>
        <time>2021-03-19T21:26:53Z</time>
      </trkpt>
      <trkpt lat="55.67467" lon="-5.19872">
        <ele>76.92</ele>
        <time>2021-03-19T21:26:56Z</time>
      </trkpt>
      <trkpt lat="55.67458" lon="-5.19838">
        <ele>75.42</ele>
        <time>2021-03-19T21:27:00Z</time>
      </trkpt>
      <trkpt lat="55.67426" lon="-5.19748">
        <ele>70.36</ele>
        <time>2021-03-19T21:27:04Z</time>
      </trkpt>
      <trkpt lat="55.67411" lon="-5.19702">
        <ele>69.37</ele>
        <time>2021-03-19T21:27:08Z</time>
      </trkpt>
      <trkpt lat="55.67399" lon="-5.19655">
        <ele>67.65</ele>
        <time>2021-03-19T21:27:12Z</time>
      </trkpt>
      <trkpt lat="55.67367" lon="-5.19418">
        <ele>56.68</ele>
        <time>2021-03-19T21:27:16Z</time>
      </trkpt>
      <trkpt lat="55.67361" lon="-5.19391">
        <ele>55.09</ele>
        <time>2021-03-19T21:27:20Z</time>
      </trkpt>
      <trkpt lat="55.67327" lon="-5.19281">
        <ele>51.12</ele>
        <time>2021-03-19T21:27:24Z</time>
      </trkpt>
      <trkpt lat="55.67323" lon="-5.19265">
        <ele>50.83</ele>
        <time>2021-03-19T21:27:28Z</time>
      </trkpt>
      <trkpt lat="55.67318" lon="-5.1923">
        <ele>49.74</ele>
        <time>2021-03-19T21:27:32Z</time>
      </trkpt>
      <trkpt lat="55.6731" lon="-5.18902">
        <ele>44.29</ele>
        <time>2021-03-19T21:27:35Z</time>
      </trkpt>
      <trkpt lat="55.67299" lon="-5.18834">
        <ele>45.46</ele>
        <time>2021-03-19T21:27:39Z</time>
      </trkpt>
      <trkpt lat="55.67297" lon="-5.18793">
        <ele>45.62</ele>
        <time>2021-03-19T21:27:43Z</time>
      </trkpt>
      <trkpt lat="55.67304" lon="-5.18622">
        <ele>40.07</ele>
        <time>2021-03-19T21:27:47Z</time>
      </trkpt>
      <trkpt lat="55.673" lon="-5.18523">
        <ele>39.72</ele>
        <time>2021-03-19T21:27:51Z</time>
      </trkpt>
      <trkpt lat="55.67272" lon="-5.18347">
        <ele>38.4</ele>
        <time>2021-03-19T21:27:55Z</time>
      </trkpt>
      <trkpt lat="55.6725" lon="-5.18178">
        <ele>37.43</ele>
        <time>2021-03-19T21:27:59Z</time>
      </trkpt>
      <trkpt lat="55.67194" lon="-5.17901">
        <ele>36.57</ele>
        <time>2021-03-19T21:28:03Z</time>
      </trkpt>
      <trkpt lat="55.67172" lon="-5.17755">
        <ele>36.32</ele>
        <time>2021-03-19T21:28:07Z</time>
      </trkpt>
      <trkpt lat="55.67143" lon="-5.17635">
        <ele>36.09</ele>
        <time>2021-03-19T21:28:11Z</time>
      </trkpt>
      <trkpt lat="55.67112" lon="-5.17471">
        <ele>38.5</ele>
        <time>2021-03-19T21:28:15Z</time>
      </trkpt>
      <trkpt lat="55.67037" lon="-5.17158">
        <ele>41.73</ele>
        <time>2021-03-19T21:28:18Z</time>
      </trkpt>
      <trkpt lat="55.66988" lon="-5.16979">
        <ele>44.23</ele>
        <time>2021-03-19T21:28:22Z</time>
      </trkpt>
      <trkpt lat="55.66955" lon="-5.16885">
        <ele>43.84</ele>
        <time>2021-03-19T21:28:26Z</time>
      </trkpt>
      <trkpt lat="55.66915" lon="-5.16816">
        <ele>44.65</ele>
        <time>2021-03-19T21:28:30Z</time>
      </trkpt>
      <trkpt lat="55.6689" lon="-5.16762">
        <ele>45.35</ele>
        <time>2021-03-19T21:28:34Z</time>
      </trkpt>
      <trkpt lat="55.66841" lon="-5.16591">
        <ele>48.03</ele>
        <time>2021-03-19T21:28:38Z</time>
      </trkpt>
      <trkpt lat="55.66804" lon="-5.16494">
        <ele>47</ele>
        <time>2021-03-19T21:28:42Z</time>
      </trkpt>
      <trkpt lat="55.66676" lon="-5.16268">
        <ele>38.18</ele>
        <time>2021-03-19T21:28:46Z</time>
      </trkpt>
      <trkpt lat="55.66646" lon="-5.16212">
        <ele>36.51</ele>
        <time>2021-03-19T21:28:50Z</time>
      </trkpt>
      <trkpt lat="55.66634" lon="-5.16182">
        <ele>35.73</ele>
        <time>2021-03-19T21:28:54Z</time>
      </trkpt>
      <trkpt lat="55.66591" lon="-5.16015">
        <ele>28.84</ele>
        <time>2021-03-19T21:28:57Z</time>
      </trkpt>
      <trkpt lat="55.66533" lon="-5.15863">
        <ele>26.71</ele>
        <time>2021-03-19T21:29:01Z</time>
      </trkpt>
      <trkpt lat="55.66501" lon="-5.15751">
        <ele>21.11</ele>
        <time>2021-03-19T21:29:05Z</time>
      </trkpt>
      <trkpt lat="55.66482" lon="-5.15703">
        <ele>19.5</ele>
        <time>2021-03-19T21:29:09Z</time>
      </trkpt>
      <trkpt lat="55.66456" lon="-5.15665">
        <ele>16.07</ele>
        <time>2021-03-19T21:29:13Z</time>
      </trkpt>
      <trkpt lat="55.66432" lon="-5.15636">
        <ele>12.78</ele>
        <time>2021-03-19T21:29:17Z</time>
      </trkpt>
      <trkpt lat="55.66403" lon="-5.15613">
        <ele>11.45</ele>
        <time>2021-03-19T21:29:21Z</time>
      </trkpt>
      <trkpt lat="55.6637" lon="-5.15595">
        <ele>8.64</ele>
        <time>2021-03-19T21:29:25Z</time>
      </trkpt>
      <trkpt lat="55.66355" lon="-5.15594">
        <ele>7.92</ele>
        <time>2021-03-19T21:29:29Z</time>
      </trkpt>
      <trkpt lat="55.66339" lon="-5.15605">
        <ele>7.4</ele>
        <time>2021-03-19T21:29:33Z</time>
      </trkpt>
      <trkpt lat="55.6633" lon="-5.15616">
        <ele>6.72</ele>
        <time>2021-03-19T21:29:37Z</time>
      </trkpt>
      <trkpt lat="55.66322" lon="-5.15633">
        <ele>6.11</ele>
        <time>2021-03-19T21:29:40Z</time>
      </trkpt>
      <trkpt lat="55.66316" lon="-5.15658">
        <ele>6</ele>
        <time>2021-03-19T21:29:44Z</time>
      </trkpt>
      <trkpt lat="55.66311" lon="-5.15676">
        <ele>6.27</ele>
        <time>2021-03-19T21:29:48Z</time>
      </trkpt>
      <trkpt lat="55.66307" lon="-5.15683">
        <ele>6.55</ele>
        <time>2021-03-19T21:29:52Z</time>
      </trkpt>
      <trkpt lat="55.66291" lon="-5.15684">
        <ele>6.61</ele>
        <time>2021-03-19T21:29:56Z</time>
      </trkpt>
      <trkpt lat="55.66272" lon="-5.15681">
        <ele>6.84</ele>
        <time>2021-03-19T21:30:00Z</time>
      </trkpt>
      <trkpt lat="55.66247" lon="-5.1567">
        <ele>7.27</ele>
        <time>2021-03-19T21:30:04Z</time>
      </trkpt>
      <trkpt lat="55.66228" lon="-5.15655">
        <ele>6.59</ele>
        <time>2021-03-19T21:30:08Z</time>
      </trkpt>
      <trkpt lat="55.66133" lon="-5.15518">
        <ele>2.85</ele>
        <time>2021-03-19T21:30:12Z</time>
      </trkpt>
      <trkpt lat="55.66047" lon="-5.15378">
        <ele>3.35</ele>
        <time>2021-03-19T21:30:16Z</time>
      </trkpt>
      <trkpt lat="55.65967" lon="-5.15227">
        <ele>2.77</ele>
        <time>2021-03-19T21:30:19Z</time>
      </trkpt>
      <trkpt lat="55.65908" lon="-5.15151">
        <ele>3.48</ele>
        <time>2021-03-19T21:30:23Z</time>
      </trkpt>
      <trkpt lat="55.6581" lon="-5.15049">
        <ele>2.65</ele>
        <time>2021-03-19T21:30:27Z</time>
      </trkpt>
      <trkpt lat="55.65697" lon="-5.14941">
        <ele>6.13</ele>
        <time>2021-03-19T21:30:31Z</time>
      </trkpt>
      <trkpt lat="55.65644" lon="-5.14913">
        <ele>8.14</ele>
        <time>2021-03-19T21:30:35Z</time>
      </trkpt>
      <trkpt lat="55.65363" lon="-5.14762">
        <ele>7.12</ele>
        <time>2021-03-19T21:30:39Z</time>
      </trkpt>
      <trkpt lat="55.65319" lon="-5.14744">
        <ele>8.23</ele>
        <time>2021-03-19T21:30:43Z</time>
      </trkpt>
      <trkpt lat="55.65265" lon="-5.14732">
        <ele>9.87</ele>
        <time>2021-03-19T21:30:47Z</time>
      </trkpt>
      <trkpt lat="55.65198" lon="-5.14702">
        <ele>11.27</ele>
        <time>2021-03-19T21:30:51Z</time>
      </trkpt>
      <trkpt lat="55.65172" lon="-5.1468">
        <ele>9.88</ele>
        <time>2021-03-19T21:30:55Z</time>
      </trkpt>
      <trkpt lat="55.65146" lon="-5.14654">
        <ele>10.91</ele>
        <time>2021-03-19T21:30:58Z</time>
      </trkpt>
      <trkpt lat="55.65125" lon="-5.14622">
        <ele>14.71</ele>
        <time>2021-03-19T21:31:02Z</time>
      </trkpt>
      <trkpt lat="55.65105" lon="-5.1458">
        <ele>16.47</ele>
        <time>2021-03-19T21:31:06Z</time>
      </trkpt>
      <trkpt lat="55.65093" lon="-5.14538">
        <ele>15.05</ele>
        <time>2021-03-19T21:31:10Z</time>
      </trkpt>
      <trkpt lat="55.65086" lon="-5.14493">
        <ele>9.89</ele>
        <time>2021-03-19T21:31:14Z</time>
      </trkpt>
      <trkpt lat="55.65077" lon="-5.1443">
        <ele>8.65</ele>
        <time>2021-03-19T21:31:18Z</time>
      </trkpt>
      <trkpt lat="55.65065" lon="-5.14392">
        <ele>6.64</ele>
        <time>2021-03-19T21:31:22Z</time>
      </trkpt>
      <trkpt lat="55.65057" lon="-5.14376">
        <ele>6.31</ele>
        <time>2021-03-19T21:31:26Z</time>
      </trkpt>
      <trkpt lat="55.65036" lon="-5.14342">
        <ele>5.28</ele>
        <time>2021-03-19T21:31:30Z</time>
      </trkpt>
      <trkpt lat="55.65001" lon="-5.14301">
        <ele>4.39</ele>
        <time>2021-03-19T21:31:34Z</time>
      </trkpt>
      <trkpt lat="55.6491" lon="-5.14247">
        <ele>5.89</ele>
        <time>2021-03-19T21:31:38Z</time>
      </trkpt>
      <trkpt lat="55.64857" lon="-5.1422">
        <ele>4.95</ele>
        <time>2021-03-19T21:31:41Z</time>
      </trkpt>
      <trkpt lat="55.64809" lon="-5.142">
        <ele>5.29</ele>
        <time>2021-03-19T21:31:45Z</time>
      </trkpt>
      <trkpt lat="55.64736" lon="-5.14178">
        <ele>6.12</ele>
        <time>2021-03-19T21:31:49Z</time>
      </trkpt>
      <trkpt lat="55.64663" lon="-5.14146">
        <ele>5.86</ele>
        <time>2021-03-19T21:31:53Z</time>
      </trkpt>
      <trkpt lat="55.64631" lon="-5.14135">
        <ele>5.93</ele>
        <time>2021-03-19T21:31:57Z</time>
      </trkpt>
      <trkpt lat="55.64598" lon="-5.1413">
        <ele>6.42</ele>
        <time>2021-03-19T21:32:01Z</time>
      </trkpt>
      <trkpt lat="55.64573" lon="-5.14121">
        <ele>5.92</ele>
        <time>2021-03-19T21:32:05Z</time>
      </trkpt>
      <trkpt lat="55.64559" lon="-5.1412">
        <ele>6.47</ele>
        <time>2021-03-19T21:32:09Z</time>
      </trkpt>
      <trkpt lat="55.64537" lon="-5.1413">
        <ele>10.19</ele>
        <time>2021-03-19T21:32:13Z</time>
      </trkpt>
      <trkpt lat="55.64528" lon="-5.1413">
        <ele>11.02</ele>
        <time>2021-03-19T21:32:17Z</time>
      </trkpt>
      <trkpt lat="55.64522" lon="-5.14126">
        <ele>11.22</ele>
        <time>2021-03-19T21:32:20Z</time>
      </trkpt>
      <trkpt lat="55.64517" lon="-5.14117">
        <ele>10.18</ele>
        <time>2021-03-19T21:32:24Z</time>
      </trkpt>
      <trkpt lat="55.64512" lon="-5.14093">
        <ele>7.76</ele>
        <time>2021-03-19T21:32:28Z</time>
      </trkpt>
      <trkpt lat="55.645" lon="-5.14076">
        <ele>6.7</ele>
        <time>2021-03-19T21:32:32Z</time>
      </trkpt>
      <trkpt lat="55.64441" lon="-5.14026">
        <ele>7.43</ele>
        <time>2021-03-19T21:32:36Z</time>
      </trkpt>
      <trkpt lat="55.64434" lon="-5.14017">
        <ele>7.31</ele>
        <time>2021-03-19T21:32:40Z</time>
      </trkpt>
      <trkpt lat="55.64427" lon="-5.13996">
        <ele>5.64</ele>
        <time>2021-03-19T21:32:44Z</time>
      </trkpt>
      <trkpt lat="55.64418" lon="-5.13959">
        <ele>3.95</ele>
        <time>2021-03-19T21:32:48Z</time>
      </trkpt>
      <trkpt lat="55.64411" lon="-5.13947">
        <ele>3.63</ele>
        <time>2021-03-19T21:32:52Z</time>
      </trkpt>
      <trkpt lat="55.6433" lon="-5.139">
        <ele>4.47</ele>
        <time>2021-03-19T21:32:56Z</time>
      </trkpt>
      <trkpt lat="55.6432" lon="-5.13897">
        <ele>4.97</ele>
        <time>2021-03-19T21:33:00Z</time>
      </trkpt>
      <trkpt lat="55.64205" lon="-5.13886">
        <ele>5.35</ele>
        <time>2021-03-19T21:33:03Z</time>
      </trkpt>
      <trkpt lat="55.64147" lon="-5.13894">
        <ele>6.58</ele>
        <time>2021-03-19T21:33:07Z</time>
      </trkpt>
      <trkpt lat="55.64134" lon="-5.13886">
        <ele>5.99</ele>
        <time>2021-03-19T21:33:11Z</time>
      </trkpt>
      <trkpt lat="55.64116" lon="-5.13865">
        <ele>5.12</ele>
        <time>2021-03-19T21:33:15Z</time>
      </trkpt>
      <trkpt lat="55.64105" lon="-5.13857">
        <ele>4.55</ele>
        <time>2021-03-19T21:33:19Z</time>
      </trkpt>
      <trkpt lat="55.64072" lon="-5.13844">
        <ele>4.03</ele>
        <time>2021-03-19T21:33:23Z</time>
      </trkpt>
      <trkpt lat="55.63932" lon="-5.13823">
        <ele>4.45</ele>
        <time>2021-03-19T21:33:27Z</time>
      </trkpt>
      <trkpt lat="55.63911" lon="-5.13823">
        <ele>4.41</ele>
        <time>2021-03-19T21:33:31Z</time>
      </trkpt>
      <trkpt lat="55.63884" lon="-5.1383">
        <ele>3.9</ele>
        <time>2021-03-19T21:33:35Z</time>
      </trkpt>
      <trkpt lat="55.63847" lon="-5.13844">
        <ele>4.36</ele>
        <time>2021-03-19T21:33:39Z</time>
      </trkpt>
      <trkpt lat="55.63812" lon="-5.13865">
        <ele>5.9</ele>
        <time>2021-03-19T21:33:42Z</time>
      </trkpt>
      <trkpt lat="55.638" lon="-5.13868">
        <ele>6.25</ele>
        <time>2021-03-19T21:33:46Z</time>
      </trkpt>
      <trkpt lat="55.6378" lon="-5.13871">
        <ele>6.36</ele>
        <time>2021-03-19T21:33:50Z</time>
      </trkpt>
      <trkpt lat="55.63672" lon="-5.1387">
        <ele>4.3</ele>
        <time>2021-03-19T21:33:54Z</time>
      </trkpt>
      <trkpt lat="55.63633" lon="-5.13864">
        <ele>5.29</ele>
        <time>2021-03-19T21:33:58Z</time>
      </trkpt>
      <trkpt lat="55.63531" lon="-5.13834">
        <ele>3.03</ele>
        <time>2021-03-19T21:34:02Z</time>
      </trkpt>
      <trkpt lat="55.63394" lon="-5.13776">
        <ele>3.94</ele>
        <time>2021-03-19T21:34:06Z</time>
      </trkpt>
      <trkpt lat="55.63353" lon="-5.13751">
        <ele>2.75</ele>
        <time>2021-03-19T21:34:10Z</time>
      </trkpt>
      <trkpt lat="55.63309" lon="-5.1374">
        <ele>2.17</ele>
        <time>2021-03-19T21:34:14Z</time>
      </trkpt>
      <trkpt lat="55.63247" lon="-5.1373">
        <ele>2.87</ele>
        <time>2021-03-19T21:34:18Z</time>
      </trkpt>
      <trkpt lat="55.63178" lon="-5.13742">
        <ele>2.4</ele>
        <time>2021-03-19T21:34:22Z</time>
      </trkpt>
      <trkpt lat="55.63141" lon="-5.13745">
        <ele>2.67</ele>
        <time>2021-03-19T21:34:25Z</time>
      </trkpt>
      <trkpt lat="55.63109" lon="-5.13737">
        <ele>3.17</ele>
        <time>2021-03-19T21:34:29Z</time>
      </trkpt>
      <trkpt lat="55.63079" lon="-5.13724">
        <ele>3.52</ele>
        <time>2021-03-19T21:34:33Z</time>
      </trkpt>
      <trkpt lat="55.62868" lon="-5.13691">
        <ele>5.67</ele>
        <time>2021-03-19T21:34:37Z</time>
      </trkpt>
      <trkpt lat="55.62816" lon="-5.13673">
        <ele>5.28</ele>
        <time>2021-03-19T21:34:41Z</time>
      </trkpt>
      <trkpt lat="55.62753" lon="-5.13641">
        <ele>5.07</ele>
        <time>2021-03-19T21:34:45Z</time>
      </trkpt>
      <trkpt lat="55.627" lon="-5.13607">
        <ele>5.47</ele>
        <time>2021-03-19T21:34:49Z</time>
      </trkpt>
      <trkpt lat="55.62659" lon="-5.13568">
        <ele>4.35</ele>
        <time>2021-03-19T21:34:53Z</time>
      </trkpt>
      <trkpt lat="55.62633" lon="-5.13551">
        <ele>4.26</ele>
        <time>2021-03-19T21:34:57Z</time>
      </trkpt>
      <trkpt lat="55.62501" lon="-5.1349">
        <ele>6.61</ele>
        <time>2021-03-19T21:35:01Z</time>
      </trkpt>
      <trkpt lat="55.62461" lon="-5.13468">
        <ele>6.05</ele>
        <time>2021-03-19T21:35:04Z</time>
      </trkpt>
      <trkpt lat="55.62443" lon="-5.13453">
        <ele>5.58</ele>
        <time>2021-03-19T21:35:08Z</time>
      </trkpt>
      <trkpt lat="55.62395" lon="-5.13401">
        <ele>2.85</ele>
        <time>2021-03-19T21:35:12Z</time>
      </trkpt>
      <trkpt lat="55.62373" lon="-5.13385">
        <ele>1.88</ele>
        <time>2021-03-19T21:35:16Z</time>
      </trkpt>
      <trkpt lat="55.62348" lon="-5.13378">
        <ele>1.8</ele>
        <time>2021-03-19T21:35:20Z</time>
      </trkpt>
      <trkpt lat="55.62215" lon="-5.13366">
        <ele>1.7</ele>
        <time>2021-03-19T21:35:24Z</time>
      </trkpt>
      <trkpt lat="55.62159" lon="-5.13337">
        <ele>2.52</ele>
        <time>2021-03-19T21:35:28Z</time>
      </trkpt>
      <trkpt lat="55.62107" lon="-5.13319">
        <ele>2.47</ele>
        <time>2021-03-19T21:35:32Z</time>
      </trkpt>
      <trkpt lat="55.618" lon="-5.13135">
        <ele>6.93</ele>
        <time>2021-03-19T21:35:36Z</time>
      </trkpt>
      <trkpt lat="55.61785" lon="-5.13121">
        <ele>6.15</ele>
        <time>2021-03-19T21:35:40Z</time>
      </trkpt>
      <trkpt lat="55.61723" lon="-5.13046">
        <ele>6.25</ele>
        <time>2021-03-19T21:35:43Z</time>
      </trkpt>
      <trkpt lat="55.61712" lon="-5.13038">
        <ele>7.28</ele>
        <time>2021-03-19T21:35:47Z</time>
      </trkpt>
      <trkpt lat="55.61676" lon="-5.1302">
        <ele>8.85</ele>
        <time>2021-03-19T21:35:51Z</time>
      </trkpt>
      <trkpt lat="55.61632" lon="-5.13005">
        <ele>8.58</ele>
        <time>2021-03-19T21:35:55Z</time>
      </trkpt>
      <trkpt lat="55.61527" lon="-5.12977">
        <ele>11.64</ele>
        <time>2021-03-19T21:35:59Z</time>
      </trkpt>
      <trkpt lat="55.61477" lon="-5.12957">
        <ele>7.35</ele>
        <time>2021-03-19T21:36:03Z</time>
      </trkpt>
      <trkpt lat="55.61354" lon="-5.12925">
        <ele>5.38</ele>
        <time>2021-03-19T21:36:07Z</time>
      </trkpt>
      <trkpt lat="55.61325" lon="-5.12916">
        <ele>2.97</ele>
        <time>2021-03-19T21:36:11Z</time>
      </trkpt>
      <trkpt lat="55.61263" lon="-5.12889">
        <ele>2.03</ele>
        <time>2021-03-19T21:36:15Z</time>
      </trkpt>
      <trkpt lat="55.61247" lon="-5.12887">
        <ele>1.87</ele>
        <time>2021-03-19T21:36:19Z</time>
      </trkpt>
      <trkpt lat="55.61213" lon="-5.12891">
        <ele>1.53</ele>
        <time>2021-03-19T21:36:23Z</time>
      </trkpt>
      <trkpt lat="55.60995" lon="-5.12938">
        <ele>7.38</ele>
        <time>2021-03-19T21:36:26Z</time>
      </trkpt>
      <trkpt lat="55.6093" lon="-5.12966">
        <ele>8.95</ele>
        <time>2021-03-19T21:36:30Z</time>
      </trkpt>
      <trkpt lat="55.60887" lon="-5.12978">
        <ele>9.75</ele>
        <time>2021-03-19T21:36:34Z</time>
      </trkpt>
      <trkpt lat="55.60867" lon="-5.12988">
        <ele>10.02</ele>
        <time>2021-03-19T21:36:38Z</time>
      </trkpt>
      <trkpt lat="55.60795" lon="-5.13049">
        <ele>9.29</ele>
        <time>2021-03-19T21:36:42Z</time>
      </trkpt>
      <trkpt lat="55.6076" lon="-5.1307">
        <ele>8.82</ele>
        <time>2021-03-19T21:36:46Z</time>
      </trkpt>
      <trkpt lat="55.60725" lon="-5.13077">
        <ele>7.3</ele>
        <time>2021-03-19T21:36:50Z</time>
      </trkpt>
      <trkpt lat="55.60693" lon="-5.13074">
        <ele>7.3</ele>
        <time>2021-03-19T21:36:54Z</time>
      </trkpt>
      <trkpt lat="55.60674" lon="-5.13068">
        <ele>7</ele>
        <time>2021-03-19T21:36:58Z</time>
      </trkpt>
      <trkpt lat="55.6066" lon="-5.13068">
        <ele>6.85</ele>
        <time>2021-03-19T21:37:02Z</time>
      </trkpt>
      <trkpt lat="55.6065" lon="-5.1307">
        <ele>6.72</ele>
        <time>2021-03-19T21:37:05Z</time>
      </trkpt>
      <trkpt lat="55.60626" lon="-5.13094">
        <ele>8.02</ele>
        <time>2021-03-19T21:37:09Z</time>
      </trkpt>
      <trkpt lat="55.60504" lon="-5.13229">
        <ele>10.73</ele>
        <time>2021-03-19T21:37:13Z</time>
      </trkpt>
      <trkpt lat="55.60481" lon="-5.13248">
        <ele>11.62</ele>
        <time>2021-03-19T21:37:17Z</time>
      </trkpt>
      <trkpt lat="55.60466" lon="-5.13257">
        <ele>11.57</ele>
        <time>2021-03-19T21:37:21Z</time>
      </trkpt>
      <trkpt lat="55.60397" lon="-5.1328">
        <ele>11.08</ele>
        <time>2021-03-19T21:37:25Z</time>
      </trkpt>
      <trkpt lat="55.60269" lon="-5.13312">
        <ele>14.02</ele>
        <time>2021-03-19T21:37:29Z</time>
      </trkpt>
      <trkpt lat="55.60242" lon="-5.13323">
        <ele>12.04</ele>
        <time>2021-03-19T21:37:33Z</time>
      </trkpt>
      <trkpt lat="55.60224" lon="-5.13338">
        <ele>11.64</ele>
        <time>2021-03-19T21:37:37Z</time>
      </trkpt>
      <trkpt lat="55.60207" lon="-5.13358">
        <ele>12.47</ele>
        <time>2021-03-19T21:37:41Z</time>
      </trkpt>
      <trkpt lat="55.6017" lon="-5.13412">
        <ele>13.14</ele>
        <time>2021-03-19T21:37:45Z</time>
      </trkpt>
      <trkpt lat="55.60126" lon="-5.13477">
        <ele>9.63</ele>
        <time>2021-03-19T21:37:48Z</time>
      </trkpt>
      <trkpt lat="55.60112" lon="-5.13503">
        <ele>9.44</ele>
        <time>2021-03-19T21:37:52Z</time>
      </trkpt>
      <trkpt lat="55.60106" lon="-5.13519">
        <ele>10.31</ele>
        <time>2021-03-19T21:37:56Z</time>
      </trkpt>
      <trkpt lat="55.60083" lon="-5.13607">
        <ele>13.74</ele>
        <time>2021-03-19T21:38:00Z</time>
      </trkpt>
      <trkpt lat="55.60076" lon="-5.13627">
        <ele>14.17</ele>
        <time>2021-03-19T21:38:04Z</time>
      </trkpt>
      <trkpt lat="55.60062" lon="-5.13658">
        <ele>14.01</ele>
        <time>2021-03-19T21:38:08Z</time>
      </trkpt>
      <trkpt lat="55.60029" lon="-5.13713">
        <ele>12.59</ele>
        <time>2021-03-19T21:38:12Z</time>
      </trkpt>
      <trkpt lat="55.59996" lon="-5.13787">
        <ele>12.02</ele>
        <time>2021-03-19T21:38:16Z</time>
      </trkpt>
      <trkpt lat="55.59973" lon="-5.1383">
        <ele>11.78</ele>
        <time>2021-03-19T21:38:20Z</time>
      </trkpt>
      <trkpt lat="55.5996" lon="-5.13849">
        <ele>10.95</ele>
        <time>2021-03-19T21:38:24Z</time>
      </trkpt>
      <trkpt lat="55.59917" lon="-5.139">
        <ele>6.43</ele>
        <time>2021-03-19T21:38:27Z</time>
      </trkpt>
      <trkpt lat="55.59888" lon="-5.13937">
        <ele>3.98</ele>
        <time>2021-03-19T21:38:31Z</time>
      </trkpt>
      <trkpt lat="55.5985" lon="-5.13997">
        <ele>3.95</ele>
        <time>2021-03-19T21:38:35Z</time>
      </trkpt>
      <trkpt lat="55.59792" lon="-5.1412">
        <ele>7.16</ele>
        <time>2021-03-19T21:38:39Z</time>
      </trkpt>
      <trkpt lat="55.59772" lon="-5.14167">
        <ele>8.39</ele>
        <time>2021-03-19T21:38:43Z</time>
      </trkpt>
      <trkpt lat="55.59765" lon="-5.14188">
        <ele>8.03</ele>
        <time>2021-03-19T21:38:47Z</time>
      </trkpt>
      <trkpt lat="55.59753" lon="-5.14253">
        <ele>5.36</ele>
        <time>2021-03-19T21:38:51Z</time>
      </trkpt>
      <trkpt lat="55.59733" lon="-5.14372">
        <ele>7.05</ele>
        <time>2021-03-19T21:38:55Z</time>
      </trkpt>
      <trkpt lat="55.59724" lon="-5.14408">
        <ele>9.82</ele>
        <time>2021-03-19T21:38:59Z</time>
      </trkpt>
      <trkpt lat="55.59715" lon="-5.14424">
        <ele>10.39</ele>
        <time>2021-03-19T21:39:03Z</time>
      </trkpt>
      <trkpt lat="55.59705" lon="-5.14435">
        <ele>9.49</ele>
        <time>2021-03-19T21:39:06Z</time>
      </trkpt>
      <trkpt lat="55.59546" lon="-5.14546">
        <ele>7.39</ele>
        <time>2021-03-19T21:39:10Z</time>
      </trkpt>
      <trkpt lat="55.59445" lon="-5.14554">
        <ele>4.95</ele>
        <time>2021-03-19T21:39:14Z</time>
      </trkpt>
      <trkpt lat="55.5941" lon="-5.14574">
        <ele>6.83</ele>
        <time>2021-03-19T21:39:18Z</time>
      </trkpt>
      <trkpt lat="55.5939" lon="-5.14593">
        <ele>8.07</ele>
        <time>2021-03-19T21:39:22Z</time>
      </trkpt>
      <trkpt lat="55.59323" lon="-5.14699">
        <ele>12.37</ele>
        <time>2021-03-19T21:39:26Z</time>
      </trkpt>
      <trkpt lat="55.59314" lon="-5.14717">
        <ele>12.21</ele>
        <time>2021-03-19T21:39:30Z</time>
      </trkpt>
      <trkpt lat="55.59314" lon="-5.14717">
        <ele>12.21</ele>
        <time>2021-03-19T21:39:30Z</time>
      </trkpt>
      <trkpt lat="55.59323" lon="-5.14699">
        <ele>12.37</ele>
        <time>2021-03-19T21:39:34Z</time>
      </trkpt>
      <trkpt lat="55.5939" lon="-5.14593">
        <ele>8.07</ele>
        <time>2021-03-19T21:39:38Z</time>
      </trkpt>
      <trkpt lat="55.5941" lon="-5.14574">
        <ele>6.83</ele>
        <time>2021-03-19T21:39:42Z</time>
      </trkpt>
      <trkpt lat="55.59445" lon="-5.14554">
        <ele>4.95</ele>
        <time>2021-03-19T21:39:46Z</time>
      </trkpt>
      <trkpt lat="55.59546" lon="-5.14546">
        <ele>7.39</ele>
        <time>2021-03-19T21:39:50Z</time>
      </trkpt>
      <trkpt lat="55.59705" lon="-5.14435">
        <ele>9.49</ele>
        <time>2021-03-19T21:39:54Z</time>
      </trkpt>
      <trkpt lat="55.59715" lon="-5.14424">
        <ele>10.39</ele>
        <time>2021-03-19T21:39:58Z</time>
      </trkpt>
      <trkpt lat="55.59724" lon="-5.14408">
        <ele>9.82</ele>
        <time>2021-03-19T21:40:02Z</time>
      </trkpt>
      <trkpt lat="55.59733" lon="-5.14372">
        <ele>7.05</ele>
        <time>2021-03-19T21:40:05Z</time>
      </trkpt>
      <trkpt lat="55.59753" lon="-5.14253">
        <ele>5.36</ele>
        <time>2021-03-19T21:40:09Z</time>
      </trkpt>
      <trkpt lat="55.59765" lon="-5.14188">
        <ele>8.03</ele>
        <time>2021-03-19T21:40:13Z</time>
      </trkpt>
      <trkpt lat="55.59772" lon="-5.14167">
        <ele>8.39</ele>
        <time>2021-03-19T21:40:17Z</time>
      </trkpt>
      <trkpt lat="55.59792" lon="-5.1412">
        <ele>7.16</ele>
        <time>2021-03-19T21:40:21Z</time>
      </trkpt>
      <trkpt lat="55.5985" lon="-5.13997">
        <ele>3.95</ele>
        <time>2021-03-19T21:40:25Z</time>
      </trkpt>
      <trkpt lat="55.59888" lon="-5.13937">
        <ele>3.98</ele>
        <time>2021-03-19T21:40:29Z</time>
      </trkpt>
      <trkpt lat="55.59917" lon="-5.139">
        <ele>6.43</ele>
        <time>2021-03-19T21:40:33Z</time>
      </trkpt>
      <trkpt lat="55.5996" lon="-5.13849">
        <ele>10.95</ele>
        <time>2021-03-19T21:40:37Z</time>
      </trkpt>
      <trkpt lat="55.59973" lon="-5.1383">
        <ele>11.78</ele>
        <time>2021-03-19T21:40:41Z</time>
      </trkpt>
      <trkpt lat="55.59996" lon="-5.13787">
        <ele>12.02</ele>
        <time>2021-03-19T21:40:45Z</time>
      </trkpt>
      <trkpt lat="55.60029" lon="-5.13713">
        <ele>12.59</ele>
        <time>2021-03-19T21:40:49Z</time>
      </trkpt>
      <trkpt lat="55.60062" lon="-5.13658">
        <ele>14.01</ele>
        <time>2021-03-19T21:40:53Z</time>
      </trkpt>
      <trkpt lat="55.60076" lon="-5.13627">
        <ele>14.17</ele>
        <time>2021-03-19T21:40:57Z</time>
      </trkpt>
      <trkpt lat="55.60083" lon="-5.13607">
        <ele>13.74</ele>
        <time>2021-03-19T21:41:01Z</time>
      </trkpt>
      <trkpt lat="55.60106" lon="-5.13519">
        <ele>10.31</ele>
        <time>2021-03-19T21:41:04Z</time>
      </trkpt>
      <trkpt lat="55.60112" lon="-5.13503">
        <ele>9.44</ele>
        <time>2021-03-19T21:41:08Z</time>
      </trkpt>
      <trkpt lat="55.60126" lon="-5.13477">
        <ele>9.63</ele>
        <time>2021-03-19T21:41:12Z</time>
      </trkpt>
      <trkpt lat="55.6017" lon="-5.13412">
        <ele>13.14</ele>
        <time>2021-03-19T21:41:16Z</time>
      </trkpt>
      <trkpt lat="55.60207" lon="-5.13358">
        <ele>12.47</ele>
        <time>2021-03-19T21:41:20Z</time>
      </trkpt>
      <trkpt lat="55.60224" lon="-5.13338">
        <ele>11.64</ele>
        <time>2021-03-19T21:41:24Z</time>
      </trkpt>
      <trkpt lat="55.60242" lon="-5.13323">
        <ele>12.04</ele>
        <time>2021-03-19T21:41:28Z</time>
      </trkpt>
      <trkpt lat="55.60269" lon="-5.13312">
        <ele>14.02</ele>
        <time>2021-03-19T21:41:32Z</time>
      </trkpt>
      <trkpt lat="55.60397" lon="-5.1328">
        <ele>11.08</ele>
        <time>2021-03-19T21:41:36Z</time>
      </trkpt>
      <trkpt lat="55.60466" lon="-5.13257">
        <ele>11.57</ele>
        <time>2021-03-19T21:41:40Z</time>
      </trkpt>
      <trkpt lat="55.60481" lon="-5.13248">
        <ele>11.62</ele>
        <time>2021-03-19T21:41:44Z</time>
      </trkpt>
      <trkpt lat="55.60504" lon="-5.13229">
        <ele>10.73</ele>
        <time>2021-03-19T21:41:48Z</time>
      </trkpt>
      <trkpt lat="55.60626" lon="-5.13094">
        <ele>8.02</ele>
        <time>2021-03-19T21:41:52Z</time>
      </trkpt>
      <trkpt lat="55.6065" lon="-5.1307">
        <ele>6.72</ele>
        <time>2021-03-19T21:41:56Z</time>
      </trkpt>
      <trkpt lat="55.6066" lon="-5.13068">
        <ele>6.85</ele>
        <time>2021-03-19T21:42:00Z</time>
      </trkpt>
      <trkpt lat="55.60674" lon="-5.13068">
        <ele>7</ele>
        <time>2021-03-19T21:42:03Z</time>
      </trkpt>
      <trkpt lat="55.60693" lon="-5.13074">
        <ele>7.3</ele>
        <time>2021-03-19T21:42:07Z</time>
      </trkpt>
      <trkpt lat="55.60725" lon="-5.13077">
        <ele>7.3</ele>
        <time>2021-03-19T21:42:11Z</time>
      </trkpt>
      <trkpt lat="55.6076" lon="-5.1307">
        <ele>8.82</ele>
        <time>2021-03-19T21:42:15Z</time>
      </trkpt>
      <trkpt lat="55.60795" lon="-5.13049">
        <ele>9.29</ele>
        <time>2021-03-19T21:42:19Z</time>
      </trkpt>
      <trkpt lat="55.60867" lon="-5.12988">
        <ele>10.02</ele>
        <time>2021-03-19T21:42:23Z</time>
      </trkpt>
      <trkpt lat="55.60887" lon="-5.12978">
        <ele>9.75</ele>
        <time>2021-03-19T21:42:27Z</time>
      </trkpt>
      <trkpt lat="55.6093" lon="-5.12966">
        <ele>8.95</ele>
        <time>2021-03-19T21:42:31Z</time>
      </trkpt>
      <trkpt lat="55.60995" lon="-5.12938">
        <ele>7.38</ele>
        <time>2021-03-19T21:42:35Z</time>
      </trkpt>
      <trkpt lat="55.61213" lon="-5.12891">
        <ele>1.53</ele>
        <time>2021-03-19T21:42:39Z</time>
      </trkpt>
      <trkpt lat="55.61247" lon="-5.12887">
        <ele>1.87</ele>
        <time>2021-03-19T21:42:43Z</time>
      </trkpt>
      <trkpt lat="55.61263" lon="-5.12889">
        <ele>2.03</ele>
        <time>2021-03-19T21:42:47Z</time>
      </trkpt>
      <trkpt lat="55.61325" lon="-5.12916">
        <ele>2.97</ele>
        <time>2021-03-19T21:42:51Z</time>
      </trkpt>
      <trkpt lat="55.61354" lon="-5.12925">
        <ele>5.38</ele>
        <time>2021-03-19T21:42:55Z</time>
      </trkpt>
      <trkpt lat="55.61477" lon="-5.12957">
        <ele>7.35</ele>
        <time>2021-03-19T21:42:59Z</time>
      </trkpt>
      <trkpt lat="55.61527" lon="-5.12977">
        <ele>11.64</ele>
        <time>2021-03-19T21:43:02Z</time>
      </trkpt>
      <trkpt lat="55.61632" lon="-5.13005">
        <ele>8.58</ele>
        <time>2021-03-19T21:43:06Z</time>
      </trkpt>
      <trkpt lat="55.61676" lon="-5.1302">
        <ele>8.85</ele>
        <time>2021-03-19T21:43:10Z</time>
      </trkpt>
      <trkpt lat="55.61712" lon="-5.13038">
        <ele>7.28</ele>
        <time>2021-03-19T21:43:14Z</time>
      </trkpt>
      <trkpt lat="55.61723" lon="-5.13046">
        <ele>6.25</ele>
        <time>2021-03-19T21:43:18Z</time>
      </trkpt>
      <trkpt lat="55.61785" lon="-5.13121">
        <ele>6.15</ele>
        <time>2021-03-19T21:43:22Z</time>
      </trkpt>
      <trkpt lat="55.618" lon="-5.13135">
        <ele>6.93</ele>
        <time>2021-03-19T21:43:26Z</time>
      </trkpt>
      <trkpt lat="55.62107" lon="-5.13319">
        <ele>2.47</ele>
        <time>2021-03-19T21:43:30Z</time>
      </trkpt>
      <trkpt lat="55.62159" lon="-5.13337">
        <ele>2.52</ele>
        <time>2021-03-19T21:43:34Z</time>
      </trkpt>
      <trkpt lat="55.62215" lon="-5.13366">
        <ele>1.7</ele>
        <time>2021-03-19T21:43:38Z</time>
      </trkpt>
      <trkpt lat="55.62348" lon="-5.13378">
        <ele>1.8</ele>
        <time>2021-03-19T21:43:42Z</time>
      </trkpt>
      <trkpt lat="55.62373" lon="-5.13385">
        <ele>1.88</ele>
        <time>2021-03-19T21:43:46Z</time>
      </trkpt>
      <trkpt lat="55.62395" lon="-5.13401">
        <ele>2.85</ele>
        <time>2021-03-19T21:43:50Z</time>
      </trkpt>
      <trkpt lat="55.62443" lon="-5.13453">
        <ele>5.58</ele>
        <time>2021-03-19T21:43:54Z</time>
      </trkpt>
      <trkpt lat="55.62461" lon="-5.13468">
        <ele>6.05</ele>
        <time>2021-03-19T21:43:58Z</time>
      </trkpt>
      <trkpt lat="55.62501" lon="-5.1349">
        <ele>6.61</ele>
        <time>2021-03-19T21:44:01Z</time>
      </trkpt>
      <trkpt lat="55.62633" lon="-5.13551">
        <ele>4.26</ele>
        <time>2021-03-19T21:44:05Z</time>
      </trkpt>
      <trkpt lat="55.62659" lon="-5.13568">
        <ele>4.35</ele>
        <time>2021-03-19T21:44:09Z</time>
      </trkpt>
      <trkpt lat="55.627" lon="-5.13607">
        <ele>5.47</ele>
        <time>2021-03-19T21:44:13Z</time>
      </trkpt>
      <trkpt lat="55.62753" lon="-5.13641">
        <ele>5.07</ele>
        <time>2021-03-19T21:44:17Z</time>
      </trkpt>
      <trkpt lat="55.62816" lon="-5.13673">
        <ele>5.28</ele>
        <time>2021-03-19T21:44:21Z</time>
      </trkpt>
      <trkpt lat="55.62868" lon="-5.13691">
        <ele>5.67</ele>
        <time>2021-03-19T21:44:25Z</time>
      </trkpt>
      <trkpt lat="55.63079" lon="-5.13724">
        <ele>3.52</ele>
        <time>2021-03-19T21:44:29Z</time>
      </trkpt>
      <trkpt lat="55.63109" lon="-5.13737">
        <ele>3.17</ele>
        <time>2021-03-19T21:44:33Z</time>
      </trkpt>
      <trkpt lat="55.63141" lon="-5.13745">
        <ele>2.67</ele>
        <time>2021-03-19T21:44:37Z</time>
      </trkpt>
      <trkpt lat="55.63178" lon="-5.13742">
        <ele>2.4</ele>
        <time>2021-03-19T21:44:41Z</time>
      </trkpt>
      <trkpt lat="55.63247" lon="-5.1373">
        <ele>2.87</ele>
        <time>2021-03-19T21:44:45Z</time>
      </trkpt>
      <trkpt lat="55.63309" lon="-5.1374">
        <ele>2.17</ele>
        <time>2021-03-19T21:44:49Z</time>
      </trkpt>
      <trkpt lat="55.63353" lon="-5.13751">
        <ele>2.75</ele>
        <time>2021-03-19T21:44:53Z</time>
      </trkpt>
      <trkpt lat="55.63394" lon="-5.13776">
        <ele>3.94</ele>
        <time>2021-03-19T21:44:57Z</time>
      </trkpt>
      <trkpt lat="55.63531" lon="-5.13834">
        <ele>3.03</ele>
        <time>2021-03-19T21:45:00Z</time>
      </trkpt>
      <trkpt lat="55.63633" lon="-5.13864">
        <ele>5.29</ele>
        <time>2021-03-19T21:45:04Z</time>
      </trkpt>
      <trkpt lat="55.63672" lon="-5.1387">
        <ele>4.3</ele>
        <time>2021-03-19T21:45:08Z</time>
      </trkpt>
      <trkpt lat="55.6378" lon="-5.13871">
        <ele>6.36</ele>
        <time>2021-03-19T21:45:12Z</time>
      </trkpt>
      <trkpt lat="55.638" lon="-5.13868">
        <ele>6.25</ele>
        <time>2021-03-19T21:45:16Z</time>
      </trkpt>
      <trkpt lat="55.63812" lon="-5.13865">
        <ele>5.9</ele>
        <time>2021-03-19T21:45:20Z</time>
      </trkpt>
      <trkpt lat="55.63847" lon="-5.13844">
        <ele>4.36</ele>
        <time>2021-03-19T21:45:24Z</time>
      </trkpt>
      <trkpt lat="55.63884" lon="-5.1383">
        <ele>3.9</ele>
        <time>2021-03-19T21:45:28Z</time>
      </trkpt>
      <trkpt lat="55.63911" lon="-5.13823">
        <ele>4.41</ele>
        <time>2021-03-19T21:45:32Z</time>
      </trkpt>
      <trkpt lat="55.63932" lon="-5.13823">
        <ele>4.45</ele>
        <time>2021-03-19T21:45:36Z</time>
      </trkpt>
      <trkpt lat="55.64072" lon="-5.13844">
        <ele>4.03</ele>
        <time>2021-03-19T21:45:40Z</time>
      </trkpt>
      <trkpt lat="55.64105" lon="-5.13857">
        <ele>4.55</ele>
        <time>2021-03-19T21:45:44Z</time>
      </trkpt>
      <trkpt lat="55.64116" lon="-5.13865">
        <ele>5.12</ele>
        <time>2021-03-19T21:45:48Z</time>
      </trkpt>
      <trkpt lat="55.64134" lon="-5.13886">
        <ele>5.99</ele>
        <time>2021-03-19T21:45:52Z</time>
      </trkpt>
      <trkpt lat="55.64147" lon="-5.13894">
        <ele>6.58</ele>
        <time>2021-03-19T21:45:56Z</time>
      </trkpt>
      <trkpt lat="55.64205" lon="-5.13886">
        <ele>5.35</ele>
        <time>2021-03-19T21:45:59Z</time>
      </trkpt>
      <trkpt lat="55.6432" lon="-5.13897">
        <ele>4.97</ele>
        <time>2021-03-19T21:46:03Z</time>
      </trkpt>
      <trkpt lat="55.6433" lon="-5.139">
        <ele>4.47</ele>
        <time>2021-03-19T21:46:07Z</time>
      </trkpt>
      <trkpt lat="55.64411" lon="-5.13947">
        <ele>3.63</ele>
        <time>2021-03-19T21:46:11Z</time>
      </trkpt>
      <trkpt lat="55.64418" lon="-5.13959">
        <ele>3.95</ele>
        <time>2021-03-19T21:46:15Z</time>
      </trkpt>
      <trkpt lat="55.64427" lon="-5.13996">
        <ele>5.64</ele>
        <time>2021-03-19T21:46:19Z</time>
      </trkpt>
      <trkpt lat="55.64434" lon="-5.14017">
        <ele>7.31</ele>
        <time>2021-03-19T21:46:23Z</time>
      </trkpt>
      <trkpt lat="55.64441" lon="-5.14026">
        <ele>7.43</ele>
        <time>2021-03-19T21:46:27Z</time>
      </trkpt>
      <trkpt lat="55.645" lon="-5.14076">
        <ele>6.7</ele>
        <time>2021-03-19T21:46:31Z</time>
      </trkpt>
      <trkpt lat="55.64512" lon="-5.14093">
        <ele>7.76</ele>
        <time>2021-03-19T21:46:35Z</time>
      </trkpt>
      <trkpt lat="55.64517" lon="-5.14117">
        <ele>10.18</ele>
        <time>2021-03-19T21:46:39Z</time>
      </trkpt>
      <trkpt lat="55.64522" lon="-5.14126">
        <ele>11.22</ele>
        <time>2021-03-19T21:46:43Z</time>
      </trkpt>
      <trkpt lat="55.64528" lon="-5.1413">
        <ele>11.02</ele>
        <time>2021-03-19T21:46:47Z</time>
      </trkpt>
      <trkpt lat="55.64537" lon="-5.1413">
        <ele>10.19</ele>
        <time>2021-03-19T21:46:51Z</time>
      </trkpt>
      <trkpt lat="55.64559" lon="-5.1412">
        <ele>6.47</ele>
        <time>2021-03-19T21:46:55Z</time>
      </trkpt>
      <trkpt lat="55.64573" lon="-5.14121">
        <ele>5.92</ele>
        <time>2021-03-19T21:46:58Z</time>
      </trkpt>
      <trkpt lat="55.64598" lon="-5.1413">
        <ele>6.42</ele>
        <time>2021-03-19T21:47:02Z</time>
      </trkpt>
      <trkpt lat="55.64631" lon="-5.14135">
        <ele>5.93</ele>
        <time>2021-03-19T21:47:06Z</time>
      </trkpt>
      <trkpt lat="55.64663" lon="-5.14146">
        <ele>5.86</ele>
        <time>2021-03-19T21:47:10Z</time>
      </trkpt>
      <trkpt lat="55.64736" lon="-5.14178">
        <ele>6.12</ele>
        <time>2021-03-19T21:47:14Z</time>
      </trkpt>
      <trkpt lat="55.64809" lon="-5.142">
        <ele>5.29</ele>
        <time>2021-03-19T21:47:18Z</time>
      </trkpt>
      <trkpt lat="55.64857" lon="-5.1422">
        <ele>4.95</ele>
        <time>2021-03-19T21:47:22Z</time>
      </trkpt>
      <trkpt lat="55.6491" lon="-5.14247">
        <ele>5.89</ele>
        <time>2021-03-19T21:47:26Z</time>
      </trkpt>
      <trkpt lat="55.65001" lon="-5.14301">
        <ele>4.39</ele>
        <time>2021-03-19T21:47:30Z</time>
      </trkpt>
      <trkpt lat="55.65036" lon="-5.14342">
        <ele>5.28</ele>
        <time>2021-03-19T21:47:34Z</time>
      </trkpt>
      <trkpt lat="55.65057" lon="-5.14376">
        <ele>6.31</ele>
        <time>2021-03-19T21:47:38Z</time>
      </trkpt>
      <trkpt lat="55.65065" lon="-5.14392">
        <ele>6.64</ele>
        <time>2021-03-19T21:47:42Z</time>
      </trkpt>
      <trkpt lat="55.65077" lon="-5.1443">
        <ele>8.65</ele>
        <time>2021-03-19T21:47:46Z</time>
      </trkpt>
      <trkpt lat="55.65086" lon="-5.14493">
        <ele>9.89</ele>
        <time>2021-03-19T21:47:50Z</time>
      </trkpt>
      <trkpt lat="55.65093" lon="-5.14538">
        <ele>15.05</ele>
        <time>2021-03-19T21:47:54Z</time>
      </trkpt>
      <trkpt lat="55.65105" lon="-5.1458">
        <ele>16.47</ele>
        <time>2021-03-19T21:47:57Z</time>
      </trkpt>
      <trkpt lat="55.65125" lon="-5.14622">
        <ele>14.71</ele>
        <time>2021-03-19T21:48:01Z</time>
      </trkpt>
      <trkpt lat="55.65146" lon="-5.14654">
        <ele>10.91</ele>
        <time>2021-03-19T21:48:05Z</time>
      </trkpt>
      <trkpt lat="55.65172" lon="-5.1468">
        <ele>9.88</ele>
        <time>2021-03-19T21:48:09Z</time>
      </trkpt>
      <trkpt lat="55.65198" lon="-5.14702">
        <ele>11.27</ele>
        <time>2021-03-19T21:48:13Z</time>
      </trkpt>
      <trkpt lat="55.65265" lon="-5.14732">
        <ele>9.87</ele>
        <time>2021-03-19T21:48:17Z</time>
      </trkpt>
      <trkpt lat="55.65319" lon="-5.14744">
        <ele>8.23</ele>
        <time>2021-03-19T21:48:21Z</time>
      </trkpt>
      <trkpt lat="55.65363" lon="-5.14762">
        <ele>7.12</ele>
        <time>2021-03-19T21:48:25Z</time>
      </trkpt>
      <trkpt lat="55.65644" lon="-5.14913">
        <ele>8.14</ele>
        <time>2021-03-19T21:48:29Z</time>
      </trkpt>
      <trkpt lat="55.65697" lon="-5.14941">
        <ele>6.13</ele>
        <time>2021-03-19T21:48:33Z</time>
      </trkpt>
      <trkpt lat="55.6581" lon="-5.15049">
        <ele>2.65</ele>
        <time>2021-03-19T21:48:37Z</time>
      </trkpt>
      <trkpt lat="55.65908" lon="-5.15151">
        <ele>3.48</ele>
        <time>2021-03-19T21:48:41Z</time>
      </trkpt>
      <trkpt lat="55.65967" lon="-5.15227">
        <ele>2.77</ele>
        <time>2021-03-19T21:48:45Z</time>
      </trkpt>
      <trkpt lat="55.66047" lon="-5.15378">
        <ele>3.35</ele>
        <time>2021-03-19T21:48:49Z</time>
      </trkpt>
      <trkpt lat="55.66133" lon="-5.15518">
        <ele>2.85</ele>
        <time>2021-03-19T21:48:53Z</time>
      </trkpt>
      <trkpt lat="55.66228" lon="-5.15655">
        <ele>6.59</ele>
        <time>2021-03-19T21:48:56Z</time>
      </trkpt>
      <trkpt lat="55.66247" lon="-5.1567">
        <ele>7.27</ele>
        <time>2021-03-19T21:49:00Z</time>
      </trkpt>
      <trkpt lat="55.66272" lon="-5.15681">
        <ele>6.84</ele>
        <time>2021-03-19T21:49:04Z</time>
      </trkpt>
      <trkpt lat="55.66291" lon="-5.15684">
        <ele>6.61</ele>
        <time>2021-03-19T21:49:08Z</time>
      </trkpt>
      <trkpt lat="55.66307" lon="-5.15683">
        <ele>6.55</ele>
        <time>2021-03-19T21:49:12Z</time>
      </trkpt>
      <trkpt lat="55.66311" lon="-5.15676">
        <ele>6.27</ele>
        <time>2021-03-19T21:49:16Z</time>
      </trkpt>
      <trkpt lat="55.66316" lon="-5.15658">
        <ele>6</ele>
        <time>2021-03-19T21:49:20Z</time>
      </trkpt>
      <trkpt lat="55.66322" lon="-5.15633">
        <ele>6.11</ele>
        <time>2021-03-19T21:49:24Z</time>
      </trkpt>
      <trkpt lat="55.6633" lon="-5.15616">
        <ele>6.72</ele>
        <time>2021-03-19T21:49:28Z</time>
      </trkpt>
      <trkpt lat="55.66339" lon="-5.15605">
        <ele>7.4</ele>
        <time>2021-03-19T21:49:32Z</time>
      </trkpt>
      <trkpt lat="55.66355" lon="-5.15594">
        <ele>7.92</ele>
        <time>2021-03-19T21:49:36Z</time>
      </trkpt>
      <trkpt lat="55.6637" lon="-5.15595">
        <ele>8.64</ele>
        <time>2021-03-19T21:49:40Z</time>
      </trkpt>
      <trkpt lat="55.66403" lon="-5.15613">
        <ele>11.45</ele>
        <time>2021-03-19T21:49:44Z</time>
      </trkpt>
      <trkpt lat="55.66432" lon="-5.15636">
        <ele>12.78</ele>
        <time>2021-03-19T21:49:48Z</time>
      </trkpt>
      <trkpt lat="55.66456" lon="-5.15665">
        <ele>16.07</ele>
        <time>2021-03-19T21:49:52Z</time>
      </trkpt>
      <trkpt lat="55.66482" lon="-5.15703">
        <ele>19.5</ele>
        <time>2021-03-19T21:49:55Z</time>
      </trkpt>
      <trkpt lat="55.66501" lon="-5.15751">
        <ele>21.11</ele>
        <time>2021-03-19T21:49:59Z</time>
      </trkpt>
      <trkpt lat="55.66533" lon="-5.15863">
        <ele>26.71</ele>
        <time>2021-03-19T21:50:03Z</time>
      </trkpt>
      <trkpt lat="55.66591" lon="-5.16015">
        <ele>28.84</ele>
        <time>2021-03-19T21:50:07Z</time>
      </trkpt>
      <trkpt lat="55.66634" lon="-5.16182">
        <ele>35.73</ele>
        <time>2021-03-19T21:50:11Z</time>
      </trkpt>
      <trkpt lat="55.66646" lon="-5.16212">
        <ele>36.51</ele>
        <time>2021-03-19T21:50:15Z</time>
      </trkpt>
      <trkpt lat="55.66676" lon="-5.16268">
        <ele>38.18</ele>
        <time>2021-03-19T21:50:19Z</time>
      </trkpt>
      <trkpt lat="55.66804" lon="-5.16494">
        <ele>47</ele>
        <time>2021-03-19T21:50:23Z</time>
      </trkpt>
      <trkpt lat="55.66841" lon="-5.16591">
        <ele>48.03</ele>
        <time>2021-03-19T21:50:27Z</time>
      </trkpt>
      <trkpt lat="55.6689" lon="-5.16762">
        <ele>45.35</ele>
        <time>2021-03-19T21:50:31Z</time>
      </trkpt>
      <trkpt lat="55.66915" lon="-5.16816">
        <ele>44.65</ele>
        <time>2021-03-19T21:50:35Z</time>
      </trkpt>
      <trkpt lat="55.66955" lon="-5.16885">
        <ele>43.84</ele>
        <time>2021-03-19T21:50:39Z</time>
      </trkpt>
      <trkpt lat="55.66988" lon="-5.16979">
        <ele>44.23</ele>
        <time>2021-03-19T21:50:43Z</time>
      </trkpt>
      <trkpt lat="55.67037" lon="-5.17158">
        <ele>41.73</ele>
        <time>2021-03-19T21:50:47Z</time>
      </trkpt>
      <trkpt lat="55.67112" lon="-5.17471">
        <ele>38.5</ele>
        <time>2021-03-19T21:50:51Z</time>
      </trkpt>
      <trkpt lat="55.67143" lon="-5.17635">
        <ele>36.09</ele>
        <time>2021-03-19T21:50:54Z</time>
      </trkpt>
      <trkpt lat="55.67172" lon="-5.17755">
        <ele>36.32</ele>
        <time>2021-03-19T21:50:58Z</time>
      </trkpt>
      <trkpt lat="55.67194" lon="-5.17901">
        <ele>36.57</ele>
        <time>2021-03-19T21:51:02Z</time>
      </trkpt>
      <trkpt lat="55.6725" lon="-5.18178">
        <ele>37.43</ele>
        <time>2021-03-19T21:51:06Z</time>
      </trkpt>
      <trkpt lat="55.67272" lon="-5.18347">
        <ele>38.4</ele>
        <time>2021-03-19T21:51:10Z</time>
      </trkpt>
      <trkpt lat="55.673" lon="-5.18523">
        <ele>39.72</ele>
        <time>2021-03-19T21:51:14Z</time>
      </trkpt>
      <trkpt lat="55.67304" lon="-5.18622">
        <ele>40.07</ele>
        <time>2021-03-19T21:51:18Z</time>
      </trkpt>
      <trkpt lat="55.67297" lon="-5.18793">
        <ele>45.62</ele>
        <time>2021-03-19T21:51:22Z</time>
      </trkpt>
      <trkpt lat="55.67299" lon="-5.18834">
        <ele>45.46</ele>
        <time>2021-03-19T21:51:26Z</time>
      </trkpt>
      <trkpt lat="55.6731" lon="-5.18902">
        <ele>44.29</ele>
        <time>2021-03-19T21:51:30Z</time>
      </trkpt>
      <trkpt lat="55.67318" lon="-5.1923">
        <ele>49.74</ele>
        <time>2021-03-19T21:51:34Z</time>
      </trkpt>
      <trkpt lat="55.67323" lon="-5.19265">
        <ele>50.83</ele>
        <time>2021-03-19T21:51:38Z</time>
      </trkpt>
      <trkpt lat="55.67327" lon="-5.19281">
        <ele>51.12</ele>
        <time>2021-03-19T21:51:42Z</time>
      </trkpt>
      <trkpt lat="55.67361" lon="-5.19391">
        <ele>55.09</ele>
        <time>2021-03-19T21:51:46Z</time>
      </trkpt>
      <trkpt lat="55.67367" lon="-5.19418">
        <ele>56.68</ele>
        <time>2021-03-19T21:51:50Z</time>
      </trkpt>
      <trkpt lat="55.67399" lon="-5.19655">
        <ele>67.65</ele>
        <time>2021-03-19T21:51:53Z</time>
      </trkpt>
      <trkpt lat="55.67411" lon="-5.19702">
        <ele>69.37</ele>
        <time>2021-03-19T21:51:57Z</time>
      </trkpt>
      <trkpt lat="55.67426" lon="-5.19748">
        <ele>70.36</ele>
        <time>2021-03-19T21:52:01Z</time>
      </trkpt>
      <trkpt lat="55.67458" lon="-5.19838">
        <ele>75.42</ele>
        <time>2021-03-19T21:52:05Z</time>
      </trkpt>
      <trkpt lat="55.67467" lon="-5.19872">
        <ele>76.92</ele>
        <time>2021-03-19T21:52:09Z</time>
      </trkpt>
      <trkpt lat="55.67473" lon="-5.19939">
        <ele>78.25</ele>
        <time>2021-03-19T21:52:13Z</time>
      </trkpt>
      <trkpt lat="55.67517" lon="-5.20165">
        <ele>89.4</ele>
        <time>2021-03-19T21:52:17Z</time>
      </trkpt>
      <trkpt lat="55.67533" lon="-5.20264">
        <ele>95.11</ele>
        <time>2021-03-19T21:52:21Z</time>
      </trkpt>
      <trkpt lat="55.67553" lon="-5.20341">
        <ele>101.67</ele>
        <time>2021-03-19T21:52:25Z</time>
      </trkpt>
      <trkpt lat="55.67572" lon="-5.20437">
        <ele>108.94</ele>
        <time>2021-03-19T21:52:29Z</time>
      </trkpt>
      <trkpt lat="55.67586" lon="-5.205">
        <ele>111.54</ele>
        <time>2021-03-19T21:52:33Z</time>
      </trkpt>
      <trkpt lat="55.67599" lon="-5.20545">
        <ele>114.51</ele>
        <time>2021-03-19T21:52:37Z</time>
      </trkpt>
      <trkpt lat="55.67606" lon="-5.20575">
        <ele>117.1</ele>
        <time>2021-03-19T21:52:41Z</time>
      </trkpt>
      <trkpt lat="55.67613" lon="-5.20652">
        <ele>120.9</ele>
        <time>2021-03-19T21:52:45Z</time>
      </trkpt>
      <trkpt lat="55.6763" lon="-5.20725">
        <ele>126.89</ele>
        <time>2021-03-19T21:52:49Z</time>
      </trkpt>
      <trkpt lat="55.67639" lon="-5.20774">
        <ele>130.83</ele>
        <time>2021-03-19T21:52:52Z</time>
      </trkpt>
      <trkpt lat="55.67662" lon="-5.20855">
        <ele>136.32</ele>
        <time>2021-03-19T21:52:56Z</time>
      </trkpt>
      <trkpt lat="55.67681" lon="-5.20903">
        <ele>139.6</ele>
        <time>2021-03-19T21:53:00Z</time>
      </trkpt>
      <trkpt lat="55.67694" lon="-5.20957">
        <ele>141.91</ele>
        <time>2021-03-19T21:53:04Z</time>
      </trkpt>
      <trkpt lat="55.67764" lon="-5.21173">
        <ele>154.46</ele>
        <time>2021-03-19T21:53:08Z</time>
      </trkpt>
      <trkpt lat="55.67816" lon="-5.21327">
        <ele>158.29</ele>
        <time>2021-03-19T21:53:12Z</time>
      </trkpt>
      <trkpt lat="55.6785" lon="-5.21449">
        <ele>161.78</ele>
        <time>2021-03-19T21:53:16Z</time>
      </trkpt>
      <trkpt lat="55.67867" lon="-5.21483">
        <ele>163.91</ele>
        <time>2021-03-19T21:53:20Z</time>
      </trkpt>
      <trkpt lat="55.68047" lon="-5.21757">
        <ele>175.86</ele>
        <time>2021-03-19T21:53:24Z</time>
      </trkpt>
      <trkpt lat="55.68136" lon="-5.21872">
        <ele>180.75</ele>
        <time>2021-03-19T21:53:28Z</time>
      </trkpt>
      <trkpt lat="55.68224" lon="-5.22012">
        <ele>188.39</ele>
        <time>2021-03-19T21:53:32Z</time>
      </trkpt>
      <trkpt lat="55.68305" lon="-5.22121">
        <ele>193.19</ele>
        <time>2021-03-19T21:53:36Z</time>
      </trkpt>
      <trkpt lat="55.68387" lon="-5.22267">
        <ele>199.01</ele>
        <time>2021-03-19T21:53:40Z</time>
      </trkpt>
      <trkpt lat="55.68537" lon="-5.22465">
        <ele>202.81</ele>
        <time>2021-03-19T21:53:44Z</time>
      </trkpt>
      <trkpt lat="55.6859" lon="-5.22552">
        <ele>203</ele>
        <time>2021-03-19T21:53:47Z</time>
      </trkpt>
      <trkpt lat="55.68642" lon="-5.22647">
        <ele>199.82</ele>
        <time>2021-03-19T21:53:51Z</time>
      </trkpt>
      <trkpt lat="55.68737" lon="-5.22857">
        <ele>197.67</ele>
        <time>2021-03-19T21:53:55Z</time>
      </trkpt>
      <trkpt lat="55.68831" lon="-5.23138">
        <ele>188.59</ele>
        <time>2021-03-19T21:53:59Z</time>
      </trkpt>
      <trkpt lat="55.68875" lon="-5.23308">
        <ele>184.12</ele>
        <time>2021-03-19T21:54:03Z</time>
      </trkpt>
      <trkpt lat="55.68965" lon="-5.23554">
        <ele>172.15</ele>
        <time>2021-03-19T21:54:07Z</time>
      </trkpt>
      <trkpt lat="55.69008" lon="-5.23695">
        <ele>163.88</ele>
        <time>2021-03-19T21:54:11Z</time>
      </trkpt>
      <trkpt lat="55.69057" lon="-5.23827">
        <ele>157.43</ele>
        <time>2021-03-19T21:54:15Z</time>
      </trkpt>
      <trkpt lat="55.69175" lon="-5.2421">
        <ele>138.81</ele>
        <time>2021-03-19T21:54:19Z</time>
      </trkpt>
      <trkpt lat="55.69202" lon="-5.24315">
        <ele>134.41</ele>
        <time>2021-03-19T21:54:23Z</time>
      </trkpt>
      <trkpt lat="55.69272" lon="-5.2464">
        <ele>112.06</ele>
        <time>2021-03-19T21:54:27Z</time>
      </trkpt>
      <trkpt lat="55.69286" lon="-5.24696">
        <ele>108.9</ele>
        <time>2021-03-19T21:54:31Z</time>
      </trkpt>
      <trkpt lat="55.69299" lon="-5.24776">
        <ele>105.88</ele>
        <time>2021-03-19T21:54:35Z</time>
      </trkpt>
      <trkpt lat="55.69305" lon="-5.24799">
        <ele>105.68</ele>
        <time>2021-03-19T21:54:39Z</time>
      </trkpt>
      <trkpt lat="55.69313" lon="-5.24813">
        <ele>104.44</ele>
        <time>2021-03-19T21:54:43Z</time>
      </trkpt>
      <trkpt lat="55.69332" lon="-5.24869">
        <ele>101.78</ele>
        <time>2021-03-19T21:54:46Z</time>
      </trkpt>
      <trkpt lat="55.69358" lon="-5.24936">
        <ele>102.23</ele>
        <time>2021-03-19T21:54:50Z</time>
      </trkpt>
      <trkpt lat="55.69374" lon="-5.24967">
        <ele>101.21</ele>
        <time>2021-03-19T21:54:54Z</time>
      </trkpt>
      <trkpt lat="55.69389" lon="-5.24992">
        <ele>99.39</ele>
        <time>2021-03-19T21:54:58Z</time>
      </trkpt>
      <trkpt lat="55.69508" lon="-5.25165">
        <ele>91.15</ele>
        <time>2021-03-19T21:55:02Z</time>
      </trkpt>
      <trkpt lat="55.69531" lon="-5.25191">
        <ele>89</ele>
        <time>2021-03-19T21:55:06Z</time>
      </trkpt>
      <trkpt lat="55.69568" lon="-5.25221">
        <ele>83.7</ele>
        <time>2021-03-19T21:55:10Z</time>
      </trkpt>
      <trkpt lat="55.69599" lon="-5.2527">
        <ele>83.03</ele>
        <time>2021-03-19T21:55:14Z</time>
      </trkpt>
      <trkpt lat="55.69622" lon="-5.25299">
        <ele>82.31</ele>
        <time>2021-03-19T21:55:18Z</time>
      </trkpt>
      <trkpt lat="55.69659" lon="-5.25341">
        <ele>79.59</ele>
        <time>2021-03-19T21:55:22Z</time>
      </trkpt>
      <trkpt lat="55.6968" lon="-5.25362">
        <ele>78.21</ele>
        <time>2021-03-19T21:55:26Z</time>
      </trkpt>
      <trkpt lat="55.69718" lon="-5.25393">
        <ele>77.1</ele>
        <time>2021-03-19T21:55:30Z</time>
      </trkpt>
      <trkpt lat="55.69772" lon="-5.25444">
        <ele>74.88</ele>
        <time>2021-03-19T21:55:34Z</time>
      </trkpt>
      <trkpt lat="55.69875" lon="-5.25517">
        <ele>68.84</ele>
        <time>2021-03-19T21:55:38Z</time>
      </trkpt>
      <trkpt lat="55.69891" lon="-5.2554">
        <ele>68.61</ele>
        <time>2021-03-19T21:55:42Z</time>
      </trkpt>
      <trkpt lat="55.69916" lon="-5.2559">
        <ele>68.61</ele>
        <time>2021-03-19T21:55:45Z</time>
      </trkpt>
      <trkpt lat="55.69943" lon="-5.25633">
        <ele>69.53</ele>
        <time>2021-03-19T21:55:49Z</time>
      </trkpt>
      <trkpt lat="55.69971" lon="-5.25682">
        <ele>70.43</ele>
        <time>2021-03-19T21:55:53Z</time>
      </trkpt>
      <trkpt lat="55.70008" lon="-5.25758">
        <ele>72.45</ele>
        <time>2021-03-19T21:55:57Z</time>
      </trkpt>
      <trkpt lat="55.70037" lon="-5.25837">
        <ele>72.23</ele>
        <time>2021-03-19T21:56:01Z</time>
      </trkpt>
      <trkpt lat="55.70051" lon="-5.25892">
        <ele>70.89</ele>
        <time>2021-03-19T21:56:05Z</time>
      </trkpt>
      <trkpt lat="55.70063" lon="-5.25952">
        <ele>70.29</ele>
        <time>2021-03-19T21:56:09Z</time>
      </trkpt>
      <trkpt lat="55.70079" lon="-5.26058">
        <ele>68.83</ele>
        <time>2021-03-19T21:56:13Z</time>
      </trkpt>
      <trkpt lat="55.70085" lon="-5.2613">
        <ele>66.01</ele>
        <time>2021-03-19T21:56:17Z</time>
      </trkpt>
      <trkpt lat="55.70088" lon="-5.26203">
        <ele>64.04</ele>
        <time>2021-03-19T21:56:21Z</time>
      </trkpt>
      <trkpt lat="55.70084" lon="-5.26291">
        <ele>63.38</ele>
        <time>2021-03-19T21:56:25Z</time>
      </trkpt>
      <trkpt lat="55.70076" lon="-5.26354">
        <ele>61.3</ele>
        <time>2021-03-19T21:56:29Z</time>
      </trkpt>
      <trkpt lat="55.7007" lon="-5.26384">
        <ele>59.89</ele>
        <time>2021-03-19T21:56:33Z</time>
      </trkpt>
      <trkpt lat="55.70049" lon="-5.26463">
        <ele>54.67</ele>
        <time>2021-03-19T21:56:37Z</time>
      </trkpt>
      <trkpt lat="55.70035" lon="-5.26556">
        <ele>50.32</ele>
        <time>2021-03-19T21:56:41Z</time>
      </trkpt>
      <trkpt lat="55.70028" lon="-5.26586">
        <ele>48.76</ele>
        <time>2021-03-19T21:56:44Z</time>
      </trkpt>
      <trkpt lat="55.70008" lon="-5.26643">
        <ele>46.81</ele>
        <time>2021-03-19T21:56:48Z</time>
      </trkpt>
      <trkpt lat="55.6999" lon="-5.26683">
        <ele>43.92</ele>
        <time>2021-03-19T21:56:52Z</time>
      </trkpt>
      <trkpt lat="55.69965" lon="-5.26724">
        <ele>40.15</ele>
        <time>2021-03-19T21:56:56Z</time>
      </trkpt>
      <trkpt lat="55.69922" lon="-5.26782">
        <ele>41.62</ele>
        <time>2021-03-19T21:57:00Z</time>
      </trkpt>
      <trkpt lat="55.69911" lon="-5.26805">
        <ele>40.81</ele>
        <time>2021-03-19T21:57:04Z</time>
      </trkpt>
      <trkpt lat="55.69904" lon="-5.26836">
        <ele>39.23</ele>
        <time>2021-03-19T21:57:08Z</time>
      </trkpt>
      <trkpt lat="55.69878" lon="-5.27004">
        <ele>31.45</ele>
        <time>2021-03-19T21:57:12Z</time>
      </trkpt>
      <trkpt lat="55.69872" lon="-5.27024">
        <ele>30.22</ele>
        <time>2021-03-19T21:57:16Z</time>
      </trkpt>
      <trkpt lat="55.69801" lon="-5.2722">
        <ele>18.69</ele>
        <time>2021-03-19T21:57:20Z</time>
      </trkpt>
      <trkpt lat="55.69792" lon="-5.27258">
        <ele>16.36</ele>
        <time>2021-03-19T21:57:24Z</time>
      </trkpt>
      <trkpt lat="55.6979" lon="-5.27305">
        <ele>15</ele>
        <time>2021-03-19T21:57:28Z</time>
      </trkpt>
      <trkpt lat="55.69791" lon="-5.2735">
        <ele>15.12</ele>
        <time>2021-03-19T21:57:32Z</time>
      </trkpt>
      <trkpt lat="55.69792" lon="-5.27375">
        <ele>15.48</ele>
        <time>2021-03-19T21:57:36Z</time>
      </trkpt>
      <trkpt lat="55.69802" lon="-5.27431">
        <ele>15</ele>
        <time>2021-03-19T21:57:40Z</time>
      </trkpt>
      <trkpt lat="55.69844" lon="-5.27549">
        <ele>12</ele>
        <time>2021-03-19T21:57:43Z</time>
      </trkpt>
      <trkpt lat="55.69904" lon="-5.27711">
        <ele>9.84</ele>
        <time>2021-03-19T21:57:47Z</time>
      </trkpt>
      <trkpt lat="55.69917" lon="-5.27741">
        <ele>8.33</ele>
        <time>2021-03-19T21:57:51Z</time>
      </trkpt>
      <trkpt lat="55.69977" lon="-5.27903">
        <ele>8.31</ele>
        <time>2021-03-19T21:57:55Z</time>
      </trkpt>
      <trkpt lat="55.70082" lon="-5.28173">
        <ele>3.99</ele>
        <time>2021-03-19T21:57:59Z</time>
      </trkpt>
      <trkpt lat="55.70147" lon="-5.28363">
        <ele>3.69</ele>
        <time>2021-03-19T21:58:03Z</time>
      </trkpt>
      <trkpt lat="55.7018" lon="-5.28509">
        <ele>3.53</ele>
        <time>2021-03-19T21:58:07Z</time>
      </trkpt>
      <trkpt lat="55.70223" lon="-5.28688">
        <ele>6.53</ele>
        <time>2021-03-19T21:58:11Z</time>
      </trkpt>
      <trkpt lat="55.70233" lon="-5.28711">
        <ele>6.85</ele>
        <time>2021-03-19T21:58:15Z</time>
      </trkpt>
      <trkpt lat="55.70256" lon="-5.28743">
        <ele>6.77</ele>
        <time>2021-03-19T21:58:19Z</time>
      </trkpt>
      <trkpt lat="55.70329" lon="-5.2882">
        <ele>2.14</ele>
        <time>2021-03-19T21:58:23Z</time>
      </trkpt>
      <trkpt lat="55.70346" lon="-5.28846">
        <ele>1.52</ele>
        <time>2021-03-19T21:58:27Z</time>
      </trkpt>
      <trkpt lat="55.70354" lon="-5.28861">
        <ele>1.51</ele>
        <time>2021-03-19T21:58:31Z</time>
      </trkpt>
      <trkpt lat="55.70393" lon="-5.28974">
        <ele>1</ele>
        <time>2021-03-19T21:58:35Z</time>
      </trkpt>
      <trkpt lat="55.70398" lon="-5.28995">
        <ele>1</ele>
        <time>2021-03-19T21:58:39Z</time>
      </trkpt>
      <trkpt lat="55.70401" lon="-5.29018">
        <ele>1.37</ele>
        <time>2021-03-19T21:58:42Z</time>
      </trkpt>
      <trkpt lat="55.70401" lon="-5.29037">
        <ele>1.77</ele>
        <time>2021-03-19T21:58:46Z</time>
      </trkpt>
      <trkpt lat="55.70393" lon="-5.29124">
        <ele>5.13</ele>
        <time>2021-03-19T21:58:50Z</time>
      </trkpt>
      <trkpt lat="55.70395" lon="-5.29174">
        <ele>6.88</ele>
        <time>2021-03-19T21:58:54Z</time>
      </trkpt>
      <trkpt lat="55.70477" lon="-5.29423">
        <ele>4.53</ele>
        <time>2021-03-19T21:58:58Z</time>
      </trkpt>
      <trkpt lat="55.70481" lon="-5.29439">
        <ele>4.26</ele>
        <time>2021-03-19T21:59:02Z</time>
      </trkpt>
      <trkpt lat="55.70494" lon="-5.29512">
        <ele>3.14</ele>
        <time>2021-03-19T21:59:06Z</time>
      </trkpt>
      <trkpt lat="55.70505" lon="-5.29549">
        <ele>1.83</ele>
        <time>2021-03-19T21:59:10Z</time>
      </trkpt>
      <trkpt lat="55.70525" lon="-5.29598">
        <ele>2.4</ele>
        <time>2021-03-19T21:59:14Z</time>
      </trkpt>
      <trkpt lat="55.70525" lon="-5.29598">
        <ele>2.4</ele>
        <time>2021-03-19T21:59:14Z</time>
      </trkpt>
      <trkpt lat="55.70568" lon="-5.29706">
        <ele>1.92</ele>
        <time>2021-03-19T21:59:18Z</time>
      </trkpt>
      <trkpt lat="55.70616" lon="-5.29801">
        <ele>1.58</ele>
        <time>2021-03-19T21:59:23Z</time>
      </trkpt>
      <trkpt lat="55.70642" lon="-5.29859">
        <ele>2.75</ele>
        <time>2021-03-19T21:59:27Z</time>
      </trkpt>
      <trkpt lat="55.70647" lon="-5.29865">
        <ele>2.82</ele>
        <time>2021-03-19T21:59:31Z</time>
      </trkpt>
      <trkpt lat="55.70693" lon="-5.29881">
        <ele>1.08</ele>
        <time>2021-03-19T21:59:35Z</time>
      </trkpt>
      <trkpt lat="55.70704" lon="-5.29894">
        <ele>1.22</ele>
        <time>2021-03-19T21:59:40Z</time>
      </trkpt>
      <trkpt lat="55.70707" lon="-5.29908">
        <ele>1.73</ele>
        <time>2021-03-19T21:59:44Z</time>
      </trkpt>
      <trkpt lat="55.70712" lon="-5.29959">
        <ele>2.58</ele>
        <time>2021-03-19T21:59:48Z</time>
      </trkpt>
      <trkpt lat="55.70728" lon="-5.30057">
        <ele>3.41</ele>
        <time>2021-03-19T21:59:53Z</time>
      </trkpt>
      <trkpt lat="55.7075" lon="-5.30168">
        <ele>4.03</ele>
        <time>2021-03-19T21:59:57Z</time>
      </trkpt>
      <trkpt lat="55.70788" lon="-5.30143">
        <ele>5.48</ele>
        <time>2021-03-19T22:00:06Z</time>
      </trkpt>
      <trkpt lat="55.70804" lon="-5.30122">
        <ele>5.47</ele>
        <time>2021-03-19T22:04:31Z</time>
      </trkpt>
      <trkpt lat="55.70823" lon="-5.30104">
        <ele>5.45</ele>
        <time>2021-03-19T22:08:56Z</time>
      </trkpt>
      <trkpt lat="55.70859" lon="-5.30105">
        <ele>5.44</ele>
        <time>2021-03-19T22:13:21Z</time>
      </trkpt>
      <trkpt lat="55.70885" lon="-5.30135">
        <ele>5.43</ele>
        <time>2021-03-19T22:17:46Z</time>
      </trkpt>
      <trkpt lat="55.71661" lon="-5.31517">
        <ele>4.65</ele>
        <time>2021-03-19T22:22:11Z</time>
      </trkpt>
      <trkpt lat="55.72435" lon="-5.33109">
        <ele>3.74</ele>
        <time>2021-03-19T22:26:36Z</time>
      </trkpt>
      <trkpt lat="55.72793" lon="-5.3406">
        <ele>3.22</ele>
        <time>2021-03-19T22:31:01Z</time>
      </trkpt>
      <trkpt lat="55.73192" lon="-5.34942">
        <ele>2.73</ele>
        <time>2021-03-19T22:35:26Z</time>
      </trkpt>
      <trkpt lat="55.73321" lon="-5.3526">
        <ele>2.55</ele>
        <time>2021-03-19T22:39:51Z</time>
      </trkpt>
      <trkpt lat="55.74051" lon="-5.36882">
        <ele>1.64</ele>
        <time>2021-03-19T22:44:16Z</time>
      </trkpt>
      <trkpt lat="55.7422" lon="-5.37305">
        <ele>1.41</ele>
        <time>2021-03-19T22:48:41Z</time>
      </trkpt>
      <trkpt lat="55.74516" lon="-5.37967">
        <ele>1.04</ele>
        <time>2021-03-19T22:53:06Z</time>
      </trkpt>
      <trkpt lat="55.74598" lon="-5.38097">
        <ele>0.96</ele>
        <time>2021-03-19T22:57:31Z</time>
      </trkpt>
      <trkpt lat="55.7472" lon="-5.38367">
        <ele>0.81</ele>
        <time>2021-03-19T23:01:56Z</time>
      </trkpt>
      <trkpt lat="55.74783" lon="-5.38537">
        <ele>0.73</ele>
        <time>2021-03-19T23:06:21Z</time>
      </trkpt>
      <trkpt lat="55.74863" lon="-5.38715">
        <ele>0.64</ele>
        <time>2021-03-19T23:10:46Z</time>
      </trkpt>
      <trkpt lat="55.74912" lon="-5.38779">
        <ele>0.61</ele>
        <time>2021-03-19T23:15:11Z</time>
      </trkpt>
      <trkpt lat="55.7496" lon="-5.38808">
        <ele>0.59</ele>
        <time>2021-03-19T23:19:36Z</time>
      </trkpt>
      <trkpt lat="55.75067" lon="-5.38786">
        <ele>0.53</ele>
        <time>2021-03-19T23:24:01Z</time>
      </trkpt>
      <trkpt lat="55.75117" lon="-5.38771">
        <ele>1.65</ele>
        <time>2021-03-19T23:28:26Z</time>
      </trkpt>
      <trkpt lat="55.75125" lon="-5.3879">
        <ele>2.51</ele>
        <time>2021-03-19T23:32:51Z</time>
      </trkpt>
      <trkpt lat="55.75132" lon="-5.38813">
        <ele>2.73</ele>
        <time>2021-03-19T23:37:16Z</time>
      </trkpt>
      <trkpt lat="55.75142" lon="-5.38817">
        <ele>3.43</ele>
        <time>2021-03-19T23:41:41Z</time>
      </trkpt>
      <trkpt lat="55.75179" lon="-5.38935">
        <ele>8.02</ele>
        <time>2021-03-19T23:41:45Z</time>
      </trkpt>
      <trkpt lat="55.75185" lon="-5.38949">
        <ele>8.11</ele>
        <time>2021-03-19T23:41:48Z</time>
      </trkpt>
      <trkpt lat="55.75201" lon="-5.38977">
        <ele>8.18</ele>
        <time>2021-03-19T23:41:52Z</time>
      </trkpt>
      <trkpt lat="55.75402" lon="-5.39208">
        <ele>13.44</ele>
        <time>2021-03-19T23:41:55Z</time>
      </trkpt>
      <trkpt lat="55.75424" lon="-5.39249">
        <ele>12.88</ele>
        <time>2021-03-19T23:41:58Z</time>
      </trkpt>
      <trkpt lat="55.7545" lon="-5.39321">
        <ele>9.35</ele>
        <time>2021-03-19T23:42:02Z</time>
      </trkpt>
      <trkpt lat="55.75456" lon="-5.39334">
        <ele>8.81</ele>
        <time>2021-03-19T23:42:05Z</time>
      </trkpt>
      <trkpt lat="55.75594" lon="-5.39491">
        <ele>13.77</ele>
        <time>2021-03-19T23:42:09Z</time>
      </trkpt>
      <trkpt lat="55.75618" lon="-5.39473">
        <ele>17.43</ele>
        <time>2021-03-19T23:42:14Z</time>
      </trkpt>
      <trkpt lat="55.75627" lon="-5.39468">
        <ele>18.45</ele>
        <time>2021-03-19T23:42:19Z</time>
      </trkpt>
      <trkpt lat="55.75652" lon="-5.39465">
        <ele>20.45</ele>
        <time>2021-03-19T23:42:24Z</time>
      </trkpt>
      <trkpt lat="55.75753" lon="-5.39462">
        <ele>27.74</ele>
        <time>2021-03-19T23:42:29Z</time>
      </trkpt>
      <trkpt lat="55.75777" lon="-5.39466">
        <ele>27.43</ele>
        <time>2021-03-19T23:42:34Z</time>
      </trkpt>
      <trkpt lat="55.7581" lon="-5.39479">
        <ele>29.16</ele>
        <time>2021-03-19T23:42:39Z</time>
      </trkpt>
      <trkpt lat="55.75846" lon="-5.39507">
        <ele>33.78</ele>
        <time>2021-03-19T23:42:44Z</time>
      </trkpt>
      <trkpt lat="55.75906" lon="-5.39566">
        <ele>35.51</ele>
        <time>2021-03-19T23:42:49Z</time>
      </trkpt>
      <trkpt lat="55.76023" lon="-5.3969">
        <ele>42.61</ele>
        <time>2021-03-19T23:42:54Z</time>
      </trkpt>
      <trkpt lat="55.76117" lon="-5.39773">
        <ele>46.03</ele>
        <time>2021-03-19T23:42:59Z</time>
      </trkpt>
      <trkpt lat="55.76359" lon="-5.39938">
        <ele>55.53</ele>
        <time>2021-03-19T23:43:04Z</time>
      </trkpt>
      <trkpt lat="55.76409" lon="-5.39984">
        <ele>53.36</ele>
        <time>2021-03-19T23:43:09Z</time>
      </trkpt>
      <trkpt lat="55.76511" lon="-5.40055">
        <ele>55.31</ele>
        <time>2021-03-19T23:43:15Z</time>
      </trkpt>
      <trkpt lat="55.76539" lon="-5.40125">
        <ele>54.14</ele>
        <time>2021-03-19T23:43:20Z</time>
      </trkpt>
      <trkpt lat="55.76576" lon="-5.40187">
        <ele>53.95</ele>
        <time>2021-03-19T23:43:25Z</time>
      </trkpt>
      <trkpt lat="55.76694" lon="-5.40272">
        <ele>48.6</ele>
        <time>2021-03-19T23:43:30Z</time>
      </trkpt>
      <trkpt lat="55.7672" lon="-5.40286">
        <ele>45.64</ele>
        <time>2021-03-19T23:43:35Z</time>
      </trkpt>
      <trkpt lat="55.76741" lon="-5.40295">
        <ele>43.72</ele>
        <time>2021-03-19T23:43:40Z</time>
      </trkpt>
      <trkpt lat="55.76757" lon="-5.40297">
        <ele>43.02</ele>
        <time>2021-03-19T23:43:45Z</time>
      </trkpt>
      <trkpt lat="55.7679" lon="-5.40296">
        <ele>42.58</ele>
        <time>2021-03-19T23:43:50Z</time>
      </trkpt>
      <trkpt lat="55.76855" lon="-5.40321">
        <ele>41.4</ele>
        <time>2021-03-19T23:43:55Z</time>
      </trkpt>
      <trkpt lat="55.76865" lon="-5.40328">
        <ele>40.82</ele>
        <time>2021-03-19T23:44:00Z</time>
      </trkpt>
      <trkpt lat="55.76873" lon="-5.40339">
        <ele>39.77</ele>
        <time>2021-03-19T23:44:05Z</time>
      </trkpt>
      <trkpt lat="55.7688" lon="-5.40353">
        <ele>38.58</ele>
        <time>2021-03-19T23:44:10Z</time>
      </trkpt>
      <trkpt lat="55.76908" lon="-5.40424">
        <ele>34.93</ele>
        <time>2021-03-19T23:44:15Z</time>
      </trkpt>
      <trkpt lat="55.76926" lon="-5.40449">
        <ele>34.87</ele>
        <time>2021-03-19T23:44:20Z</time>
      </trkpt>
      <trkpt lat="55.76935" lon="-5.40466">
        <ele>35.22</ele>
        <time>2021-03-19T23:44:25Z</time>
      </trkpt>
      <trkpt lat="55.77019" lon="-5.40652">
        <ele>37.73</ele>
        <time>2021-03-19T23:44:30Z</time>
      </trkpt>
      <trkpt lat="55.7712" lon="-5.40886">
        <ele>44.44</ele>
        <time>2021-03-19T23:44:35Z</time>
      </trkpt>
      <trkpt lat="55.77367" lon="-5.41492">
        <ele>67.67</ele>
        <time>2021-03-19T23:44:40Z</time>
      </trkpt>
      <trkpt lat="55.77405" lon="-5.41547">
        <ele>70.34</ele>
        <time>2021-03-19T23:44:46Z</time>
      </trkpt>
      <trkpt lat="55.77447" lon="-5.41592">
        <ele>72.15</ele>
        <time>2021-03-19T23:44:51Z</time>
      </trkpt>
      <trkpt lat="55.77564" lon="-5.41686">
        <ele>80.09</ele>
        <time>2021-03-19T23:44:56Z</time>
      </trkpt>
      <trkpt lat="55.77573" lon="-5.4169">
        <ele>80.58</ele>
        <time>2021-03-19T23:45:01Z</time>
      </trkpt>
      <trkpt lat="55.7761" lon="-5.41683">
        <ele>84.43</ele>
        <time>2021-03-19T23:45:06Z</time>
      </trkpt>
      <trkpt lat="55.7762" lon="-5.4169">
        <ele>86.12</ele>
        <time>2021-03-19T23:45:11Z</time>
      </trkpt>
      <trkpt lat="55.77623" lon="-5.41715">
        <ele>87.12</ele>
        <time>2021-03-19T23:45:16Z</time>
      </trkpt>
      <trkpt lat="55.77618" lon="-5.41749">
        <ele>87.68</ele>
        <time>2021-03-19T23:45:21Z</time>
      </trkpt>
      <trkpt lat="55.77618" lon="-5.41799">
        <ele>89.65</ele>
        <time>2021-03-19T23:45:26Z</time>
      </trkpt>
      <trkpt lat="55.77725" lon="-5.42223">
        <ele>108.28</ele>
        <time>2021-03-19T23:45:31Z</time>
      </trkpt>
      <trkpt lat="55.77996" lon="-5.43128">
        <ele>126.14</ele>
        <time>2021-03-19T23:45:36Z</time>
      </trkpt>
      <trkpt lat="55.78133" lon="-5.43544">
        <ele>128.72</ele>
        <time>2021-03-19T23:45:41Z</time>
      </trkpt>
      <trkpt lat="55.7816" lon="-5.43609">
        <ele>129.38</ele>
        <time>2021-03-19T23:45:46Z</time>
      </trkpt>
      <trkpt lat="55.78251" lon="-5.43741">
        <ele>127.47</ele>
        <time>2021-03-19T23:45:51Z</time>
      </trkpt>
      <trkpt lat="55.78544" lon="-5.441">
        <ele>121.59</ele>
        <time>2021-03-19T23:45:56Z</time>
      </trkpt>
      <trkpt lat="55.78977" lon="-5.44668">
        <ele>122.62</ele>
        <time>2021-03-19T23:46:01Z</time>
      </trkpt>
      <trkpt lat="55.79109" lon="-5.44827">
        <ele>122.11</ele>
        <time>2021-03-19T23:46:06Z</time>
      </trkpt>
      <trkpt lat="55.79261" lon="-5.45073">
        <ele>122.62</ele>
        <time>2021-03-19T23:46:11Z</time>
      </trkpt>
      <trkpt lat="55.79597" lon="-5.45485">
        <ele>102.33</ele>
        <time>2021-03-19T23:46:17Z</time>
      </trkpt>
      <trkpt lat="55.79605" lon="-5.45512">
        <ele>100.94</ele>
        <time>2021-03-19T23:46:22Z</time>
      </trkpt>
      <trkpt lat="55.79612" lon="-5.45621">
        <ele>96.81</ele>
        <time>2021-03-19T23:46:27Z</time>
      </trkpt>
      <trkpt lat="55.79651" lon="-5.45826">
        <ele>83.6</ele>
        <time>2021-03-19T23:46:32Z</time>
      </trkpt>
      <trkpt lat="55.79656" lon="-5.46068">
        <ele>67.72</ele>
        <time>2021-03-19T23:46:37Z</time>
      </trkpt>
      <trkpt lat="55.79682" lon="-5.46205">
        <ele>59.94</ele>
        <time>2021-03-19T23:46:42Z</time>
      </trkpt>
      <trkpt lat="55.79721" lon="-5.46323">
        <ele>52.4</ele>
        <time>2021-03-19T23:46:47Z</time>
      </trkpt>
      <trkpt lat="55.79724" lon="-5.4648">
        <ele>49.08</ele>
        <time>2021-03-19T23:46:52Z</time>
      </trkpt>
      <trkpt lat="55.79732" lon="-5.46539">
        <ele>47.59</ele>
        <time>2021-03-19T23:46:57Z</time>
      </trkpt>
      <trkpt lat="55.79813" lon="-5.46747">
        <ele>34.92</ele>
        <time>2021-03-19T23:47:02Z</time>
      </trkpt>
      <trkpt lat="55.79837" lon="-5.46792">
        <ele>32.36</ele>
        <time>2021-03-19T23:47:07Z</time>
      </trkpt>
      <trkpt lat="55.7986" lon="-5.46868">
        <ele>29.77</ele>
        <time>2021-03-19T23:47:12Z</time>
      </trkpt>
      <trkpt lat="55.80042" lon="-5.47328">
        <ele>11.97</ele>
        <time>2021-03-19T23:47:17Z</time>
      </trkpt>
      <trkpt lat="55.80119" lon="-5.47528">
        <ele>8.43</ele>
        <time>2021-03-19T23:47:22Z</time>
      </trkpt>
      <trkpt lat="55.80177" lon="-5.47518">
        <ele>6.99</ele>
        <time>2021-03-19T23:47:26Z</time>
      </trkpt>
      <trkpt lat="55.802" lon="-5.47523">
        <ele>6.34</ele>
        <time>2021-03-19T23:47:30Z</time>
      </trkpt>
      <trkpt lat="55.8022" lon="-5.47533">
        <ele>6.92</ele>
        <time>2021-03-19T23:47:34Z</time>
      </trkpt>
      <trkpt lat="55.80238" lon="-5.47546">
        <ele>7</ele>
        <time>2021-03-19T23:47:37Z</time>
      </trkpt>
      <trkpt lat="55.80266" lon="-5.47579">
        <ele>7.33</ele>
        <time>2021-03-19T23:47:41Z</time>
      </trkpt>
      <trkpt lat="55.80278" lon="-5.476">
        <ele>8.03</ele>
        <time>2021-03-19T23:47:45Z</time>
      </trkpt>
      <trkpt lat="55.80328" lon="-5.47727">
        <ele>5.79</ele>
        <time>2021-03-19T23:47:49Z</time>
      </trkpt>
      <trkpt lat="55.8035" lon="-5.47762">
        <ele>6.59</ele>
        <time>2021-03-19T23:47:52Z</time>
      </trkpt>
      <trkpt lat="55.80378" lon="-5.47792">
        <ele>6.76</ele>
        <time>2021-03-19T23:47:56Z</time>
      </trkpt>
      <trkpt lat="55.80405" lon="-5.47807">
        <ele>5.96</ele>
        <time>2021-03-19T23:48:00Z</time>
      </trkpt>
      <trkpt lat="55.80428" lon="-5.47811">
        <ele>5.41</ele>
        <time>2021-03-19T23:48:04Z</time>
      </trkpt>
      <trkpt lat="55.80445" lon="-5.47809">
        <ele>4.88</ele>
        <time>2021-03-19T23:48:08Z</time>
      </trkpt>
      <trkpt lat="55.80584" lon="-5.47768">
        <ele>3.66</ele>
        <time>2021-03-19T23:48:11Z</time>
      </trkpt>
      <trkpt lat="55.8064" lon="-5.4775">
        <ele>6.95</ele>
        <time>2021-03-19T23:48:15Z</time>
      </trkpt>
      <trkpt lat="55.80665" lon="-5.4774">
        <ele>6.41</ele>
        <time>2021-03-19T23:48:19Z</time>
      </trkpt>
      <trkpt lat="55.80686" lon="-5.47725">
        <ele>5.44</ele>
        <time>2021-03-19T23:48:23Z</time>
      </trkpt>
      <trkpt lat="55.8079" lon="-5.4763">
        <ele>9.75</ele>
        <time>2021-03-19T23:48:26Z</time>
      </trkpt>
      <trkpt lat="55.80807" lon="-5.47609">
        <ele>11.33</ele>
        <time>2021-03-19T23:48:30Z</time>
      </trkpt>
      <trkpt lat="55.80831" lon="-5.47576">
        <ele>14.98</ele>
        <time>2021-03-19T23:48:34Z</time>
      </trkpt>
      <trkpt lat="55.80858" lon="-5.47525">
        <ele>16.77</ele>
        <time>2021-03-19T23:48:38Z</time>
      </trkpt>
      <trkpt lat="55.80911" lon="-5.4739">
        <ele>18.58</ele>
        <time>2021-03-19T23:48:42Z</time>
      </trkpt>
      <trkpt lat="55.81005" lon="-5.47173">
        <ele>19.63</ele>
        <time>2021-03-19T23:48:45Z</time>
      </trkpt>
      <trkpt lat="55.8103" lon="-5.47128">
        <ele>20.24</ele>
        <time>2021-03-19T23:48:49Z</time>
      </trkpt>
      <trkpt lat="55.81056" lon="-5.47093">
        <ele>17.97</ele>
        <time>2021-03-19T23:48:53Z</time>
      </trkpt>
      <trkpt lat="55.81074" lon="-5.47076">
        <ele>17.4</ele>
        <time>2021-03-19T23:48:57Z</time>
      </trkpt>
      <trkpt lat="55.81116" lon="-5.47049">
        <ele>16.23</ele>
        <time>2021-03-19T23:49:00Z</time>
      </trkpt>
      <trkpt lat="55.81179" lon="-5.47017">
        <ele>14.54</ele>
        <time>2021-03-19T23:49:04Z</time>
      </trkpt>
      <trkpt lat="55.81217" lon="-5.46994">
        <ele>12.64</ele>
        <time>2021-03-19T23:49:08Z</time>
      </trkpt>
      <trkpt lat="55.8125" lon="-5.46966">
        <ele>11</ele>
        <time>2021-03-19T23:49:12Z</time>
      </trkpt>
      <trkpt lat="55.81271" lon="-5.46943">
        <ele>11.1</ele>
        <time>2021-03-19T23:49:16Z</time>
      </trkpt>
      <trkpt lat="55.81345" lon="-5.46835">
        <ele>14.48</ele>
        <time>2021-03-19T23:49:19Z</time>
      </trkpt>
      <trkpt lat="55.81373" lon="-5.46805">
        <ele>15.01</ele>
        <time>2021-03-19T23:49:23Z</time>
      </trkpt>
      <trkpt lat="55.81398" lon="-5.46785">
        <ele>14.18</ele>
        <time>2021-03-19T23:49:27Z</time>
      </trkpt>
      <trkpt lat="55.81431" lon="-5.46766">
        <ele>12.95</ele>
        <time>2021-03-19T23:49:31Z</time>
      </trkpt>
      <trkpt lat="55.81547" lon="-5.46724">
        <ele>8.91</ele>
        <time>2021-03-19T23:49:34Z</time>
      </trkpt>
      <trkpt lat="55.816" lon="-5.467">
        <ele>10.31</ele>
        <time>2021-03-19T23:49:38Z</time>
      </trkpt>
      <trkpt lat="55.81636" lon="-5.46678">
        <ele>11.49</ele>
        <time>2021-03-19T23:49:42Z</time>
      </trkpt>
      <trkpt lat="55.81709" lon="-5.46616">
        <ele>10.61</ele>
        <time>2021-03-19T23:49:46Z</time>
      </trkpt>
      <trkpt lat="55.81735" lon="-5.46602">
        <ele>9.19</ele>
        <time>2021-03-19T23:49:50Z</time>
      </trkpt>
      <trkpt lat="55.81797" lon="-5.4658">
        <ele>3.81</ele>
        <time>2021-03-19T23:49:53Z</time>
      </trkpt>
      <trkpt lat="55.8198" lon="-5.46525">
        <ele>4.46</ele>
        <time>2021-03-19T23:49:57Z</time>
      </trkpt>
      <trkpt lat="55.82008" lon="-5.46515">
        <ele>5.48</ele>
        <time>2021-03-19T23:50:01Z</time>
      </trkpt>
      <trkpt lat="55.82029" lon="-5.46503">
        <ele>5.86</ele>
        <time>2021-03-19T23:50:05Z</time>
      </trkpt>
      <trkpt lat="55.82064" lon="-5.46473">
        <ele>5.97</ele>
        <time>2021-03-19T23:50:08Z</time>
      </trkpt>
      <trkpt lat="55.82079" lon="-5.46456">
        <ele>6.67</ele>
        <time>2021-03-19T23:50:12Z</time>
      </trkpt>
      <trkpt lat="55.82149" lon="-5.46351">
        <ele>7.35</ele>
        <time>2021-03-19T23:50:16Z</time>
      </trkpt>
      <trkpt lat="55.82167" lon="-5.46331">
        <ele>8</ele>
        <time>2021-03-19T23:50:20Z</time>
      </trkpt>
      <trkpt lat="55.82192" lon="-5.4631">
        <ele>8.78</ele>
        <time>2021-03-19T23:50:24Z</time>
      </trkpt>
      <trkpt lat="55.82254" lon="-5.46281">
        <ele>14.79</ele>
        <time>2021-03-19T23:50:27Z</time>
      </trkpt>
      <trkpt lat="55.82278" lon="-5.46265">
        <ele>16.46</ele>
        <time>2021-03-19T23:50:31Z</time>
      </trkpt>
      <trkpt lat="55.82493" lon="-5.46096">
        <ele>21.08</ele>
        <time>2021-03-19T23:50:35Z</time>
      </trkpt>
      <trkpt lat="55.82512" lon="-5.46086">
        <ele>19.67</ele>
        <time>2021-03-19T23:50:39Z</time>
      </trkpt>
      <trkpt lat="55.82663" lon="-5.46053">
        <ele>17.3</ele>
        <time>2021-03-19T23:50:42Z</time>
      </trkpt>
      <trkpt lat="55.82684" lon="-5.46045">
        <ele>17.14</ele>
        <time>2021-03-19T23:50:46Z</time>
      </trkpt>
      <trkpt lat="55.8271" lon="-5.46028">
        <ele>16.83</ele>
        <time>2021-03-19T23:50:50Z</time>
      </trkpt>
      <trkpt lat="55.82741" lon="-5.45992">
        <ele>14.99</ele>
        <time>2021-03-19T23:50:54Z</time>
      </trkpt>
      <trkpt lat="55.82749" lon="-5.45978">
        <ele>13.93</ele>
        <time>2021-03-19T23:50:58Z</time>
      </trkpt>
      <trkpt lat="55.82758" lon="-5.45959">
        <ele>13.6</ele>
        <time>2021-03-19T23:51:01Z</time>
      </trkpt>
      <trkpt lat="55.82788" lon="-5.4587">
        <ele>11.48</ele>
        <time>2021-03-19T23:51:05Z</time>
      </trkpt>
      <trkpt lat="55.82802" lon="-5.45838">
        <ele>8.66</ele>
        <time>2021-03-19T23:51:09Z</time>
      </trkpt>
      <trkpt lat="55.82827" lon="-5.45791">
        <ele>5.68</ele>
        <time>2021-03-19T23:51:13Z</time>
      </trkpt>
      <trkpt lat="55.82844" lon="-5.45767">
        <ele>4.62</ele>
        <time>2021-03-19T23:51:16Z</time>
      </trkpt>
      <trkpt lat="55.82875" lon="-5.45735">
        <ele>4.05</ele>
        <time>2021-03-19T23:51:20Z</time>
      </trkpt>
      <trkpt lat="55.82939" lon="-5.45685">
        <ele>5.98</ele>
        <time>2021-03-19T23:51:24Z</time>
      </trkpt>
      <trkpt lat="55.83282" lon="-5.45428">
        <ele>7.72</ele>
        <time>2021-03-19T23:51:28Z</time>
      </trkpt>
      <trkpt lat="55.8335" lon="-5.45384">
        <ele>11.07</ele>
        <time>2021-03-19T23:51:32Z</time>
      </trkpt>
      <trkpt lat="55.83405" lon="-5.45338">
        <ele>11.1</ele>
        <time>2021-03-19T23:51:35Z</time>
      </trkpt>
      <trkpt lat="55.83415" lon="-5.45326">
        <ele>11.54</ele>
        <time>2021-03-19T23:51:39Z</time>
      </trkpt>
      <trkpt lat="55.83425" lon="-5.45309">
        <ele>12.77</ele>
        <time>2021-03-19T23:51:43Z</time>
      </trkpt>
      <trkpt lat="55.83451" lon="-5.45261">
        <ele>14.21</ele>
        <time>2021-03-19T23:51:47Z</time>
      </trkpt>
      <trkpt lat="55.83546" lon="-5.45063">
        <ele>10.85</ele>
        <time>2021-03-19T23:51:50Z</time>
      </trkpt>
      <trkpt lat="55.83579" lon="-5.44992">
        <ele>12.59</ele>
        <time>2021-03-19T23:51:54Z</time>
      </trkpt>
      <trkpt lat="55.83696" lon="-5.44723">
        <ele>7.7</ele>
        <time>2021-03-19T23:51:58Z</time>
      </trkpt>
      <trkpt lat="55.83717" lon="-5.44687">
        <ele>4.99</ele>
        <time>2021-03-19T23:52:02Z</time>
      </trkpt>
      <trkpt lat="55.83733" lon="-5.44667">
        <ele>5.39</ele>
        <time>2021-03-19T23:52:06Z</time>
      </trkpt>
      <trkpt lat="55.8376" lon="-5.44643">
        <ele>6</ele>
        <time>2021-03-19T23:52:09Z</time>
      </trkpt>
      <trkpt lat="55.83779" lon="-5.44633">
        <ele>6.06</ele>
        <time>2021-03-19T23:52:13Z</time>
      </trkpt>
      <trkpt lat="55.8382" lon="-5.44625">
        <ele>9.59</ele>
        <time>2021-03-19T23:52:17Z</time>
      </trkpt>
      <trkpt lat="55.83897" lon="-5.4464">
        <ele>14.67</ele>
        <time>2021-03-19T23:52:21Z</time>
      </trkpt>
      <trkpt lat="55.83923" lon="-5.44641">
        <ele>14.16</ele>
        <time>2021-03-19T23:52:24Z</time>
      </trkpt>
      <trkpt lat="55.83944" lon="-5.44633">
        <ele>15.43</ele>
        <time>2021-03-19T23:52:28Z</time>
      </trkpt>
      <trkpt lat="55.83973" lon="-5.44612">
        <ele>15.93</ele>
        <time>2021-03-19T23:52:32Z</time>
      </trkpt>
      <trkpt lat="55.84016" lon="-5.44591">
        <ele>14.99</ele>
        <time>2021-03-19T23:52:36Z</time>
      </trkpt>
      <trkpt lat="55.84032" lon="-5.44589">
        <ele>14.26</ele>
        <time>2021-03-19T23:52:40Z</time>
      </trkpt>
      <trkpt lat="55.8406" lon="-5.44594">
        <ele>12.06</ele>
        <time>2021-03-19T23:52:43Z</time>
      </trkpt>
      <trkpt lat="55.84145" lon="-5.44614">
        <ele>3.89</ele>
        <time>2021-03-19T23:52:47Z</time>
      </trkpt>
      <trkpt lat="55.84268" lon="-5.44677">
        <ele>9.64</ele>
        <time>2021-03-19T23:52:51Z</time>
      </trkpt>
      <trkpt lat="55.84292" lon="-5.44682">
        <ele>8.83</ele>
        <time>2021-03-19T23:52:55Z</time>
      </trkpt>
      <trkpt lat="55.84309" lon="-5.4468">
        <ele>8.35</ele>
        <time>2021-03-19T23:52:58Z</time>
      </trkpt>
      <trkpt lat="55.84367" lon="-5.44656">
        <ele>8.28</ele>
        <time>2021-03-19T23:53:02Z</time>
      </trkpt>
      <trkpt lat="55.8449" lon="-5.44598">
        <ele>13.27</ele>
        <time>2021-03-19T23:53:06Z</time>
      </trkpt>
      <trkpt lat="55.8453" lon="-5.44572">
        <ele>13.41</ele>
        <time>2021-03-19T23:53:10Z</time>
      </trkpt>
      <trkpt lat="55.84627" lon="-5.44485">
        <ele>15.03</ele>
        <time>2021-03-19T23:53:14Z</time>
      </trkpt>
      <trkpt lat="55.84662" lon="-5.44459">
        <ele>15.8</ele>
        <time>2021-03-19T23:53:17Z</time>
      </trkpt>
      <trkpt lat="55.84852" lon="-5.44342">
        <ele>26.78</ele>
        <time>2021-03-19T23:53:21Z</time>
      </trkpt>
      <trkpt lat="55.85036" lon="-5.44225">
        <ele>37.04</ele>
        <time>2021-03-19T23:53:25Z</time>
      </trkpt>
      <trkpt lat="55.85134" lon="-5.44156">
        <ele>39.45</ele>
        <time>2021-03-19T23:53:29Z</time>
      </trkpt>
      <trkpt lat="55.85205" lon="-5.44104">
        <ele>36.55</ele>
        <time>2021-03-19T23:53:32Z</time>
      </trkpt>
      <trkpt lat="55.85264" lon="-5.44068">
        <ele>32.89</ele>
        <time>2021-03-19T23:53:36Z</time>
      </trkpt>
      <trkpt lat="55.85346" lon="-5.44059">
        <ele>22.69</ele>
        <time>2021-03-19T23:53:40Z</time>
      </trkpt>
      <trkpt lat="55.85375" lon="-5.4405">
        <ele>19.18</ele>
        <time>2021-03-19T23:53:44Z</time>
      </trkpt>
      <trkpt lat="55.854" lon="-5.44038">
        <ele>15.8</ele>
        <time>2021-03-19T23:53:48Z</time>
      </trkpt>
      <trkpt lat="55.85427" lon="-5.44016">
        <ele>11.29</ele>
        <time>2021-03-19T23:53:51Z</time>
      </trkpt>
      <trkpt lat="55.85454" lon="-5.43986">
        <ele>7.6</ele>
        <time>2021-03-19T23:53:55Z</time>
      </trkpt>
      <trkpt lat="55.85477" lon="-5.43952">
        <ele>4.46</ele>
        <time>2021-03-19T23:53:59Z</time>
      </trkpt>
      <trkpt lat="55.85496" lon="-5.43913">
        <ele>2.53</ele>
        <time>2021-03-19T23:54:03Z</time>
      </trkpt>
      <trkpt lat="55.85513" lon="-5.43871">
        <ele>2.04</ele>
        <time>2021-03-19T23:54:06Z</time>
      </trkpt>
      <trkpt lat="55.85528" lon="-5.43826">
        <ele>0.8</ele>
        <time>2021-03-19T23:54:10Z</time>
      </trkpt>
      <trkpt lat="55.85542" lon="-5.43791">
        <ele>3.98</ele>
        <time>2021-03-19T23:54:14Z</time>
      </trkpt>
      <trkpt lat="55.85559" lon="-5.43759">
        <ele>7.61</ele>
        <time>2021-03-19T23:54:18Z</time>
      </trkpt>
      <trkpt lat="55.85628" lon="-5.43671">
        <ele>7.74</ele>
        <time>2021-03-19T23:54:22Z</time>
      </trkpt>
      <trkpt lat="55.85648" lon="-5.43641">
        <ele>6.81</ele>
        <time>2021-03-19T23:54:25Z</time>
      </trkpt>
      <trkpt lat="55.85659" lon="-5.43618">
        <ele>5.8</ele>
        <time>2021-03-19T23:54:29Z</time>
      </trkpt>
      <trkpt lat="55.85785" lon="-5.43232">
        <ele>8.17</ele>
        <time>2021-03-19T23:54:33Z</time>
      </trkpt>
      <trkpt lat="55.85881" lon="-5.42923">
        <ele>16.09</ele>
        <time>2021-03-19T23:54:37Z</time>
      </trkpt>
      <trkpt lat="55.85915" lon="-5.42806">
        <ele>19.24</ele>
        <time>2021-03-19T23:54:40Z</time>
      </trkpt>
      <trkpt lat="55.8594" lon="-5.42709">
        <ele>21.14</ele>
        <time>2021-03-19T23:54:44Z</time>
      </trkpt>
      <trkpt lat="55.85975" lon="-5.42618">
        <ele>21.54</ele>
        <time>2021-03-19T23:54:48Z</time>
      </trkpt>
      <trkpt lat="55.8603" lon="-5.42422">
        <ele>17.52</ele>
        <time>2021-03-19T23:54:52Z</time>
      </trkpt>
      <trkpt lat="55.86051" lon="-5.42354">
        <ele>12.97</ele>
        <time>2021-03-19T23:54:56Z</time>
      </trkpt>
      <trkpt lat="55.86188" lon="-5.41978">
        <ele>15.23</ele>
        <time>2021-03-19T23:54:59Z</time>
      </trkpt>
      <trkpt lat="55.86215" lon="-5.41912">
        <ele>14.69</ele>
        <time>2021-03-19T23:55:03Z</time>
      </trkpt>
      <trkpt lat="55.86294" lon="-5.41754">
        <ele>14.79</ele>
        <time>2021-03-19T23:55:07Z</time>
      </trkpt>
      <trkpt lat="55.86318" lon="-5.41701">
        <ele>13.25</ele>
        <time>2021-03-19T23:55:11Z</time>
      </trkpt>
      <trkpt lat="55.86326" lon="-5.41668">
        <ele>11.31</ele>
        <time>2021-03-19T23:55:14Z</time>
      </trkpt>
      <trkpt lat="55.86336" lon="-5.41559">
        <ele>6.12</ele>
        <time>2021-03-19T23:55:18Z</time>
      </trkpt>
      <trkpt lat="55.8634" lon="-5.41538">
        <ele>5.86</ele>
        <time>2021-03-19T23:55:22Z</time>
      </trkpt>
      <trkpt lat="55.86345" lon="-5.41528">
        <ele>5.58</ele>
        <time>2021-03-19T23:55:26Z</time>
      </trkpt>
      <trkpt lat="55.8638" lon="-5.41522">
        <ele>6</ele>
        <time>2021-03-19T23:55:29Z</time>
      </trkpt>
      <trkpt lat="55.8644" lon="-5.41491">
        <ele>8.85</ele>
        <time>2021-03-19T23:55:33Z</time>
      </trkpt>
      <trkpt lat="55.86542" lon="-5.41447">
        <ele>11.64</ele>
        <time>2021-03-19T23:55:37Z</time>
      </trkpt>
      <trkpt lat="55.86601" lon="-5.41419">
        <ele>14.76</ele>
        <time>2021-03-19T23:55:41Z</time>
      </trkpt>
      <trkpt lat="55.86601" lon="-5.41406">
        <ele>12.94</ele>
        <time>2021-03-19T23:55:45Z</time>
      </trkpt>
      <trkpt lat="55.86617" lon="-5.41341">
        <ele>9.22</ele>
        <time>2021-03-19T23:55:50Z</time>
      </trkpt>
      <trkpt lat="55.86634" lon="-5.41303">
        <ele>9.28</ele>
        <time>2021-03-19T23:55:54Z</time>
      </trkpt>
      <trkpt lat="55.86649" lon="-5.41282">
        <ele>9.61</ele>
        <time>2021-03-19T23:55:58Z</time>
      </trkpt>
      <trkpt lat="55.86649" lon="-5.41282">
        <ele>9.61</ele>
        <time>2021-03-19T23:55:58Z</time>
      </trkpt>
      <trkpt lat="55.86634" lon="-5.41303">
        <ele>9.28</ele>
        <time>2021-03-19T23:56:03Z</time>
      </trkpt>
      <trkpt lat="55.86617" lon="-5.41341">
        <ele>9.22</ele>
        <time>2021-03-19T23:56:07Z</time>
      </trkpt>
      <trkpt lat="55.86601" lon="-5.41406">
        <ele>12.94</ele>
        <time>2021-03-19T23:56:11Z</time>
      </trkpt>
      <trkpt lat="55.86601" lon="-5.41419">
        <ele>14.76</ele>
        <time>2021-03-19T23:56:16Z</time>
      </trkpt>
      <trkpt lat="55.86771" lon="-5.41305">
        <ele>24.47</ele>
        <time>2021-03-19T23:56:19Z</time>
      </trkpt>
      <trkpt lat="55.86792" lon="-5.41294">
        <ele>25</ele>
        <time>2021-03-19T23:56:23Z</time>
      </trkpt>
      <trkpt lat="55.8682" lon="-5.41286">
        <ele>26.82</ele>
        <time>2021-03-19T23:56:27Z</time>
      </trkpt>
      <trkpt lat="55.86856" lon="-5.41271">
        <ele>29.23</ele>
        <time>2021-03-19T23:56:30Z</time>
      </trkpt>
      <trkpt lat="55.86886" lon="-5.41245">
        <ele>30.47</ele>
        <time>2021-03-19T23:56:34Z</time>
      </trkpt>
      <trkpt lat="55.86952" lon="-5.41171">
        <ele>32.68</ele>
        <time>2021-03-19T23:56:38Z</time>
      </trkpt>
      <trkpt lat="55.86974" lon="-5.41155">
        <ele>35.41</ele>
        <time>2021-03-19T23:56:42Z</time>
      </trkpt>
      <trkpt lat="55.87011" lon="-5.41128">
        <ele>38.36</ele>
        <time>2021-03-19T23:56:45Z</time>
      </trkpt>
      <trkpt lat="55.8715" lon="-5.41046">
        <ele>47.59</ele>
        <time>2021-03-19T23:56:49Z</time>
      </trkpt>
      <trkpt lat="55.87268" lon="-5.4099">
        <ele>47.9</ele>
        <time>2021-03-19T23:56:53Z</time>
      </trkpt>
      <trkpt lat="55.87443" lon="-5.40921">
        <ele>50</ele>
        <time>2021-03-19T23:56:57Z</time>
      </trkpt>
      <trkpt lat="55.87528" lon="-5.40907">
        <ele>49.56</ele>
        <time>2021-03-19T23:57:00Z</time>
      </trkpt>
      <trkpt lat="55.87561" lon="-5.40911">
        <ele>52.31</ele>
        <time>2021-03-19T23:57:04Z</time>
      </trkpt>
      <trkpt lat="55.87601" lon="-5.40932">
        <ele>54.03</ele>
        <time>2021-03-19T23:57:08Z</time>
      </trkpt>
      <trkpt lat="55.87627" lon="-5.40955">
        <ele>53.25</ele>
        <time>2021-03-19T23:57:11Z</time>
      </trkpt>
      <trkpt lat="55.87688" lon="-5.41025">
        <ele>50.12</ele>
        <time>2021-03-19T23:57:15Z</time>
      </trkpt>
      <trkpt lat="55.87727" lon="-5.41051">
        <ele>50.44</ele>
        <time>2021-03-19T23:57:19Z</time>
      </trkpt>
      <trkpt lat="55.87807" lon="-5.4109">
        <ele>52.11</ele>
        <time>2021-03-19T23:57:23Z</time>
      </trkpt>
      <trkpt lat="55.87914" lon="-5.41231">
        <ele>58.84</ele>
        <time>2021-03-19T23:57:26Z</time>
      </trkpt>
      <trkpt lat="55.87947" lon="-5.41286">
        <ele>56.5</ele>
        <time>2021-03-19T23:57:30Z</time>
      </trkpt>
      <trkpt lat="55.87969" lon="-5.41346">
        <ele>57.78</ele>
        <time>2021-03-19T23:57:34Z</time>
      </trkpt>
      <trkpt lat="55.87983" lon="-5.41403">
        <ele>60.08</ele>
        <time>2021-03-19T23:57:38Z</time>
      </trkpt>
      <trkpt lat="55.87988" lon="-5.41472">
        <ele>62.1</ele>
        <time>2021-03-19T23:57:41Z</time>
      </trkpt>
      <trkpt lat="55.87985" lon="-5.41525">
        <ele>62.25</ele>
        <time>2021-03-19T23:57:45Z</time>
      </trkpt>
      <trkpt lat="55.87978" lon="-5.41583">
        <ele>63.18</ele>
        <time>2021-03-19T23:57:49Z</time>
      </trkpt>
      <trkpt lat="55.87979" lon="-5.41648">
        <ele>64.08</ele>
        <time>2021-03-19T23:57:52Z</time>
      </trkpt>
      <trkpt lat="55.87987" lon="-5.41706">
        <ele>64.12</ele>
        <time>2021-03-19T23:57:56Z</time>
      </trkpt>
      <trkpt lat="55.88006" lon="-5.4178">
        <ele>65.54</ele>
        <time>2021-03-19T23:58:00Z</time>
      </trkpt>
      <trkpt lat="55.88025" lon="-5.41839">
        <ele>67.46</ele>
        <time>2021-03-19T23:58:04Z</time>
      </trkpt>
      <trkpt lat="55.8807" lon="-5.41947">
        <ele>70.58</ele>
        <time>2021-03-19T23:58:07Z</time>
      </trkpt>
      <trkpt lat="55.88094" lon="-5.42024">
        <ele>70.68</ele>
        <time>2021-03-19T23:58:11Z</time>
      </trkpt>
      <trkpt lat="55.88152" lon="-5.4225">
        <ele>56.7</ele>
        <time>2021-03-19T23:58:15Z</time>
      </trkpt>
      <trkpt lat="55.88165" lon="-5.4229">
        <ele>52.8</ele>
        <time>2021-03-19T23:58:19Z</time>
      </trkpt>
      <trkpt lat="55.88178" lon="-5.42316">
        <ele>51.19</ele>
        <time>2021-03-19T23:58:22Z</time>
      </trkpt>
      <trkpt lat="55.88191" lon="-5.42329">
        <ele>50.28</ele>
        <time>2021-03-19T23:58:26Z</time>
      </trkpt>
      <trkpt lat="55.88201" lon="-5.42338">
        <ele>49.68</ele>
        <time>2021-03-19T23:58:30Z</time>
      </trkpt>
      <trkpt lat="55.88218" lon="-5.42346">
        <ele>48.76</ele>
        <time>2021-03-19T23:58:33Z</time>
      </trkpt>
      <trkpt lat="55.88233" lon="-5.42345">
        <ele>48.01</ele>
        <time>2021-03-19T23:58:37Z</time>
      </trkpt>
      <trkpt lat="55.88255" lon="-5.42337">
        <ele>46.96</ele>
        <time>2021-03-19T23:58:41Z</time>
      </trkpt>
      <trkpt lat="55.8837" lon="-5.42283">
        <ele>42.62</ele>
        <time>2021-03-19T23:58:45Z</time>
      </trkpt>
      <trkpt lat="55.88488" lon="-5.42238">
        <ele>39.89</ele>
        <time>2021-03-19T23:58:48Z</time>
      </trkpt>
      <trkpt lat="55.88563" lon="-5.42235">
        <ele>44.96</ele>
        <time>2021-03-19T23:58:52Z</time>
      </trkpt>
      <trkpt lat="55.8864" lon="-5.42223">
        <ele>47.15</ele>
        <time>2021-03-19T23:58:56Z</time>
      </trkpt>
      <trkpt lat="55.88662" lon="-5.42214">
        <ele>50.29</ele>
        <time>2021-03-19T23:59:00Z</time>
      </trkpt>
      <trkpt lat="55.88714" lon="-5.42182">
        <ele>59.3</ele>
        <time>2021-03-19T23:59:03Z</time>
      </trkpt>
      <trkpt lat="55.88833" lon="-5.42045">
        <ele>59.81</ele>
        <time>2021-03-19T23:59:07Z</time>
      </trkpt>
      <trkpt lat="55.88896" lon="-5.42006">
        <ele>55.08</ele>
        <time>2021-03-19T23:59:11Z</time>
      </trkpt>
      <trkpt lat="55.89016" lon="-5.41996">
        <ele>61.56</ele>
        <time>2021-03-19T23:59:14Z</time>
      </trkpt>
      <trkpt lat="55.89079" lon="-5.42002">
        <ele>60.5</ele>
        <time>2021-03-19T23:59:18Z</time>
      </trkpt>
      <trkpt lat="55.89126" lon="-5.42025">
        <ele>61.88</ele>
        <time>2021-03-19T23:59:22Z</time>
      </trkpt>
      <trkpt lat="55.89154" lon="-5.4205">
        <ele>62.37</ele>
        <time>2021-03-19T23:59:26Z</time>
      </trkpt>
      <trkpt lat="55.89245" lon="-5.42125">
        <ele>64.01</ele>
        <time>2021-03-19T23:59:29Z</time>
      </trkpt>
      <trkpt lat="55.89392" lon="-5.42155">
        <ele>63.14</ele>
        <time>2021-03-19T23:59:33Z</time>
      </trkpt>
      <trkpt lat="55.89442" lon="-5.42158">
        <ele>65.97</ele>
        <time>2021-03-19T23:59:37Z</time>
      </trkpt>
      <trkpt lat="55.89485" lon="-5.42136">
        <ele>66.39</ele>
        <time>2021-03-19T23:59:41Z</time>
      </trkpt>
      <trkpt lat="55.89524" lon="-5.4211">
        <ele>62.58</ele>
        <time>2021-03-19T23:59:44Z</time>
      </trkpt>
      <trkpt lat="55.89569" lon="-5.42097">
        <ele>61.45</ele>
        <time>2021-03-19T23:59:48Z</time>
      </trkpt>
      <trkpt lat="55.89591" lon="-5.421">
        <ele>62.32</ele>
        <time>2021-03-19T23:59:52Z</time>
      </trkpt>
      <trkpt lat="55.89616" lon="-5.42106">
        <ele>62.87</ele>
        <time>2021-03-19T23:59:55Z</time>
      </trkpt>
      <trkpt lat="55.89663" lon="-5.42123">
        <ele>61.47</ele>
        <time>2021-03-19T23:59:59Z</time>
      </trkpt>
      <trkpt lat="55.89704" lon="-5.42156">
        <ele>62.51</ele>
        <time>2021-03-20T00:00:03Z</time>
      </trkpt>
      <trkpt lat="55.89763" lon="-5.42216">
        <ele>59.27</ele>
        <time>2021-03-20T00:00:07Z</time>
      </trkpt>
      <trkpt lat="55.89832" lon="-5.42249">
        <ele>56.98</ele>
        <time>2021-03-20T00:00:10Z</time>
      </trkpt>
      <trkpt lat="55.89861" lon="-5.42248">
        <ele>55.7</ele>
        <time>2021-03-20T00:00:14Z</time>
      </trkpt>
      <trkpt lat="55.89905" lon="-5.42234">
        <ele>50.07</ele>
        <time>2021-03-20T00:00:18Z</time>
      </trkpt>
      <trkpt lat="55.89948" lon="-5.42238">
        <ele>48.82</ele>
        <time>2021-03-20T00:00:22Z</time>
      </trkpt>
      <trkpt lat="55.89991" lon="-5.4226">
        <ele>49.54</ele>
        <time>2021-03-20T00:00:25Z</time>
      </trkpt>
      <trkpt lat="55.90016" lon="-5.42283">
        <ele>50.74</ele>
        <time>2021-03-20T00:00:29Z</time>
      </trkpt>
      <trkpt lat="55.90057" lon="-5.42293">
        <ele>48.35</ele>
        <time>2021-03-20T00:00:33Z</time>
      </trkpt>
      <trkpt lat="55.90102" lon="-5.42282">
        <ele>47.4</ele>
        <time>2021-03-20T00:00:37Z</time>
      </trkpt>
      <trkpt lat="55.9019" lon="-5.42228">
        <ele>44.82</ele>
        <time>2021-03-20T00:00:40Z</time>
      </trkpt>
      <trkpt lat="55.90356" lon="-5.42117">
        <ele>35.44</ele>
        <time>2021-03-20T00:00:44Z</time>
      </trkpt>
      <trkpt lat="55.90428" lon="-5.42089">
        <ele>35.08</ele>
        <time>2021-03-20T00:00:48Z</time>
      </trkpt>
      <trkpt lat="55.90469" lon="-5.42089">
        <ele>33.19</ele>
        <time>2021-03-20T00:00:51Z</time>
      </trkpt>
      <trkpt lat="55.90565" lon="-5.421">
        <ele>25.02</ele>
        <time>2021-03-20T00:00:55Z</time>
      </trkpt>
      <trkpt lat="55.90627" lon="-5.42104">
        <ele>20.76</ele>
        <time>2021-03-20T00:00:59Z</time>
      </trkpt>
      <trkpt lat="55.90689" lon="-5.42099">
        <ele>21.08</ele>
        <time>2021-03-20T00:01:03Z</time>
      </trkpt>
      <trkpt lat="55.90738" lon="-5.42091">
        <ele>20.39</ele>
        <time>2021-03-20T00:01:06Z</time>
      </trkpt>
      <trkpt lat="55.90785" lon="-5.42093">
        <ele>17.25</ele>
        <time>2021-03-20T00:01:10Z</time>
      </trkpt>
      <trkpt lat="55.90881" lon="-5.42124">
        <ele>16.36</ele>
        <time>2021-03-20T00:01:14Z</time>
      </trkpt>
      <trkpt lat="55.90956" lon="-5.42145">
        <ele>12.28</ele>
        <time>2021-03-20T00:01:18Z</time>
      </trkpt>
      <trkpt lat="55.91116" lon="-5.42135">
        <ele>7.25</ele>
        <time>2021-03-20T00:01:21Z</time>
      </trkpt>
      <trkpt lat="55.91153" lon="-5.4211">
        <ele>5.49</ele>
        <time>2021-03-20T00:01:25Z</time>
      </trkpt>
      <trkpt lat="55.91179" lon="-5.42077">
        <ele>4.53</ele>
        <time>2021-03-20T00:01:29Z</time>
      </trkpt>
      <trkpt lat="55.91197" lon="-5.42064">
        <ele>3.7</ele>
        <time>2021-03-20T00:01:32Z</time>
      </trkpt>
      <trkpt lat="55.91222" lon="-5.42051">
        <ele>3.83</ele>
        <time>2021-03-20T00:01:36Z</time>
      </trkpt>
      <trkpt lat="55.9127" lon="-5.42047">
        <ele>2.49</ele>
        <time>2021-03-20T00:01:40Z</time>
      </trkpt>
      <trkpt lat="55.91297" lon="-5.42059">
        <ele>2.65</ele>
        <time>2021-03-20T00:01:44Z</time>
      </trkpt>
      <trkpt lat="55.91423" lon="-5.42167">
        <ele>2.89</ele>
        <time>2021-03-20T00:01:47Z</time>
      </trkpt>
      <trkpt lat="55.91521" lon="-5.42226">
        <ele>7</ele>
        <time>2021-03-20T00:01:51Z</time>
      </trkpt>
      <trkpt lat="55.91646" lon="-5.42292">
        <ele>15.88</ele>
        <time>2021-03-20T00:01:55Z</time>
      </trkpt>
      <trkpt lat="55.91743" lon="-5.42303">
        <ele>21.72</ele>
        <time>2021-03-20T00:01:59Z</time>
      </trkpt>
      <trkpt lat="55.9187" lon="-5.42288">
        <ele>20.37</ele>
        <time>2021-03-20T00:02:02Z</time>
      </trkpt>
      <trkpt lat="55.91918" lon="-5.42279">
        <ele>18.83</ele>
        <time>2021-03-20T00:02:06Z</time>
      </trkpt>
      <trkpt lat="55.91918" lon="-5.42279">
        <ele>18.83</ele>
        <time>2021-03-20T00:02:06Z</time>
      </trkpt>
      <trkpt lat="55.91962" lon="-5.4227">
        <ele>17.28</ele>
        <time>2021-03-20T00:02:10Z</time>
      </trkpt>
      <trkpt lat="55.92163" lon="-5.42336">
        <ele>14.47</ele>
        <time>2021-03-20T00:02:15Z</time>
      </trkpt>
      <trkpt lat="55.92201" lon="-5.42367">
        <ele>12.39</ele>
        <time>2021-03-20T00:02:19Z</time>
      </trkpt>
      <trkpt lat="55.92385" lon="-5.42492">
        <ele>4.78</ele>
        <time>2021-03-20T00:02:24Z</time>
      </trkpt>
      <trkpt lat="55.92626" lon="-5.42534">
        <ele>6.7</ele>
        <time>2021-03-20T00:02:28Z</time>
      </trkpt>
      <trkpt lat="55.92704" lon="-5.42542">
        <ele>10.42</ele>
        <time>2021-03-20T00:02:33Z</time>
      </trkpt>
      <trkpt lat="55.92745" lon="-5.42533">
        <ele>11.04</ele>
        <time>2021-03-20T00:02:37Z</time>
      </trkpt>
      <trkpt lat="55.92926" lon="-5.42475">
        <ele>14.15</ele>
        <time>2021-03-20T00:02:42Z</time>
      </trkpt>
      <trkpt lat="55.93012" lon="-5.4246">
        <ele>8.23</ele>
        <time>2021-03-20T00:02:46Z</time>
      </trkpt>
      <trkpt lat="55.93158" lon="-5.42499">
        <ele>9.86</ele>
        <time>2021-03-20T00:02:51Z</time>
      </trkpt>
      <trkpt lat="55.93344" lon="-5.42625">
        <ele>15.3</ele>
        <time>2021-03-20T00:02:55Z</time>
      </trkpt>
      <trkpt lat="55.93508" lon="-5.42793">
        <ele>17.35</ele>
        <time>2021-03-20T00:03:00Z</time>
      </trkpt>
      <trkpt lat="55.93689" lon="-5.42836">
        <ele>14.31</ele>
        <time>2021-03-20T00:03:04Z</time>
      </trkpt>
      <trkpt lat="55.938" lon="-5.42843">
        <ele>16.99</ele>
        <time>2021-03-20T00:03:08Z</time>
      </trkpt>
      <trkpt lat="55.93892" lon="-5.42861">
        <ele>15.75</ele>
        <time>2021-03-20T00:03:13Z</time>
      </trkpt>
      <trkpt lat="55.9392" lon="-5.42864">
        <ele>14.01</ele>
        <time>2021-03-20T00:03:17Z</time>
      </trkpt>
      <trkpt lat="55.93981" lon="-5.42908">
        <ele>10.86</ele>
        <time>2021-03-20T00:03:22Z</time>
      </trkpt>
      <trkpt lat="55.94001" lon="-5.42915">
        <ele>9.82</ele>
        <time>2021-03-20T00:03:26Z</time>
      </trkpt>
      <trkpt lat="55.94169" lon="-5.42958">
        <ele>11.87</ele>
        <time>2021-03-20T00:03:31Z</time>
      </trkpt>
      <trkpt lat="55.94234" lon="-5.42953">
        <ele>11.91</ele>
        <time>2021-03-20T00:03:35Z</time>
      </trkpt>
      <trkpt lat="55.94401" lon="-5.42926">
        <ele>15.22</ele>
        <time>2021-03-20T00:03:40Z</time>
      </trkpt>
      <trkpt lat="55.94454" lon="-5.42895">
        <ele>12.27</ele>
        <time>2021-03-20T00:03:44Z</time>
      </trkpt>
      <trkpt lat="55.94469" lon="-5.42892">
        <ele>12.59</ele>
        <time>2021-03-20T00:03:49Z</time>
      </trkpt>
      <trkpt lat="55.94539" lon="-5.42905">
        <ele>15.9</ele>
        <time>2021-03-20T00:03:53Z</time>
      </trkpt>
      <trkpt lat="55.94587" lon="-5.42901">
        <ele>11.08</ele>
        <time>2021-03-20T00:03:58Z</time>
      </trkpt>
      <trkpt lat="55.94689" lon="-5.42929">
        <ele>19.35</ele>
        <time>2021-03-20T00:04:02Z</time>
      </trkpt>
      <trkpt lat="55.94783" lon="-5.4294">
        <ele>13.63</ele>
        <time>2021-03-20T00:04:06Z</time>
      </trkpt>
      <trkpt lat="55.94882" lon="-5.43002">
        <ele>12.53</ele>
        <time>2021-03-20T00:04:11Z</time>
      </trkpt>
      <trkpt lat="55.94943" lon="-5.43028">
        <ele>11.12</ele>
        <time>2021-03-20T00:04:15Z</time>
      </trkpt>
      <trkpt lat="55.94956" lon="-5.43036">
        <ele>11.32</ele>
        <time>2021-03-20T00:04:20Z</time>
      </trkpt>
      <trkpt lat="55.951" lon="-5.43172">
        <ele>15.81</ele>
        <time>2021-03-20T00:04:24Z</time>
      </trkpt>
      <trkpt lat="55.95239" lon="-5.43226">
        <ele>11.96</ele>
        <time>2021-03-20T00:04:29Z</time>
      </trkpt>
      <trkpt lat="55.95289" lon="-5.43266">
        <ele>12.27</ele>
        <time>2021-03-20T00:04:33Z</time>
      </trkpt>
      <trkpt lat="55.95347" lon="-5.43345">
        <ele>14.38</ele>
        <time>2021-03-20T00:04:38Z</time>
      </trkpt>
      <trkpt lat="55.95383" lon="-5.43372">
        <ele>14.38</ele>
        <time>2021-03-20T00:04:42Z</time>
      </trkpt>
      <trkpt lat="55.95455" lon="-5.43472">
        <ele>14.15</ele>
        <time>2021-03-20T00:04:47Z</time>
      </trkpt>
      <trkpt lat="55.9549" lon="-5.43581">
        <ele>10.82</ele>
        <time>2021-03-20T00:04:51Z</time>
      </trkpt>
      <trkpt lat="55.95553" lon="-5.43707">
        <ele>6.5</ele>
        <time>2021-03-20T00:04:56Z</time>
      </trkpt>
      <trkpt lat="55.95581" lon="-5.43774">
        <ele>7.21</ele>
        <time>2021-03-20T00:05:00Z</time>
      </trkpt>
      <trkpt lat="55.95597" lon="-5.43821">
        <ele>7.36</ele>
        <time>2021-03-20T00:05:04Z</time>
      </trkpt>
      <trkpt lat="55.95721" lon="-5.44403">
        <ele>5.63</ele>
        <time>2021-03-20T00:05:09Z</time>
      </trkpt>
      <trkpt lat="55.95732" lon="-5.44436">
        <ele>6.02</ele>
        <time>2021-03-20T00:05:13Z</time>
      </trkpt>
      <trkpt lat="55.95759" lon="-5.44499">
        <ele>7.61</ele>
        <time>2021-03-20T00:05:18Z</time>
      </trkpt>
      <trkpt lat="55.95787" lon="-5.44536">
        <ele>7.52</ele>
        <time>2021-03-20T00:05:22Z</time>
      </trkpt>
      <trkpt lat="55.95816" lon="-5.44565">
        <ele>7.2</ele>
        <time>2021-03-20T00:05:27Z</time>
      </trkpt>
      <trkpt lat="55.95849" lon="-5.44587">
        <ele>7.13</ele>
        <time>2021-03-20T00:05:31Z</time>
      </trkpt>
      <trkpt lat="55.96027" lon="-5.44664">
        <ele>9.81</ele>
        <time>2021-03-20T00:05:36Z</time>
      </trkpt>
      <trkpt lat="55.96045" lon="-5.44664">
        <ele>11.07</ele>
        <time>2021-03-20T00:05:40Z</time>
      </trkpt>
      <trkpt lat="55.9613" lon="-5.44642">
        <ele>8.84</ele>
        <time>2021-03-20T00:05:45Z</time>
      </trkpt>
      <trkpt lat="55.96206" lon="-5.44626">
        <ele>11.7</ele>
        <time>2021-03-20T00:05:49Z</time>
      </trkpt>
      <trkpt lat="55.96228" lon="-5.44624">
        <ele>11.96</ele>
        <time>2021-03-20T00:05:53Z</time>
      </trkpt>
      <trkpt lat="55.96386" lon="-5.44661">
        <ele>10.05</ele>
        <time>2021-03-20T00:05:58Z</time>
      </trkpt>
      <trkpt lat="55.96456" lon="-5.44698">
        <ele>9.42</ele>
        <time>2021-03-20T00:06:02Z</time>
      </trkpt>
      <trkpt lat="55.96531" lon="-5.44786">
        <ele>5.57</ele>
        <time>2021-03-20T00:06:07Z</time>
      </trkpt>
      <trkpt lat="55.96764" lon="-5.44866">
        <ele>5.43</ele>
        <time>2021-03-20T00:06:11Z</time>
      </trkpt>
      <trkpt lat="55.96858" lon="-5.44901">
        <ele>8.84</ele>
        <time>2021-03-20T00:06:16Z</time>
      </trkpt>
      <trkpt lat="55.97088" lon="-5.45041">
        <ele>9.78</ele>
        <time>2021-03-20T00:06:20Z</time>
      </trkpt>
      <trkpt lat="55.97131" lon="-5.45081">
        <ele>8.78</ele>
        <time>2021-03-20T00:06:25Z</time>
      </trkpt>
      <trkpt lat="55.97161" lon="-5.45116">
        <ele>9.41</ele>
        <time>2021-03-20T00:06:29Z</time>
      </trkpt>
      <trkpt lat="55.97187" lon="-5.45131">
        <ele>8.6</ele>
        <time>2021-03-20T00:06:34Z</time>
      </trkpt>
      <trkpt lat="55.97218" lon="-5.45128">
        <ele>6.39</ele>
        <time>2021-03-20T00:06:38Z</time>
      </trkpt>
      <trkpt lat="55.9724" lon="-5.4511">
        <ele>5.59</ele>
        <time>2021-03-20T00:06:43Z</time>
      </trkpt>
      <trkpt lat="55.9732" lon="-5.45019">
        <ele>6.87</ele>
        <time>2021-03-20T00:06:47Z</time>
      </trkpt>
      <trkpt lat="55.97358" lon="-5.44981">
        <ele>7.97</ele>
        <time>2021-03-20T00:06:51Z</time>
      </trkpt>
      <trkpt lat="55.97413" lon="-5.44943">
        <ele>13.38</ele>
        <time>2021-03-20T00:06:56Z</time>
      </trkpt>
      <trkpt lat="55.97463" lon="-5.44922">
        <ele>15.73</ele>
        <time>2021-03-20T00:07:00Z</time>
      </trkpt>
      <trkpt lat="55.97497" lon="-5.44917">
        <ele>15.11</ele>
        <time>2021-03-20T00:07:05Z</time>
      </trkpt>
      <trkpt lat="55.9762" lon="-5.44928">
        <ele>5.42</ele>
        <time>2021-03-20T00:07:09Z</time>
      </trkpt>
      <trkpt lat="55.97663" lon="-5.44927">
        <ele>4.5</ele>
        <time>2021-03-20T00:07:14Z</time>
      </trkpt>
      <trkpt lat="55.97711" lon="-5.44916">
        <ele>3.39</ele>
        <time>2021-03-20T00:07:18Z</time>
      </trkpt>
      <trkpt lat="55.97763" lon="-5.44894">
        <ele>2.65</ele>
        <time>2021-03-20T00:07:23Z</time>
      </trkpt>
      <trkpt lat="55.97835" lon="-5.44852">
        <ele>1.79</ele>
        <time>2021-03-20T00:07:27Z</time>
      </trkpt>
      <trkpt lat="55.97899" lon="-5.44805">
        <ele>2.32</ele>
        <time>2021-03-20T00:07:32Z</time>
      </trkpt>
      <trkpt lat="55.97995" lon="-5.44729">
        <ele>7.02</ele>
        <time>2021-03-20T00:07:36Z</time>
      </trkpt>
      <trkpt lat="55.98121" lon="-5.44658">
        <ele>10.34</ele>
        <time>2021-03-20T00:07:41Z</time>
      </trkpt>
      <trkpt lat="55.98224" lon="-5.4462">
        <ele>8.31</ele>
        <time>2021-03-20T00:07:45Z</time>
      </trkpt>
      <trkpt lat="55.98291" lon="-5.44617">
        <ele>8.16</ele>
        <time>2021-03-20T00:07:49Z</time>
      </trkpt>
      <trkpt lat="55.9839" lon="-5.4462">
        <ele>3.97</ele>
        <time>2021-03-20T00:07:54Z</time>
      </trkpt>
      <trkpt lat="55.98524" lon="-5.44675">
        <ele>4.21</ele>
        <time>2021-03-20T00:07:58Z</time>
      </trkpt>
      <trkpt lat="55.98617" lon="-5.44685">
        <ele>6.63</ele>
        <time>2021-03-20T00:08:03Z</time>
      </trkpt>
      <trkpt lat="55.98647" lon="-5.4468">
        <ele>7.3</ele>
        <time>2021-03-20T00:08:07Z</time>
      </trkpt>
      <trkpt lat="55.98686" lon="-5.44666">
        <ele>4.96</ele>
        <time>2021-03-20T00:08:12Z</time>
      </trkpt>
      <trkpt lat="55.98733" lon="-5.44636">
        <ele>4.78</ele>
        <time>2021-03-20T00:08:16Z</time>
      </trkpt>
      <trkpt lat="55.98805" lon="-5.44637">
        <ele>3.91</ele>
        <time>2021-03-20T00:08:21Z</time>
      </trkpt>
      <trkpt lat="55.98823" lon="-5.44635">
        <ele>3.69</ele>
        <time>2021-03-20T00:08:25Z</time>
      </trkpt>
      <trkpt lat="55.98867" lon="-5.4462">
        <ele>4.42</ele>
        <time>2021-03-20T00:08:30Z</time>
      </trkpt>
      <trkpt lat="55.98931" lon="-5.44577">
        <ele>7.37</ele>
        <time>2021-03-20T00:08:34Z</time>
      </trkpt>
      <trkpt lat="55.98957" lon="-5.44567">
        <ele>8.1</ele>
        <time>2021-03-20T00:08:39Z</time>
      </trkpt>
      <trkpt lat="55.98982" lon="-5.44564">
        <ele>8.53</ele>
        <time>2021-03-20T00:08:43Z</time>
      </trkpt>
      <trkpt lat="55.99011" lon="-5.4457">
        <ele>7.22</ele>
        <time>2021-03-20T00:08:47Z</time>
      </trkpt>
      <trkpt lat="55.9903" lon="-5.44582">
        <ele>5.73</ele>
        <time>2021-03-20T00:08:52Z</time>
      </trkpt>
      <trkpt lat="55.99063" lon="-5.44607">
        <ele>4.56</ele>
        <time>2021-03-20T00:08:56Z</time>
      </trkpt>
      <trkpt lat="55.9915" lon="-5.44679">
        <ele>3.02</ele>
        <time>2021-03-20T00:09:01Z</time>
      </trkpt>
      <trkpt lat="55.99235" lon="-5.44769">
        <ele>7.14</ele>
        <time>2021-03-20T00:09:05Z</time>
      </trkpt>
      <trkpt lat="55.99259" lon="-5.44788">
        <ele>9.25</ele>
        <time>2021-03-20T00:09:10Z</time>
      </trkpt>
      <trkpt lat="55.99287" lon="-5.44797">
        <ele>12.28</ele>
        <time>2021-03-20T00:09:14Z</time>
      </trkpt>
      <trkpt lat="55.99306" lon="-5.448">
        <ele>14.59</ele>
        <time>2021-03-20T00:09:19Z</time>
      </trkpt>
      <trkpt lat="55.99485" lon="-5.44749">
        <ele>9.71</ele>
        <time>2021-03-20T00:09:23Z</time>
      </trkpt>
      <trkpt lat="55.99518" lon="-5.44749">
        <ele>9.47</ele>
        <time>2021-03-20T00:09:28Z</time>
      </trkpt>
      <trkpt lat="55.99553" lon="-5.44759">
        <ele>10.73</ele>
        <time>2021-03-20T00:09:32Z</time>
      </trkpt>
      <trkpt lat="55.99654" lon="-5.44807">
        <ele>4.92</ele>
        <time>2021-03-20T00:09:36Z</time>
      </trkpt>
      <trkpt lat="55.99703" lon="-5.44837">
        <ele>4.34</ele>
        <time>2021-03-20T00:09:41Z</time>
      </trkpt>
      <trkpt lat="55.99751" lon="-5.44861">
        <ele>5.86</ele>
        <time>2021-03-20T00:09:45Z</time>
      </trkpt>
      <trkpt lat="55.99885" lon="-5.4488">
        <ele>7.86</ele>
        <time>2021-03-20T00:09:50Z</time>
      </trkpt>
      <trkpt lat="55.99927" lon="-5.44879">
        <ele>8.96</ele>
        <time>2021-03-20T00:09:54Z</time>
      </trkpt>
      <trkpt lat="55.99957" lon="-5.44857">
        <ele>7.82</ele>
        <time>2021-03-20T00:09:59Z</time>
      </trkpt>
      <trkpt lat="56.00036" lon="-5.44772">
        <ele>10.85</ele>
        <time>2021-03-20T00:10:03Z</time>
      </trkpt>
      <trkpt lat="56.00081" lon="-5.44742">
        <ele>11.69</ele>
        <time>2021-03-20T00:10:08Z</time>
      </trkpt>
      <trkpt lat="56.0013" lon="-5.44749">
        <ele>13.53</ele>
        <time>2021-03-20T00:10:12Z</time>
      </trkpt>
      <trkpt lat="56.00174" lon="-5.44768">
        <ele>14.19</ele>
        <time>2021-03-20T00:10:17Z</time>
      </trkpt>
      <trkpt lat="56.00261" lon="-5.44815">
        <ele>7.09</ele>
        <time>2021-03-20T00:10:21Z</time>
      </trkpt>
      <trkpt lat="56.00316" lon="-5.44872">
        <ele>6.45</ele>
        <time>2021-03-20T00:10:26Z</time>
      </trkpt>
      <trkpt lat="56.00342" lon="-5.44913">
        <ele>6.76</ele>
        <time>2021-03-20T00:10:30Z</time>
      </trkpt>
      <trkpt lat="56.00581" lon="-5.45055">
        <ele>2.9</ele>
        <time>2021-03-20T00:10:34Z</time>
      </trkpt>
      <trkpt lat="56.00615" lon="-5.45063">
        <ele>4.64</ele>
        <time>2021-03-20T00:10:39Z</time>
      </trkpt>
      <trkpt lat="56.00661" lon="-5.45061">
        <ele>5.03</ele>
        <time>2021-03-20T00:10:43Z</time>
      </trkpt>
      <trkpt lat="56.00734" lon="-5.45051">
        <ele>4.65</ele>
        <time>2021-03-20T00:10:48Z</time>
      </trkpt>
      <trkpt lat="56.00756" lon="-5.45052">
        <ele>4.53</ele>
        <time>2021-03-20T00:10:52Z</time>
      </trkpt>
      <trkpt lat="56.00786" lon="-5.45064">
        <ele>5.01</ele>
        <time>2021-03-20T00:10:57Z</time>
      </trkpt>
      <trkpt lat="56.00804" lon="-5.45066">
        <ele>5.5</ele>
        <time>2021-03-20T00:11:01Z</time>
      </trkpt>
      <trkpt lat="56.00823" lon="-5.45065">
        <ele>7.24</ele>
        <time>2021-03-20T00:11:06Z</time>
      </trkpt>
      <trkpt lat="56.00977" lon="-5.44967">
        <ele>7.72</ele>
        <time>2021-03-20T00:11:10Z</time>
      </trkpt>
      <trkpt lat="56.01022" lon="-5.44943">
        <ele>4.33</ele>
        <time>2021-03-20T00:11:15Z</time>
      </trkpt>
      <trkpt lat="56.01042" lon="-5.44972">
        <ele>11.44</ele>
        <time>2021-03-20T00:11:18Z</time>
      </trkpt>
      <trkpt lat="56.0107" lon="-5.44986">
        <ele>15.98</ele>
        <time>2021-03-20T00:11:21Z</time>
      </trkpt>
      <trkpt lat="56.01103" lon="-5.4499">
        <ele>16.34</ele>
        <time>2021-03-20T00:11:25Z</time>
      </trkpt>
      <trkpt lat="56.01153" lon="-5.44987">
        <ele>15.32</ele>
        <time>2021-03-20T00:11:28Z</time>
      </trkpt>
      <trkpt lat="56.01176" lon="-5.44976">
        <ele>16.55</ele>
        <time>2021-03-20T00:11:31Z</time>
      </trkpt>
      <trkpt lat="56.01178" lon="-5.44918">
        <ele>13.67</ele>
        <time>2021-03-20T00:11:34Z</time>
      </trkpt>
      <trkpt lat="56.01175" lon="-5.44901">
        <ele>12.98</ele>
        <time>2021-03-20T00:11:36Z</time>
      </trkpt>
      <trkpt lat="56.01306" lon="-5.44914">
        <ele>21.91</ele>
        <time>2021-03-20T00:11:46Z</time>
      </trkpt>
      <trkpt lat="56.01377" lon="-5.44946">
        <ele>22.05</ele>
        <time>2021-03-20T00:11:57Z</time>
      </trkpt>
      <trkpt lat="56.01407" lon="-5.4486">
        <ele>12.02</ele>
        <time>2021-03-20T00:12:02Z</time>
      </trkpt>
      <trkpt lat="56.01421" lon="-5.44849">
        <ele>9</ele>
        <time>2021-03-20T00:12:07Z</time>
      </trkpt>
      <trkpt lat="56.0144" lon="-5.44851">
        <ele>8.44</ele>
        <time>2021-03-20T00:12:12Z</time>
      </trkpt>
      <trkpt lat="56.01501" lon="-5.44893">
        <ele>10.4</ele>
        <time>2021-03-20T00:12:17Z</time>
      </trkpt>
      <trkpt lat="56.01596" lon="-5.44949">
        <ele>12.47</ele>
        <time>2021-03-20T00:12:21Z</time>
      </trkpt>
      <trkpt lat="56.01626" lon="-5.44954">
        <ele>12.99</ele>
        <time>2021-03-20T00:12:26Z</time>
      </trkpt>
      <trkpt lat="56.01678" lon="-5.44957">
        <ele>11.38</ele>
        <time>2021-03-20T00:12:31Z</time>
      </trkpt>
      <trkpt lat="56.0168" lon="-5.44919">
        <ele>9.04</ele>
        <time>2021-03-20T00:12:34Z</time>
      </trkpt>
      <trkpt lat="56.01687" lon="-5.44915">
        <ele>8.94</ele>
        <time>2021-03-20T00:12:35Z</time>
      </trkpt>
      <trkpt lat="56.01708" lon="-5.44915">
        <ele>9.43</ele>
        <time>2021-03-20T00:12:37Z</time>
      </trkpt>
      <trkpt lat="56.01718" lon="-5.44911">
        <ele>9.64</ele>
        <time>2021-03-20T00:12:38Z</time>
      </trkpt>
      <trkpt lat="56.01739" lon="-5.44894">
        <ele>9.29</ele>
        <time>2021-03-20T00:12:40Z</time>
      </trkpt>
      <trkpt lat="56.01742" lon="-5.44888">
        <ele>8.99</ele>
        <time>2021-03-20T00:12:41Z</time>
      </trkpt>
      <trkpt lat="56.01742" lon="-5.44875">
        <ele>8.85</ele>
        <time>2021-03-20T00:12:42Z</time>
      </trkpt>
      <trkpt lat="56.01735" lon="-5.44828">
        <ele>7.24</ele>
        <time>2021-03-20T00:12:44Z</time>
      </trkpt>
      <trkpt lat="56.01792" lon="-5.44793">
        <ele>5.09</ele>
        <time>2021-03-20T00:12:49Z</time>
      </trkpt>
      <trkpt lat="56.01836" lon="-5.44776">
        <ele>4.93</ele>
        <time>2021-03-20T00:12:54Z</time>
      </trkpt>
      <trkpt lat="56.02028" lon="-5.44713">
        <ele>5.66</ele>
        <time>2021-03-20T00:12:59Z</time>
      </trkpt>
      <trkpt lat="56.02195" lon="-5.44661">
        <ele>8.79</ele>
        <time>2021-03-20T00:13:04Z</time>
      </trkpt>
      <trkpt lat="56.02263" lon="-5.44652">
        <ele>8.47</ele>
        <time>2021-03-20T00:13:08Z</time>
      </trkpt>
      <trkpt lat="56.02305" lon="-5.4465">
        <ele>8.39</ele>
        <time>2021-03-20T00:13:13Z</time>
      </trkpt>
      <trkpt lat="56.02344" lon="-5.44645">
        <ele>8.51</ele>
        <time>2021-03-20T00:13:18Z</time>
      </trkpt>
      <trkpt lat="56.02382" lon="-5.44635">
        <ele>8.97</ele>
        <time>2021-03-20T00:13:23Z</time>
      </trkpt>
      <trkpt lat="56.02449" lon="-5.44607">
        <ele>4.84</ele>
        <time>2021-03-20T00:13:28Z</time>
      </trkpt>
      <trkpt lat="56.02497" lon="-5.44581">
        <ele>5.74</ele>
        <time>2021-03-20T00:13:33Z</time>
      </trkpt>
      <trkpt lat="56.02556" lon="-5.44544">
        <ele>7.57</ele>
        <time>2021-03-20T00:13:38Z</time>
      </trkpt>
      <trkpt lat="56.02583" lon="-5.44535">
        <ele>6.28</ele>
        <time>2021-03-20T00:13:43Z</time>
      </trkpt>
      <trkpt lat="56.02657" lon="-5.44519">
        <ele>4.99</ele>
        <time>2021-03-20T00:13:48Z</time>
      </trkpt>
      <trkpt lat="56.02682" lon="-5.44509">
        <ele>5.34</ele>
        <time>2021-03-20T00:13:53Z</time>
      </trkpt>
      <trkpt lat="56.02708" lon="-5.44492">
        <ele>5.53</ele>
        <time>2021-03-20T00:13:58Z</time>
      </trkpt>
      <trkpt lat="56.02736" lon="-5.44463">
        <ele>5.35</ele>
        <time>2021-03-20T00:14:02Z</time>
      </trkpt>
      <trkpt lat="56.02788" lon="-5.44399">
        <ele>5.14</ele>
        <time>2021-03-20T00:14:07Z</time>
      </trkpt>
      <trkpt lat="56.02812" lon="-5.44373">
        <ele>6.09</ele>
        <time>2021-03-20T00:14:12Z</time>
      </trkpt>
      <trkpt lat="56.02857" lon="-5.44343">
        <ele>5.66</ele>
        <time>2021-03-20T00:14:17Z</time>
      </trkpt>
      <trkpt lat="56.02887" lon="-5.44334">
        <ele>3.14</ele>
        <time>2021-03-20T00:14:22Z</time>
      </trkpt>
      <trkpt lat="56.0298" lon="-5.44316">
        <ele>4.01</ele>
        <time>2021-03-20T00:14:27Z</time>
      </trkpt>
      <trkpt lat="56.0301" lon="-5.44307">
        <ele>3</ele>
        <time>2021-03-20T00:14:32Z</time>
      </trkpt>
      <trkpt lat="56.03094" lon="-5.44269">
        <ele>3.72</ele>
        <time>2021-03-20T00:14:37Z</time>
      </trkpt>
      <trkpt lat="56.03148" lon="-5.44256">
        <ele>4.41</ele>
        <time>2021-03-20T00:14:42Z</time>
      </trkpt>
      <trkpt lat="56.03243" lon="-5.44242">
        <ele>7.67</ele>
        <time>2021-03-20T00:14:47Z</time>
      </trkpt>
      <trkpt lat="56.03325" lon="-5.44247">
        <ele>8.53</ele>
        <time>2021-03-20T00:14:52Z</time>
      </trkpt>
      <trkpt lat="56.03402" lon="-5.4426">
        <ele>9.43</ele>
        <time>2021-03-20T00:14:56Z</time>
      </trkpt>
      <trkpt lat="56.03446" lon="-5.4426">
        <ele>8.79</ele>
        <time>2021-03-20T00:15:01Z</time>
      </trkpt>
      <trkpt lat="56.03496" lon="-5.44254">
        <ele>10.31</ele>
        <time>2021-03-20T00:15:06Z</time>
      </trkpt>
      <trkpt lat="56.03603" lon="-5.44236">
        <ele>9.62</ele>
        <time>2021-03-20T00:15:11Z</time>
      </trkpt>
      <trkpt lat="56.03639" lon="-5.44228">
        <ele>12.41</ele>
        <time>2021-03-20T00:15:16Z</time>
      </trkpt>
      <trkpt lat="56.037" lon="-5.44195">
        <ele>7.86</ele>
        <time>2021-03-20T00:15:21Z</time>
      </trkpt>
      <trkpt lat="56.0373" lon="-5.44174">
        <ele>4.85</ele>
        <time>2021-03-20T00:15:26Z</time>
      </trkpt>
      <trkpt lat="56.03748" lon="-5.44149">
        <ele>4</ele>
        <time>2021-03-20T00:15:31Z</time>
      </trkpt>
      <trkpt lat="56.03759" lon="-5.44155">
        <ele>4.52</ele>
        <time>2021-03-20T00:15:36Z</time>
      </trkpt>
      <trkpt lat="56.03768" lon="-5.44156">
        <ele>5.06</ele>
        <time>2021-03-20T00:15:40Z</time>
      </trkpt>
      <trkpt lat="56.03792" lon="-5.44149">
        <ele>6.35</ele>
        <time>2021-03-20T00:15:45Z</time>
      </trkpt>
      <trkpt lat="56.03871" lon="-5.44104">
        <ele>8.27</ele>
        <time>2021-03-20T00:15:50Z</time>
      </trkpt>
      <trkpt lat="56.03979" lon="-5.44037">
        <ele>9.54</ele>
        <time>2021-03-20T00:15:55Z</time>
      </trkpt>
      <trkpt lat="56.04031" lon="-5.44017">
        <ele>8.99</ele>
        <time>2021-03-20T00:15:59Z</time>
      </trkpt>
      <trkpt lat="56.04083" lon="-5.44012">
        <ele>8.71</ele>
        <time>2021-03-20T00:16:04Z</time>
      </trkpt>
      <trkpt lat="56.04132" lon="-5.4402">
        <ele>9.56</ele>
        <time>2021-03-20T00:16:09Z</time>
      </trkpt>
      <trkpt lat="56.04178" lon="-5.44034">
        <ele>11.02</ele>
        <time>2021-03-20T00:16:14Z</time>
      </trkpt>
      <trkpt lat="56.04221" lon="-5.44054">
        <ele>14.89</ele>
        <time>2021-03-20T00:16:18Z</time>
      </trkpt>
      <trkpt lat="56.0427" lon="-5.44089">
        <ele>9.11</ele>
        <time>2021-03-20T00:16:23Z</time>
      </trkpt>
      <trkpt lat="56.04424" lon="-5.44224">
        <ele>7.9</ele>
        <time>2021-03-20T00:16:28Z</time>
      </trkpt>
      <trkpt lat="56.04582" lon="-5.44371">
        <ele>5.34</ele>
        <time>2021-03-20T00:16:33Z</time>
      </trkpt>
      <trkpt lat="56.04847" lon="-5.44621">
        <ele>6.57</ele>
        <time>2021-03-20T00:16:37Z</time>
      </trkpt>
      <trkpt lat="56.0489" lon="-5.44668">
        <ele>7.02</ele>
        <time>2021-03-20T00:16:42Z</time>
      </trkpt>
      <trkpt lat="56.05053" lon="-5.44854">
        <ele>5</ele>
        <time>2021-03-20T00:16:47Z</time>
      </trkpt>
      <trkpt lat="56.05076" lon="-5.44888">
        <ele>5.74</ele>
        <time>2021-03-20T00:16:52Z</time>
      </trkpt>
      <trkpt lat="56.05318" lon="-5.45367">
        <ele>5</ele>
        <time>2021-03-20T00:16:56Z</time>
      </trkpt>
      <trkpt lat="56.05351" lon="-5.45422">
        <ele>5</ele>
        <time>2021-03-20T00:17:01Z</time>
      </trkpt>
      <trkpt lat="56.05527" lon="-5.45668">
        <ele>4.08</ele>
        <time>2021-03-20T00:17:06Z</time>
      </trkpt>
      <trkpt lat="56.05794" lon="-5.4605">
        <ele>6</ele>
        <time>2021-03-20T00:17:11Z</time>
      </trkpt>
      <trkpt lat="56.05815" lon="-5.46088">
        <ele>6</ele>
        <time>2021-03-20T00:17:15Z</time>
      </trkpt>
      <trkpt lat="56.05823" lon="-5.46109">
        <ele>6</ele>
        <time>2021-03-20T00:17:20Z</time>
      </trkpt>
      <trkpt lat="56.05967" lon="-5.46598">
        <ele>5.2</ele>
        <time>2021-03-20T00:17:25Z</time>
      </trkpt>
      <trkpt lat="56.0599" lon="-5.46669">
        <ele>5.68</ele>
        <time>2021-03-20T00:17:30Z</time>
      </trkpt>
      <trkpt lat="56.06003" lon="-5.46699">
        <ele>6</ele>
        <time>2021-03-20T00:17:34Z</time>
      </trkpt>
      <trkpt lat="56.06015" lon="-5.46719">
        <ele>6</ele>
        <time>2021-03-20T00:17:39Z</time>
      </trkpt>
      <trkpt lat="56.06066" lon="-5.46754">
        <ele>7.75</ele>
        <time>2021-03-20T00:17:44Z</time>
      </trkpt>
      <trkpt lat="56.06092" lon="-5.46762">
        <ele>9.32</ele>
        <time>2021-03-20T00:17:49Z</time>
      </trkpt>
      <trkpt lat="56.06103" lon="-5.46761">
        <ele>9.7</ele>
        <time>2021-03-20T00:17:53Z</time>
      </trkpt>
      <trkpt lat="56.06131" lon="-5.46744">
        <ele>10</ele>
        <time>2021-03-20T00:17:58Z</time>
      </trkpt>
      <trkpt lat="56.06151" lon="-5.46727">
        <ele>10.52</ele>
        <time>2021-03-20T00:18:03Z</time>
      </trkpt>
      <trkpt lat="56.06261" lon="-5.46627">
        <ele>11.57</ele>
        <time>2021-03-20T00:18:08Z</time>
      </trkpt>
      <trkpt lat="56.06284" lon="-5.46608">
        <ele>12.13</ele>
        <time>2021-03-20T00:18:12Z</time>
      </trkpt>
      <trkpt lat="56.06331" lon="-5.46584">
        <ele>12.01</ele>
        <time>2021-03-20T00:18:17Z</time>
      </trkpt>
      <trkpt lat="56.0641" lon="-5.46551">
        <ele>12.2</ele>
        <time>2021-03-20T00:18:22Z</time>
      </trkpt>
      <trkpt lat="56.0651" lon="-5.46515">
        <ele>17.94</ele>
        <time>2021-03-20T00:18:27Z</time>
      </trkpt>
      <trkpt lat="56.06576" lon="-5.46482">
        <ele>26.99</ele>
        <time>2021-03-20T00:18:31Z</time>
      </trkpt>
      <trkpt lat="56.06609" lon="-5.46458">
        <ele>29.35</ele>
        <time>2021-03-20T00:18:36Z</time>
      </trkpt>
      <trkpt lat="56.06676" lon="-5.46401">
        <ele>30.95</ele>
        <time>2021-03-20T00:18:41Z</time>
      </trkpt>
      <trkpt lat="56.06783" lon="-5.46307">
        <ele>35.37</ele>
        <time>2021-03-20T00:18:46Z</time>
      </trkpt>
      <trkpt lat="56.06879" lon="-5.46216">
        <ele>37.72</ele>
        <time>2021-03-20T00:18:50Z</time>
      </trkpt>
      <trkpt lat="56.06918" lon="-5.46183">
        <ele>38.55</ele>
        <time>2021-03-20T00:18:55Z</time>
      </trkpt>
      <trkpt lat="56.06946" lon="-5.46154">
        <ele>35.96</ele>
        <time>2021-03-20T00:19:00Z</time>
      </trkpt>
      <trkpt lat="56.06991" lon="-5.46093">
        <ele>31.36</ele>
        <time>2021-03-20T00:19:05Z</time>
      </trkpt>
      <trkpt lat="56.0701" lon="-5.46058">
        <ele>29.33</ele>
        <time>2021-03-20T00:19:09Z</time>
      </trkpt>
      <trkpt lat="56.07045" lon="-5.45988">
        <ele>26.65</ele>
        <time>2021-03-20T00:19:14Z</time>
      </trkpt>
      <trkpt lat="56.07091" lon="-5.45889">
        <ele>22.72</ele>
        <time>2021-03-20T00:19:19Z</time>
      </trkpt>
      <trkpt lat="56.07126" lon="-5.45831">
        <ele>21.95</ele>
        <time>2021-03-20T00:19:24Z</time>
      </trkpt>
      <trkpt lat="56.07157" lon="-5.45787">
        <ele>20.1</ele>
        <time>2021-03-20T00:19:29Z</time>
      </trkpt>
      <trkpt lat="56.07207" lon="-5.45738">
        <ele>20.89</ele>
        <time>2021-03-20T00:19:33Z</time>
      </trkpt>
      <trkpt lat="56.0723" lon="-5.45719">
        <ele>21.84</ele>
        <time>2021-03-20T00:19:38Z</time>
      </trkpt>
      <trkpt lat="56.07259" lon="-5.457">
        <ele>22.26</ele>
        <time>2021-03-20T00:19:43Z</time>
      </trkpt>
      <trkpt lat="56.07373" lon="-5.45643">
        <ele>21</ele>
        <time>2021-03-20T00:19:48Z</time>
      </trkpt>
      <trkpt lat="56.07427" lon="-5.45603">
        <ele>19.53</ele>
        <time>2021-03-20T00:19:52Z</time>
      </trkpt>
      <trkpt lat="56.07465" lon="-5.45568">
        <ele>18.18</ele>
        <time>2021-03-20T00:19:57Z</time>
      </trkpt>
      <trkpt lat="56.07479" lon="-5.45549">
        <ele>17.76</ele>
        <time>2021-03-20T00:20:02Z</time>
      </trkpt>
      <trkpt lat="56.07503" lon="-5.4552">
        <ele>16.91</ele>
        <time>2021-03-20T00:20:07Z</time>
      </trkpt>
      <trkpt lat="56.07615" lon="-5.45362">
        <ele>10.68</ele>
        <time>2021-03-20T00:20:11Z</time>
      </trkpt>
      <trkpt lat="56.07657" lon="-5.45324">
        <ele>9.49</ele>
        <time>2021-03-20T00:20:16Z</time>
      </trkpt>
      <trkpt lat="56.07687" lon="-5.45303">
        <ele>9.09</ele>
        <time>2021-03-20T00:20:21Z</time>
      </trkpt>
      <trkpt lat="56.07717" lon="-5.45287">
        <ele>8.85</ele>
        <time>2021-03-20T00:20:26Z</time>
      </trkpt>
      <trkpt lat="56.07763" lon="-5.45272">
        <ele>6.52</ele>
        <time>2021-03-20T00:20:30Z</time>
      </trkpt>
      <trkpt lat="56.07804" lon="-5.45267">
        <ele>6</ele>
        <time>2021-03-20T00:20:35Z</time>
      </trkpt>
      <trkpt lat="56.07903" lon="-5.4527">
        <ele>8.5</ele>
        <time>2021-03-20T00:20:40Z</time>
      </trkpt>
      <trkpt lat="56.07991" lon="-5.45276">
        <ele>7.34</ele>
        <time>2021-03-20T00:20:45Z</time>
      </trkpt>
      <trkpt lat="56.08026" lon="-5.45285">
        <ele>7.7</ele>
        <time>2021-03-20T00:20:49Z</time>
      </trkpt>
      <trkpt lat="56.08059" lon="-5.45298">
        <ele>7.4</ele>
        <time>2021-03-20T00:20:54Z</time>
      </trkpt>
      <trkpt lat="56.08096" lon="-5.45322">
        <ele>8</ele>
        <time>2021-03-20T00:20:59Z</time>
      </trkpt>
      <trkpt lat="56.08143" lon="-5.45366">
        <ele>8</ele>
        <time>2021-03-20T00:21:04Z</time>
      </trkpt>
      <trkpt lat="56.08168" lon="-5.45394">
        <ele>8.05</ele>
        <time>2021-03-20T00:21:08Z</time>
      </trkpt>
      <trkpt lat="56.08211" lon="-5.45454">
        <ele>8.23</ele>
        <time>2021-03-20T00:21:13Z</time>
      </trkpt>
      <trkpt lat="56.0823" lon="-5.4549">
        <ele>8.56</ele>
        <time>2021-03-20T00:21:18Z</time>
      </trkpt>
      <trkpt lat="56.08254" lon="-5.45542">
        <ele>10.16</ele>
        <time>2021-03-20T00:21:23Z</time>
      </trkpt>
      <trkpt lat="56.08459" lon="-5.46071">
        <ele>12.43</ele>
        <time>2021-03-20T00:21:27Z</time>
      </trkpt>
      <trkpt lat="56.08569" lon="-5.46287">
        <ele>12.2</ele>
        <time>2021-03-20T00:21:32Z</time>
      </trkpt>
      <trkpt lat="56.08569" lon="-5.46287">
        <ele>12.2</ele>
        <time>2021-03-20T00:21:32Z</time>
      </trkpt>
      <trkpt lat="56.08825" lon="-5.46796">
        <ele>14.06</ele>
        <time>2021-03-20T00:21:37Z</time>
      </trkpt>
      <trkpt lat="56.08842" lon="-5.46824">
        <ele>10.73</ele>
        <time>2021-03-20T00:21:42Z</time>
      </trkpt>
      <trkpt lat="56.08975" lon="-5.46985">
        <ele>8</ele>
        <time>2021-03-20T00:21:47Z</time>
      </trkpt>
      <trkpt lat="56.09164" lon="-5.47205">
        <ele>10.46</ele>
        <time>2021-03-20T00:21:53Z</time>
      </trkpt>
      <trkpt lat="56.09199" lon="-5.47244">
        <ele>9.64</ele>
        <time>2021-03-20T00:21:58Z</time>
      </trkpt>
      <trkpt lat="56.09242" lon="-5.47285">
        <ele>9.14</ele>
        <time>2021-03-20T00:22:03Z</time>
      </trkpt>
      <trkpt lat="56.09278" lon="-5.47316">
        <ele>10</ele>
        <time>2021-03-20T00:22:08Z</time>
      </trkpt>
      <trkpt lat="56.09323" lon="-5.47346">
        <ele>11.28</ele>
        <time>2021-03-20T00:22:13Z</time>
      </trkpt>
      <trkpt lat="56.09389" lon="-5.47379">
        <ele>10.02</ele>
        <time>2021-03-20T00:22:18Z</time>
      </trkpt>
      <trkpt lat="56.09645" lon="-5.47483">
        <ele>9.78</ele>
        <time>2021-03-20T00:22:23Z</time>
      </trkpt>
      <trkpt lat="56.10093" lon="-5.47671">
        <ele>13.52</ele>
        <time>2021-03-20T00:22:28Z</time>
      </trkpt>
      <trkpt lat="56.10129" lon="-5.47683">
        <ele>14.99</ele>
        <time>2021-03-20T00:22:33Z</time>
      </trkpt>
      <trkpt lat="56.10167" lon="-5.4769">
        <ele>15.43</ele>
        <time>2021-03-20T00:22:38Z</time>
      </trkpt>
      <trkpt lat="56.10263" lon="-5.4769">
        <ele>18.16</ele>
        <time>2021-03-20T00:22:44Z</time>
      </trkpt>
      <trkpt lat="56.10359" lon="-5.47665">
        <ele>21.58</ele>
        <time>2021-03-20T00:22:49Z</time>
      </trkpt>
      <trkpt lat="56.10409" lon="-5.47664">
        <ele>19.6</ele>
        <time>2021-03-20T00:22:54Z</time>
      </trkpt>
      <trkpt lat="56.10423" lon="-5.47667">
        <ele>19.21</ele>
        <time>2021-03-20T00:22:59Z</time>
      </trkpt>
      <trkpt lat="56.10435" lon="-5.47674">
        <ele>19.14</ele>
        <time>2021-03-20T00:23:04Z</time>
      </trkpt>
      <trkpt lat="56.10511" lon="-5.47734">
        <ele>21.18</ele>
        <time>2021-03-20T00:23:09Z</time>
      </trkpt>
      <trkpt lat="56.10538" lon="-5.47749">
        <ele>20.42</ele>
        <time>2021-03-20T00:23:14Z</time>
      </trkpt>
      <trkpt lat="56.10619" lon="-5.47788">
        <ele>20.71</ele>
        <time>2021-03-20T00:23:19Z</time>
      </trkpt>
      <trkpt lat="56.10664" lon="-5.47817">
        <ele>23.44</ele>
        <time>2021-03-20T00:23:24Z</time>
      </trkpt>
      <trkpt lat="56.10688" lon="-5.47838">
        <ele>23.61</ele>
        <time>2021-03-20T00:23:29Z</time>
      </trkpt>
      <trkpt lat="56.10799" lon="-5.47943">
        <ele>24.76</ele>
        <time>2021-03-20T00:23:35Z</time>
      </trkpt>
      <trkpt lat="56.10877" lon="-5.4801">
        <ele>29.52</ele>
        <time>2021-03-20T00:23:40Z</time>
      </trkpt>
      <trkpt lat="56.11302" lon="-5.48388">
        <ele>31.77</ele>
        <time>2021-03-20T00:23:45Z</time>
      </trkpt>
      <trkpt lat="56.11446" lon="-5.48584">
        <ele>36.21</ele>
        <time>2021-03-20T00:23:50Z</time>
      </trkpt>
      <trkpt lat="56.11546" lon="-5.48709">
        <ele>37.17</ele>
        <time>2021-03-20T00:23:55Z</time>
      </trkpt>
      <trkpt lat="56.11561" lon="-5.48732">
        <ele>35.52</ele>
        <time>2021-03-20T00:24:00Z</time>
      </trkpt>
      <trkpt lat="56.11594" lon="-5.48796">
        <ele>33.42</ele>
        <time>2021-03-20T00:24:05Z</time>
      </trkpt>
      <trkpt lat="56.11612" lon="-5.48842">
        <ele>32.68</ele>
        <time>2021-03-20T00:24:10Z</time>
      </trkpt>
      <trkpt lat="56.11662" lon="-5.48989">
        <ele>30.81</ele>
        <time>2021-03-20T00:24:15Z</time>
      </trkpt>
      <trkpt lat="56.11689" lon="-5.49043">
        <ele>30.76</ele>
        <time>2021-03-20T00:24:20Z</time>
      </trkpt>
      <trkpt lat="56.11716" lon="-5.49085">
        <ele>30.9</ele>
        <time>2021-03-20T00:24:26Z</time>
      </trkpt>
      <trkpt lat="56.11747" lon="-5.49129">
        <ele>30.69</ele>
        <time>2021-03-20T00:24:31Z</time>
      </trkpt>
      <trkpt lat="56.1178" lon="-5.49159">
        <ele>29.96</ele>
        <time>2021-03-20T00:24:36Z</time>
      </trkpt>
      <trkpt lat="56.11813" lon="-5.49173">
        <ele>29.15</ele>
        <time>2021-03-20T00:24:41Z</time>
      </trkpt>
      <trkpt lat="56.12037" lon="-5.49199">
        <ele>24.94</ele>
        <time>2021-03-20T00:24:46Z</time>
      </trkpt>
      <trkpt lat="56.12097" lon="-5.49208">
        <ele>23.12</ele>
        <time>2021-03-20T00:24:51Z</time>
      </trkpt>
      <trkpt lat="56.12132" lon="-5.49218">
        <ele>22.22</ele>
        <time>2021-03-20T00:24:56Z</time>
      </trkpt>
      <trkpt lat="56.12158" lon="-5.49223">
        <ele>22.67</ele>
        <time>2021-03-20T00:25:01Z</time>
      </trkpt>
      <trkpt lat="56.12177" lon="-5.49223">
        <ele>22.97</ele>
        <time>2021-03-20T00:25:06Z</time>
      </trkpt>
      <trkpt lat="56.12196" lon="-5.49218">
        <ele>23.36</ele>
        <time>2021-03-20T00:25:11Z</time>
      </trkpt>
      <trkpt lat="56.12213" lon="-5.49209">
        <ele>23.49</ele>
        <time>2021-03-20T00:25:17Z</time>
      </trkpt>
      <trkpt lat="56.12241" lon="-5.49186">
        <ele>24.07</ele>
        <time>2021-03-20T00:25:22Z</time>
      </trkpt>
      <trkpt lat="56.12288" lon="-5.49131">
        <ele>23.52</ele>
        <time>2021-03-20T00:25:27Z</time>
      </trkpt>
      <trkpt lat="56.12486" lon="-5.48924">
        <ele>29.53</ele>
        <time>2021-03-20T00:25:32Z</time>
      </trkpt>
      <trkpt lat="56.12538" lon="-5.48879">
        <ele>29.3</ele>
        <time>2021-03-20T00:25:37Z</time>
      </trkpt>
      <trkpt lat="56.1259" lon="-5.4884">
        <ele>29.57</ele>
        <time>2021-03-20T00:25:42Z</time>
      </trkpt>
      <trkpt lat="56.12708" lon="-5.48766">
        <ele>31.37</ele>
        <time>2021-03-20T00:25:47Z</time>
      </trkpt>
      <trkpt lat="56.1276" lon="-5.48729">
        <ele>32.06</ele>
        <time>2021-03-20T00:25:52Z</time>
      </trkpt>
      <trkpt lat="56.12888" lon="-5.48649">
        <ele>36.28</ele>
        <time>2021-03-20T00:25:57Z</time>
      </trkpt>
      <trkpt lat="56.12888" lon="-5.48649">
        <ele>36.28</ele>
        <time>2021-03-20T00:25:57Z</time>
      </trkpt>
      <trkpt lat="56.12989" lon="-5.48587">
        <ele>38.6</ele>
        <time>2021-03-20T00:26:01Z</time>
      </trkpt>
      <trkpt lat="56.13018" lon="-5.48564">
        <ele>37.02</ele>
        <time>2021-03-20T00:26:05Z</time>
      </trkpt>
      <trkpt lat="56.13046" lon="-5.48537">
        <ele>37.19</ele>
        <time>2021-03-20T00:26:09Z</time>
      </trkpt>
      <trkpt lat="56.13161" lon="-5.48415">
        <ele>37.32</ele>
        <time>2021-03-20T00:26:13Z</time>
      </trkpt>
      <trkpt lat="56.13177" lon="-5.48401">
        <ele>36.67</ele>
        <time>2021-03-20T00:26:16Z</time>
      </trkpt>
      <trkpt lat="56.13204" lon="-5.48385">
        <ele>35.71</ele>
        <time>2021-03-20T00:26:20Z</time>
      </trkpt>
      <trkpt lat="56.13227" lon="-5.48378">
        <ele>35.04</ele>
        <time>2021-03-20T00:26:24Z</time>
      </trkpt>
      <trkpt lat="56.13237" lon="-5.48378">
        <ele>35.63</ele>
        <time>2021-03-20T00:26:28Z</time>
      </trkpt>
      <trkpt lat="56.13245" lon="-5.48381">
        <ele>35.97</ele>
        <time>2021-03-20T00:26:32Z</time>
      </trkpt>
      <trkpt lat="56.13253" lon="-5.4839">
        <ele>36.24</ele>
        <time>2021-03-20T00:26:36Z</time>
      </trkpt>
      <trkpt lat="56.13268" lon="-5.4842">
        <ele>37.59</ele>
        <time>2021-03-20T00:26:39Z</time>
      </trkpt>
      <trkpt lat="56.13306" lon="-5.48549">
        <ele>42.98</ele>
        <time>2021-03-20T00:26:43Z</time>
      </trkpt>
      <trkpt lat="56.13312" lon="-5.4856">
        <ele>42.62</ele>
        <time>2021-03-20T00:26:47Z</time>
      </trkpt>
      <trkpt lat="56.13353" lon="-5.48612">
        <ele>41.97</ele>
        <time>2021-03-20T00:26:51Z</time>
      </trkpt>
      <trkpt lat="56.13394" lon="-5.48662">
        <ele>38.3</ele>
        <time>2021-03-20T00:26:55Z</time>
      </trkpt>
      <trkpt lat="56.13399" lon="-5.48666">
        <ele>37.52</ele>
        <time>2021-03-20T00:26:59Z</time>
      </trkpt>
      <trkpt lat="56.13411" lon="-5.48667">
        <ele>35.83</ele>
        <time>2021-03-20T00:27:02Z</time>
      </trkpt>
      <trkpt lat="56.13421" lon="-5.48665">
        <ele>34.6</ele>
        <time>2021-03-20T00:27:06Z</time>
      </trkpt>
      <trkpt lat="56.13474" lon="-5.48633">
        <ele>32.64</ele>
        <time>2021-03-20T00:27:10Z</time>
      </trkpt>
      <trkpt lat="56.13513" lon="-5.48615">
        <ele>30.77</ele>
        <time>2021-03-20T00:27:14Z</time>
      </trkpt>
      <trkpt lat="56.13532" lon="-5.48612">
        <ele>28.77</ele>
        <time>2021-03-20T00:27:18Z</time>
      </trkpt>
      <trkpt lat="56.13595" lon="-5.48614">
        <ele>25.47</ele>
        <time>2021-03-20T00:27:22Z</time>
      </trkpt>
      <trkpt lat="56.13608" lon="-5.48612">
        <ele>25.06</ele>
        <time>2021-03-20T00:27:25Z</time>
      </trkpt>
      <trkpt lat="56.1362" lon="-5.48607">
        <ele>25.18</ele>
        <time>2021-03-20T00:27:29Z</time>
      </trkpt>
      <trkpt lat="56.13659" lon="-5.48577">
        <ele>27.47</ele>
        <time>2021-03-20T00:27:33Z</time>
      </trkpt>
      <trkpt lat="56.13739" lon="-5.48508">
        <ele>26.12</ele>
        <time>2021-03-20T00:27:37Z</time>
      </trkpt>
      <trkpt lat="56.13761" lon="-5.48492">
        <ele>26.38</ele>
        <time>2021-03-20T00:27:41Z</time>
      </trkpt>
      <trkpt lat="56.13795" lon="-5.4847">
        <ele>26.5</ele>
        <time>2021-03-20T00:27:45Z</time>
      </trkpt>
      <trkpt lat="56.13941" lon="-5.48389">
        <ele>27.92</ele>
        <time>2021-03-20T00:27:48Z</time>
      </trkpt>
      <trkpt lat="56.13985" lon="-5.4836">
        <ele>29.12</ele>
        <time>2021-03-20T00:27:52Z</time>
      </trkpt>
      <trkpt lat="56.14045" lon="-5.48314">
        <ele>29.59</ele>
        <time>2021-03-20T00:27:56Z</time>
      </trkpt>
      <trkpt lat="56.14223" lon="-5.48154">
        <ele>30.81</ele>
        <time>2021-03-20T00:28:00Z</time>
      </trkpt>
      <trkpt lat="56.14243" lon="-5.4814">
        <ele>30.66</ele>
        <time>2021-03-20T00:28:04Z</time>
      </trkpt>
      <trkpt lat="56.1436" lon="-5.48077">
        <ele>29.24</ele>
        <time>2021-03-20T00:28:08Z</time>
      </trkpt>
      <trkpt lat="56.14425" lon="-5.48033">
        <ele>31.9</ele>
        <time>2021-03-20T00:28:12Z</time>
      </trkpt>
      <trkpt lat="56.14446" lon="-5.48022">
        <ele>31.1</ele>
        <time>2021-03-20T00:28:15Z</time>
      </trkpt>
      <trkpt lat="56.14575" lon="-5.47991">
        <ele>27.63</ele>
        <time>2021-03-20T00:28:19Z</time>
      </trkpt>
      <trkpt lat="56.14604" lon="-5.47971">
        <ele>27.32</ele>
        <time>2021-03-20T00:28:23Z</time>
      </trkpt>
      <trkpt lat="56.14766" lon="-5.47834">
        <ele>39.65</ele>
        <time>2021-03-20T00:28:27Z</time>
      </trkpt>
      <trkpt lat="56.14823" lon="-5.47772">
        <ele>36.06</ele>
        <time>2021-03-20T00:28:31Z</time>
      </trkpt>
      <trkpt lat="56.14956" lon="-5.47646">
        <ele>41.74</ele>
        <time>2021-03-20T00:28:35Z</time>
      </trkpt>
      <trkpt lat="56.15037" lon="-5.47562">
        <ele>41.92</ele>
        <time>2021-03-20T00:28:38Z</time>
      </trkpt>
      <trkpt lat="56.15092" lon="-5.47516">
        <ele>37.18</ele>
        <time>2021-03-20T00:28:42Z</time>
      </trkpt>
      <trkpt lat="56.15105" lon="-5.47512">
        <ele>35.89</ele>
        <time>2021-03-20T00:28:46Z</time>
      </trkpt>
      <trkpt lat="56.15124" lon="-5.47513">
        <ele>34.59</ele>
        <time>2021-03-20T00:28:50Z</time>
      </trkpt>
      <trkpt lat="56.15148" lon="-5.47494">
        <ele>33.9</ele>
        <time>2021-03-20T00:28:52Z</time>
      </trkpt>
      <trkpt lat="56.15156" lon="-5.47484">
        <ele>34.21</ele>
        <time>2021-03-20T00:28:54Z</time>
      </trkpt>
      <trkpt lat="56.15179" lon="-5.4744">
        <ele>36.01</ele>
        <time>2021-03-20T00:28:57Z</time>
      </trkpt>
      <trkpt lat="56.15195" lon="-5.47414">
        <ele>38.48</ele>
        <time>2021-03-20T00:28:59Z</time>
      </trkpt>
      <trkpt lat="56.15213" lon="-5.47398">
        <ele>38.67</ele>
        <time>2021-03-20T00:29:01Z</time>
      </trkpt>
      <trkpt lat="56.15268" lon="-5.47343">
        <ele>45.3</ele>
        <time>2021-03-20T00:29:03Z</time>
      </trkpt>
      <trkpt lat="56.15306" lon="-5.47297">
        <ele>45.01</ele>
        <time>2021-03-20T00:29:06Z</time>
      </trkpt>
      <trkpt lat="56.15333" lon="-5.4723">
        <ele>41.62</ele>
        <time>2021-03-20T00:29:08Z</time>
      </trkpt>
      <trkpt lat="56.15346" lon="-5.47144">
        <ele>42.28</ele>
        <time>2021-03-20T00:29:10Z</time>
      </trkpt>
      <trkpt lat="56.15344" lon="-5.46719">
        <ele>39.97</ele>
        <time>2021-03-20T00:29:12Z</time>
      </trkpt>
      <trkpt lat="56.15352" lon="-5.46666">
        <ele>40.75</ele>
        <time>2021-03-20T00:29:15Z</time>
      </trkpt>
      <trkpt lat="56.15377" lon="-5.46602">
        <ele>42.14</ele>
        <time>2021-03-20T00:29:17Z</time>
      </trkpt>
      <trkpt lat="56.15389" lon="-5.46555">
        <ele>43.06</ele>
        <time>2021-03-20T00:29:19Z</time>
      </trkpt>
      <trkpt lat="56.15391" lon="-5.46502">
        <ele>43.94</ele>
        <time>2021-03-20T00:29:21Z</time>
      </trkpt>
      <trkpt lat="56.15385" lon="-5.46399">
        <ele>43.99</ele>
        <time>2021-03-20T00:29:24Z</time>
      </trkpt>
      <trkpt lat="56.15377" lon="-5.46334">
        <ele>42.29</ele>
        <time>2021-03-20T00:29:26Z</time>
      </trkpt>
      <trkpt lat="56.15366" lon="-5.4628">
        <ele>43.06</ele>
        <time>2021-03-20T00:29:28Z</time>
      </trkpt>
      <trkpt lat="56.15351" lon="-5.46244">
        <ele>45.68</ele>
        <time>2021-03-20T00:29:30Z</time>
      </trkpt>
      <trkpt lat="56.15328" lon="-5.46202">
        <ele>47.06</ele>
        <time>2021-03-20T00:29:33Z</time>
      </trkpt>
      <trkpt lat="56.15291" lon="-5.46157">
        <ele>49.19</ele>
        <time>2021-03-20T00:29:35Z</time>
      </trkpt>
      <trkpt lat="56.15268" lon="-5.46108">
        <ele>47.84</ele>
        <time>2021-03-20T00:29:37Z</time>
      </trkpt>
      <trkpt lat="56.15233" lon="-5.45995">
        <ele>49.58</ele>
        <time>2021-03-20T00:29:39Z</time>
      </trkpt>
      <trkpt lat="56.15231" lon="-5.4595">
        <ele>47.96</ele>
        <time>2021-03-20T00:29:42Z</time>
      </trkpt>
      <trkpt lat="56.15238" lon="-5.45879">
        <ele>45.83</ele>
        <time>2021-03-20T00:29:44Z</time>
      </trkpt>
      <trkpt lat="56.15257" lon="-5.45825">
        <ele>45.31</ele>
        <time>2021-03-20T00:29:46Z</time>
      </trkpt>
      <trkpt lat="56.15374" lon="-5.45506">
        <ele>46.63</ele>
        <time>2021-03-20T00:29:48Z</time>
      </trkpt>
      <trkpt lat="56.15419" lon="-5.45402">
        <ele>46.44</ele>
        <time>2021-03-20T00:29:51Z</time>
      </trkpt>
      <trkpt lat="56.15447" lon="-5.45363">
        <ele>46.84</ele>
        <time>2021-03-20T00:29:53Z</time>
      </trkpt>
      <trkpt lat="56.15569" lon="-5.45258">
        <ele>44.87</ele>
        <time>2021-03-20T00:29:55Z</time>
      </trkpt>
      <trkpt lat="56.15668" lon="-5.45181">
        <ele>45.43</ele>
        <time>2021-03-20T00:29:57Z</time>
      </trkpt>
      <trkpt lat="56.15695" lon="-5.45152">
        <ele>44.98</ele>
        <time>2021-03-20T00:30:00Z</time>
      </trkpt>
      <trkpt lat="56.15735" lon="-5.45089">
        <ele>44.34</ele>
        <time>2021-03-20T00:30:02Z</time>
      </trkpt>
      <trkpt lat="56.15892" lon="-5.44797">
        <ele>44.19</ele>
        <time>2021-03-20T00:30:04Z</time>
      </trkpt>
      <trkpt lat="56.15938" lon="-5.44751">
        <ele>44.22</ele>
        <time>2021-03-20T00:30:06Z</time>
      </trkpt>
      <trkpt lat="56.15974" lon="-5.44724">
        <ele>44.84</ele>
        <time>2021-03-20T00:30:09Z</time>
      </trkpt>
      <trkpt lat="56.16018" lon="-5.44703">
        <ele>43.83</ele>
        <time>2021-03-20T00:30:11Z</time>
      </trkpt>
      <trkpt lat="56.1604" lon="-5.44684">
        <ele>44.78</ele>
        <time>2021-03-20T00:30:13Z</time>
      </trkpt>
      <trkpt lat="56.16137" lon="-5.44575">
        <ele>47.1</ele>
        <time>2021-03-20T00:30:15Z</time>
      </trkpt>
      <trkpt lat="56.16152" lon="-5.44533">
        <ele>47.35</ele>
        <time>2021-03-20T00:30:18Z</time>
      </trkpt>
      <trkpt lat="56.16162" lon="-5.44469">
        <ele>50.6</ele>
        <time>2021-03-20T00:30:20Z</time>
      </trkpt>
      <trkpt lat="56.16165" lon="-5.44378">
        <ele>49.09</ele>
        <time>2021-03-20T00:30:22Z</time>
      </trkpt>
      <trkpt lat="56.16171" lon="-5.44305">
        <ele>48.14</ele>
        <time>2021-03-20T00:30:24Z</time>
      </trkpt>
      <trkpt lat="56.16184" lon="-5.44259">
        <ele>49.66</ele>
        <time>2021-03-20T00:30:27Z</time>
      </trkpt>
      <trkpt lat="56.16246" lon="-5.44161">
        <ele>47.1</ele>
        <time>2021-03-20T00:30:29Z</time>
      </trkpt>
      <trkpt lat="56.16412" lon="-5.44">
        <ele>41</ele>
        <time>2021-03-20T00:30:31Z</time>
      </trkpt>
      <trkpt lat="56.16444" lon="-5.43966">
        <ele>39.55</ele>
        <time>2021-03-20T00:30:33Z</time>
      </trkpt>
      <trkpt lat="56.16459" lon="-5.43946">
        <ele>38.64</ele>
        <time>2021-03-20T00:30:36Z</time>
      </trkpt>
      <trkpt lat="56.1647" lon="-5.43921">
        <ele>38.91</ele>
        <time>2021-03-20T00:30:38Z</time>
      </trkpt>
      <trkpt lat="56.16486" lon="-5.43871">
        <ele>40.98</ele>
        <time>2021-03-20T00:30:40Z</time>
      </trkpt>
      <trkpt lat="56.16498" lon="-5.43846">
        <ele>41.92</ele>
        <time>2021-03-20T00:30:42Z</time>
      </trkpt>
      <trkpt lat="56.16547" lon="-5.43815">
        <ele>44.9</ele>
        <time>2021-03-20T00:30:45Z</time>
      </trkpt>
      <trkpt lat="56.16587" lon="-5.43811">
        <ele>45.07</ele>
        <time>2021-03-20T00:30:47Z</time>
      </trkpt>
      <trkpt lat="56.16607" lon="-5.43817">
        <ele>44.56</ele>
        <time>2021-03-20T00:30:49Z</time>
      </trkpt>
      <trkpt lat="56.16653" lon="-5.43845">
        <ele>44.31</ele>
        <time>2021-03-20T00:30:51Z</time>
      </trkpt>
      <trkpt lat="56.16673" lon="-5.43846">
        <ele>43.72</ele>
        <time>2021-03-20T00:30:54Z</time>
      </trkpt>
      <trkpt lat="56.16707" lon="-5.43833">
        <ele>41.99</ele>
        <time>2021-03-20T00:30:56Z</time>
      </trkpt>
      <trkpt lat="56.16737" lon="-5.43825">
        <ele>43.32</ele>
        <time>2021-03-20T00:30:58Z</time>
      </trkpt>
      <trkpt lat="56.1677" lon="-5.43827">
        <ele>47.63</ele>
        <time>2021-03-20T00:31:00Z</time>
      </trkpt>
      <trkpt lat="56.16847" lon="-5.43839">
        <ele>39.87</ele>
        <time>2021-03-20T00:31:03Z</time>
      </trkpt>
      <trkpt lat="56.1699" lon="-5.43877">
        <ele>49.03</ele>
        <time>2021-03-20T00:31:05Z</time>
      </trkpt>
      <trkpt lat="56.17117" lon="-5.43877">
        <ele>52.57</ele>
        <time>2021-03-20T00:31:07Z</time>
      </trkpt>
      <trkpt lat="56.17145" lon="-5.4388">
        <ele>51.56</ele>
        <time>2021-03-20T00:31:09Z</time>
      </trkpt>
      <trkpt lat="56.17181" lon="-5.43891">
        <ele>50.76</ele>
        <time>2021-03-20T00:31:12Z</time>
      </trkpt>
      <trkpt lat="56.17211" lon="-5.43892">
        <ele>52.99</ele>
        <time>2021-03-20T00:31:14Z</time>
      </trkpt>
      <trkpt lat="56.17222" lon="-5.43888">
        <ele>53.92</ele>
        <time>2021-03-20T00:31:16Z</time>
      </trkpt>
      <trkpt lat="56.17238" lon="-5.43875">
        <ele>53.49</ele>
        <time>2021-03-20T00:31:18Z</time>
      </trkpt>
      <trkpt lat="56.17341" lon="-5.43769">
        <ele>51.67</ele>
        <time>2021-03-20T00:31:21Z</time>
      </trkpt>
      <trkpt lat="56.17411" lon="-5.43702">
        <ele>49.69</ele>
        <time>2021-03-20T00:31:23Z</time>
      </trkpt>
      <trkpt lat="56.1753" lon="-5.43605">
        <ele>44.08</ele>
        <time>2021-03-20T00:31:25Z</time>
      </trkpt>
      <trkpt lat="56.17558" lon="-5.43583">
        <ele>45.08</ele>
        <time>2021-03-20T00:31:27Z</time>
      </trkpt>
      <trkpt lat="56.17587" lon="-5.43564">
        <ele>44.76</ele>
        <time>2021-03-20T00:31:30Z</time>
      </trkpt>
      <trkpt lat="56.17674" lon="-5.4353">
        <ele>45.07</ele>
        <time>2021-03-20T00:31:32Z</time>
      </trkpt>
      <trkpt lat="56.17678" lon="-5.43522">
        <ele>44.66</ele>
        <time>2021-03-20T00:31:34Z</time>
      </trkpt>
      <trkpt lat="56.17675" lon="-5.43475">
        <ele>43.31</ele>
        <time>2021-03-20T00:31:36Z</time>
      </trkpt>
      <trkpt lat="56.17671" lon="-5.43452">
        <ele>43.15</ele>
        <time>2021-03-20T00:31:39Z</time>
      </trkpt>
      <trkpt lat="56.17669" lon="-5.43413">
        <ele>44.23</ele>
        <time>2021-03-20T00:31:41Z</time>
      </trkpt>
      <trkpt lat="56.17665" lon="-5.43386">
        <ele>45.25</ele>
        <time>2021-03-20T00:31:43Z</time>
      </trkpt>
      <trkpt lat="56.17659" lon="-5.43367">
        <ele>46.67</ele>
        <time>2021-03-20T00:31:45Z</time>
      </trkpt>
      <trkpt lat="56.17644" lon="-5.43327">
        <ele>49</ele>
        <time>2021-03-20T00:31:48Z</time>
      </trkpt>
      <trkpt lat="56.17637" lon="-5.43298">
        <ele>49.09</ele>
        <time>2021-03-20T00:31:50Z</time>
      </trkpt>
      <trkpt lat="56.17635" lon="-5.43273">
        <ele>49</ele>
        <time>2021-03-20T00:31:52Z</time>
      </trkpt>
      <trkpt lat="56.17633" lon="-5.43141">
        <ele>46.63</ele>
        <time>2021-03-20T00:31:54Z</time>
      </trkpt>
      <trkpt lat="56.17636" lon="-5.43113">
        <ele>45.76</ele>
        <time>2021-03-20T00:31:57Z</time>
      </trkpt>
      <trkpt lat="56.17646" lon="-5.43075">
        <ele>47.83</ele>
        <time>2021-03-20T00:31:59Z</time>
      </trkpt>
      <trkpt lat="56.17647" lon="-5.43043">
        <ele>48.26</ele>
        <time>2021-03-20T00:32:01Z</time>
      </trkpt>
      <trkpt lat="56.17646" lon="-5.42988">
        <ele>48.33</ele>
        <time>2021-03-20T00:32:03Z</time>
      </trkpt>
      <trkpt lat="56.1765" lon="-5.42958">
        <ele>49.75</ele>
        <time>2021-03-20T00:32:06Z</time>
      </trkpt>
      <trkpt lat="56.17664" lon="-5.42913">
        <ele>52.04</ele>
        <time>2021-03-20T00:32:08Z</time>
      </trkpt>
      <trkpt lat="56.17682" lon="-5.42869">
        <ele>53.33</ele>
        <time>2021-03-20T00:32:10Z</time>
      </trkpt>
      <trkpt lat="56.17695" lon="-5.42842">
        <ele>52.97</ele>
        <time>2021-03-20T00:32:12Z</time>
      </trkpt>
      <trkpt lat="56.17699" lon="-5.42823">
        <ele>53.03</ele>
        <time>2021-03-20T00:32:15Z</time>
      </trkpt>
      <trkpt lat="56.17709" lon="-5.42733">
        <ele>54.73</ele>
        <time>2021-03-20T00:32:17Z</time>
      </trkpt>
      <trkpt lat="56.17707" lon="-5.4262">
        <ele>54.3</ele>
        <time>2021-03-20T00:32:19Z</time>
      </trkpt>
      <trkpt lat="56.17722" lon="-5.42548">
        <ele>52.26</ele>
        <time>2021-03-20T00:32:21Z</time>
      </trkpt>
      <trkpt lat="56.17731" lon="-5.42513">
        <ele>52.22</ele>
        <time>2021-03-20T00:32:24Z</time>
      </trkpt>
      <trkpt lat="56.17743" lon="-5.42483">
        <ele>52.45</ele>
        <time>2021-03-20T00:32:26Z</time>
      </trkpt>
      <trkpt lat="56.17768" lon="-5.42437">
        <ele>52.9</ele>
        <time>2021-03-20T00:32:28Z</time>
      </trkpt>
      <trkpt lat="56.17782" lon="-5.42426">
        <ele>53.06</ele>
        <time>2021-03-20T00:32:30Z</time>
      </trkpt>
      <trkpt lat="56.17809" lon="-5.42414">
        <ele>53.32</ele>
        <time>2021-03-20T00:32:33Z</time>
      </trkpt>
      <trkpt lat="56.17825" lon="-5.42402">
        <ele>55.03</ele>
        <time>2021-03-20T00:32:35Z</time>
      </trkpt>
      <trkpt lat="56.17888" lon="-5.42331">
        <ele>59.31</ele>
        <time>2021-03-20T00:32:37Z</time>
      </trkpt>
      <trkpt lat="56.17902" lon="-5.42306">
        <ele>58.64</ele>
        <time>2021-03-20T00:32:39Z</time>
      </trkpt>
      <trkpt lat="56.17913" lon="-5.4228">
        <ele>57.71</ele>
        <time>2021-03-20T00:32:42Z</time>
      </trkpt>
      <trkpt lat="56.17943" lon="-5.42189">
        <ele>55.55</ele>
        <time>2021-03-20T00:32:44Z</time>
      </trkpt>
      <trkpt lat="56.17967" lon="-5.42058">
        <ele>58.94</ele>
        <time>2021-03-20T00:32:46Z</time>
      </trkpt>
      <trkpt lat="56.17978" lon="-5.4199">
        <ele>59.42</ele>
        <time>2021-03-20T00:32:48Z</time>
      </trkpt>
      <trkpt lat="56.17987" lon="-5.41874">
        <ele>53.06</ele>
        <time>2021-03-20T00:32:51Z</time>
      </trkpt>
      <trkpt lat="56.17986" lon="-5.41845">
        <ele>51.54</ele>
        <time>2021-03-20T00:32:53Z</time>
      </trkpt>
      <trkpt lat="56.17978" lon="-5.41811">
        <ele>53.07</ele>
        <time>2021-03-20T00:32:55Z</time>
      </trkpt>
      <trkpt lat="56.17969" lon="-5.41788">
        <ele>54.76</ele>
        <time>2021-03-20T00:32:57Z</time>
      </trkpt>
      <trkpt lat="56.17943" lon="-5.41748">
        <ele>56.09</ele>
        <time>2021-03-20T00:33:00Z</time>
      </trkpt>
      <trkpt lat="56.17932" lon="-5.41713">
        <ele>56.35</ele>
        <time>2021-03-20T00:33:02Z</time>
      </trkpt>
      <trkpt lat="56.17929" lon="-5.4169">
        <ele>56.85</ele>
        <time>2021-03-20T00:33:04Z</time>
      </trkpt>
      <trkpt lat="56.17929" lon="-5.41667">
        <ele>57.7</ele>
        <time>2021-03-20T00:33:06Z</time>
      </trkpt>
      <trkpt lat="56.17938" lon="-5.41568">
        <ele>56.63</ele>
        <time>2021-03-20T00:33:09Z</time>
      </trkpt>
      <trkpt lat="56.17943" lon="-5.41542">
        <ele>57.29</ele>
        <time>2021-03-20T00:33:11Z</time>
      </trkpt>
      <trkpt lat="56.17958" lon="-5.4148">
        <ele>56.11</ele>
        <time>2021-03-20T00:33:13Z</time>
      </trkpt>
      <trkpt lat="56.17963" lon="-5.41445">
        <ele>54.46</ele>
        <time>2021-03-20T00:33:15Z</time>
      </trkpt>
      <trkpt lat="56.17961" lon="-5.41403">
        <ele>53.42</ele>
        <time>2021-03-20T00:33:18Z</time>
      </trkpt>
      <trkpt lat="56.17953" lon="-5.41336">
        <ele>54.52</ele>
        <time>2021-03-20T00:33:20Z</time>
      </trkpt>
      <trkpt lat="56.17947" lon="-5.41301">
        <ele>56.69</ele>
        <time>2021-03-20T00:33:22Z</time>
      </trkpt>
      <trkpt lat="56.17925" lon="-5.41185">
        <ele>63.15</ele>
        <time>2021-03-20T00:33:24Z</time>
      </trkpt>
      <trkpt lat="56.17923" lon="-5.41123">
        <ele>62.08</ele>
        <time>2021-03-20T00:33:27Z</time>
      </trkpt>
      <trkpt lat="56.17929" lon="-5.4101">
        <ele>57.79</ele>
        <time>2021-03-20T00:33:29Z</time>
      </trkpt>
      <trkpt lat="56.17936" lon="-5.40964">
        <ele>55.79</ele>
        <time>2021-03-20T00:33:31Z</time>
      </trkpt>
      <trkpt lat="56.17955" lon="-5.40868">
        <ele>49.92</ele>
        <time>2021-03-20T00:33:33Z</time>
      </trkpt>
      <trkpt lat="56.17972" lon="-5.40814">
        <ele>49.67</ele>
        <time>2021-03-20T00:33:36Z</time>
      </trkpt>
      <trkpt lat="56.17999" lon="-5.4076">
        <ele>50.59</ele>
        <time>2021-03-20T00:33:38Z</time>
      </trkpt>
      <trkpt lat="56.18056" lon="-5.40661">
        <ele>49.07</ele>
        <time>2021-03-20T00:33:40Z</time>
      </trkpt>
      <trkpt lat="56.18061" lon="-5.40648">
        <ele>48.79</ele>
        <time>2021-03-20T00:33:43Z</time>
      </trkpt>
      <trkpt lat="56.18061" lon="-5.40622">
        <ele>50.17</ele>
        <time>2021-03-20T00:33:45Z</time>
      </trkpt>
      <trkpt lat="56.1804" lon="-5.40508">
        <ele>54.46</ele>
        <time>2021-03-20T00:33:47Z</time>
      </trkpt>
      <trkpt lat="56.18029" lon="-5.40407">
        <ele>51.52</ele>
        <time>2021-03-20T00:33:49Z</time>
      </trkpt>
      <trkpt lat="56.18022" lon="-5.40256">
        <ele>54</ele>
        <time>2021-03-20T00:33:52Z</time>
      </trkpt>
      <trkpt lat="56.18023" lon="-5.40179">
        <ele>51.15</ele>
        <time>2021-03-20T00:33:54Z</time>
      </trkpt>
      <trkpt lat="56.18029" lon="-5.40142">
        <ele>49.84</ele>
        <time>2021-03-20T00:33:56Z</time>
      </trkpt>
      <trkpt lat="56.18038" lon="-5.40095">
        <ele>47.52</ele>
        <time>2021-03-20T00:33:58Z</time>
      </trkpt>
      <trkpt lat="56.18068" lon="-5.39959">
        <ele>43.99</ele>
        <time>2021-03-20T00:34:01Z</time>
      </trkpt>
      <trkpt lat="56.18074" lon="-5.39909">
        <ele>43.09</ele>
        <time>2021-03-20T00:34:03Z</time>
      </trkpt>
      <trkpt lat="56.18085" lon="-5.39771">
        <ele>42.85</ele>
        <time>2021-03-20T00:34:05Z</time>
      </trkpt>
      <trkpt lat="56.18097" lon="-5.39702">
        <ele>44.16</ele>
        <time>2021-03-20T00:34:07Z</time>
      </trkpt>
      <trkpt lat="56.18102" lon="-5.39682">
        <ele>44.88</ele>
        <time>2021-03-20T00:34:10Z</time>
      </trkpt>
      <trkpt lat="56.18128" lon="-5.39614">
        <ele>44.11</ele>
        <time>2021-03-20T00:34:12Z</time>
      </trkpt>
      <trkpt lat="56.18187" lon="-5.39438">
        <ele>36.82</ele>
        <time>2021-03-20T00:34:14Z</time>
      </trkpt>
      <trkpt lat="56.18215" lon="-5.39349">
        <ele>42.61</ele>
        <time>2021-03-20T00:34:16Z</time>
      </trkpt>
      <trkpt lat="56.1823" lon="-5.39299">
        <ele>44.06</ele>
        <time>2021-03-20T00:34:19Z</time>
      </trkpt>
      <trkpt lat="56.18239" lon="-5.39258">
        <ele>44.62</ele>
        <time>2021-03-20T00:34:21Z</time>
      </trkpt>
      <trkpt lat="56.18254" lon="-5.39153">
        <ele>49.47</ele>
        <time>2021-03-20T00:34:23Z</time>
      </trkpt>
      <trkpt lat="56.1826" lon="-5.39105">
        <ele>53.24</ele>
        <time>2021-03-20T00:34:25Z</time>
      </trkpt>
      <trkpt lat="56.18263" lon="-5.39053">
        <ele>52.65</ele>
        <time>2021-03-20T00:34:28Z</time>
      </trkpt>
      <trkpt lat="56.18262" lon="-5.38997">
        <ele>51.17</ele>
        <time>2021-03-20T00:34:30Z</time>
      </trkpt>
      <trkpt lat="56.18255" lon="-5.38957">
        <ele>48.96</ele>
        <time>2021-03-20T00:34:32Z</time>
      </trkpt>
      <trkpt lat="56.18246" lon="-5.38921">
        <ele>47.31</ele>
        <time>2021-03-20T00:34:34Z</time>
      </trkpt>
      <trkpt lat="56.18242" lon="-5.38895">
        <ele>45.75</ele>
        <time>2021-03-20T00:34:37Z</time>
      </trkpt>
      <trkpt lat="56.1824" lon="-5.38868">
        <ele>45.38</ele>
        <time>2021-03-20T00:34:39Z</time>
      </trkpt>
      <trkpt lat="56.1824" lon="-5.38844">
        <ele>45.77</ele>
        <time>2021-03-20T00:34:41Z</time>
      </trkpt>
      <trkpt lat="56.18251" lon="-5.3875">
        <ele>45.01</ele>
        <time>2021-03-20T00:34:43Z</time>
      </trkpt>
      <trkpt lat="56.18256" lon="-5.38715">
        <ele>43.98</ele>
        <time>2021-03-20T00:34:46Z</time>
      </trkpt>
      <trkpt lat="56.18307" lon="-5.3851">
        <ele>39.35</ele>
        <time>2021-03-20T00:34:48Z</time>
      </trkpt>
      <trkpt lat="56.18364" lon="-5.38304">
        <ele>46.75</ele>
        <time>2021-03-20T00:34:50Z</time>
      </trkpt>
      <trkpt lat="56.18384" lon="-5.38257">
        <ele>46.47</ele>
        <time>2021-03-20T00:34:52Z</time>
      </trkpt>
      <trkpt lat="56.18541" lon="-5.37973">
        <ele>46.44</ele>
        <time>2021-03-20T00:34:55Z</time>
      </trkpt>
      <trkpt lat="56.1856" lon="-5.37917">
        <ele>47.32</ele>
        <time>2021-03-20T00:34:57Z</time>
      </trkpt>
      <trkpt lat="56.18577" lon="-5.37881">
        <ele>46.17</ele>
        <time>2021-03-20T00:34:59Z</time>
      </trkpt>
      <trkpt lat="56.18595" lon="-5.37856">
        <ele>45.11</ele>
        <time>2021-03-20T00:35:01Z</time>
      </trkpt>
      <trkpt lat="56.18688" lon="-5.37731">
        <ele>44.53</ele>
        <time>2021-03-20T00:35:04Z</time>
      </trkpt>
      <trkpt lat="56.18731" lon="-5.37665">
        <ele>45.75</ele>
        <time>2021-03-20T00:35:06Z</time>
      </trkpt>
      <trkpt lat="56.18769" lon="-5.37597">
        <ele>45.79</ele>
        <time>2021-03-20T00:35:08Z</time>
      </trkpt>
      <trkpt lat="56.18804" lon="-5.37503">
        <ele>43.34</ele>
        <time>2021-03-20T00:35:10Z</time>
      </trkpt>
      <trkpt lat="56.18866" lon="-5.37347">
        <ele>45.1</ele>
        <time>2021-03-20T00:35:13Z</time>
      </trkpt>
      <trkpt lat="56.18897" lon="-5.37264">
        <ele>44.49</ele>
        <time>2021-03-20T00:35:15Z</time>
      </trkpt>
      <trkpt lat="56.18909" lon="-5.37215">
        <ele>44.12</ele>
        <time>2021-03-20T00:35:17Z</time>
      </trkpt>
      <trkpt lat="56.18918" lon="-5.37137">
        <ele>43.96</ele>
        <time>2021-03-20T00:35:19Z</time>
      </trkpt>
      <trkpt lat="56.18923" lon="-5.37103">
        <ele>43.53</ele>
        <time>2021-03-20T00:35:22Z</time>
      </trkpt>
      <trkpt lat="56.18934" lon="-5.37059">
        <ele>45.18</ele>
        <time>2021-03-20T00:35:24Z</time>
      </trkpt>
      <trkpt lat="56.18944" lon="-5.3703">
        <ele>46.9</ele>
        <time>2021-03-20T00:35:26Z</time>
      </trkpt>
      <trkpt lat="56.18955" lon="-5.37009">
        <ele>44.19</ele>
        <time>2021-03-20T00:35:28Z</time>
      </trkpt>
      <trkpt lat="56.18968" lon="-5.36994">
        <ele>44.08</ele>
        <time>2021-03-20T00:35:31Z</time>
      </trkpt>
      <trkpt lat="56.18978" lon="-5.36978">
        <ele>44.15</ele>
        <time>2021-03-20T00:35:33Z</time>
      </trkpt>
      <trkpt lat="56.19017" lon="-5.36896">
        <ele>48.85</ele>
        <time>2021-03-20T00:35:35Z</time>
      </trkpt>
      <trkpt lat="56.1904" lon="-5.36845">
        <ele>47.8</ele>
        <time>2021-03-20T00:35:37Z</time>
      </trkpt>
      <trkpt lat="56.19095" lon="-5.3674">
        <ele>45.26</ele>
        <time>2021-03-20T00:35:40Z</time>
      </trkpt>
      <trkpt lat="56.19119" lon="-5.36672">
        <ele>44.35</ele>
        <time>2021-03-20T00:35:42Z</time>
      </trkpt>
      <trkpt lat="56.19133" lon="-5.366">
        <ele>47.91</ele>
        <time>2021-03-20T00:35:44Z</time>
      </trkpt>
      <trkpt lat="56.19148" lon="-5.36505">
        <ele>47.47</ele>
        <time>2021-03-20T00:35:46Z</time>
      </trkpt>
      <trkpt lat="56.19154" lon="-5.36481">
        <ele>50.28</ele>
        <time>2021-03-20T00:35:49Z</time>
      </trkpt>
      <trkpt lat="56.1917" lon="-5.36438">
        <ele>45.48</ele>
        <time>2021-03-20T00:35:51Z</time>
      </trkpt>
      <trkpt lat="56.19197" lon="-5.36389">
        <ele>44.21</ele>
        <time>2021-03-20T00:35:53Z</time>
      </trkpt>
      <trkpt lat="56.19223" lon="-5.36351">
        <ele>47.51</ele>
        <time>2021-03-20T00:35:55Z</time>
      </trkpt>
      <trkpt lat="56.19242" lon="-5.3632">
        <ele>45.05</ele>
        <time>2021-03-20T00:35:58Z</time>
      </trkpt>
      <trkpt lat="56.19262" lon="-5.36265">
        <ele>44.89</ele>
        <time>2021-03-20T00:36:00Z</time>
      </trkpt>
      <trkpt lat="56.19277" lon="-5.36191">
        <ele>46.59</ele>
        <time>2021-03-20T00:36:02Z</time>
      </trkpt>
      <trkpt lat="56.19293" lon="-5.36121">
        <ele>48.71</ele>
        <time>2021-03-20T00:36:04Z</time>
      </trkpt>
      <trkpt lat="56.19318" lon="-5.36048">
        <ele>50.39</ele>
        <time>2021-03-20T00:36:07Z</time>
      </trkpt>
      <trkpt lat="56.19334" lon="-5.36011">
        <ele>47.87</ele>
        <time>2021-03-20T00:36:09Z</time>
      </trkpt>
      <trkpt lat="56.19355" lon="-5.35956">
        <ele>48.53</ele>
        <time>2021-03-20T00:36:11Z</time>
      </trkpt>
      <trkpt lat="56.19396" lon="-5.35865">
        <ele>52.63</ele>
        <time>2021-03-20T00:36:13Z</time>
      </trkpt>
      <trkpt lat="56.19413" lon="-5.35843">
        <ele>50.27</ele>
        <time>2021-03-20T00:36:16Z</time>
      </trkpt>
      <trkpt lat="56.19446" lon="-5.35772">
        <ele>49.27</ele>
        <time>2021-03-20T00:36:18Z</time>
      </trkpt>
      <trkpt lat="56.19484" lon="-5.3566">
        <ele>49.37</ele>
        <time>2021-03-20T00:36:20Z</time>
      </trkpt>
      <trkpt lat="56.19525" lon="-5.3555">
        <ele>50.12</ele>
        <time>2021-03-20T00:36:22Z</time>
      </trkpt>
      <trkpt lat="56.19533" lon="-5.35526">
        <ele>50.24</ele>
        <time>2021-03-20T00:36:25Z</time>
      </trkpt>
      <trkpt lat="56.19548" lon="-5.35451">
        <ele>50.16</ele>
        <time>2021-03-20T00:36:27Z</time>
      </trkpt>
      <trkpt lat="56.19573" lon="-5.35358">
        <ele>47.64</ele>
        <time>2021-03-20T00:36:29Z</time>
      </trkpt>
      <trkpt lat="56.19602" lon="-5.35274">
        <ele>47.85</ele>
        <time>2021-03-20T00:36:31Z</time>
      </trkpt>
      <trkpt lat="56.1964" lon="-5.35192">
        <ele>50.4</ele>
        <time>2021-03-20T00:36:34Z</time>
      </trkpt>
      <trkpt lat="56.19643" lon="-5.35166">
        <ele>54.65</ele>
        <time>2021-03-20T00:36:36Z</time>
      </trkpt>
      <trkpt lat="56.19647" lon="-5.35105">
        <ele>61.39</ele>
        <time>2021-03-20T00:36:38Z</time>
      </trkpt>
      <trkpt lat="56.19651" lon="-5.35074">
        <ele>61.96</ele>
        <time>2021-03-20T00:36:40Z</time>
      </trkpt>
      <trkpt lat="56.19672" lon="-5.35024">
        <ele>54.27</ele>
        <time>2021-03-20T00:36:43Z</time>
      </trkpt>
      <trkpt lat="56.19701" lon="-5.34968">
        <ele>49.55</ele>
        <time>2021-03-20T00:36:45Z</time>
      </trkpt>
      <trkpt lat="56.19764" lon="-5.34867">
        <ele>48.67</ele>
        <time>2021-03-20T00:36:47Z</time>
      </trkpt>
      <trkpt lat="56.1978" lon="-5.34839">
        <ele>49.9</ele>
        <time>2021-03-20T00:36:49Z</time>
      </trkpt>
      <trkpt lat="56.19795" lon="-5.34806">
        <ele>50.37</ele>
        <time>2021-03-20T00:36:52Z</time>
      </trkpt>
      <trkpt lat="56.19837" lon="-5.34678">
        <ele>52.24</ele>
        <time>2021-03-20T00:36:54Z</time>
      </trkpt>
      <trkpt lat="56.1988" lon="-5.34541">
        <ele>47.59</ele>
        <time>2021-03-20T00:36:56Z</time>
      </trkpt>
      <trkpt lat="56.19903" lon="-5.34458">
        <ele>53.46</ele>
        <time>2021-03-20T00:36:58Z</time>
      </trkpt>
      <trkpt lat="56.19925" lon="-5.34403">
        <ele>56.85</ele>
        <time>2021-03-20T00:37:01Z</time>
      </trkpt>
      <trkpt lat="56.19949" lon="-5.34351">
        <ele>60.6</ele>
        <time>2021-03-20T00:37:03Z</time>
      </trkpt>
      <trkpt lat="56.19969" lon="-5.34319">
        <ele>58.31</ele>
        <time>2021-03-20T00:37:05Z</time>
      </trkpt>
      <trkpt lat="56.19982" lon="-5.3429">
        <ele>58.67</ele>
        <time>2021-03-20T00:37:07Z</time>
      </trkpt>
      <trkpt lat="56.19987" lon="-5.34268">
        <ele>58.36</ele>
        <time>2021-03-20T00:37:10Z</time>
      </trkpt>
      <trkpt lat="56.19989" lon="-5.34244">
        <ele>60.26</ele>
        <time>2021-03-20T00:37:12Z</time>
      </trkpt>
      <trkpt lat="56.20003" lon="-5.34145">
        <ele>61.01</ele>
        <time>2021-03-20T00:37:14Z</time>
      </trkpt>
      <trkpt lat="56.20012" lon="-5.34114">
        <ele>58.16</ele>
        <time>2021-03-20T00:37:16Z</time>
      </trkpt>
      <trkpt lat="56.20025" lon="-5.34076">
        <ele>52.1</ele>
        <time>2021-03-20T00:37:19Z</time>
      </trkpt>
      <trkpt lat="56.20068" lon="-5.33979">
        <ele>49.31</ele>
        <time>2021-03-20T00:37:21Z</time>
      </trkpt>
      <trkpt lat="56.20114" lon="-5.33826">
        <ele>61.01</ele>
        <time>2021-03-20T00:37:23Z</time>
      </trkpt>
      <trkpt lat="56.20126" lon="-5.33794">
        <ele>61.08</ele>
        <time>2021-03-20T00:37:25Z</time>
      </trkpt>
      <trkpt lat="56.20161" lon="-5.33726">
        <ele>57.63</ele>
        <time>2021-03-20T00:37:28Z</time>
      </trkpt>
      <trkpt lat="56.20201" lon="-5.33671">
        <ele>53.18</ele>
        <time>2021-03-20T00:37:30Z</time>
      </trkpt>
      <trkpt lat="56.20232" lon="-5.33623">
        <ele>54.39</ele>
        <time>2021-03-20T00:37:32Z</time>
      </trkpt>
      <trkpt lat="56.20255" lon="-5.33558">
        <ele>54.56</ele>
        <time>2021-03-20T00:37:34Z</time>
      </trkpt>
      <trkpt lat="56.20327" lon="-5.33337">
        <ele>52.45</ele>
        <time>2021-03-20T00:37:37Z</time>
      </trkpt>
      <trkpt lat="56.20348" lon="-5.33245">
        <ele>53.34</ele>
        <time>2021-03-20T00:37:39Z</time>
      </trkpt>
      <trkpt lat="56.20353" lon="-5.33227">
        <ele>53.98</ele>
        <time>2021-03-20T00:37:41Z</time>
      </trkpt>
      <trkpt lat="56.20361" lon="-5.33208">
        <ele>55.01</ele>
        <time>2021-03-20T00:37:43Z</time>
      </trkpt>
      <trkpt lat="56.20382" lon="-5.33174">
        <ele>55.8</ele>
        <time>2021-03-20T00:37:46Z</time>
      </trkpt>
      <trkpt lat="56.20451" lon="-5.33023">
        <ele>60.99</ele>
        <time>2021-03-20T00:37:48Z</time>
      </trkpt>
      <trkpt lat="56.2048" lon="-5.32972">
        <ele>59.15</ele>
        <time>2021-03-20T00:37:50Z</time>
      </trkpt>
      <trkpt lat="56.20502" lon="-5.32927">
        <ele>58.14</ele>
        <time>2021-03-20T00:37:52Z</time>
      </trkpt>
      <trkpt lat="56.20523" lon="-5.32893">
        <ele>56.03</ele>
        <time>2021-03-20T00:37:55Z</time>
      </trkpt>
      <trkpt lat="56.20579" lon="-5.3282">
        <ele>54.17</ele>
        <time>2021-03-20T00:37:57Z</time>
      </trkpt>
      <trkpt lat="56.20598" lon="-5.328">
        <ele>53.76</ele>
        <time>2021-03-20T00:37:59Z</time>
      </trkpt>
      <trkpt lat="56.20614" lon="-5.32775">
        <ele>56.17</ele>
        <time>2021-03-20T00:38:01Z</time>
      </trkpt>
      <trkpt lat="56.2064" lon="-5.32741">
        <ele>54.67</ele>
        <time>2021-03-20T00:38:04Z</time>
      </trkpt>
      <trkpt lat="56.20655" lon="-5.32718">
        <ele>52.84</ele>
        <time>2021-03-20T00:38:06Z</time>
      </trkpt>
      <trkpt lat="56.20682" lon="-5.32669">
        <ele>54.25</ele>
        <time>2021-03-20T00:38:08Z</time>
      </trkpt>
      <trkpt lat="56.20697" lon="-5.32619">
        <ele>55.51</ele>
        <time>2021-03-20T00:38:10Z</time>
      </trkpt>
      <trkpt lat="56.20706" lon="-5.32566">
        <ele>57.14</ele>
        <time>2021-03-20T00:38:13Z</time>
      </trkpt>
      <trkpt lat="56.20724" lon="-5.32513">
        <ele>57.12</ele>
        <time>2021-03-20T00:38:15Z</time>
      </trkpt>
      <trkpt lat="56.20754" lon="-5.32474">
        <ele>51.58</ele>
        <time>2021-03-20T00:38:17Z</time>
      </trkpt>
      <trkpt lat="56.20771" lon="-5.32449">
        <ele>49.76</ele>
        <time>2021-03-20T00:38:19Z</time>
      </trkpt>
      <trkpt lat="56.20807" lon="-5.32388">
        <ele>48.18</ele>
        <time>2021-03-20T00:38:22Z</time>
      </trkpt>
      <trkpt lat="56.20822" lon="-5.32359">
        <ele>52.44</ele>
        <time>2021-03-20T00:38:24Z</time>
      </trkpt>
      <trkpt lat="56.20834" lon="-5.3233">
        <ele>49.36</ele>
        <time>2021-03-20T00:38:26Z</time>
      </trkpt>
      <trkpt lat="56.20841" lon="-5.32302">
        <ele>51</ele>
        <time>2021-03-20T00:38:28Z</time>
      </trkpt>
      <trkpt lat="56.20852" lon="-5.32203">
        <ele>55.43</ele>
        <time>2021-03-20T00:38:31Z</time>
      </trkpt>
      <trkpt lat="56.20859" lon="-5.32178">
        <ele>54.7</ele>
        <time>2021-03-20T00:38:33Z</time>
      </trkpt>
      <trkpt lat="56.20868" lon="-5.32159">
        <ele>54.88</ele>
        <time>2021-03-20T00:38:35Z</time>
      </trkpt>
      <trkpt lat="56.20944" lon="-5.32094">
        <ele>49.28</ele>
        <time>2021-03-20T00:38:37Z</time>
      </trkpt>
      <trkpt lat="56.2095" lon="-5.32088">
        <ele>50.52</ele>
        <time>2021-03-20T00:38:40Z</time>
      </trkpt>
      <trkpt lat="56.20958" lon="-5.32075">
        <ele>51.67</ele>
        <time>2021-03-20T00:38:42Z</time>
      </trkpt>
      <trkpt lat="56.20964" lon="-5.32062">
        <ele>50.74</ele>
        <time>2021-03-20T00:38:44Z</time>
      </trkpt>
      <trkpt lat="56.20972" lon="-5.3203">
        <ele>52.59</ele>
        <time>2021-03-20T00:38:46Z</time>
      </trkpt>
      <trkpt lat="56.2098" lon="-5.32011">
        <ele>54.8</ele>
        <time>2021-03-20T00:38:49Z</time>
      </trkpt>
      <trkpt lat="56.20991" lon="-5.31987">
        <ele>52.09</ele>
        <time>2021-03-20T00:38:51Z</time>
      </trkpt>
      <trkpt lat="56.21012" lon="-5.31959">
        <ele>50.94</ele>
        <time>2021-03-20T00:38:53Z</time>
      </trkpt>
      <trkpt lat="56.21031" lon="-5.31897">
        <ele>49.09</ele>
        <time>2021-03-20T00:38:55Z</time>
      </trkpt>
      <trkpt lat="56.21071" lon="-5.31842">
        <ele>48.29</ele>
        <time>2021-03-20T00:38:58Z</time>
      </trkpt>
      <trkpt lat="56.21078" lon="-5.3183">
        <ele>47.3</ele>
        <time>2021-03-20T00:39:00Z</time>
      </trkpt>
      <trkpt lat="56.21092" lon="-5.31792">
        <ele>47.93</ele>
        <time>2021-03-20T00:39:02Z</time>
      </trkpt>
      <trkpt lat="56.21147" lon="-5.31676">
        <ele>47.47</ele>
        <time>2021-03-20T00:39:04Z</time>
      </trkpt>
      <trkpt lat="56.212" lon="-5.31602">
        <ele>46.55</ele>
        <time>2021-03-20T00:39:07Z</time>
      </trkpt>
      <trkpt lat="56.21239" lon="-5.31533">
        <ele>46.34</ele>
        <time>2021-03-20T00:39:09Z</time>
      </trkpt>
      <trkpt lat="56.21251" lon="-5.31507">
        <ele>44.75</ele>
        <time>2021-03-20T00:39:11Z</time>
      </trkpt>
      <trkpt lat="56.21256" lon="-5.31492">
        <ele>44.94</ele>
        <time>2021-03-20T00:39:13Z</time>
      </trkpt>
      <trkpt lat="56.21258" lon="-5.31462">
        <ele>47.64</ele>
        <time>2021-03-20T00:39:16Z</time>
      </trkpt>
      <trkpt lat="56.21259" lon="-5.3139">
        <ele>50.62</ele>
        <time>2021-03-20T00:39:18Z</time>
      </trkpt>
      <trkpt lat="56.21274" lon="-5.3131">
        <ele>47.98</ele>
        <time>2021-03-20T00:39:20Z</time>
      </trkpt>
      <trkpt lat="56.21318" lon="-5.31181">
        <ele>50.1</ele>
        <time>2021-03-20T00:39:22Z</time>
      </trkpt>
      <trkpt lat="56.21339" lon="-5.31129">
        <ele>47.45</ele>
        <time>2021-03-20T00:39:25Z</time>
      </trkpt>
      <trkpt lat="56.21363" lon="-5.31079">
        <ele>51.39</ele>
        <time>2021-03-20T00:39:27Z</time>
      </trkpt>
      <trkpt lat="56.21412" lon="-5.30988">
        <ele>48.58</ele>
        <time>2021-03-20T00:39:29Z</time>
      </trkpt>
      <trkpt lat="56.21429" lon="-5.3095">
        <ele>51.59</ele>
        <time>2021-03-20T00:39:31Z</time>
      </trkpt>
      <trkpt lat="56.21462" lon="-5.30866">
        <ele>51.1</ele>
        <time>2021-03-20T00:39:34Z</time>
      </trkpt>
      <trkpt lat="56.21495" lon="-5.30791">
        <ele>51.56</ele>
        <time>2021-03-20T00:39:36Z</time>
      </trkpt>
      <trkpt lat="56.21531" lon="-5.30722">
        <ele>52.04</ele>
        <time>2021-03-20T00:39:38Z</time>
      </trkpt>
      <trkpt lat="56.21558" lon="-5.3065">
        <ele>43.04</ele>
        <time>2021-03-20T00:39:40Z</time>
      </trkpt>
      <trkpt lat="56.21582" lon="-5.30592">
        <ele>44.62</ele>
        <time>2021-03-20T00:39:43Z</time>
      </trkpt>
      <trkpt lat="56.21603" lon="-5.30531">
        <ele>43.88</ele>
        <time>2021-03-20T00:39:45Z</time>
      </trkpt>
      <trkpt lat="56.21615" lon="-5.30489">
        <ele>44.09</ele>
        <time>2021-03-20T00:39:47Z</time>
      </trkpt>
      <trkpt lat="56.21633" lon="-5.30407">
        <ele>43.44</ele>
        <time>2021-03-20T00:39:49Z</time>
      </trkpt>
      <trkpt lat="56.21667" lon="-5.30197">
        <ele>41.8</ele>
        <time>2021-03-20T00:39:52Z</time>
      </trkpt>
      <trkpt lat="56.217" lon="-5.30094">
        <ele>43.84</ele>
        <time>2021-03-20T00:39:54Z</time>
      </trkpt>
      <trkpt lat="56.2176" lon="-5.29877">
        <ele>40</ele>
        <time>2021-03-20T00:39:56Z</time>
      </trkpt>
      <trkpt lat="56.21783" lon="-5.29785">
        <ele>40.59</ele>
        <time>2021-03-20T00:39:58Z</time>
      </trkpt>
      <trkpt lat="56.21806" lon="-5.29709">
        <ele>40</ele>
        <time>2021-03-20T00:40:01Z</time>
      </trkpt>
      <trkpt lat="56.21812" lon="-5.29696">
        <ele>40</ele>
        <time>2021-03-20T00:40:03Z</time>
      </trkpt>
      <trkpt lat="56.21891" lon="-5.29589">
        <ele>39.8</ele>
        <time>2021-03-20T00:40:05Z</time>
      </trkpt>
      <trkpt lat="56.22065" lon="-5.29361">
        <ele>48.04</ele>
        <time>2021-03-20T00:40:07Z</time>
      </trkpt>
      <trkpt lat="56.22142" lon="-5.29252">
        <ele>57.91</ele>
        <time>2021-03-20T00:40:10Z</time>
      </trkpt>
      <trkpt lat="56.22209" lon="-5.29142">
        <ele>54.2</ele>
        <time>2021-03-20T00:40:12Z</time>
      </trkpt>
      <trkpt lat="56.22238" lon="-5.29087">
        <ele>56</ele>
        <time>2021-03-20T00:40:14Z</time>
      </trkpt>
      <trkpt lat="56.22409" lon="-5.28798">
        <ele>64.7</ele>
        <time>2021-03-20T00:40:16Z</time>
      </trkpt>
      <trkpt lat="56.22458" lon="-5.28733">
        <ele>64.7</ele>
        <time>2021-03-20T00:40:19Z</time>
      </trkpt>
      <trkpt lat="56.22506" lon="-5.28673">
        <ele>68.33</ele>
        <time>2021-03-20T00:40:21Z</time>
      </trkpt>
      <trkpt lat="56.22539" lon="-5.28641">
        <ele>68.76</ele>
        <time>2021-03-20T00:40:23Z</time>
      </trkpt>
      <trkpt lat="56.22565" lon="-5.28618">
        <ele>66.63</ele>
        <time>2021-03-20T00:40:25Z</time>
      </trkpt>
      <trkpt lat="56.2262" lon="-5.28584">
        <ele>63</ele>
        <time>2021-03-20T00:40:28Z</time>
      </trkpt>
      <trkpt lat="56.22752" lon="-5.28507">
        <ele>59.33</ele>
        <time>2021-03-20T00:40:30Z</time>
      </trkpt>
      <trkpt lat="56.22876" lon="-5.28431">
        <ele>55.63</ele>
        <time>2021-03-20T00:40:32Z</time>
      </trkpt>
      <trkpt lat="56.22909" lon="-5.28401">
        <ele>54.64</ele>
        <time>2021-03-20T00:40:34Z</time>
      </trkpt>
      <trkpt lat="56.22961" lon="-5.28339">
        <ele>52.83</ele>
        <time>2021-03-20T00:40:37Z</time>
      </trkpt>
      <trkpt lat="56.23004" lon="-5.28297">
        <ele>56.21</ele>
        <time>2021-03-20T00:40:39Z</time>
      </trkpt>
      <trkpt lat="56.23061" lon="-5.28245">
        <ele>56.29</ele>
        <time>2021-03-20T00:40:41Z</time>
      </trkpt>
      <trkpt lat="56.2309" lon="-5.2821">
        <ele>55.01</ele>
        <time>2021-03-20T00:40:43Z</time>
      </trkpt>
      <trkpt lat="56.23155" lon="-5.28146">
        <ele>55.14</ele>
        <time>2021-03-20T00:40:46Z</time>
      </trkpt>
      <trkpt lat="56.23215" lon="-5.28091">
        <ele>57.18</ele>
        <time>2021-03-20T00:40:48Z</time>
      </trkpt>
      <trkpt lat="56.23267" lon="-5.2804">
        <ele>51.52</ele>
        <time>2021-03-20T00:40:50Z</time>
      </trkpt>
      <trkpt lat="56.2331" lon="-5.2798">
        <ele>49.26</ele>
        <time>2021-03-20T00:40:52Z</time>
      </trkpt>
      <trkpt lat="56.2333" lon="-5.27959">
        <ele>50.12</ele>
        <time>2021-03-20T00:40:55Z</time>
      </trkpt>
      <trkpt lat="56.2335" lon="-5.27942">
        <ele>51.13</ele>
        <time>2021-03-20T00:40:57Z</time>
      </trkpt>
      <trkpt lat="56.23364" lon="-5.27935">
        <ele>51.45</ele>
        <time>2021-03-20T00:40:59Z</time>
      </trkpt>
      <trkpt lat="56.23377" lon="-5.27932">
        <ele>52.02</ele>
        <time>2021-03-20T00:41:01Z</time>
      </trkpt>
      <trkpt lat="56.23386" lon="-5.27928">
        <ele>52.47</ele>
        <time>2021-03-20T00:41:04Z</time>
      </trkpt>
      <trkpt lat="56.23398" lon="-5.27903">
        <ele>53.82</ele>
        <time>2021-03-20T00:41:06Z</time>
      </trkpt>
      <trkpt lat="56.23424" lon="-5.27856">
        <ele>56.01</ele>
        <time>2021-03-20T00:41:08Z</time>
      </trkpt>
      <trkpt lat="56.23461" lon="-5.27799">
        <ele>61.31</ele>
        <time>2021-03-20T00:41:10Z</time>
      </trkpt>
      <trkpt lat="56.2347" lon="-5.27783">
        <ele>61.95</ele>
        <time>2021-03-20T00:41:13Z</time>
      </trkpt>
      <trkpt lat="56.23494" lon="-5.27711">
        <ele>65.85</ele>
        <time>2021-03-20T00:41:15Z</time>
      </trkpt>
      <trkpt lat="56.23525" lon="-5.27653">
        <ele>70.36</ele>
        <time>2021-03-20T00:41:17Z</time>
      </trkpt>
      <trkpt lat="56.23542" lon="-5.27623">
        <ele>71.5</ele>
        <time>2021-03-20T00:41:19Z</time>
      </trkpt>
      <trkpt lat="56.23561" lon="-5.27598">
        <ele>71.77</ele>
        <time>2021-03-20T00:41:22Z</time>
      </trkpt>
      <trkpt lat="56.23591" lon="-5.27563">
        <ele>72.8</ele>
        <time>2021-03-20T00:41:24Z</time>
      </trkpt>
      <trkpt lat="56.23604" lon="-5.27542">
        <ele>72.38</ele>
        <time>2021-03-20T00:41:26Z</time>
      </trkpt>
      <trkpt lat="56.23648" lon="-5.27456">
        <ele>68.13</ele>
        <time>2021-03-20T00:41:28Z</time>
      </trkpt>
      <trkpt lat="56.23666" lon="-5.27431">
        <ele>66.06</ele>
        <time>2021-03-20T00:41:31Z</time>
      </trkpt>
      <trkpt lat="56.23807" lon="-5.27309">
        <ele>64.45</ele>
        <time>2021-03-20T00:41:33Z</time>
      </trkpt>
      <trkpt lat="56.23835" lon="-5.27278">
        <ele>62.83</ele>
        <time>2021-03-20T00:41:35Z</time>
      </trkpt>
      <trkpt lat="56.23857" lon="-5.27249">
        <ele>61.19</ele>
        <time>2021-03-20T00:41:37Z</time>
      </trkpt>
      <trkpt lat="56.23874" lon="-5.27218">
        <ele>60.37</ele>
        <time>2021-03-20T00:41:40Z</time>
      </trkpt>
      <trkpt lat="56.23888" lon="-5.27184">
        <ele>61.38</ele>
        <time>2021-03-20T00:41:42Z</time>
      </trkpt>
      <trkpt lat="56.23903" lon="-5.27154">
        <ele>62.78</ele>
        <time>2021-03-20T00:41:44Z</time>
      </trkpt>
      <trkpt lat="56.23939" lon="-5.27109">
        <ele>61.74</ele>
        <time>2021-03-20T00:41:46Z</time>
      </trkpt>
      <trkpt lat="56.23998" lon="-5.27051">
        <ele>62.65</ele>
        <time>2021-03-20T00:41:49Z</time>
      </trkpt>
      <trkpt lat="56.24028" lon="-5.2701">
        <ele>63.59</ele>
        <time>2021-03-20T00:41:51Z</time>
      </trkpt>
      <trkpt lat="56.24124" lon="-5.26853">
        <ele>51.44</ele>
        <time>2021-03-20T00:41:53Z</time>
      </trkpt>
      <trkpt lat="56.24198" lon="-5.26747">
        <ele>55.3</ele>
        <time>2021-03-20T00:41:55Z</time>
      </trkpt>
      <trkpt lat="56.24228" lon="-5.26717">
        <ele>56</ele>
        <time>2021-03-20T00:41:58Z</time>
      </trkpt>
      <trkpt lat="56.24262" lon="-5.26699">
        <ele>55.17</ele>
        <time>2021-03-20T00:42:00Z</time>
      </trkpt>
      <trkpt lat="56.24292" lon="-5.26695">
        <ele>51.48</ele>
        <time>2021-03-20T00:42:02Z</time>
      </trkpt>
      <trkpt lat="56.24355" lon="-5.26713">
        <ele>46.23</ele>
        <time>2021-03-20T00:42:04Z</time>
      </trkpt>
      <trkpt lat="56.24373" lon="-5.26707">
        <ele>45.56</ele>
        <time>2021-03-20T00:42:07Z</time>
      </trkpt>
      <trkpt lat="56.24382" lon="-5.26702">
        <ele>45.24</ele>
        <time>2021-03-20T00:42:09Z</time>
      </trkpt>
      <trkpt lat="56.2439" lon="-5.26689">
        <ele>44.91</ele>
        <time>2021-03-20T00:42:11Z</time>
      </trkpt>
      <trkpt lat="56.24421" lon="-5.26625">
        <ele>46.58</ele>
        <time>2021-03-20T00:42:13Z</time>
      </trkpt>
      <trkpt lat="56.24454" lon="-5.26571">
        <ele>48.32</ele>
        <time>2021-03-20T00:42:16Z</time>
      </trkpt>
      <trkpt lat="56.2448" lon="-5.26532">
        <ele>44.06</ele>
        <time>2021-03-20T00:42:18Z</time>
      </trkpt>
      <trkpt lat="56.24497" lon="-5.26521">
        <ele>46.49</ele>
        <time>2021-03-20T00:42:20Z</time>
      </trkpt>
      <trkpt lat="56.24513" lon="-5.26517">
        <ele>48.85</ele>
        <time>2021-03-20T00:42:22Z</time>
      </trkpt>
      <trkpt lat="56.24529" lon="-5.26518">
        <ele>51.19</ele>
        <time>2021-03-20T00:42:25Z</time>
      </trkpt>
      <trkpt lat="56.24543" lon="-5.26523">
        <ele>53.19</ele>
        <time>2021-03-20T00:42:27Z</time>
      </trkpt>
      <trkpt lat="56.24557" lon="-5.26533">
        <ele>55.06</ele>
        <time>2021-03-20T00:42:29Z</time>
      </trkpt>
      <trkpt lat="56.24583" lon="-5.26562">
        <ele>43.5</ele>
        <time>2021-03-20T00:42:31Z</time>
      </trkpt>
      <trkpt lat="56.24595" lon="-5.26584">
        <ele>46.62</ele>
        <time>2021-03-20T00:42:34Z</time>
      </trkpt>
      <trkpt lat="56.24601" lon="-5.26606">
        <ele>49.22</ele>
        <time>2021-03-20T00:42:36Z</time>
      </trkpt>
      <trkpt lat="56.24604" lon="-5.2662">
        <ele>50.69</ele>
        <time>2021-03-20T00:42:38Z</time>
      </trkpt>
      <trkpt lat="56.24605" lon="-5.26642">
        <ele>52.6</ele>
        <time>2021-03-20T00:42:40Z</time>
      </trkpt>
      <trkpt lat="56.24572" lon="-5.26832">
        <ele>50.62</ele>
        <time>2021-03-20T00:42:43Z</time>
      </trkpt>
      <trkpt lat="56.24571" lon="-5.2685">
        <ele>49.51</ele>
        <time>2021-03-20T00:42:45Z</time>
      </trkpt>
      <trkpt lat="56.24572" lon="-5.26866">
        <ele>48.84</ele>
        <time>2021-03-20T00:42:47Z</time>
      </trkpt>
      <trkpt lat="56.24591" lon="-5.26963">
        <ele>51.49</ele>
        <time>2021-03-20T00:42:49Z</time>
      </trkpt>
      <trkpt lat="56.24592" lon="-5.26977">
        <ele>51.57</ele>
        <time>2021-03-20T00:42:52Z</time>
      </trkpt>
      <trkpt lat="56.2459" lon="-5.2701">
        <ele>50.44</ele>
        <time>2021-03-20T00:42:54Z</time>
      </trkpt>
      <trkpt lat="56.2459" lon="-5.27041">
        <ele>48.64</ele>
        <time>2021-03-20T00:42:56Z</time>
      </trkpt>
      <trkpt lat="56.24593" lon="-5.27053">
        <ele>48.56</ele>
        <time>2021-03-20T00:42:59Z</time>
      </trkpt>
      <trkpt lat="56.24598" lon="-5.27062">
        <ele>47.6</ele>
        <time>2021-03-20T00:43:01Z</time>
      </trkpt>
      <trkpt lat="56.2461" lon="-5.2707">
        <ele>47.26</ele>
        <time>2021-03-20T00:43:03Z</time>
      </trkpt>
      <trkpt lat="56.2464" lon="-5.27062">
        <ele>52.07</ele>
        <time>2021-03-20T00:43:05Z</time>
      </trkpt>
      <trkpt lat="56.24657" lon="-5.27063">
        <ele>51.97</ele>
        <time>2021-03-20T00:43:08Z</time>
      </trkpt>
      <trkpt lat="56.24749" lon="-5.27088">
        <ele>45.63</ele>
        <time>2021-03-20T00:43:10Z</time>
      </trkpt>
      <trkpt lat="56.24799" lon="-5.27098">
        <ele>42.06</ele>
        <time>2021-03-20T00:43:12Z</time>
      </trkpt>
      <trkpt lat="56.24811" lon="-5.27096">
        <ele>41.91</ele>
        <time>2021-03-20T00:43:14Z</time>
      </trkpt>
      <trkpt lat="56.24894" lon="-5.27053">
        <ele>40.16</ele>
        <time>2021-03-20T00:43:17Z</time>
      </trkpt>
      <trkpt lat="56.24917" lon="-5.2705">
        <ele>40.38</ele>
        <time>2021-03-20T00:43:19Z</time>
      </trkpt>
      <trkpt lat="56.24929" lon="-5.27053">
        <ele>40.17</ele>
        <time>2021-03-20T00:43:21Z</time>
      </trkpt>
      <trkpt lat="56.24977" lon="-5.27075">
        <ele>39.96</ele>
        <time>2021-03-20T00:43:23Z</time>
      </trkpt>
      <trkpt lat="56.25" lon="-5.27081">
        <ele>41.14</ele>
        <time>2021-03-20T00:43:26Z</time>
      </trkpt>
      <trkpt lat="56.25092" lon="-5.27081">
        <ele>43.44</ele>
        <time>2021-03-20T00:43:28Z</time>
      </trkpt>
      <trkpt lat="56.252" lon="-5.27049">
        <ele>47.29</ele>
        <time>2021-03-20T00:43:30Z</time>
      </trkpt>
      <trkpt lat="56.25219" lon="-5.27038">
        <ele>47.98</ele>
        <time>2021-03-20T00:43:32Z</time>
      </trkpt>
      <trkpt lat="56.25229" lon="-5.27028">
        <ele>47.28</ele>
        <time>2021-03-20T00:43:35Z</time>
      </trkpt>
      <trkpt lat="56.25238" lon="-5.27015">
        <ele>48.11</ele>
        <time>2021-03-20T00:43:37Z</time>
      </trkpt>
      <trkpt lat="56.25253" lon="-5.26982">
        <ele>51.69</ele>
        <time>2021-03-20T00:43:39Z</time>
      </trkpt>
      <trkpt lat="56.2528" lon="-5.26942">
        <ele>49.92</ele>
        <time>2021-03-20T00:43:41Z</time>
      </trkpt>
      <trkpt lat="56.25343" lon="-5.2688">
        <ele>46.02</ele>
        <time>2021-03-20T00:43:44Z</time>
      </trkpt>
      <trkpt lat="56.25364" lon="-5.26868">
        <ele>44.75</ele>
        <time>2021-03-20T00:43:46Z</time>
      </trkpt>
      <trkpt lat="56.25404" lon="-5.26858">
        <ele>45.19</ele>
        <time>2021-03-20T00:43:48Z</time>
      </trkpt>
      <trkpt lat="56.25457" lon="-5.26852">
        <ele>45.48</ele>
        <time>2021-03-20T00:43:50Z</time>
      </trkpt>
      <trkpt lat="56.25469" lon="-5.26847">
        <ele>45.97</ele>
        <time>2021-03-20T00:43:53Z</time>
      </trkpt>
      <trkpt lat="56.25484" lon="-5.2683">
        <ele>45.86</ele>
        <time>2021-03-20T00:43:55Z</time>
      </trkpt>
      <trkpt lat="56.25494" lon="-5.26812">
        <ele>46.01</ele>
        <time>2021-03-20T00:43:57Z</time>
      </trkpt>
      <trkpt lat="56.25522" lon="-5.26744">
        <ele>47.83</ele>
        <time>2021-03-20T00:43:59Z</time>
      </trkpt>
      <trkpt lat="56.25546" lon="-5.26695">
        <ele>48.68</ele>
        <time>2021-03-20T00:44:02Z</time>
      </trkpt>
      <trkpt lat="56.25594" lon="-5.26613">
        <ele>51.31</ele>
        <time>2021-03-20T00:44:04Z</time>
      </trkpt>
      <trkpt lat="56.25623" lon="-5.26536">
        <ele>50.72</ele>
        <time>2021-03-20T00:44:06Z</time>
      </trkpt>
      <trkpt lat="56.25649" lon="-5.26485">
        <ele>51.35</ele>
        <time>2021-03-20T00:44:08Z</time>
      </trkpt>
      <trkpt lat="56.25655" lon="-5.26468">
        <ele>51.5</ele>
        <time>2021-03-20T00:44:11Z</time>
      </trkpt>
      <trkpt lat="56.25673" lon="-5.26406">
        <ele>54.95</ele>
        <time>2021-03-20T00:44:13Z</time>
      </trkpt>
      <trkpt lat="56.25678" lon="-5.26397">
        <ele>55.08</ele>
        <time>2021-03-20T00:44:15Z</time>
      </trkpt>
      <trkpt lat="56.25689" lon="-5.26387">
        <ele>54.22</ele>
        <time>2021-03-20T00:44:17Z</time>
      </trkpt>
      <trkpt lat="56.25727" lon="-5.2636">
        <ele>48.62</ele>
        <time>2021-03-20T00:44:20Z</time>
      </trkpt>
      <trkpt lat="56.25766" lon="-5.26294">
        <ele>49.01</ele>
        <time>2021-03-20T00:44:22Z</time>
      </trkpt>
      <trkpt lat="56.25801" lon="-5.26216">
        <ele>47.01</ele>
        <time>2021-03-20T00:44:24Z</time>
      </trkpt>
      <trkpt lat="56.25817" lon="-5.26193">
        <ele>38.24</ele>
        <time>2021-03-20T00:44:26Z</time>
      </trkpt>
      <trkpt lat="56.25856" lon="-5.2615">
        <ele>43.93</ele>
        <time>2021-03-20T00:44:29Z</time>
      </trkpt>
      <trkpt lat="56.25933" lon="-5.26081">
        <ele>39.8</ele>
        <time>2021-03-20T00:44:31Z</time>
      </trkpt>
      <trkpt lat="56.25964" lon="-5.26062">
        <ele>39.71</ele>
        <time>2021-03-20T00:44:33Z</time>
      </trkpt>
      <trkpt lat="56.25992" lon="-5.26049">
        <ele>41.49</ele>
        <time>2021-03-20T00:44:35Z</time>
      </trkpt>
      <trkpt lat="56.26034" lon="-5.26037">
        <ele>42</ele>
        <time>2021-03-20T00:44:38Z</time>
      </trkpt>
      <trkpt lat="56.26048" lon="-5.26023">
        <ele>42.17</ele>
        <time>2021-03-20T00:44:40Z</time>
      </trkpt>
      <trkpt lat="56.26088" lon="-5.25966">
        <ele>46.11</ele>
        <time>2021-03-20T00:44:42Z</time>
      </trkpt>
      <trkpt lat="56.26117" lon="-5.25942">
        <ele>47.04</ele>
        <time>2021-03-20T00:44:44Z</time>
      </trkpt>
      <trkpt lat="56.26173" lon="-5.25925">
        <ele>50.42</ele>
        <time>2021-03-20T00:44:47Z</time>
      </trkpt>
      <trkpt lat="56.26226" lon="-5.25898">
        <ele>53.49</ele>
        <time>2021-03-20T00:44:49Z</time>
      </trkpt>
      <trkpt lat="56.26239" lon="-5.25882">
        <ele>55.08</ele>
        <time>2021-03-20T00:44:51Z</time>
      </trkpt>
      <trkpt lat="56.26315" lon="-5.25742">
        <ele>57.78</ele>
        <time>2021-03-20T00:44:53Z</time>
      </trkpt>
      <trkpt lat="56.26325" lon="-5.25728">
        <ele>56.36</ele>
        <time>2021-03-20T00:44:56Z</time>
      </trkpt>
      <trkpt lat="56.26334" lon="-5.2572">
        <ele>54.98</ele>
        <time>2021-03-20T00:44:58Z</time>
      </trkpt>
      <trkpt lat="56.26351" lon="-5.25712">
        <ele>52.16</ele>
        <time>2021-03-20T00:45:00Z</time>
      </trkpt>
      <trkpt lat="56.26393" lon="-5.25698">
        <ele>46.88</ele>
        <time>2021-03-20T00:45:02Z</time>
      </trkpt>
      <trkpt lat="56.26407" lon="-5.25688">
        <ele>47.39</ele>
        <time>2021-03-20T00:45:05Z</time>
      </trkpt>
      <trkpt lat="56.26433" lon="-5.25654">
        <ele>49.47</ele>
        <time>2021-03-20T00:45:07Z</time>
      </trkpt>
      <trkpt lat="56.26494" lon="-5.25556">
        <ele>52.9</ele>
        <time>2021-03-20T00:45:09Z</time>
      </trkpt>
      <trkpt lat="56.26548" lon="-5.25474">
        <ele>52.71</ele>
        <time>2021-03-20T00:45:11Z</time>
      </trkpt>
      <trkpt lat="56.2664" lon="-5.25331">
        <ele>47.25</ele>
        <time>2021-03-20T00:45:14Z</time>
      </trkpt>
      <trkpt lat="56.2668" lon="-5.25288">
        <ele>48.79</ele>
        <time>2021-03-20T00:45:16Z</time>
      </trkpt>
      <trkpt lat="56.26695" lon="-5.25268">
        <ele>48.99</ele>
        <time>2021-03-20T00:45:18Z</time>
      </trkpt>
      <trkpt lat="56.26711" lon="-5.25239">
        <ele>49.33</ele>
        <time>2021-03-20T00:45:20Z</time>
      </trkpt>
      <trkpt lat="56.26738" lon="-5.2518">
        <ele>51.67</ele>
        <time>2021-03-20T00:45:23Z</time>
      </trkpt>
      <trkpt lat="56.26797" lon="-5.25038">
        <ele>53.17</ele>
        <time>2021-03-20T00:45:25Z</time>
      </trkpt>
      <trkpt lat="56.26816" lon="-5.24989">
        <ele>49.83</ele>
        <time>2021-03-20T00:45:27Z</time>
      </trkpt>
      <trkpt lat="56.26833" lon="-5.24933">
        <ele>49.47</ele>
        <time>2021-03-20T00:45:29Z</time>
      </trkpt>
      <trkpt lat="56.26842" lon="-5.24894">
        <ele>49.24</ele>
        <time>2021-03-20T00:45:32Z</time>
      </trkpt>
      <trkpt lat="56.26869" lon="-5.24704">
        <ele>59.7</ele>
        <time>2021-03-20T00:45:34Z</time>
      </trkpt>
      <trkpt lat="56.26874" lon="-5.2465">
        <ele>61.09</ele>
        <time>2021-03-20T00:45:36Z</time>
      </trkpt>
      <trkpt lat="56.26879" lon="-5.24551">
        <ele>60.1</ele>
        <time>2021-03-20T00:45:38Z</time>
      </trkpt>
      <trkpt lat="56.26888" lon="-5.2444">
        <ele>58.22</ele>
        <time>2021-03-20T00:45:41Z</time>
      </trkpt>
      <trkpt lat="56.269" lon="-5.24387">
        <ele>58.15</ele>
        <time>2021-03-20T00:45:43Z</time>
      </trkpt>
      <trkpt lat="56.26928" lon="-5.24304">
        <ele>59.67</ele>
        <time>2021-03-20T00:45:45Z</time>
      </trkpt>
      <trkpt lat="56.26947" lon="-5.24255">
        <ele>60.58</ele>
        <time>2021-03-20T00:45:47Z</time>
      </trkpt>
      <trkpt lat="56.26956" lon="-5.2424">
        <ele>59.92</ele>
        <time>2021-03-20T00:45:50Z</time>
      </trkpt>
      <trkpt lat="56.27004" lon="-5.24203">
        <ele>54.62</ele>
        <time>2021-03-20T00:45:52Z</time>
      </trkpt>
      <trkpt lat="56.27016" lon="-5.24188">
        <ele>56.06</ele>
        <time>2021-03-20T00:45:54Z</time>
      </trkpt>
      <trkpt lat="56.27081" lon="-5.24081">
        <ele>44.87</ele>
        <time>2021-03-20T00:45:56Z</time>
      </trkpt>
      <trkpt lat="56.27121" lon="-5.24024">
        <ele>42.93</ele>
        <time>2021-03-20T00:45:59Z</time>
      </trkpt>
      <trkpt lat="56.27136" lon="-5.23999">
        <ele>44.16</ele>
        <time>2021-03-20T00:46:01Z</time>
      </trkpt>
      <trkpt lat="56.27147" lon="-5.23975">
        <ele>44.06</ele>
        <time>2021-03-20T00:46:03Z</time>
      </trkpt>
      <trkpt lat="56.27162" lon="-5.23931">
        <ele>43.62</ele>
        <time>2021-03-20T00:46:05Z</time>
      </trkpt>
      <trkpt lat="56.2717" lon="-5.23915">
        <ele>42.7</ele>
        <time>2021-03-20T00:46:08Z</time>
      </trkpt>
      <trkpt lat="56.27192" lon="-5.23874">
        <ele>41.67</ele>
        <time>2021-03-20T00:46:10Z</time>
      </trkpt>
      <trkpt lat="56.27219" lon="-5.23833">
        <ele>40.32</ele>
        <time>2021-03-20T00:46:12Z</time>
      </trkpt>
      <trkpt lat="56.27231" lon="-5.2382">
        <ele>40.05</ele>
        <time>2021-03-20T00:46:14Z</time>
      </trkpt>
      <trkpt lat="56.27259" lon="-5.23797">
        <ele>38.97</ele>
        <time>2021-03-20T00:46:17Z</time>
      </trkpt>
      <trkpt lat="56.2729" lon="-5.23784">
        <ele>38.77</ele>
        <time>2021-03-20T00:46:19Z</time>
      </trkpt>
      <trkpt lat="56.27388" lon="-5.23753">
        <ele>41.98</ele>
        <time>2021-03-20T00:46:21Z</time>
      </trkpt>
      <trkpt lat="56.27504" lon="-5.23751">
        <ele>45.7</ele>
        <time>2021-03-20T00:46:23Z</time>
      </trkpt>
      <trkpt lat="56.27564" lon="-5.23773">
        <ele>43.9</ele>
        <time>2021-03-20T00:46:26Z</time>
      </trkpt>
      <trkpt lat="56.27581" lon="-5.23769">
        <ele>43.71</ele>
        <time>2021-03-20T00:46:28Z</time>
      </trkpt>
      <trkpt lat="56.27592" lon="-5.23759">
        <ele>43.44</ele>
        <time>2021-03-20T00:46:30Z</time>
      </trkpt>
      <trkpt lat="56.27612" lon="-5.2372">
        <ele>44.2</ele>
        <time>2021-03-20T00:46:32Z</time>
      </trkpt>
      <trkpt lat="56.27637" lon="-5.23691">
        <ele>43.83</ele>
        <time>2021-03-20T00:46:35Z</time>
      </trkpt>
      <trkpt lat="56.27651" lon="-5.23664">
        <ele>46.87</ele>
        <time>2021-03-20T00:46:37Z</time>
      </trkpt>
      <trkpt lat="56.27679" lon="-5.23651">
        <ele>46.82</ele>
        <time>2021-03-20T00:46:39Z</time>
      </trkpt>
      <trkpt lat="56.27702" lon="-5.23576">
        <ele>51.69</ele>
        <time>2021-03-20T00:46:41Z</time>
      </trkpt>
      <trkpt lat="56.2772" lon="-5.23538">
        <ele>52.51</ele>
        <time>2021-03-20T00:46:44Z</time>
      </trkpt>
      <trkpt lat="56.27786" lon="-5.23507">
        <ele>47.87</ele>
        <time>2021-03-20T00:46:46Z</time>
      </trkpt>
      <trkpt lat="56.27806" lon="-5.23505">
        <ele>46.6</ele>
        <time>2021-03-20T00:46:48Z</time>
      </trkpt>
      <trkpt lat="56.2782" lon="-5.23493">
        <ele>47.13</ele>
        <time>2021-03-20T00:46:50Z</time>
      </trkpt>
      <trkpt lat="56.2786" lon="-5.23429">
        <ele>49.82</ele>
        <time>2021-03-20T00:46:53Z</time>
      </trkpt>
      <trkpt lat="56.27939" lon="-5.23314">
        <ele>51.22</ele>
        <time>2021-03-20T00:46:55Z</time>
      </trkpt>
      <trkpt lat="56.27988" lon="-5.2321">
        <ele>51.83</ele>
        <time>2021-03-20T00:46:57Z</time>
      </trkpt>
      <trkpt lat="56.28047" lon="-5.23124">
        <ele>53.91</ele>
        <time>2021-03-20T00:46:59Z</time>
      </trkpt>
      <trkpt lat="56.28063" lon="-5.23089">
        <ele>54.62</ele>
        <time>2021-03-20T00:47:02Z</time>
      </trkpt>
      <trkpt lat="56.28114" lon="-5.23013">
        <ele>52.66</ele>
        <time>2021-03-20T00:47:04Z</time>
      </trkpt>
      <trkpt lat="56.28148" lon="-5.22946">
        <ele>50.2</ele>
        <time>2021-03-20T00:47:06Z</time>
      </trkpt>
      <trkpt lat="56.2817" lon="-5.2293">
        <ele>47.09</ele>
        <time>2021-03-20T00:47:08Z</time>
      </trkpt>
      <trkpt lat="56.28259" lon="-5.22897">
        <ele>45.17</ele>
        <time>2021-03-20T00:47:11Z</time>
      </trkpt>
      <trkpt lat="56.28289" lon="-5.2285">
        <ele>45.82</ele>
        <time>2021-03-20T00:47:13Z</time>
      </trkpt>
      <trkpt lat="56.28308" lon="-5.22796">
        <ele>48.04</ele>
        <time>2021-03-20T00:47:15Z</time>
      </trkpt>
      <trkpt lat="56.28338" lon="-5.22728">
        <ele>47.7</ele>
        <time>2021-03-20T00:47:17Z</time>
      </trkpt>
      <trkpt lat="56.28364" lon="-5.22697">
        <ele>45.98</ele>
        <time>2021-03-20T00:47:20Z</time>
      </trkpt>
      <trkpt lat="56.2839" lon="-5.22662">
        <ele>45.66</ele>
        <time>2021-03-20T00:47:22Z</time>
      </trkpt>
      <trkpt lat="56.28411" lon="-5.22623">
        <ele>45.58</ele>
        <time>2021-03-20T00:47:24Z</time>
      </trkpt>
      <trkpt lat="56.28554" lon="-5.22565">
        <ele>39.42</ele>
        <time>2021-03-20T00:47:26Z</time>
      </trkpt>
      <trkpt lat="56.28595" lon="-5.22542">
        <ele>39.19</ele>
        <time>2021-03-20T00:47:29Z</time>
      </trkpt>
      <trkpt lat="56.28612" lon="-5.22525">
        <ele>40.15</ele>
        <time>2021-03-20T00:47:31Z</time>
      </trkpt>
      <trkpt lat="56.28659" lon="-5.22459">
        <ele>41.29</ele>
        <time>2021-03-20T00:47:33Z</time>
      </trkpt>
      <trkpt lat="56.2869" lon="-5.22444">
        <ele>40.17</ele>
        <time>2021-03-20T00:47:35Z</time>
      </trkpt>
      <trkpt lat="56.28746" lon="-5.22436">
        <ele>40.17</ele>
        <time>2021-03-20T00:47:38Z</time>
      </trkpt>
      <trkpt lat="56.28774" lon="-5.22411">
        <ele>42.26</ele>
        <time>2021-03-20T00:47:40Z</time>
      </trkpt>
      <trkpt lat="56.28807" lon="-5.22365">
        <ele>44.65</ele>
        <time>2021-03-20T00:47:42Z</time>
      </trkpt>
      <trkpt lat="56.28834" lon="-5.22343">
        <ele>45.3</ele>
        <time>2021-03-20T00:47:44Z</time>
      </trkpt>
      <trkpt lat="56.28899" lon="-5.22343">
        <ele>40.52</ele>
        <time>2021-03-20T00:47:47Z</time>
      </trkpt>
      <trkpt lat="56.28918" lon="-5.22338">
        <ele>39.62</ele>
        <time>2021-03-20T00:47:49Z</time>
      </trkpt>
      <trkpt lat="56.28951" lon="-5.22321">
        <ele>38.44</ele>
        <time>2021-03-20T00:47:51Z</time>
      </trkpt>
      <trkpt lat="56.28987" lon="-5.2228">
        <ele>40.34</ele>
        <time>2021-03-20T00:47:53Z</time>
      </trkpt>
      <trkpt lat="56.29033" lon="-5.2219">
        <ele>43.15</ele>
        <time>2021-03-20T00:47:56Z</time>
      </trkpt>
      <trkpt lat="56.29053" lon="-5.22169">
        <ele>43.93</ele>
        <time>2021-03-20T00:47:58Z</time>
      </trkpt>
      <trkpt lat="56.29104" lon="-5.22137">
        <ele>46.17</ele>
        <time>2021-03-20T00:48:00Z</time>
      </trkpt>
      <trkpt lat="56.29257" lon="-5.21962">
        <ele>53.08</ele>
        <time>2021-03-20T00:48:02Z</time>
      </trkpt>
      <trkpt lat="56.29313" lon="-5.21907">
        <ele>52.74</ele>
        <time>2021-03-20T00:48:05Z</time>
      </trkpt>
      <trkpt lat="56.29382" lon="-5.21921">
        <ele>45.16</ele>
        <time>2021-03-20T00:48:07Z</time>
      </trkpt>
      <trkpt lat="56.2945" lon="-5.21943">
        <ele>40.62</ele>
        <time>2021-03-20T00:48:09Z</time>
      </trkpt>
      <trkpt lat="56.2949" lon="-5.2195">
        <ele>38.53</ele>
        <time>2021-03-20T00:48:11Z</time>
      </trkpt>
      <trkpt lat="56.29521" lon="-5.21935">
        <ele>38.26</ele>
        <time>2021-03-20T00:48:14Z</time>
      </trkpt>
      <trkpt lat="56.29562" lon="-5.21894">
        <ele>40.84</ele>
        <time>2021-03-20T00:48:16Z</time>
      </trkpt>
      <trkpt lat="56.29587" lon="-5.21874">
        <ele>41</ele>
        <time>2021-03-20T00:48:18Z</time>
      </trkpt>
      <trkpt lat="56.29609" lon="-5.21865">
        <ele>41</ele>
        <time>2021-03-20T00:48:20Z</time>
      </trkpt>
      <trkpt lat="56.29634" lon="-5.21849">
        <ele>40.18</ele>
        <time>2021-03-20T00:48:23Z</time>
      </trkpt>
      <trkpt lat="56.2967" lon="-5.21811">
        <ele>40</ele>
        <time>2021-03-20T00:48:25Z</time>
      </trkpt>
      <trkpt lat="56.29695" lon="-5.21799">
        <ele>40.01</ele>
        <time>2021-03-20T00:48:27Z</time>
      </trkpt>
      <trkpt lat="56.29736" lon="-5.2179">
        <ele>40.14</ele>
        <time>2021-03-20T00:48:29Z</time>
      </trkpt>
      <trkpt lat="56.29783" lon="-5.21758">
        <ele>40.6</ele>
        <time>2021-03-20T00:48:32Z</time>
      </trkpt>
      <trkpt lat="56.29951" lon="-5.2163">
        <ele>41.31</ele>
        <time>2021-03-20T00:48:34Z</time>
      </trkpt>
      <trkpt lat="56.29982" lon="-5.21604">
        <ele>40.84</ele>
        <time>2021-03-20T00:48:36Z</time>
      </trkpt>
      <trkpt lat="56.30012" lon="-5.21573">
        <ele>41.33</ele>
        <time>2021-03-20T00:48:38Z</time>
      </trkpt>
      <trkpt lat="56.30026" lon="-5.21571">
        <ele>40.98</ele>
        <time>2021-03-20T00:48:41Z</time>
      </trkpt>
      <trkpt lat="56.30143" lon="-5.21617">
        <ele>38.92</ele>
        <time>2021-03-20T00:48:43Z</time>
      </trkpt>
      <trkpt lat="56.30166" lon="-5.21639">
        <ele>38.96</ele>
        <time>2021-03-20T00:48:45Z</time>
      </trkpt>
      <trkpt lat="56.3024" lon="-5.2179">
        <ele>40.99</ele>
        <time>2021-03-20T00:48:47Z</time>
      </trkpt>
      <trkpt lat="56.30265" lon="-5.21821">
        <ele>42.89</ele>
        <time>2021-03-20T00:48:50Z</time>
      </trkpt>
      <trkpt lat="56.30304" lon="-5.21851">
        <ele>43.72</ele>
        <time>2021-03-20T00:48:52Z</time>
      </trkpt>
      <trkpt lat="56.30325" lon="-5.21851">
        <ele>43.74</ele>
        <time>2021-03-20T00:48:54Z</time>
      </trkpt>
      <trkpt lat="56.30351" lon="-5.21864">
        <ele>41.57</ele>
        <time>2021-03-20T00:48:56Z</time>
      </trkpt>
      <trkpt lat="56.30379" lon="-5.21892">
        <ele>39.88</ele>
        <time>2021-03-20T00:48:59Z</time>
      </trkpt>
      <trkpt lat="56.30405" lon="-5.21931">
        <ele>39.05</ele>
        <time>2021-03-20T00:49:01Z</time>
      </trkpt>
      <trkpt lat="56.30438" lon="-5.21996">
        <ele>40.5</ele>
        <time>2021-03-20T00:49:03Z</time>
      </trkpt>
      <trkpt lat="56.30488" lon="-5.22107">
        <ele>40.21</ele>
        <time>2021-03-20T00:49:05Z</time>
      </trkpt>
      <trkpt lat="56.30509" lon="-5.22142">
        <ele>40.54</ele>
        <time>2021-03-20T00:49:08Z</time>
      </trkpt>
      <trkpt lat="56.30539" lon="-5.2218">
        <ele>42.09</ele>
        <time>2021-03-20T00:49:10Z</time>
      </trkpt>
      <trkpt lat="56.30555" lon="-5.22192">
        <ele>42.99</ele>
        <time>2021-03-20T00:49:12Z</time>
      </trkpt>
      <trkpt lat="56.30584" lon="-5.22187">
        <ele>41.99</ele>
        <time>2021-03-20T00:49:14Z</time>
      </trkpt>
      <trkpt lat="56.3061" lon="-5.22176">
        <ele>41.68</ele>
        <time>2021-03-20T00:49:17Z</time>
      </trkpt>
      <trkpt lat="56.30677" lon="-5.22131">
        <ele>41.37</ele>
        <time>2021-03-20T00:49:19Z</time>
      </trkpt>
      <trkpt lat="56.30696" lon="-5.22128">
        <ele>41.86</ele>
        <time>2021-03-20T00:49:21Z</time>
      </trkpt>
      <trkpt lat="56.3074" lon="-5.22147">
        <ele>42.59</ele>
        <time>2021-03-20T00:49:23Z</time>
      </trkpt>
      <trkpt lat="56.30765" lon="-5.22148">
        <ele>43.38</ele>
        <time>2021-03-20T00:49:26Z</time>
      </trkpt>
      <trkpt lat="56.30793" lon="-5.22141">
        <ele>44</ele>
        <time>2021-03-20T00:49:28Z</time>
      </trkpt>
      <trkpt lat="56.30881" lon="-5.22098">
        <ele>41.42</ele>
        <time>2021-03-20T00:49:30Z</time>
      </trkpt>
      <trkpt lat="56.30911" lon="-5.22091">
        <ele>40.51</ele>
        <time>2021-03-20T00:49:32Z</time>
      </trkpt>
      <trkpt lat="56.30939" lon="-5.2208">
        <ele>40.71</ele>
        <time>2021-03-20T00:49:35Z</time>
      </trkpt>
      <trkpt lat="56.30967" lon="-5.2206">
        <ele>42.73</ele>
        <time>2021-03-20T00:49:37Z</time>
      </trkpt>
      <trkpt lat="56.31032" lon="-5.21994">
        <ele>41.55</ele>
        <time>2021-03-20T00:49:39Z</time>
      </trkpt>
      <trkpt lat="56.31063" lon="-5.21968">
        <ele>43.2</ele>
        <time>2021-03-20T00:49:41Z</time>
      </trkpt>
      <trkpt lat="56.31083" lon="-5.21958">
        <ele>44.03</ele>
        <time>2021-03-20T00:49:44Z</time>
      </trkpt>
      <trkpt lat="56.31111" lon="-5.21953">
        <ele>43.37</ele>
        <time>2021-03-20T00:49:46Z</time>
      </trkpt>
      <trkpt lat="56.31165" lon="-5.21972">
        <ele>41.09</ele>
        <time>2021-03-20T00:49:48Z</time>
      </trkpt>
      <trkpt lat="56.31186" lon="-5.21967">
        <ele>42.07</ele>
        <time>2021-03-20T00:49:50Z</time>
      </trkpt>
      <trkpt lat="56.31251" lon="-5.2196">
        <ele>44.97</ele>
        <time>2021-03-20T00:49:53Z</time>
      </trkpt>
      <trkpt lat="56.31309" lon="-5.21936">
        <ele>49.18</ele>
        <time>2021-03-20T00:49:55Z</time>
      </trkpt>
      <trkpt lat="56.31339" lon="-5.21913">
        <ele>49.14</ele>
        <time>2021-03-20T00:49:57Z</time>
      </trkpt>
      <trkpt lat="56.31401" lon="-5.21843">
        <ele>52.67</ele>
        <time>2021-03-20T00:49:59Z</time>
      </trkpt>
      <trkpt lat="56.31421" lon="-5.21801">
        <ele>53.5</ele>
        <time>2021-03-20T00:50:02Z</time>
      </trkpt>
      <trkpt lat="56.31434" lon="-5.21777">
        <ele>53.09</ele>
        <time>2021-03-20T00:50:04Z</time>
      </trkpt>
      <trkpt lat="56.31449" lon="-5.21759">
        <ele>53.35</ele>
        <time>2021-03-20T00:50:06Z</time>
      </trkpt>
      <trkpt lat="56.31485" lon="-5.21762">
        <ele>47.8</ele>
        <time>2021-03-20T00:50:08Z</time>
      </trkpt>
      <trkpt lat="56.31516" lon="-5.21744">
        <ele>48.26</ele>
        <time>2021-03-20T00:50:11Z</time>
      </trkpt>
      <trkpt lat="56.31585" lon="-5.21649">
        <ele>49.47</ele>
        <time>2021-03-20T00:50:13Z</time>
      </trkpt>
      <trkpt lat="56.31597" lon="-5.21627">
        <ele>52.57</ele>
        <time>2021-03-20T00:50:15Z</time>
      </trkpt>
      <trkpt lat="56.31647" lon="-5.21573">
        <ele>53.04</ele>
        <time>2021-03-20T00:50:17Z</time>
      </trkpt>
      <trkpt lat="56.31662" lon="-5.21546">
        <ele>47.74</ele>
        <time>2021-03-20T00:50:20Z</time>
      </trkpt>
      <trkpt lat="56.31677" lon="-5.21501">
        <ele>52.55</ele>
        <time>2021-03-20T00:50:22Z</time>
      </trkpt>
      <trkpt lat="56.31717" lon="-5.21406">
        <ele>55.57</ele>
        <time>2021-03-20T00:50:24Z</time>
      </trkpt>
      <trkpt lat="56.31778" lon="-5.21225">
        <ele>65.57</ele>
        <time>2021-03-20T00:50:26Z</time>
      </trkpt>
      <trkpt lat="56.3184" lon="-5.21086">
        <ele>54.71</ele>
        <time>2021-03-20T00:50:29Z</time>
      </trkpt>
      <trkpt lat="56.31895" lon="-5.20938">
        <ele>55.88</ele>
        <time>2021-03-20T00:50:31Z</time>
      </trkpt>
      <trkpt lat="56.31973" lon="-5.20743">
        <ele>50.31</ele>
        <time>2021-03-20T00:50:33Z</time>
      </trkpt>
      <trkpt lat="56.32029" lon="-5.20624">
        <ele>48.57</ele>
        <time>2021-03-20T00:50:35Z</time>
      </trkpt>
      <trkpt lat="56.32075" lon="-5.20469">
        <ele>47.7</ele>
        <time>2021-03-20T00:50:38Z</time>
      </trkpt>
      <trkpt lat="56.32088" lon="-5.20387">
        <ele>50.06</ele>
        <time>2021-03-20T00:50:40Z</time>
      </trkpt>
      <trkpt lat="56.32111" lon="-5.20318">
        <ele>49.65</ele>
        <time>2021-03-20T00:50:42Z</time>
      </trkpt>
      <trkpt lat="56.32218" lon="-5.20112">
        <ele>48.06</ele>
        <time>2021-03-20T00:50:44Z</time>
      </trkpt>
      <trkpt lat="56.32428" lon="-5.1961">
        <ele>58.08</ele>
        <time>2021-03-20T00:50:47Z</time>
      </trkpt>
      <trkpt lat="56.325" lon="-5.19444">
        <ele>51.27</ele>
        <time>2021-03-20T00:50:49Z</time>
      </trkpt>
      <trkpt lat="56.32614" lon="-5.19168">
        <ele>45.14</ele>
        <time>2021-03-20T00:50:51Z</time>
      </trkpt>
      <trkpt lat="56.32647" lon="-5.19042">
        <ele>48.97</ele>
        <time>2021-03-20T00:50:53Z</time>
      </trkpt>
      <trkpt lat="56.32696" lon="-5.18923">
        <ele>45.02</ele>
        <time>2021-03-20T00:50:56Z</time>
      </trkpt>
      <trkpt lat="56.32726" lon="-5.18809">
        <ele>49.03</ele>
        <time>2021-03-20T00:50:58Z</time>
      </trkpt>
      <trkpt lat="56.32767" lon="-5.18757">
        <ele>46.7</ele>
        <time>2021-03-20T00:51:00Z</time>
      </trkpt>
      <trkpt lat="56.32819" lon="-5.18704">
        <ele>47.79</ele>
        <time>2021-03-20T00:51:02Z</time>
      </trkpt>
      <trkpt lat="56.3284" lon="-5.1868">
        <ele>46.97</ele>
        <time>2021-03-20T00:51:05Z</time>
      </trkpt>
      <trkpt lat="56.32902" lon="-5.18563">
        <ele>48.01</ele>
        <time>2021-03-20T00:51:07Z</time>
      </trkpt>
      <trkpt lat="56.32946" lon="-5.18465">
        <ele>47.64</ele>
        <time>2021-03-20T00:51:09Z</time>
      </trkpt>
      <trkpt lat="56.33013" lon="-5.18351">
        <ele>49.25</ele>
        <time>2021-03-20T00:51:11Z</time>
      </trkpt>
      <trkpt lat="56.33069" lon="-5.18244">
        <ele>49.02</ele>
        <time>2021-03-20T00:51:14Z</time>
      </trkpt>
      <trkpt lat="56.33087" lon="-5.18202">
        <ele>47.95</ele>
        <time>2021-03-20T00:51:16Z</time>
      </trkpt>
      <trkpt lat="56.33109" lon="-5.18163">
        <ele>50.43</ele>
        <time>2021-03-20T00:51:18Z</time>
      </trkpt>
      <trkpt lat="56.33144" lon="-5.18112">
        <ele>47.99</ele>
        <time>2021-03-20T00:51:20Z</time>
      </trkpt>
      <trkpt lat="56.33166" lon="-5.18084">
        <ele>45.15</ele>
        <time>2021-03-20T00:51:23Z</time>
      </trkpt>
      <trkpt lat="56.33281" lon="-5.17875">
        <ele>51.68</ele>
        <time>2021-03-20T00:51:25Z</time>
      </trkpt>
      <trkpt lat="56.33306" lon="-5.17814">
        <ele>51.6</ele>
        <time>2021-03-20T00:51:27Z</time>
      </trkpt>
      <trkpt lat="56.33323" lon="-5.17764">
        <ele>50.53</ele>
        <time>2021-03-20T00:51:29Z</time>
      </trkpt>
      <trkpt lat="56.33328" lon="-5.17724">
        <ele>52.19</ele>
        <time>2021-03-20T00:51:32Z</time>
      </trkpt>
      <trkpt lat="56.33334" lon="-5.17691">
        <ele>53.25</ele>
        <time>2021-03-20T00:51:34Z</time>
      </trkpt>
      <trkpt lat="56.33352" lon="-5.17648">
        <ele>53.49</ele>
        <time>2021-03-20T00:51:36Z</time>
      </trkpt>
      <trkpt lat="56.33377" lon="-5.17599">
        <ele>54.1</ele>
        <time>2021-03-20T00:51:38Z</time>
      </trkpt>
      <trkpt lat="56.3339" lon="-5.17536">
        <ele>57.53</ele>
        <time>2021-03-20T00:51:41Z</time>
      </trkpt>
      <trkpt lat="56.33407" lon="-5.17473">
        <ele>55.03</ele>
        <time>2021-03-20T00:51:43Z</time>
      </trkpt>
      <trkpt lat="56.33419" lon="-5.17424">
        <ele>54.43</ele>
        <time>2021-03-20T00:51:45Z</time>
      </trkpt>
      <trkpt lat="56.33428" lon="-5.17322">
        <ele>57.04</ele>
        <time>2021-03-20T00:51:47Z</time>
      </trkpt>
      <trkpt lat="56.33439" lon="-5.17272">
        <ele>55.2</ele>
        <time>2021-03-20T00:51:50Z</time>
      </trkpt>
      <trkpt lat="56.33479" lon="-5.17176">
        <ele>59.3</ele>
        <time>2021-03-20T00:51:52Z</time>
      </trkpt>
      <trkpt lat="56.33505" lon="-5.17108">
        <ele>65.6</ele>
        <time>2021-03-20T00:51:54Z</time>
      </trkpt>
      <trkpt lat="56.3353" lon="-5.17024">
        <ele>68.26</ele>
        <time>2021-03-20T00:51:56Z</time>
      </trkpt>
      <trkpt lat="56.33543" lon="-5.16966">
        <ele>69.76</ele>
        <time>2021-03-20T00:51:59Z</time>
      </trkpt>
      <trkpt lat="56.33561" lon="-5.16892">
        <ele>69.91</ele>
        <time>2021-03-20T00:52:01Z</time>
      </trkpt>
      <trkpt lat="56.33576" lon="-5.16852">
        <ele>69.58</ele>
        <time>2021-03-20T00:52:03Z</time>
      </trkpt>
      <trkpt lat="56.33599" lon="-5.1682">
        <ele>69.37</ele>
        <time>2021-03-20T00:52:05Z</time>
      </trkpt>
      <trkpt lat="56.33692" lon="-5.16727">
        <ele>60</ele>
        <time>2021-03-20T00:52:08Z</time>
      </trkpt>
      <trkpt lat="56.33738" lon="-5.16687">
        <ele>57.12</ele>
        <time>2021-03-20T00:52:10Z</time>
      </trkpt>
      <trkpt lat="56.33757" lon="-5.16668">
        <ele>56.18</ele>
        <time>2021-03-20T00:52:12Z</time>
      </trkpt>
      <trkpt lat="56.33769" lon="-5.16647">
        <ele>54.59</ele>
        <time>2021-03-20T00:52:14Z</time>
      </trkpt>
      <trkpt lat="56.3378" lon="-5.16617">
        <ele>54.04</ele>
        <time>2021-03-20T00:52:17Z</time>
      </trkpt>
      <trkpt lat="56.33799" lon="-5.16556">
        <ele>54</ele>
        <time>2021-03-20T00:52:19Z</time>
      </trkpt>
      <trkpt lat="56.33813" lon="-5.16538">
        <ele>52.42</ele>
        <time>2021-03-20T00:52:21Z</time>
      </trkpt>
      <trkpt lat="56.33826" lon="-5.16511">
        <ele>53.06</ele>
        <time>2021-03-20T00:52:24Z</time>
      </trkpt>
      <trkpt lat="56.33855" lon="-5.16427">
        <ele>48.44</ele>
        <time>2021-03-20T00:52:26Z</time>
      </trkpt>
      <trkpt lat="56.3387" lon="-5.16376">
        <ele>47.95</ele>
        <time>2021-03-20T00:52:28Z</time>
      </trkpt>
      <trkpt lat="56.33883" lon="-5.16193">
        <ele>44.89</ele>
        <time>2021-03-20T00:52:30Z</time>
      </trkpt>
      <trkpt lat="56.33927" lon="-5.15955">
        <ele>46.9</ele>
        <time>2021-03-20T00:52:33Z</time>
      </trkpt>
      <trkpt lat="56.33947" lon="-5.15836">
        <ele>46.36</ele>
        <time>2021-03-20T00:52:35Z</time>
      </trkpt>
      <trkpt lat="56.33992" lon="-5.15713">
        <ele>46.83</ele>
        <time>2021-03-20T00:52:37Z</time>
      </trkpt>
      <trkpt lat="56.34009" lon="-5.15656">
        <ele>48</ele>
        <time>2021-03-20T00:52:39Z</time>
      </trkpt>
      <trkpt lat="56.34038" lon="-5.15476">
        <ele>51.2</ele>
        <time>2021-03-20T00:52:42Z</time>
      </trkpt>
      <trkpt lat="56.34095" lon="-5.15154">
        <ele>46</ele>
        <time>2021-03-20T00:52:44Z</time>
      </trkpt>
      <trkpt lat="56.34106" lon="-5.15102">
        <ele>48.2</ele>
        <time>2021-03-20T00:52:46Z</time>
      </trkpt>
      <trkpt lat="56.34124" lon="-5.14991">
        <ele>45.2</ele>
        <time>2021-03-20T00:52:48Z</time>
      </trkpt>
      <trkpt lat="56.34136" lon="-5.14931">
        <ele>43.79</ele>
        <time>2021-03-20T00:52:51Z</time>
      </trkpt>
      <trkpt lat="56.34143" lon="-5.14879">
        <ele>46.04</ele>
        <time>2021-03-20T00:52:53Z</time>
      </trkpt>
      <trkpt lat="56.3416" lon="-5.14804">
        <ele>46.19</ele>
        <time>2021-03-20T00:52:55Z</time>
      </trkpt>
      <trkpt lat="56.34197" lon="-5.14595">
        <ele>51.72</ele>
        <time>2021-03-20T00:52:57Z</time>
      </trkpt>
      <trkpt lat="56.3422" lon="-5.14424">
        <ele>46.15</ele>
        <time>2021-03-20T00:53:00Z</time>
      </trkpt>
      <trkpt lat="56.3425" lon="-5.14334">
        <ele>46.08</ele>
        <time>2021-03-20T00:53:02Z</time>
      </trkpt>
      <trkpt lat="56.34267" lon="-5.14243">
        <ele>45.37</ele>
        <time>2021-03-20T00:53:04Z</time>
      </trkpt>
      <trkpt lat="56.34279" lon="-5.14157">
        <ele>43.31</ele>
        <time>2021-03-20T00:53:06Z</time>
      </trkpt>
      <trkpt lat="56.34279" lon="-5.14056">
        <ele>44.96</ele>
        <time>2021-03-20T00:53:09Z</time>
      </trkpt>
      <trkpt lat="56.34286" lon="-5.13968">
        <ele>47.01</ele>
        <time>2021-03-20T00:53:11Z</time>
      </trkpt>
      <trkpt lat="56.34282" lon="-5.13898">
        <ele>52.48</ele>
        <time>2021-03-20T00:53:13Z</time>
      </trkpt>
      <trkpt lat="56.34271" lon="-5.13818">
        <ele>52.24</ele>
        <time>2021-03-20T00:53:15Z</time>
      </trkpt>
      <trkpt lat="56.34238" lon="-5.13652">
        <ele>57.52</ele>
        <time>2021-03-20T00:53:18Z</time>
      </trkpt>
      <trkpt lat="56.34235" lon="-5.13514">
        <ele>57.98</ele>
        <time>2021-03-20T00:53:20Z</time>
      </trkpt>
      <trkpt lat="56.34224" lon="-5.13436">
        <ele>58.81</ele>
        <time>2021-03-20T00:53:22Z</time>
      </trkpt>
      <trkpt lat="56.34193" lon="-5.13245">
        <ele>57.51</ele>
        <time>2021-03-20T00:53:24Z</time>
      </trkpt>
      <trkpt lat="56.34185" lon="-5.13156">
        <ele>59.25</ele>
        <time>2021-03-20T00:53:27Z</time>
      </trkpt>
      <trkpt lat="56.34181" lon="-5.13026">
        <ele>63.23</ele>
        <time>2021-03-20T00:53:29Z</time>
      </trkpt>
      <trkpt lat="56.3419" lon="-5.12969">
        <ele>67.74</ele>
        <time>2021-03-20T00:53:31Z</time>
      </trkpt>
      <trkpt lat="56.34213" lon="-5.12879">
        <ele>75.58</ele>
        <time>2021-03-20T00:53:33Z</time>
      </trkpt>
      <trkpt lat="56.34229" lon="-5.12825">
        <ele>77.53</ele>
        <time>2021-03-20T00:53:36Z</time>
      </trkpt>
      <trkpt lat="56.34238" lon="-5.12783">
        <ele>79.68</ele>
        <time>2021-03-20T00:53:38Z</time>
      </trkpt>
      <trkpt lat="56.3425" lon="-5.12685">
        <ele>86.54</ele>
        <time>2021-03-20T00:53:40Z</time>
      </trkpt>
      <trkpt lat="56.34259" lon="-5.12636">
        <ele>87.71</ele>
        <time>2021-03-20T00:53:42Z</time>
      </trkpt>
      <trkpt lat="56.34265" lon="-5.12597">
        <ele>89.24</ele>
        <time>2021-03-20T00:53:45Z</time>
      </trkpt>
      <trkpt lat="56.34269" lon="-5.12558">
        <ele>93.43</ele>
        <time>2021-03-20T00:53:47Z</time>
      </trkpt>
      <trkpt lat="56.34275" lon="-5.12533">
        <ele>94.48</ele>
        <time>2021-03-20T00:53:49Z</time>
      </trkpt>
      <trkpt lat="56.34309" lon="-5.12416">
        <ele>98.19</ele>
        <time>2021-03-20T00:53:51Z</time>
      </trkpt>
      <trkpt lat="56.34313" lon="-5.12394">
        <ele>100.08</ele>
        <time>2021-03-20T00:53:54Z</time>
      </trkpt>
      <trkpt lat="56.34367" lon="-5.12224">
        <ele>108.28</ele>
        <time>2021-03-20T00:53:56Z</time>
      </trkpt>
      <trkpt lat="56.34385" lon="-5.12147">
        <ele>110.42</ele>
        <time>2021-03-20T00:53:58Z</time>
      </trkpt>
      <trkpt lat="56.34429" lon="-5.11928">
        <ele>117.02</ele>
        <time>2021-03-20T00:54:00Z</time>
      </trkpt>
      <trkpt lat="56.34467" lon="-5.11715">
        <ele>123.24</ele>
        <time>2021-03-20T00:54:03Z</time>
      </trkpt>
      <trkpt lat="56.34479" lon="-5.11684">
        <ele>123.89</ele>
        <time>2021-03-20T00:54:05Z</time>
      </trkpt>
      <trkpt lat="56.345" lon="-5.11652">
        <ele>123.48</ele>
        <time>2021-03-20T00:54:07Z</time>
      </trkpt>
      <trkpt lat="56.34515" lon="-5.11594">
        <ele>125.31</ele>
        <time>2021-03-20T00:54:09Z</time>
      </trkpt>
      <trkpt lat="56.34524" lon="-5.11549">
        <ele>127.71</ele>
        <time>2021-03-20T00:54:12Z</time>
      </trkpt>
      <trkpt lat="56.34536" lon="-5.11474">
        <ele>132.25</ele>
        <time>2021-03-20T00:54:14Z</time>
      </trkpt>
      <trkpt lat="56.34543" lon="-5.11417">
        <ele>135.53</ele>
        <time>2021-03-20T00:54:16Z</time>
      </trkpt>
      <trkpt lat="56.34537" lon="-5.11364">
        <ele>137.6</ele>
        <time>2021-03-20T00:54:18Z</time>
      </trkpt>
      <trkpt lat="56.34527" lon="-5.11323">
        <ele>137.86</ele>
        <time>2021-03-20T00:54:21Z</time>
      </trkpt>
      <trkpt lat="56.34528" lon="-5.11297">
        <ele>137.7</ele>
        <time>2021-03-20T00:54:23Z</time>
      </trkpt>
      <trkpt lat="56.34532" lon="-5.11274">
        <ele>137.15</ele>
        <time>2021-03-20T00:54:25Z</time>
      </trkpt>
      <trkpt lat="56.34541" lon="-5.11238">
        <ele>136.49</ele>
        <time>2021-03-20T00:54:27Z</time>
      </trkpt>
      <trkpt lat="56.34568" lon="-5.1119">
        <ele>134.57</ele>
        <time>2021-03-20T00:54:30Z</time>
      </trkpt>
      <trkpt lat="56.34632" lon="-5.11063">
        <ele>124.55</ele>
        <time>2021-03-20T00:54:32Z</time>
      </trkpt>
      <trkpt lat="56.34672" lon="-5.10875">
        <ele>114.2</ele>
        <time>2021-03-20T00:54:34Z</time>
      </trkpt>
      <trkpt lat="56.34688" lon="-5.1084">
        <ele>112.45</ele>
        <time>2021-03-20T00:54:36Z</time>
      </trkpt>
      <trkpt lat="56.34706" lon="-5.10818">
        <ele>109.45</ele>
        <time>2021-03-20T00:54:39Z</time>
      </trkpt>
      <trkpt lat="56.3471" lon="-5.10779">
        <ele>106.94</ele>
        <time>2021-03-20T00:54:41Z</time>
      </trkpt>
      <trkpt lat="56.34697" lon="-5.10731">
        <ele>104.63</ele>
        <time>2021-03-20T00:54:43Z</time>
      </trkpt>
      <trkpt lat="56.34665" lon="-5.10638">
        <ele>99.9</ele>
        <time>2021-03-20T00:54:45Z</time>
      </trkpt>
      <trkpt lat="56.34628" lon="-5.10477">
        <ele>99.41</ele>
        <time>2021-03-20T00:54:48Z</time>
      </trkpt>
      <trkpt lat="56.34592" lon="-5.10405">
        <ele>98.28</ele>
        <time>2021-03-20T00:54:50Z</time>
      </trkpt>
      <trkpt lat="56.34584" lon="-5.10353">
        <ele>97.68</ele>
        <time>2021-03-20T00:54:52Z</time>
      </trkpt>
      <trkpt lat="56.34569" lon="-5.10215">
        <ele>93.6</ele>
        <time>2021-03-20T00:54:54Z</time>
      </trkpt>
      <trkpt lat="56.34539" lon="-5.10125">
        <ele>88.89</ele>
        <time>2021-03-20T00:54:57Z</time>
      </trkpt>
      <trkpt lat="56.34538" lon="-5.10045">
        <ele>92.2</ele>
        <time>2021-03-20T00:54:59Z</time>
      </trkpt>
      <trkpt lat="56.34548" lon="-5.10013">
        <ele>94.13</ele>
        <time>2021-03-20T00:55:01Z</time>
      </trkpt>
      <trkpt lat="56.34606" lon="-5.09941">
        <ele>88.52</ele>
        <time>2021-03-20T00:55:03Z</time>
      </trkpt>
      <trkpt lat="56.34652" lon="-5.09859">
        <ele>85.89</ele>
        <time>2021-03-20T00:55:06Z</time>
      </trkpt>
      <trkpt lat="56.34684" lon="-5.09815">
        <ele>84.12</ele>
        <time>2021-03-20T00:55:08Z</time>
      </trkpt>
      <trkpt lat="56.34708" lon="-5.09792">
        <ele>82.76</ele>
        <time>2021-03-20T00:55:10Z</time>
      </trkpt>
      <trkpt lat="56.34824" lon="-5.09632">
        <ele>74.28</ele>
        <time>2021-03-20T00:55:12Z</time>
      </trkpt>
      <trkpt lat="56.34863" lon="-5.0957">
        <ele>72.04</ele>
        <time>2021-03-20T00:55:15Z</time>
      </trkpt>
      <trkpt lat="56.34878" lon="-5.09526">
        <ele>71.36</ele>
        <time>2021-03-20T00:55:17Z</time>
      </trkpt>
      <trkpt lat="56.34909" lon="-5.09129">
        <ele>81.47</ele>
        <time>2021-03-20T00:55:19Z</time>
      </trkpt>
      <trkpt lat="56.34926" lon="-5.09024">
        <ele>84.8</ele>
        <time>2021-03-20T00:55:21Z</time>
      </trkpt>
      <trkpt lat="56.34983" lon="-5.08714">
        <ele>84.86</ele>
        <time>2021-03-20T00:55:24Z</time>
      </trkpt>
      <trkpt lat="56.3499" lon="-5.08681">
        <ele>84.86</ele>
        <time>2021-03-20T00:55:26Z</time>
      </trkpt>
      <trkpt lat="56.35012" lon="-5.08635">
        <ele>81.71</ele>
        <time>2021-03-20T00:55:28Z</time>
      </trkpt>
      <trkpt lat="56.35025" lon="-5.08592">
        <ele>81.25</ele>
        <time>2021-03-20T00:55:30Z</time>
      </trkpt>
      <trkpt lat="56.35051" lon="-5.08534">
        <ele>79.46</ele>
        <time>2021-03-20T00:55:33Z</time>
      </trkpt>
      <trkpt lat="56.35056" lon="-5.08505">
        <ele>80.62</ele>
        <time>2021-03-20T00:55:35Z</time>
      </trkpt>
      <trkpt lat="56.35041" lon="-5.08222">
        <ele>85.6</ele>
        <time>2021-03-20T00:55:37Z</time>
      </trkpt>
      <trkpt lat="56.35058" lon="-5.08176">
        <ele>87.17</ele>
        <time>2021-03-20T00:55:40Z</time>
      </trkpt>
      <trkpt lat="56.35091" lon="-5.08197">
        <ele>82.4</ele>
        <time>2021-03-20T00:55:41Z</time>
      </trkpt>
      <trkpt lat="56.35196" lon="-5.0821">
        <ele>70.96</ele>
        <time>2021-03-20T00:55:42Z</time>
      </trkpt>
      <trkpt lat="56.35205" lon="-5.08219">
        <ele>70.6</ele>
        <time>2021-03-20T00:55:43Z</time>
      </trkpt>
      <trkpt lat="56.35225" lon="-5.08253">
        <ele>71</ele>
        <time>2021-03-20T00:55:44Z</time>
      </trkpt>
      <trkpt lat="56.35232" lon="-5.0826">
        <ele>71.01</ele>
        <time>2021-03-20T00:55:45Z</time>
      </trkpt>
      <trkpt lat="56.35248" lon="-5.0826">
        <ele>70.44</ele>
        <time>2021-03-20T00:55:47Z</time>
      </trkpt>
      <trkpt lat="56.35262" lon="-5.08245">
        <ele>69.89</ele>
        <time>2021-03-20T00:55:48Z</time>
      </trkpt>
      <trkpt lat="56.35288" lon="-5.0819">
        <ele>71.15</ele>
        <time>2021-03-20T00:55:49Z</time>
      </trkpt>
      <trkpt lat="56.35315" lon="-5.08018">
        <ele>76.8</ele>
        <time>2021-03-20T00:55:50Z</time>
      </trkpt>
      <trkpt lat="56.35319" lon="-5.07996">
        <ele>77.97</ele>
        <time>2021-03-20T00:55:51Z</time>
      </trkpt>
      <trkpt lat="56.35325" lon="-5.07986">
        <ele>78.38</ele>
        <time>2021-03-20T00:55:52Z</time>
      </trkpt>
      <trkpt lat="56.35331" lon="-5.07981">
        <ele>78.81</ele>
        <time>2021-03-20T00:55:53Z</time>
      </trkpt>
      <trkpt lat="56.35338" lon="-5.07981">
        <ele>79.46</ele>
        <time>2021-03-20T00:55:54Z</time>
      </trkpt>
      <trkpt lat="56.3538" lon="-5.07997">
        <ele>81.15</ele>
        <time>2021-03-20T00:55:55Z</time>
      </trkpt>
      <trkpt lat="56.35401" lon="-5.07995">
        <ele>80.91</ele>
        <time>2021-03-20T00:55:57Z</time>
      </trkpt>
      <trkpt lat="56.35411" lon="-5.07988">
        <ele>81.09</ele>
        <time>2021-03-20T00:55:58Z</time>
      </trkpt>
      <trkpt lat="56.35424" lon="-5.07971">
        <ele>81.59</ele>
        <time>2021-03-20T00:55:59Z</time>
      </trkpt>
      <trkpt lat="56.35435" lon="-5.07956">
        <ele>82.5</ele>
        <time>2021-03-20T00:56:00Z</time>
      </trkpt>
      <trkpt lat="56.3545" lon="-5.07928">
        <ele>83.62</ele>
        <time>2021-03-20T00:56:01Z</time>
      </trkpt>
      <trkpt lat="56.35468" lon="-5.07882">
        <ele>85.69</ele>
        <time>2021-03-20T00:56:02Z</time>
      </trkpt>
      <trkpt lat="56.35472" lon="-5.07865">
        <ele>85.94</ele>
        <time>2021-03-20T00:56:03Z</time>
      </trkpt>
      <trkpt lat="56.35473" lon="-5.07846">
        <ele>87.02</ele>
        <time>2021-03-20T00:56:04Z</time>
      </trkpt>
      <trkpt lat="56.35473" lon="-5.07832">
        <ele>88</ele>
        <time>2021-03-20T00:56:05Z</time>
      </trkpt>
      <trkpt lat="56.35469" lon="-5.07811">
        <ele>88.99</ele>
        <time>2021-03-20T00:56:07Z</time>
      </trkpt>
      <trkpt lat="56.35461" lon="-5.07796">
        <ele>90.36</ele>
        <time>2021-03-20T00:56:08Z</time>
      </trkpt>
      <trkpt lat="56.35475" lon="-5.07769">
        <ele>91.13</ele>
        <time>2021-03-20T00:56:11Z</time>
      </trkpt>
      <trkpt lat="56.35529" lon="-5.07642">
        <ele>96.68</ele>
        <time>2021-03-20T00:56:14Z</time>
      </trkpt>
      <trkpt lat="56.35546" lon="-5.07613">
        <ele>99.82</ele>
        <time>2021-03-20T00:56:17Z</time>
      </trkpt>
      <trkpt lat="56.35564" lon="-5.07595">
        <ele>102</ele>
        <time>2021-03-20T00:56:21Z</time>
      </trkpt>
      <trkpt lat="56.35602" lon="-5.07568">
        <ele>101.29</ele>
        <time>2021-03-20T00:56:24Z</time>
      </trkpt>
      <trkpt lat="56.35633" lon="-5.07539">
        <ele>99.27</ele>
        <time>2021-03-20T00:56:27Z</time>
      </trkpt>
      <trkpt lat="56.35651" lon="-5.07513">
        <ele>97.91</ele>
        <time>2021-03-20T00:56:30Z</time>
      </trkpt>
      <trkpt lat="56.35677" lon="-5.07469">
        <ele>97.21</ele>
        <time>2021-03-20T00:56:34Z</time>
      </trkpt>
      <trkpt lat="56.35696" lon="-5.07441">
        <ele>96.2</ele>
        <time>2021-03-20T00:56:37Z</time>
      </trkpt>
      <trkpt lat="56.3576" lon="-5.07365">
        <ele>92.47</ele>
        <time>2021-03-20T00:56:40Z</time>
      </trkpt>
      <trkpt lat="56.35777" lon="-5.07339">
        <ele>94.43</ele>
        <time>2021-03-20T00:56:44Z</time>
      </trkpt>
      <trkpt lat="56.35791" lon="-5.07312">
        <ele>94.42</ele>
        <time>2021-03-20T00:56:47Z</time>
      </trkpt>
      <trkpt lat="56.35818" lon="-5.07255">
        <ele>93.28</ele>
        <time>2021-03-20T00:56:50Z</time>
      </trkpt>
      <trkpt lat="56.35846" lon="-5.07205">
        <ele>90.63</ele>
        <time>2021-03-20T00:56:53Z</time>
      </trkpt>
      <trkpt lat="56.35861" lon="-5.07185">
        <ele>89.38</ele>
        <time>2021-03-20T00:56:57Z</time>
      </trkpt>
      <trkpt lat="56.35984" lon="-5.07049">
        <ele>90.63</ele>
        <time>2021-03-20T00:57:00Z</time>
      </trkpt>
      <trkpt lat="56.36101" lon="-5.06898">
        <ele>85.64</ele>
        <time>2021-03-20T00:57:03Z</time>
      </trkpt>
      <trkpt lat="56.36145" lon="-5.06836">
        <ele>77.42</ele>
        <time>2021-03-20T00:57:06Z</time>
      </trkpt>
      <trkpt lat="56.36178" lon="-5.06783">
        <ele>74.54</ele>
        <time>2021-03-20T00:57:10Z</time>
      </trkpt>
      <trkpt lat="56.36203" lon="-5.06735">
        <ele>72.88</ele>
        <time>2021-03-20T00:57:13Z</time>
      </trkpt>
      <trkpt lat="56.36284" lon="-5.06545">
        <ele>70.65</ele>
        <time>2021-03-20T00:57:16Z</time>
      </trkpt>
      <trkpt lat="56.36348" lon="-5.0644">
        <ele>67.24</ele>
        <time>2021-03-20T00:57:19Z</time>
      </trkpt>
      <trkpt lat="56.36361" lon="-5.06415">
        <ele>65.1</ele>
        <time>2021-03-20T00:57:23Z</time>
      </trkpt>
      <trkpt lat="56.36374" lon="-5.06379">
        <ele>62.42</ele>
        <time>2021-03-20T00:57:26Z</time>
      </trkpt>
      <trkpt lat="56.36439" lon="-5.06168">
        <ele>49.43</ele>
        <time>2021-03-20T00:57:29Z</time>
      </trkpt>
      <trkpt lat="56.36451" lon="-5.06117">
        <ele>49.17</ele>
        <time>2021-03-20T00:57:33Z</time>
      </trkpt>
      <trkpt lat="56.36464" lon="-5.06038">
        <ele>48.68</ele>
        <time>2021-03-20T00:57:36Z</time>
      </trkpt>
      <trkpt lat="56.36484" lon="-5.05959">
        <ele>45.82</ele>
        <time>2021-03-20T00:57:39Z</time>
      </trkpt>
      <trkpt lat="56.36497" lon="-5.05929">
        <ele>45.04</ele>
        <time>2021-03-20T00:57:42Z</time>
      </trkpt>
      <trkpt lat="56.36507" lon="-5.05912">
        <ele>44.69</ele>
        <time>2021-03-20T00:57:46Z</time>
      </trkpt>
      <trkpt lat="56.36519" lon="-5.05897">
        <ele>44.38</ele>
        <time>2021-03-20T00:57:49Z</time>
      </trkpt>
      <trkpt lat="56.36543" lon="-5.05878">
        <ele>44.4</ele>
        <time>2021-03-20T00:57:52Z</time>
      </trkpt>
      <trkpt lat="56.36558" lon="-5.0587">
        <ele>44.75</ele>
        <time>2021-03-20T00:57:55Z</time>
      </trkpt>
      <trkpt lat="56.36574" lon="-5.05867">
        <ele>45.43</ele>
        <time>2021-03-20T00:57:59Z</time>
      </trkpt>
      <trkpt lat="56.36671" lon="-5.05859">
        <ele>48.29</ele>
        <time>2021-03-20T00:58:02Z</time>
      </trkpt>
      <trkpt lat="56.36734" lon="-5.0586">
        <ele>48.49</ele>
        <time>2021-03-20T00:58:05Z</time>
      </trkpt>
      <trkpt lat="56.36754" lon="-5.05866">
        <ele>48.62</ele>
        <time>2021-03-20T00:58:08Z</time>
      </trkpt>
      <trkpt lat="56.3677" lon="-5.05876">
        <ele>47.94</ele>
        <time>2021-03-20T00:58:12Z</time>
      </trkpt>
      <trkpt lat="56.3683" lon="-5.05925">
        <ele>48.83</ele>
        <time>2021-03-20T00:58:15Z</time>
      </trkpt>
      <trkpt lat="56.36916" lon="-5.05999">
        <ele>51.99</ele>
        <time>2021-03-20T00:58:18Z</time>
      </trkpt>
      <trkpt lat="56.36941" lon="-5.06018">
        <ele>53.09</ele>
        <time>2021-03-20T00:58:21Z</time>
      </trkpt>
      <trkpt lat="56.36959" lon="-5.06026">
        <ele>54.07</ele>
        <time>2021-03-20T00:58:25Z</time>
      </trkpt>
      <trkpt lat="56.36974" lon="-5.0603">
        <ele>54.91</ele>
        <time>2021-03-20T00:58:28Z</time>
      </trkpt>
      <trkpt lat="56.37008" lon="-5.06023">
        <ele>54.5</ele>
        <time>2021-03-20T00:58:31Z</time>
      </trkpt>
      <trkpt lat="56.37023" lon="-5.06013">
        <ele>54.11</ele>
        <time>2021-03-20T00:58:35Z</time>
      </trkpt>
      <trkpt lat="56.37042" lon="-5.05991">
        <ele>52.54</ele>
        <time>2021-03-20T00:58:38Z</time>
      </trkpt>
      <trkpt lat="56.37105" lon="-5.05883">
        <ele>55.14</ele>
        <time>2021-03-20T00:58:41Z</time>
      </trkpt>
      <trkpt lat="56.3712" lon="-5.05853">
        <ele>54.53</ele>
        <time>2021-03-20T00:58:44Z</time>
      </trkpt>
      <trkpt lat="56.37204" lon="-5.05597">
        <ele>57.6</ele>
        <time>2021-03-20T00:58:48Z</time>
      </trkpt>
      <trkpt lat="56.37304" lon="-5.05226">
        <ele>55.16</ele>
        <time>2021-03-20T00:58:51Z</time>
      </trkpt>
      <trkpt lat="56.37322" lon="-5.05139">
        <ele>55.58</ele>
        <time>2021-03-20T00:58:54Z</time>
      </trkpt>
      <trkpt lat="56.37359" lon="-5.04906">
        <ele>61.23</ele>
        <time>2021-03-20T00:58:57Z</time>
      </trkpt>
      <trkpt lat="56.37366" lon="-5.04874">
        <ele>62.36</ele>
        <time>2021-03-20T00:59:01Z</time>
      </trkpt>
      <trkpt lat="56.37385" lon="-5.04818">
        <ele>63.69</ele>
        <time>2021-03-20T00:59:04Z</time>
      </trkpt>
      <trkpt lat="56.37395" lon="-5.04798">
        <ele>64.1</ele>
        <time>2021-03-20T00:59:07Z</time>
      </trkpt>
      <trkpt lat="56.37408" lon="-5.04776">
        <ele>64.35</ele>
        <time>2021-03-20T00:59:10Z</time>
      </trkpt>
      <trkpt lat="56.37426" lon="-5.04755">
        <ele>63.88</ele>
        <time>2021-03-20T00:59:14Z</time>
      </trkpt>
      <trkpt lat="56.37454" lon="-5.04729">
        <ele>64.28</ele>
        <time>2021-03-20T00:59:17Z</time>
      </trkpt>
      <trkpt lat="56.37686" lon="-5.04558">
        <ele>54.21</ele>
        <time>2021-03-20T00:59:20Z</time>
      </trkpt>
      <trkpt lat="56.37933" lon="-5.04365">
        <ele>40.42</ele>
        <time>2021-03-20T00:59:24Z</time>
      </trkpt>
      <trkpt lat="56.37964" lon="-5.04334">
        <ele>39.99</ele>
        <time>2021-03-20T00:59:27Z</time>
      </trkpt>
      <trkpt lat="56.37984" lon="-5.04305">
        <ele>39.58</ele>
        <time>2021-03-20T00:59:30Z</time>
      </trkpt>
      <trkpt lat="56.38002" lon="-5.04267">
        <ele>40</ele>
        <time>2021-03-20T00:59:33Z</time>
      </trkpt>
      <trkpt lat="56.3802" lon="-5.04223">
        <ele>40</ele>
        <time>2021-03-20T00:59:37Z</time>
      </trkpt>
      <trkpt lat="56.38048" lon="-5.04142">
        <ele>40.72</ele>
        <time>2021-03-20T00:59:40Z</time>
      </trkpt>
      <trkpt lat="56.38087" lon="-5.04052">
        <ele>41</ele>
        <time>2021-03-20T00:59:43Z</time>
      </trkpt>
      <trkpt lat="56.38123" lon="-5.03997">
        <ele>42.53</ele>
        <time>2021-03-20T00:59:46Z</time>
      </trkpt>
      <trkpt lat="56.38153" lon="-5.03959">
        <ele>45.52</ele>
        <time>2021-03-20T00:59:50Z</time>
      </trkpt>
      <trkpt lat="56.38186" lon="-5.03928">
        <ele>51.94</ele>
        <time>2021-03-20T00:59:53Z</time>
      </trkpt>
      <trkpt lat="56.38227" lon="-5.039">
        <ele>56.69</ele>
        <time>2021-03-20T00:59:56Z</time>
      </trkpt>
      <trkpt lat="56.38395" lon="-5.03844">
        <ele>48.76</ele>
        <time>2021-03-20T00:59:59Z</time>
      </trkpt>
      <trkpt lat="56.3843" lon="-5.03823">
        <ele>45.06</ele>
        <time>2021-03-20T01:00:03Z</time>
      </trkpt>
      <trkpt lat="56.38496" lon="-5.03777">
        <ele>44.19</ele>
        <time>2021-03-20T01:00:06Z</time>
      </trkpt>
      <trkpt lat="56.38528" lon="-5.03766">
        <ele>43.86</ele>
        <time>2021-03-20T01:00:09Z</time>
      </trkpt>
      <trkpt lat="56.3856" lon="-5.03769">
        <ele>43.48</ele>
        <time>2021-03-20T01:00:13Z</time>
      </trkpt>
      <trkpt lat="56.38582" lon="-5.03785">
        <ele>43.85</ele>
        <time>2021-03-20T01:00:16Z</time>
      </trkpt>
      <trkpt lat="56.386" lon="-5.03805">
        <ele>47.06</ele>
        <time>2021-03-20T01:00:19Z</time>
      </trkpt>
      <trkpt lat="56.38643" lon="-5.03903">
        <ele>53.1</ele>
        <time>2021-03-20T01:00:22Z</time>
      </trkpt>
      <trkpt lat="56.38668" lon="-5.0395">
        <ele>55.9</ele>
        <time>2021-03-20T01:00:26Z</time>
      </trkpt>
      <trkpt lat="56.38697" lon="-5.03984">
        <ele>56.76</ele>
        <time>2021-03-20T01:00:29Z</time>
      </trkpt>
      <trkpt lat="56.38759" lon="-5.04029">
        <ele>58.31</ele>
        <time>2021-03-20T01:00:32Z</time>
      </trkpt>
      <trkpt lat="56.38811" lon="-5.04095">
        <ele>61.34</ele>
        <time>2021-03-20T01:00:35Z</time>
      </trkpt>
      <trkpt lat="56.38869" lon="-5.042">
        <ele>59.67</ele>
        <time>2021-03-20T01:00:39Z</time>
      </trkpt>
      <trkpt lat="56.38953" lon="-5.04371">
        <ele>55.35</ele>
        <time>2021-03-20T01:00:42Z</time>
      </trkpt>
      <trkpt lat="56.38991" lon="-5.0441">
        <ele>60.39</ele>
        <time>2021-03-20T01:00:45Z</time>
      </trkpt>
      <trkpt lat="56.39013" lon="-5.04426">
        <ele>62.98</ele>
        <time>2021-03-20T01:00:48Z</time>
      </trkpt>
      <trkpt lat="56.39038" lon="-5.04439">
        <ele>64.58</ele>
        <time>2021-03-20T01:00:52Z</time>
      </trkpt>
      <trkpt lat="56.39078" lon="-5.04442">
        <ele>62.48</ele>
        <time>2021-03-20T01:00:55Z</time>
      </trkpt>
      <trkpt lat="56.39107" lon="-5.04437">
        <ele>60.02</ele>
        <time>2021-03-20T01:00:58Z</time>
      </trkpt>
      <trkpt lat="56.39145" lon="-5.04412">
        <ele>59.67</ele>
        <time>2021-03-20T01:01:01Z</time>
      </trkpt>
      <trkpt lat="56.39175" lon="-5.04373">
        <ele>58.72</ele>
        <time>2021-03-20T01:01:05Z</time>
      </trkpt>
      <trkpt lat="56.39245" lon="-5.04235">
        <ele>54.65</ele>
        <time>2021-03-20T01:01:08Z</time>
      </trkpt>
      <trkpt lat="56.39298" lon="-5.04124">
        <ele>52.8</ele>
        <time>2021-03-20T01:01:11Z</time>
      </trkpt>
      <trkpt lat="56.39339" lon="-5.0406">
        <ele>47.74</ele>
        <time>2021-03-20T01:01:15Z</time>
      </trkpt>
      <trkpt lat="56.39393" lon="-5.04005">
        <ele>50.94</ele>
        <time>2021-03-20T01:01:18Z</time>
      </trkpt>
      <trkpt lat="56.39523" lon="-5.03943">
        <ele>56.13</ele>
        <time>2021-03-20T01:01:21Z</time>
      </trkpt>
      <trkpt lat="56.39604" lon="-5.03896">
        <ele>55.38</ele>
        <time>2021-03-20T01:01:24Z</time>
      </trkpt>
      <trkpt lat="56.39655" lon="-5.03847">
        <ele>52.03</ele>
        <time>2021-03-20T01:01:28Z</time>
      </trkpt>
      <trkpt lat="56.39697" lon="-5.03774">
        <ele>56.65</ele>
        <time>2021-03-20T01:01:31Z</time>
      </trkpt>
      <trkpt lat="56.39845" lon="-5.03389">
        <ele>42.4</ele>
        <time>2021-03-20T01:01:34Z</time>
      </trkpt>
      <trkpt lat="56.39867" lon="-5.03296">
        <ele>45.11</ele>
        <time>2021-03-20T01:01:37Z</time>
      </trkpt>
      <trkpt lat="56.39879" lon="-5.03201">
        <ele>48.61</ele>
        <time>2021-03-20T01:01:41Z</time>
      </trkpt>
      <trkpt lat="56.39875" lon="-5.02968">
        <ele>48.66</ele>
        <time>2021-03-20T01:01:44Z</time>
      </trkpt>
      <trkpt lat="56.39881" lon="-5.02887">
        <ele>52.45</ele>
        <time>2021-03-20T01:01:47Z</time>
      </trkpt>
      <trkpt lat="56.39907" lon="-5.02769">
        <ele>54.82</ele>
        <time>2021-03-20T01:01:50Z</time>
      </trkpt>
      <trkpt lat="56.39998" lon="-5.0245">
        <ele>49.15</ele>
        <time>2021-03-20T01:01:54Z</time>
      </trkpt>
      <trkpt lat="56.40116" lon="-5.02014">
        <ele>56.73</ele>
        <time>2021-03-20T01:01:57Z</time>
      </trkpt>
      <trkpt lat="56.40155" lon="-5.01923">
        <ele>56.76</ele>
        <time>2021-03-20T01:02:00Z</time>
      </trkpt>
      <trkpt lat="56.40214" lon="-5.01826">
        <ele>56.39</ele>
        <time>2021-03-20T01:02:04Z</time>
      </trkpt>
      <trkpt lat="56.40235" lon="-5.01781">
        <ele>56.36</ele>
        <time>2021-03-20T01:02:07Z</time>
      </trkpt>
      <trkpt lat="56.40254" lon="-5.01737">
        <ele>56.48</ele>
        <time>2021-03-20T01:02:10Z</time>
      </trkpt>
      <trkpt lat="56.40282" lon="-5.01651">
        <ele>55</ele>
        <time>2021-03-20T01:02:13Z</time>
      </trkpt>
      <trkpt lat="56.40311" lon="-5.01545">
        <ele>55.46</ele>
        <time>2021-03-20T01:02:17Z</time>
      </trkpt>
      <trkpt lat="56.4034" lon="-5.01469">
        <ele>51.41</ele>
        <time>2021-03-20T01:02:20Z</time>
      </trkpt>
      <trkpt lat="56.40358" lon="-5.01431">
        <ele>49.19</ele>
        <time>2021-03-20T01:02:23Z</time>
      </trkpt>
      <trkpt lat="56.40381" lon="-5.01393">
        <ele>47.55</ele>
        <time>2021-03-20T01:02:26Z</time>
      </trkpt>
      <trkpt lat="56.40464" lon="-5.01279">
        <ele>46.56</ele>
        <time>2021-03-20T01:02:30Z</time>
      </trkpt>
      <trkpt lat="56.40495" lon="-5.01243">
        <ele>43.53</ele>
        <time>2021-03-20T01:02:33Z</time>
      </trkpt>
      <trkpt lat="56.40516" lon="-5.01235">
        <ele>41.84</ele>
        <time>2021-03-20T01:02:36Z</time>
      </trkpt>
      <trkpt lat="56.40546" lon="-5.01237">
        <ele>40.33</ele>
        <time>2021-03-20T01:02:39Z</time>
      </trkpt>
      <trkpt lat="56.40554" lon="-5.0123">
        <ele>40.04</ele>
        <time>2021-03-20T01:02:43Z</time>
      </trkpt>
      <trkpt lat="56.40673" lon="-5.01564">
        <ele>39</ele>
        <time>2021-03-20T01:02:47Z</time>
      </trkpt>
      <trkpt lat="56.40724" lon="-5.01669">
        <ele>39</ele>
        <time>2021-03-20T01:02:52Z</time>
      </trkpt>
      <trkpt lat="56.40939" lon="-5.02078">
        <ele>40.2</ele>
        <time>2021-03-20T01:02:56Z</time>
      </trkpt>
      <trkpt lat="56.4098" lon="-5.02159">
        <ele>37.74</ele>
        <time>2021-03-20T01:03:00Z</time>
      </trkpt>
      <trkpt lat="56.41003" lon="-5.02217">
        <ele>38</ele>
        <time>2021-03-20T01:03:05Z</time>
      </trkpt>
      <trkpt lat="56.41012" lon="-5.02247">
        <ele>38.4</ele>
        <time>2021-03-20T01:03:09Z</time>
      </trkpt>
      <trkpt lat="56.41028" lon="-5.0231">
        <ele>39</ele>
        <time>2021-03-20T01:03:14Z</time>
      </trkpt>
      <trkpt lat="56.41038" lon="-5.0237">
        <ele>38</ele>
        <time>2021-03-20T01:03:18Z</time>
      </trkpt>
      <trkpt lat="56.41042" lon="-5.0241">
        <ele>38</ele>
        <time>2021-03-20T01:03:22Z</time>
      </trkpt>
      <trkpt lat="56.41045" lon="-5.02472">
        <ele>38</ele>
        <time>2021-03-20T01:03:27Z</time>
      </trkpt>
      <trkpt lat="56.41051" lon="-5.02777">
        <ele>46.82</ele>
        <time>2021-03-20T01:03:31Z</time>
      </trkpt>
      <trkpt lat="56.41049" lon="-5.02817">
        <ele>46.75</ele>
        <time>2021-03-20T01:03:36Z</time>
      </trkpt>
      <trkpt lat="56.41045" lon="-5.02845">
        <ele>47.03</ele>
        <time>2021-03-20T01:03:40Z</time>
      </trkpt>
      <trkpt lat="56.41034" lon="-5.02893">
        <ele>47.56</ele>
        <time>2021-03-20T01:03:44Z</time>
      </trkpt>
      <trkpt lat="56.41016" lon="-5.02941">
        <ele>48.44</ele>
        <time>2021-03-20T01:03:49Z</time>
      </trkpt>
      <trkpt lat="56.40961" lon="-5.03028">
        <ele>50.6</ele>
        <time>2021-03-20T01:03:53Z</time>
      </trkpt>
      <trkpt lat="56.40912" lon="-5.03096">
        <ele>50.36</ele>
        <time>2021-03-20T01:03:58Z</time>
      </trkpt>
      <trkpt lat="56.40891" lon="-5.03121">
        <ele>50.74</ele>
        <time>2021-03-20T01:04:02Z</time>
      </trkpt>
      <trkpt lat="56.40879" lon="-5.03134">
        <ele>51.65</ele>
        <time>2021-03-20T01:04:06Z</time>
      </trkpt>
      <trkpt lat="56.40831" lon="-5.03173">
        <ele>53.55</ele>
        <time>2021-03-20T01:04:11Z</time>
      </trkpt>
      <trkpt lat="56.40678" lon="-5.03369">
        <ele>59.64</ele>
        <time>2021-03-20T01:04:15Z</time>
      </trkpt>
      <trkpt lat="56.40594" lon="-5.03463">
        <ele>55.81</ele>
        <time>2021-03-20T01:04:20Z</time>
      </trkpt>
      <trkpt lat="56.40582" lon="-5.0348">
        <ele>55.17</ele>
        <time>2021-03-20T01:04:24Z</time>
      </trkpt>
      <trkpt lat="56.40544" lon="-5.03548">
        <ele>57.51</ele>
        <time>2021-03-20T01:04:28Z</time>
      </trkpt>
      <trkpt lat="56.40522" lon="-5.03579">
        <ele>58.93</ele>
        <time>2021-03-20T01:04:33Z</time>
      </trkpt>
      <trkpt lat="56.40495" lon="-5.03603">
        <ele>59.07</ele>
        <time>2021-03-20T01:04:37Z</time>
      </trkpt>
      <trkpt lat="56.40457" lon="-5.03628">
        <ele>58.32</ele>
        <time>2021-03-20T01:04:42Z</time>
      </trkpt>
      <trkpt lat="56.40447" lon="-5.03635">
        <ele>58.52</ele>
        <time>2021-03-20T01:04:46Z</time>
      </trkpt>
      <trkpt lat="56.40432" lon="-5.03652">
        <ele>59.73</ele>
        <time>2021-03-20T01:04:50Z</time>
      </trkpt>
      <trkpt lat="56.40418" lon="-5.03679">
        <ele>61.47</ele>
        <time>2021-03-20T01:04:55Z</time>
      </trkpt>
      <trkpt lat="56.40407" lon="-5.03713">
        <ele>61.97</ele>
        <time>2021-03-20T01:04:59Z</time>
      </trkpt>
      <trkpt lat="56.40399" lon="-5.03772">
        <ele>59.22</ele>
        <time>2021-03-20T01:05:04Z</time>
      </trkpt>
      <trkpt lat="56.40389" lon="-5.03886">
        <ele>60.88</ele>
        <time>2021-03-20T01:05:08Z</time>
      </trkpt>
      <trkpt lat="56.40384" lon="-5.03922">
        <ele>62.32</ele>
        <time>2021-03-20T01:05:12Z</time>
      </trkpt>
      <trkpt lat="56.40326" lon="-5.04166">
        <ele>68.38</ele>
        <time>2021-03-20T01:05:17Z</time>
      </trkpt>
      <trkpt lat="56.4031" lon="-5.04213">
        <ele>70.97</ele>
        <time>2021-03-20T01:05:21Z</time>
      </trkpt>
      <trkpt lat="56.403" lon="-5.04233">
        <ele>71.36</ele>
        <time>2021-03-20T01:05:26Z</time>
      </trkpt>
      <trkpt lat="56.4029" lon="-5.04249">
        <ele>71.13</ele>
        <time>2021-03-20T01:05:30Z</time>
      </trkpt>
      <trkpt lat="56.40264" lon="-5.04277">
        <ele>68.56</ele>
        <time>2021-03-20T01:05:34Z</time>
      </trkpt>
      <trkpt lat="56.40253" lon="-5.04285">
        <ele>67.25</ele>
        <time>2021-03-20T01:05:39Z</time>
      </trkpt>
      <trkpt lat="56.40216" lon="-5.04301">
        <ele>62.02</ele>
        <time>2021-03-20T01:05:43Z</time>
      </trkpt>
      <trkpt lat="56.40197" lon="-5.04318">
        <ele>60.73</ele>
        <time>2021-03-20T01:05:48Z</time>
      </trkpt>
      <trkpt lat="56.40182" lon="-5.04337">
        <ele>59.35</ele>
        <time>2021-03-20T01:05:52Z</time>
      </trkpt>
      <trkpt lat="56.40172" lon="-5.04355">
        <ele>58.7</ele>
        <time>2021-03-20T01:05:56Z</time>
      </trkpt>
      <trkpt lat="56.40155" lon="-5.04395">
        <ele>56.41</ele>
        <time>2021-03-20T01:06:01Z</time>
      </trkpt>
      <trkpt lat="56.40132" lon="-5.04433">
        <ele>54.46</ele>
        <time>2021-03-20T01:06:05Z</time>
      </trkpt>
      <trkpt lat="56.40082" lon="-5.04471">
        <ele>49.76</ele>
        <time>2021-03-20T01:06:09Z</time>
      </trkpt>
      <trkpt lat="56.4007" lon="-5.04488">
        <ele>49.16</ele>
        <time>2021-03-20T01:06:14Z</time>
      </trkpt>
      <trkpt lat="56.40036" lon="-5.04554">
        <ele>49.72</ele>
        <time>2021-03-20T01:06:18Z</time>
      </trkpt>
      <trkpt lat="56.39995" lon="-5.04612">
        <ele>51.31</ele>
        <time>2021-03-20T01:06:23Z</time>
      </trkpt>
      <trkpt lat="56.39967" lon="-5.0465">
        <ele>48.68</ele>
        <time>2021-03-20T01:06:27Z</time>
      </trkpt>
      <trkpt lat="56.39946" lon="-5.04699">
        <ele>47.69</ele>
        <time>2021-03-20T01:06:31Z</time>
      </trkpt>
      <trkpt lat="56.39911" lon="-5.04803">
        <ele>49.79</ele>
        <time>2021-03-20T01:06:36Z</time>
      </trkpt>
      <trkpt lat="56.39892" lon="-5.04847">
        <ele>51.99</ele>
        <time>2021-03-20T01:06:40Z</time>
      </trkpt>
      <trkpt lat="56.39836" lon="-5.04925">
        <ele>49.27</ele>
        <time>2021-03-20T01:06:45Z</time>
      </trkpt>
      <trkpt lat="56.39774" lon="-5.05024">
        <ele>51.92</ele>
        <time>2021-03-20T01:06:49Z</time>
      </trkpt>
      <trkpt lat="56.39719" lon="-5.05096">
        <ele>51.72</ele>
        <time>2021-03-20T01:06:53Z</time>
      </trkpt>
      <trkpt lat="56.39689" lon="-5.05143">
        <ele>47.58</ele>
        <time>2021-03-20T01:06:58Z</time>
      </trkpt>
      <trkpt lat="56.3966" lon="-5.05202">
        <ele>49.02</ele>
        <time>2021-03-20T01:07:02Z</time>
      </trkpt>
      <trkpt lat="56.3964" lon="-5.05233">
        <ele>49.42</ele>
        <time>2021-03-20T01:07:07Z</time>
      </trkpt>
      <trkpt lat="56.39629" lon="-5.05258">
        <ele>50.7</ele>
        <time>2021-03-20T01:07:11Z</time>
      </trkpt>
      <trkpt lat="56.39608" lon="-5.05325">
        <ele>54.07</ele>
        <time>2021-03-20T01:07:15Z</time>
      </trkpt>
      <trkpt lat="56.39591" lon="-5.05387">
        <ele>60.51</ele>
        <time>2021-03-20T01:07:20Z</time>
      </trkpt>
      <trkpt lat="56.39551" lon="-5.05486">
        <ele>65.92</ele>
        <time>2021-03-20T01:07:24Z</time>
      </trkpt>
      <trkpt lat="56.39541" lon="-5.05505">
        <ele>67.02</ele>
        <time>2021-03-20T01:07:29Z</time>
      </trkpt>
      <trkpt lat="56.39506" lon="-5.05555">
        <ele>65.94</ele>
        <time>2021-03-20T01:07:33Z</time>
      </trkpt>
      <trkpt lat="56.39442" lon="-5.05662">
        <ele>69.07</ele>
        <time>2021-03-20T01:07:37Z</time>
      </trkpt>
      <trkpt lat="56.39246" lon="-5.05955">
        <ele>66.46</ele>
        <time>2021-03-20T01:07:42Z</time>
      </trkpt>
      <trkpt lat="56.39205" lon="-5.06036">
        <ele>64.69</ele>
        <time>2021-03-20T01:07:46Z</time>
      </trkpt>
      <trkpt lat="56.38977" lon="-5.06531">
        <ele>55.4</ele>
        <time>2021-03-20T01:07:51Z</time>
      </trkpt>
      <trkpt lat="56.38952" lon="-5.06601">
        <ele>52.86</ele>
        <time>2021-03-20T01:07:55Z</time>
      </trkpt>
      <trkpt lat="56.38922" lon="-5.06716">
        <ele>52.94</ele>
        <time>2021-03-20T01:07:59Z</time>
      </trkpt>
      <trkpt lat="56.38922" lon="-5.06716">
        <ele>52.94</ele>
        <time>2021-03-20T01:07:59Z</time>
      </trkpt>
      <trkpt lat="56.38919" lon="-5.06729">
        <ele>53.65</ele>
        <time>2021-03-20T01:08:04Z</time>
      </trkpt>
      <trkpt lat="56.38909" lon="-5.06757">
        <ele>52.43</ele>
        <time>2021-03-20T01:08:09Z</time>
      </trkpt>
      <trkpt lat="56.389" lon="-5.0677">
        <ele>50.36</ele>
        <time>2021-03-20T01:08:13Z</time>
      </trkpt>
      <trkpt lat="56.38878" lon="-5.06796">
        <ele>45.95</ele>
        <time>2021-03-20T01:08:18Z</time>
      </trkpt>
      <trkpt lat="56.3887" lon="-5.06819">
        <ele>44.63</ele>
        <time>2021-03-20T01:08:22Z</time>
      </trkpt>
      <trkpt lat="56.38857" lon="-5.06931">
        <ele>46.29</ele>
        <time>2021-03-20T01:08:27Z</time>
      </trkpt>
      <trkpt lat="56.38829" lon="-5.07097">
        <ele>47.38</ele>
        <time>2021-03-20T01:08:31Z</time>
      </trkpt>
      <trkpt lat="56.3882" lon="-5.07133">
        <ele>46.96</ele>
        <time>2021-03-20T01:08:36Z</time>
      </trkpt>
      <trkpt lat="56.38801" lon="-5.07184">
        <ele>44.8</ele>
        <time>2021-03-20T01:08:41Z</time>
      </trkpt>
      <trkpt lat="56.38794" lon="-5.0721">
        <ele>45.25</ele>
        <time>2021-03-20T01:08:45Z</time>
      </trkpt>
      <trkpt lat="56.38782" lon="-5.07267">
        <ele>44.64</ele>
        <time>2021-03-20T01:08:50Z</time>
      </trkpt>
      <trkpt lat="56.38703" lon="-5.07719">
        <ele>48.22</ele>
        <time>2021-03-20T01:08:54Z</time>
      </trkpt>
      <trkpt lat="56.38695" lon="-5.07777">
        <ele>47.27</ele>
        <time>2021-03-20T01:08:59Z</time>
      </trkpt>
      <trkpt lat="56.38681" lon="-5.07917">
        <ele>54.48</ele>
        <time>2021-03-20T01:09:03Z</time>
      </trkpt>
      <trkpt lat="56.38678" lon="-5.08006">
        <ele>51.32</ele>
        <time>2021-03-20T01:09:08Z</time>
      </trkpt>
      <trkpt lat="56.38685" lon="-5.08554">
        <ele>48.02</ele>
        <time>2021-03-20T01:09:13Z</time>
      </trkpt>
      <trkpt lat="56.3869" lon="-5.08637">
        <ele>47.64</ele>
        <time>2021-03-20T01:09:17Z</time>
      </trkpt>
      <trkpt lat="56.38703" lon="-5.08741">
        <ele>47.24</ele>
        <time>2021-03-20T01:09:22Z</time>
      </trkpt>
      <trkpt lat="56.38713" lon="-5.08791">
        <ele>47.52</ele>
        <time>2021-03-20T01:09:26Z</time>
      </trkpt>
      <trkpt lat="56.38722" lon="-5.0883">
        <ele>47.1</ele>
        <time>2021-03-20T01:09:31Z</time>
      </trkpt>
      <trkpt lat="56.38746" lon="-5.0892">
        <ele>47.03</ele>
        <time>2021-03-20T01:09:35Z</time>
      </trkpt>
      <trkpt lat="56.38765" lon="-5.08981">
        <ele>50.67</ele>
        <time>2021-03-20T01:09:40Z</time>
      </trkpt>
      <trkpt lat="56.38799" lon="-5.09081">
        <ele>52.86</ele>
        <time>2021-03-20T01:09:44Z</time>
      </trkpt>
      <trkpt lat="56.38841" lon="-5.09191">
        <ele>53.42</ele>
        <time>2021-03-20T01:09:49Z</time>
      </trkpt>
      <trkpt lat="56.38864" lon="-5.09255">
        <ele>54.65</ele>
        <time>2021-03-20T01:09:54Z</time>
      </trkpt>
      <trkpt lat="56.38891" lon="-5.09351">
        <ele>58.68</ele>
        <time>2021-03-20T01:09:58Z</time>
      </trkpt>
      <trkpt lat="56.38912" lon="-5.09417">
        <ele>51.08</ele>
        <time>2021-03-20T01:10:03Z</time>
      </trkpt>
      <trkpt lat="56.39008" lon="-5.09673">
        <ele>54.62</ele>
        <time>2021-03-20T01:10:07Z</time>
      </trkpt>
      <trkpt lat="56.39033" lon="-5.09748">
        <ele>53.37</ele>
        <time>2021-03-20T01:10:12Z</time>
      </trkpt>
      <trkpt lat="56.39055" lon="-5.09878">
        <ele>52.45</ele>
        <time>2021-03-20T01:10:16Z</time>
      </trkpt>
      <trkpt lat="56.39081" lon="-5.0998">
        <ele>56.12</ele>
        <time>2021-03-20T01:10:21Z</time>
      </trkpt>
      <trkpt lat="56.39097" lon="-5.10072">
        <ele>55.81</ele>
        <time>2021-03-20T01:10:26Z</time>
      </trkpt>
      <trkpt lat="56.39112" lon="-5.1028">
        <ele>47.48</ele>
        <time>2021-03-20T01:10:30Z</time>
      </trkpt>
      <trkpt lat="56.39139" lon="-5.10466">
        <ele>48.94</ele>
        <time>2021-03-20T01:10:35Z</time>
      </trkpt>
      <trkpt lat="56.3916" lon="-5.10579">
        <ele>49.08</ele>
        <time>2021-03-20T01:10:39Z</time>
      </trkpt>
      <trkpt lat="56.39243" lon="-5.10792">
        <ele>54.3</ele>
        <time>2021-03-20T01:10:44Z</time>
      </trkpt>
      <trkpt lat="56.39298" lon="-5.10983">
        <ele>53.77</ele>
        <time>2021-03-20T01:10:48Z</time>
      </trkpt>
      <trkpt lat="56.39362" lon="-5.11185">
        <ele>49.21</ele>
        <time>2021-03-20T01:10:53Z</time>
      </trkpt>
      <trkpt lat="56.39426" lon="-5.1146">
        <ele>47.08</ele>
        <time>2021-03-20T01:10:58Z</time>
      </trkpt>
      <trkpt lat="56.39455" lon="-5.11575">
        <ele>42.48</ele>
        <time>2021-03-20T01:11:02Z</time>
      </trkpt>
      <trkpt lat="56.39469" lon="-5.11624">
        <ele>44.06</ele>
        <time>2021-03-20T01:11:07Z</time>
      </trkpt>
      <trkpt lat="56.39516" lon="-5.11744">
        <ele>45.62</ele>
        <time>2021-03-20T01:11:11Z</time>
      </trkpt>
      <trkpt lat="56.39527" lon="-5.11788">
        <ele>46.87</ele>
        <time>2021-03-20T01:11:16Z</time>
      </trkpt>
      <trkpt lat="56.39533" lon="-5.11825">
        <ele>49.06</ele>
        <time>2021-03-20T01:11:20Z</time>
      </trkpt>
      <trkpt lat="56.39546" lon="-5.11984">
        <ele>57.43</ele>
        <time>2021-03-20T01:11:25Z</time>
      </trkpt>
      <trkpt lat="56.39551" lon="-5.1215">
        <ele>51.52</ele>
        <time>2021-03-20T01:11:29Z</time>
      </trkpt>
      <trkpt lat="56.3956" lon="-5.1222">
        <ele>64.94</ele>
        <time>2021-03-20T01:11:34Z</time>
      </trkpt>
      <trkpt lat="56.39597" lon="-5.12414">
        <ele>57.89</ele>
        <time>2021-03-20T01:11:39Z</time>
      </trkpt>
      <trkpt lat="56.3963" lon="-5.12566">
        <ele>49.26</ele>
        <time>2021-03-20T01:11:43Z</time>
      </trkpt>
      <trkpt lat="56.39678" lon="-5.12735">
        <ele>47.39</ele>
        <time>2021-03-20T01:11:48Z</time>
      </trkpt>
      <trkpt lat="56.3972" lon="-5.12853">
        <ele>49.01</ele>
        <time>2021-03-20T01:11:52Z</time>
      </trkpt>
      <trkpt lat="56.39772" lon="-5.1299">
        <ele>55.44</ele>
        <time>2021-03-20T01:11:57Z</time>
      </trkpt>
      <trkpt lat="56.39838" lon="-5.1323">
        <ele>57.83</ele>
        <time>2021-03-20T01:12:01Z</time>
      </trkpt>
      <trkpt lat="56.39849" lon="-5.13309">
        <ele>62.11</ele>
        <time>2021-03-20T01:12:06Z</time>
      </trkpt>
      <trkpt lat="56.39855" lon="-5.13504">
        <ele>50.6</ele>
        <time>2021-03-20T01:12:11Z</time>
      </trkpt>
      <trkpt lat="56.39874" lon="-5.13642">
        <ele>46.43</ele>
        <time>2021-03-20T01:12:15Z</time>
      </trkpt>
      <trkpt lat="56.39879" lon="-5.13799">
        <ele>41.68</ele>
        <time>2021-03-20T01:12:20Z</time>
      </trkpt>
      <trkpt lat="56.39895" lon="-5.13885">
        <ele>39.57</ele>
        <time>2021-03-20T01:12:24Z</time>
      </trkpt>
      <trkpt lat="56.39947" lon="-5.14058">
        <ele>44.7</ele>
        <time>2021-03-20T01:12:29Z</time>
      </trkpt>
      <trkpt lat="56.39957" lon="-5.14109">
        <ele>45.96</ele>
        <time>2021-03-20T01:12:33Z</time>
      </trkpt>
      <trkpt lat="56.39997" lon="-5.14432">
        <ele>40.63</ele>
        <time>2021-03-20T01:12:38Z</time>
      </trkpt>
      <trkpt lat="56.40004" lon="-5.14464">
        <ele>42.83</ele>
        <time>2021-03-20T01:12:43Z</time>
      </trkpt>
      <trkpt lat="56.40034" lon="-5.14567">
        <ele>45.03</ele>
        <time>2021-03-20T01:12:47Z</time>
      </trkpt>
      <trkpt lat="56.40069" lon="-5.14721">
        <ele>44.41</ele>
        <time>2021-03-20T01:12:52Z</time>
      </trkpt>
      <trkpt lat="56.40083" lon="-5.14774">
        <ele>44.13</ele>
        <time>2021-03-20T01:12:56Z</time>
      </trkpt>
      <trkpt lat="56.40134" lon="-5.14903">
        <ele>42.85</ele>
        <time>2021-03-20T01:13:01Z</time>
      </trkpt>
      <trkpt lat="56.40151" lon="-5.14955">
        <ele>41.54</ele>
        <time>2021-03-20T01:13:05Z</time>
      </trkpt>
      <trkpt lat="56.40163" lon="-5.15011">
        <ele>42.09</ele>
        <time>2021-03-20T01:13:10Z</time>
      </trkpt>
      <trkpt lat="56.40182" lon="-5.15121">
        <ele>41.44</ele>
        <time>2021-03-20T01:13:14Z</time>
      </trkpt>
      <trkpt lat="56.4028" lon="-5.15392">
        <ele>45.08</ele>
        <time>2021-03-20T01:13:19Z</time>
      </trkpt>
      <trkpt lat="56.40367" lon="-5.15571">
        <ele>43.91</ele>
        <time>2021-03-20T01:13:24Z</time>
      </trkpt>
      <trkpt lat="56.40409" lon="-5.15661">
        <ele>45.65</ele>
        <time>2021-03-20T01:13:28Z</time>
      </trkpt>
      <trkpt lat="56.40458" lon="-5.15781">
        <ele>44.88</ele>
        <time>2021-03-20T01:13:33Z</time>
      </trkpt>
      <trkpt lat="56.40503" lon="-5.15935">
        <ele>45.6</ele>
        <time>2021-03-20T01:13:37Z</time>
      </trkpt>
      <trkpt lat="56.40689" lon="-5.16277">
        <ele>43.33</ele>
        <time>2021-03-20T01:13:42Z</time>
      </trkpt>
      <trkpt lat="56.40843" lon="-5.16584">
        <ele>42.99</ele>
        <time>2021-03-20T01:13:46Z</time>
      </trkpt>
      <trkpt lat="56.40887" lon="-5.1667">
        <ele>44.36</ele>
        <time>2021-03-20T01:13:51Z</time>
      </trkpt>
      <trkpt lat="56.41121" lon="-5.17075">
        <ele>40.32</ele>
        <time>2021-03-20T01:13:56Z</time>
      </trkpt>
      <trkpt lat="56.41237" lon="-5.17252">
        <ele>40.87</ele>
        <time>2021-03-20T01:14:00Z</time>
      </trkpt>
      <trkpt lat="56.41273" lon="-5.17312">
        <ele>43.02</ele>
        <time>2021-03-20T01:14:05Z</time>
      </trkpt>
      <trkpt lat="56.41305" lon="-5.17415">
        <ele>39.04</ele>
        <time>2021-03-20T01:14:09Z</time>
      </trkpt>
      <trkpt lat="56.41331" lon="-5.1757">
        <ele>37.55</ele>
        <time>2021-03-20T01:14:14Z</time>
      </trkpt>
      <trkpt lat="56.41447" lon="-5.17931">
        <ele>44.23</ele>
        <time>2021-03-20T01:14:18Z</time>
      </trkpt>
      <trkpt lat="56.41549" lon="-5.18174">
        <ele>43.43</ele>
        <time>2021-03-20T01:14:23Z</time>
      </trkpt>
      <trkpt lat="56.41611" lon="-5.18434">
        <ele>44.96</ele>
        <time>2021-03-20T01:14:28Z</time>
      </trkpt>
      <trkpt lat="56.41691" lon="-5.18686">
        <ele>33.59</ele>
        <time>2021-03-20T01:14:32Z</time>
      </trkpt>
      <trkpt lat="56.41776" lon="-5.18938">
        <ele>27.95</ele>
        <time>2021-03-20T01:14:37Z</time>
      </trkpt>
      <trkpt lat="56.41833" lon="-5.19086">
        <ele>26.88</ele>
        <time>2021-03-20T01:14:41Z</time>
      </trkpt>
      <trkpt lat="56.4185" lon="-5.19123">
        <ele>26.5</ele>
        <time>2021-03-20T01:14:46Z</time>
      </trkpt>
      <trkpt lat="56.41865" lon="-5.19148">
        <ele>26</ele>
        <time>2021-03-20T01:14:50Z</time>
      </trkpt>
      <trkpt lat="56.41932" lon="-5.19218">
        <ele>25.07</ele>
        <time>2021-03-20T01:14:55Z</time>
      </trkpt>
      <trkpt lat="56.41949" lon="-5.19244">
        <ele>24.4</ele>
        <time>2021-03-20T01:14:59Z</time>
      </trkpt>
      <trkpt lat="56.41962" lon="-5.19268">
        <ele>24.62</ele>
        <time>2021-03-20T01:15:04Z</time>
      </trkpt>
      <trkpt lat="56.41983" lon="-5.19329">
        <ele>24.39</ele>
        <time>2021-03-20T01:15:09Z</time>
      </trkpt>
      <trkpt lat="56.41994" lon="-5.19383">
        <ele>22.21</ele>
        <time>2021-03-20T01:15:13Z</time>
      </trkpt>
      <trkpt lat="56.42013" lon="-5.1952">
        <ele>28.72</ele>
        <time>2021-03-20T01:15:18Z</time>
      </trkpt>
      <trkpt lat="56.42023" lon="-5.19562">
        <ele>31.79</ele>
        <time>2021-03-20T01:15:22Z</time>
      </trkpt>
      <trkpt lat="56.42036" lon="-5.19606">
        <ele>33.54</ele>
        <time>2021-03-20T01:15:27Z</time>
      </trkpt>
      <trkpt lat="56.42097" lon="-5.19749">
        <ele>39.43</ele>
        <time>2021-03-20T01:15:31Z</time>
      </trkpt>
      <trkpt lat="56.42115" lon="-5.19826">
        <ele>40.72</ele>
        <time>2021-03-20T01:15:36Z</time>
      </trkpt>
      <trkpt lat="56.42132" lon="-5.19928">
        <ele>43.6</ele>
        <time>2021-03-20T01:15:41Z</time>
      </trkpt>
      <trkpt lat="56.42148" lon="-5.20015">
        <ele>43.9</ele>
        <time>2021-03-20T01:15:45Z</time>
      </trkpt>
      <trkpt lat="56.42167" lon="-5.20096">
        <ele>44.86</ele>
        <time>2021-03-20T01:15:50Z</time>
      </trkpt>
      <trkpt lat="56.42211" lon="-5.2017">
        <ele>47.72</ele>
        <time>2021-03-20T01:15:54Z</time>
      </trkpt>
      <trkpt lat="56.42259" lon="-5.20215">
        <ele>50.03</ele>
        <time>2021-03-20T01:15:59Z</time>
      </trkpt>
      <trkpt lat="56.4232" lon="-5.20242">
        <ele>46.56</ele>
        <time>2021-03-20T01:16:03Z</time>
      </trkpt>
      <trkpt lat="56.42365" lon="-5.20301">
        <ele>48.2</ele>
        <time>2021-03-20T01:16:08Z</time>
      </trkpt>
      <trkpt lat="56.42507" lon="-5.20521">
        <ele>47.83</ele>
        <time>2021-03-20T01:16:13Z</time>
      </trkpt>
      <trkpt lat="56.42589" lon="-5.20694">
        <ele>52.46</ele>
        <time>2021-03-20T01:16:17Z</time>
      </trkpt>
      <trkpt lat="56.42613" lon="-5.20735">
        <ele>51.06</ele>
        <time>2021-03-20T01:16:22Z</time>
      </trkpt>
      <trkpt lat="56.42632" lon="-5.20762">
        <ele>50.49</ele>
        <time>2021-03-20T01:16:26Z</time>
      </trkpt>
      <trkpt lat="56.42665" lon="-5.20799">
        <ele>48.4</ele>
        <time>2021-03-20T01:16:31Z</time>
      </trkpt>
      <trkpt lat="56.427" lon="-5.20824">
        <ele>45.76</ele>
        <time>2021-03-20T01:16:35Z</time>
      </trkpt>
      <trkpt lat="56.42868" lon="-5.20904">
        <ele>33.49</ele>
        <time>2021-03-20T01:16:40Z</time>
      </trkpt>
      <trkpt lat="56.42925" lon="-5.20959">
        <ele>29.51</ele>
        <time>2021-03-20T01:16:44Z</time>
      </trkpt>
      <trkpt lat="56.4298" lon="-5.21051">
        <ele>28.94</ele>
        <time>2021-03-20T01:16:49Z</time>
      </trkpt>
      <trkpt lat="56.43025" lon="-5.21167">
        <ele>24.74</ele>
        <time>2021-03-20T01:16:54Z</time>
      </trkpt>
      <trkpt lat="56.43182" lon="-5.21684">
        <ele>24.61</ele>
        <time>2021-03-20T01:16:58Z</time>
      </trkpt>
      <trkpt lat="56.43198" lon="-5.2175">
        <ele>27.65</ele>
        <time>2021-03-20T01:17:03Z</time>
      </trkpt>
      <trkpt lat="56.43198" lon="-5.21819">
        <ele>29.74</ele>
        <time>2021-03-20T01:17:07Z</time>
      </trkpt>
      <trkpt lat="56.43194" lon="-5.21862">
        <ele>28.98</ele>
        <time>2021-03-20T01:17:12Z</time>
      </trkpt>
      <trkpt lat="56.43184" lon="-5.21899">
        <ele>27.63</ele>
        <time>2021-03-20T01:17:16Z</time>
      </trkpt>
      <trkpt lat="56.43129" lon="-5.22076">
        <ele>25.94</ele>
        <time>2021-03-20T01:17:21Z</time>
      </trkpt>
      <trkpt lat="56.43072" lon="-5.22205">
        <ele>22.39</ele>
        <time>2021-03-20T01:17:26Z</time>
      </trkpt>
      <trkpt lat="56.42976" lon="-5.22294">
        <ele>21.72</ele>
        <time>2021-03-20T01:17:30Z</time>
      </trkpt>
      <trkpt lat="56.42868" lon="-5.22375">
        <ele>21.06</ele>
        <time>2021-03-20T01:17:35Z</time>
      </trkpt>
      <trkpt lat="56.42772" lon="-5.22514">
        <ele>21.62</ele>
        <time>2021-03-20T01:17:39Z</time>
      </trkpt>
      <trkpt lat="56.42693" lon="-5.22635">
        <ele>21.6</ele>
        <time>2021-03-20T01:17:44Z</time>
      </trkpt>
      <trkpt lat="56.42647" lon="-5.22712">
        <ele>20.84</ele>
        <time>2021-03-20T01:17:48Z</time>
      </trkpt>
      <trkpt lat="56.42629" lon="-5.22755">
        <ele>20.59</ele>
        <time>2021-03-20T01:17:53Z</time>
      </trkpt>
      <trkpt lat="56.42618" lon="-5.22793">
        <ele>20.65</ele>
        <time>2021-03-20T01:17:58Z</time>
      </trkpt>
      <trkpt lat="56.42615" lon="-5.22813">
        <ele>20.37</ele>
        <time>2021-03-20T01:18:02Z</time>
      </trkpt>
      <trkpt lat="56.42611" lon="-5.22875">
        <ele>20</ele>
        <time>2021-03-20T01:18:07Z</time>
      </trkpt>
      <trkpt lat="56.42613" lon="-5.22941">
        <ele>19.15</ele>
        <time>2021-03-20T01:18:11Z</time>
      </trkpt>
      <trkpt lat="56.42629" lon="-5.23077">
        <ele>20.69</ele>
        <time>2021-03-20T01:18:16Z</time>
      </trkpt>
      <trkpt lat="56.42648" lon="-5.23201">
        <ele>20.07</ele>
        <time>2021-03-20T01:18:20Z</time>
      </trkpt>
      <trkpt lat="56.4265" lon="-5.23218">
        <ele>19.58</ele>
        <time>2021-03-20T01:18:25Z</time>
      </trkpt>
      <trkpt lat="56.42665" lon="-5.23273">
        <ele>19.36</ele>
        <time>2021-03-20T01:18:29Z</time>
      </trkpt>
      <trkpt lat="56.42665" lon="-5.23273">
        <ele>19.36</ele>
        <time>2021-03-20T01:18:29Z</time>
      </trkpt>
      <trkpt lat="56.42677" lon="-5.23315">
        <ele>19.36</ele>
        <time>2021-03-20T01:18:35Z</time>
      </trkpt>
      <trkpt lat="56.42855" lon="-5.23816">
        <ele>24.77</ele>
        <time>2021-03-20T01:18:40Z</time>
      </trkpt>
      <trkpt lat="56.4289" lon="-5.23909">
        <ele>22.29</ele>
        <time>2021-03-20T01:18:46Z</time>
      </trkpt>
      <trkpt lat="56.42948" lon="-5.2405">
        <ele>20.87</ele>
        <time>2021-03-20T01:18:51Z</time>
      </trkpt>
      <trkpt lat="56.42981" lon="-5.24139">
        <ele>20</ele>
        <time>2021-03-20T01:18:57Z</time>
      </trkpt>
      <trkpt lat="56.43026" lon="-5.24266">
        <ele>20.18</ele>
        <time>2021-03-20T01:19:02Z</time>
      </trkpt>
      <trkpt lat="56.43037" lon="-5.24308">
        <ele>19.35</ele>
        <time>2021-03-20T01:19:08Z</time>
      </trkpt>
      <trkpt lat="56.43052" lon="-5.24425">
        <ele>18.13</ele>
        <time>2021-03-20T01:19:13Z</time>
      </trkpt>
      <trkpt lat="56.4306" lon="-5.24462">
        <ele>18.63</ele>
        <time>2021-03-20T01:19:18Z</time>
      </trkpt>
      <trkpt lat="56.43078" lon="-5.24519">
        <ele>19.68</ele>
        <time>2021-03-20T01:19:24Z</time>
      </trkpt>
      <trkpt lat="56.43115" lon="-5.24603">
        <ele>20</ele>
        <time>2021-03-20T01:19:29Z</time>
      </trkpt>
      <trkpt lat="56.43126" lon="-5.24632">
        <ele>19.59</ele>
        <time>2021-03-20T01:19:35Z</time>
      </trkpt>
      <trkpt lat="56.43147" lon="-5.24698">
        <ele>17.72</ele>
        <time>2021-03-20T01:19:40Z</time>
      </trkpt>
      <trkpt lat="56.43161" lon="-5.24772">
        <ele>15.56</ele>
        <time>2021-03-20T01:19:46Z</time>
      </trkpt>
      <trkpt lat="56.43197" lon="-5.24981">
        <ele>11.9</ele>
        <time>2021-03-20T01:19:51Z</time>
      </trkpt>
      <trkpt lat="56.43275" lon="-5.25202">
        <ele>13.68</ele>
        <time>2021-03-20T01:19:57Z</time>
      </trkpt>
      <trkpt lat="56.43314" lon="-5.25352">
        <ele>13.04</ele>
        <time>2021-03-20T01:20:02Z</time>
      </trkpt>
      <trkpt lat="56.43348" lon="-5.25482">
        <ele>19.46</ele>
        <time>2021-03-20T01:20:07Z</time>
      </trkpt>
      <trkpt lat="56.43374" lon="-5.25545">
        <ele>22.67</ele>
        <time>2021-03-20T01:20:13Z</time>
      </trkpt>
      <trkpt lat="56.43414" lon="-5.25597">
        <ele>22.29</ele>
        <time>2021-03-20T01:20:18Z</time>
      </trkpt>
      <trkpt lat="56.43498" lon="-5.25688">
        <ele>26.82</ele>
        <time>2021-03-20T01:20:24Z</time>
      </trkpt>
      <trkpt lat="56.43585" lon="-5.25828">
        <ele>28.76</ele>
        <time>2021-03-20T01:20:29Z</time>
      </trkpt>
      <trkpt lat="56.43604" lon="-5.25878">
        <ele>30.88</ele>
        <time>2021-03-20T01:20:35Z</time>
      </trkpt>
      <trkpt lat="56.43618" lon="-5.25937">
        <ele>32.73</ele>
        <time>2021-03-20T01:20:40Z</time>
      </trkpt>
      <trkpt lat="56.43678" lon="-5.26471">
        <ele>31.58</ele>
        <time>2021-03-20T01:20:46Z</time>
      </trkpt>
      <trkpt lat="56.43697" lon="-5.26626">
        <ele>35.65</ele>
        <time>2021-03-20T01:20:51Z</time>
      </trkpt>
      <trkpt lat="56.43706" lon="-5.26684">
        <ele>35.37</ele>
        <time>2021-03-20T01:20:56Z</time>
      </trkpt>
      <trkpt lat="56.43727" lon="-5.26779">
        <ele>36.92</ele>
        <time>2021-03-20T01:21:02Z</time>
      </trkpt>
      <trkpt lat="56.43737" lon="-5.26812">
        <ele>37.97</ele>
        <time>2021-03-20T01:21:07Z</time>
      </trkpt>
      <trkpt lat="56.4375" lon="-5.26841">
        <ele>39.24</ele>
        <time>2021-03-20T01:21:13Z</time>
      </trkpt>
      <trkpt lat="56.43768" lon="-5.26867">
        <ele>37.64</ele>
        <time>2021-03-20T01:21:18Z</time>
      </trkpt>
      <trkpt lat="56.43847" lon="-5.26964">
        <ele>35.15</ele>
        <time>2021-03-20T01:21:24Z</time>
      </trkpt>
      <trkpt lat="56.43869" lon="-5.26994">
        <ele>36.54</ele>
        <time>2021-03-20T01:21:29Z</time>
      </trkpt>
      <trkpt lat="56.43877" lon="-5.27018">
        <ele>35.84</ele>
        <time>2021-03-20T01:21:35Z</time>
      </trkpt>
      <trkpt lat="56.43883" lon="-5.27049">
        <ele>34.81</ele>
        <time>2021-03-20T01:21:40Z</time>
      </trkpt>
      <trkpt lat="56.43884" lon="-5.27089">
        <ele>32.42</ele>
        <time>2021-03-20T01:21:46Z</time>
      </trkpt>
      <trkpt lat="56.43873" lon="-5.27203">
        <ele>33.48</ele>
        <time>2021-03-20T01:21:51Z</time>
      </trkpt>
      <trkpt lat="56.43864" lon="-5.27247">
        <ele>35.33</ele>
        <time>2021-03-20T01:21:56Z</time>
      </trkpt>
      <trkpt lat="56.43862" lon="-5.27288">
        <ele>36.58</ele>
        <time>2021-03-20T01:22:02Z</time>
      </trkpt>
      <trkpt lat="56.43865" lon="-5.27322">
        <ele>37.71</ele>
        <time>2021-03-20T01:22:07Z</time>
      </trkpt>
      <trkpt lat="56.43874" lon="-5.27352">
        <ele>40.39</ele>
        <time>2021-03-20T01:22:13Z</time>
      </trkpt>
      <trkpt lat="56.43889" lon="-5.27387">
        <ele>42</ele>
        <time>2021-03-20T01:22:18Z</time>
      </trkpt>
      <trkpt lat="56.439" lon="-5.27402">
        <ele>44.18</ele>
        <time>2021-03-20T01:22:24Z</time>
      </trkpt>
      <trkpt lat="56.4394" lon="-5.27431">
        <ele>46.42</ele>
        <time>2021-03-20T01:22:29Z</time>
      </trkpt>
      <trkpt lat="56.43968" lon="-5.27455">
        <ele>46.1</ele>
        <time>2021-03-20T01:22:35Z</time>
      </trkpt>
      <trkpt lat="56.44018" lon="-5.2751">
        <ele>39.32</ele>
        <time>2021-03-20T01:22:40Z</time>
      </trkpt>
      <trkpt lat="56.44061" lon="-5.27543">
        <ele>30.82</ele>
        <time>2021-03-20T01:22:45Z</time>
      </trkpt>
      <trkpt lat="56.44127" lon="-5.27579">
        <ele>31.11</ele>
        <time>2021-03-20T01:22:51Z</time>
      </trkpt>
      <trkpt lat="56.44147" lon="-5.27595">
        <ele>30.16</ele>
        <time>2021-03-20T01:22:56Z</time>
      </trkpt>
      <trkpt lat="56.44162" lon="-5.27612">
        <ele>28.99</ele>
        <time>2021-03-20T01:23:02Z</time>
      </trkpt>
      <trkpt lat="56.44179" lon="-5.27639">
        <ele>31.81</ele>
        <time>2021-03-20T01:23:07Z</time>
      </trkpt>
      <trkpt lat="56.44195" lon="-5.27681">
        <ele>35.98</ele>
        <time>2021-03-20T01:23:13Z</time>
      </trkpt>
      <trkpt lat="56.44217" lon="-5.27741">
        <ele>35.01</ele>
        <time>2021-03-20T01:23:18Z</time>
      </trkpt>
      <trkpt lat="56.44259" lon="-5.27872">
        <ele>29.61</ele>
        <time>2021-03-20T01:23:24Z</time>
      </trkpt>
      <trkpt lat="56.44274" lon="-5.27965">
        <ele>29.79</ele>
        <time>2021-03-20T01:23:29Z</time>
      </trkpt>
      <trkpt lat="56.44277" lon="-5.2801">
        <ele>30.36</ele>
        <time>2021-03-20T01:23:34Z</time>
      </trkpt>
      <trkpt lat="56.44275" lon="-5.28057">
        <ele>30.94</ele>
        <time>2021-03-20T01:23:40Z</time>
      </trkpt>
      <trkpt lat="56.4427" lon="-5.28099">
        <ele>30</ele>
        <time>2021-03-20T01:23:45Z</time>
      </trkpt>
      <trkpt lat="56.44205" lon="-5.28459">
        <ele>28.51</ele>
        <time>2021-03-20T01:23:51Z</time>
      </trkpt>
      <trkpt lat="56.4419" lon="-5.28503">
        <ele>28.1</ele>
        <time>2021-03-20T01:23:56Z</time>
      </trkpt>
      <trkpt lat="56.44017" lon="-5.2884">
        <ele>23.33</ele>
        <time>2021-03-20T01:24:02Z</time>
      </trkpt>
      <trkpt lat="56.43981" lon="-5.2892">
        <ele>21.93</ele>
        <time>2021-03-20T01:24:07Z</time>
      </trkpt>
      <trkpt lat="56.43969" lon="-5.28999">
        <ele>22.24</ele>
        <time>2021-03-20T01:24:13Z</time>
      </trkpt>
      <trkpt lat="56.4398" lon="-5.2934">
        <ele>22.42</ele>
        <time>2021-03-20T01:24:18Z</time>
      </trkpt>
      <trkpt lat="56.43996" lon="-5.29517">
        <ele>24.67</ele>
        <time>2021-03-20T01:24:23Z</time>
      </trkpt>
      <trkpt lat="56.44167" lon="-5.30466">
        <ele>50.49</ele>
        <time>2021-03-20T01:24:29Z</time>
      </trkpt>
      <trkpt lat="56.4422" lon="-5.30728">
        <ele>45.31</ele>
        <time>2021-03-20T01:24:34Z</time>
      </trkpt>
      <trkpt lat="56.4427" lon="-5.30943">
        <ele>46.05</ele>
        <time>2021-03-20T01:24:40Z</time>
      </trkpt>
      <trkpt lat="56.44318" lon="-5.31136">
        <ele>40.6</ele>
        <time>2021-03-20T01:24:45Z</time>
      </trkpt>
      <trkpt lat="56.44371" lon="-5.3133">
        <ele>37.01</ele>
        <time>2021-03-20T01:24:51Z</time>
      </trkpt>
      <trkpt lat="56.44524" lon="-5.31799">
        <ele>30.69</ele>
        <time>2021-03-20T01:24:56Z</time>
      </trkpt>
      <trkpt lat="56.4469" lon="-5.32067">
        <ele>27.56</ele>
        <time>2021-03-20T01:25:02Z</time>
      </trkpt>
      <trkpt lat="56.44727" lon="-5.32141">
        <ele>27.66</ele>
        <time>2021-03-20T01:25:07Z</time>
      </trkpt>
      <trkpt lat="56.44812" lon="-5.32351">
        <ele>18.32</ele>
        <time>2021-03-20T01:25:12Z</time>
      </trkpt>
      <trkpt lat="56.44829" lon="-5.32398">
        <ele>14.95</ele>
        <time>2021-03-20T01:25:18Z</time>
      </trkpt>
      <trkpt lat="56.44805" lon="-5.32661">
        <ele>7.22</ele>
        <time>2021-03-20T01:25:36Z</time>
      </trkpt>
      <trkpt lat="56.448" lon="-5.32682">
        <ele>8.54</ele>
        <time>2021-03-20T01:25:55Z</time>
      </trkpt>
      <trkpt lat="56.44805" lon="-5.32695">
        <ele>8.04</ele>
        <time>2021-03-20T01:26:04Z</time>
      </trkpt>
      <trkpt lat="56.44821" lon="-5.32715">
        <ele>7.43</ele>
        <time>2021-03-20T01:26:13Z</time>
      </trkpt>
      <trkpt lat="56.44856" lon="-5.32751">
        <ele>7.59</ele>
        <time>2021-03-20T01:26:22Z</time>
      </trkpt>
      <trkpt lat="56.4487" lon="-5.32778">
        <ele>6.75</ele>
        <time>2021-03-20T01:26:31Z</time>
      </trkpt>
      <trkpt lat="56.44895" lon="-5.32846">
        <ele>5.41</ele>
        <time>2021-03-20T01:26:41Z</time>
      </trkpt>
      <trkpt lat="56.44929" lon="-5.32933">
        <ele>4.72</ele>
        <time>2021-03-20T01:26:50Z</time>
      </trkpt>
      <trkpt lat="56.44937" lon="-5.32969">
        <ele>5.4</ele>
        <time>2021-03-20T01:26:59Z</time>
      </trkpt>
      <trkpt lat="56.44953" lon="-5.33055">
        <ele>6.66</ele>
        <time>2021-03-20T01:27:08Z</time>
      </trkpt>
      <trkpt lat="56.44968" lon="-5.33094">
        <ele>7.15</ele>
        <time>2021-03-20T01:27:17Z</time>
      </trkpt>
      <trkpt lat="56.4497" lon="-5.33107">
        <ele>7.07</ele>
        <time>2021-03-20T01:27:26Z</time>
      </trkpt>
      <trkpt lat="56.4497" lon="-5.33107">
        <ele>7.07</ele>
        <time>2021-03-20T01:27:26Z</time>
      </trkpt>
      <trkpt lat="56.44968" lon="-5.33094">
        <ele>7.15</ele>
        <time>2021-03-20T01:27:36Z</time>
      </trkpt>
      <trkpt lat="56.44953" lon="-5.33055">
        <ele>6.66</ele>
        <time>2021-03-20T01:27:45Z</time>
      </trkpt>
      <trkpt lat="56.44937" lon="-5.32969">
        <ele>5.4</ele>
        <time>2021-03-20T01:27:54Z</time>
      </trkpt>
      <trkpt lat="56.44929" lon="-5.32933">
        <ele>4.72</ele>
        <time>2021-03-20T01:28:03Z</time>
      </trkpt>
      <trkpt lat="56.44895" lon="-5.32846">
        <ele>5.41</ele>
        <time>2021-03-20T01:28:12Z</time>
      </trkpt>
      <trkpt lat="56.4487" lon="-5.32778">
        <ele>6.75</ele>
        <time>2021-03-20T01:28:21Z</time>
      </trkpt>
      <trkpt lat="56.44856" lon="-5.32751">
        <ele>7.59</ele>
        <time>2021-03-20T01:28:31Z</time>
      </trkpt>
      <trkpt lat="56.44821" lon="-5.32715">
        <ele>7.43</ele>
        <time>2021-03-20T01:28:40Z</time>
      </trkpt>
      <trkpt lat="56.44805" lon="-5.32695">
        <ele>8.04</ele>
        <time>2021-03-20T01:28:49Z</time>
      </trkpt>
      <trkpt lat="56.448" lon="-5.32682">
        <ele>8.54</ele>
        <time>2021-03-20T01:28:58Z</time>
      </trkpt>
      <trkpt lat="56.44805" lon="-5.32661">
        <ele>7.22</ele>
        <time>2021-03-20T01:29:17Z</time>
      </trkpt>
      <trkpt lat="56.44829" lon="-5.32398">
        <ele>14.95</ele>
        <time>2021-03-20T01:29:35Z</time>
      </trkpt>
      <trkpt lat="56.44841" lon="-5.32428">
        <ele>11.81</ele>
        <time>2021-03-20T01:29:39Z</time>
      </trkpt>
      <trkpt lat="56.44966" lon="-5.32772">
        <ele>3.79</ele>
        <time>2021-03-20T01:29:44Z</time>
      </trkpt>
      <trkpt lat="56.4498" lon="-5.32822">
        <ele>3</ele>
        <time>2021-03-20T01:29:48Z</time>
      </trkpt>
      <trkpt lat="56.44997" lon="-5.32895">
        <ele>0.79</ele>
        <time>2021-03-20T01:29:53Z</time>
      </trkpt>
      <trkpt lat="56.45015" lon="-5.32964">
        <ele>0.86</ele>
        <time>2021-03-20T01:29:57Z</time>
      </trkpt>
      <trkpt lat="56.45031" lon="-5.33007">
        <ele>1</ele>
        <time>2021-03-20T01:30:02Z</time>
      </trkpt>
      <trkpt lat="56.45052" lon="-5.3305">
        <ele>1</ele>
        <time>2021-03-20T01:30:06Z</time>
      </trkpt>
      <trkpt lat="56.45075" lon="-5.33083">
        <ele>3.68</ele>
        <time>2021-03-20T01:30:11Z</time>
      </trkpt>
      <trkpt lat="56.45183" lon="-5.33169">
        <ele>3.56</ele>
        <time>2021-03-20T01:30:15Z</time>
      </trkpt>
      <trkpt lat="56.45212" lon="-5.33199">
        <ele>5.35</ele>
        <time>2021-03-20T01:30:20Z</time>
      </trkpt>
      <trkpt lat="56.4524" lon="-5.33254">
        <ele>6.69</ele>
        <time>2021-03-20T01:30:24Z</time>
      </trkpt>
      <trkpt lat="56.45252" lon="-5.33306">
        <ele>6.74</ele>
        <time>2021-03-20T01:30:28Z</time>
      </trkpt>
      <trkpt lat="56.45259" lon="-5.33384">
        <ele>7.08</ele>
        <time>2021-03-20T01:30:33Z</time>
      </trkpt>
      <trkpt lat="56.45254" lon="-5.33444">
        <ele>4.7</ele>
        <time>2021-03-20T01:30:37Z</time>
      </trkpt>
      <trkpt lat="56.45218" lon="-5.3357">
        <ele>10.95</ele>
        <time>2021-03-20T01:30:42Z</time>
      </trkpt>
      <trkpt lat="56.45205" lon="-5.33652">
        <ele>15.08</ele>
        <time>2021-03-20T01:30:46Z</time>
      </trkpt>
      <trkpt lat="56.45202" lon="-5.33771">
        <ele>12.67</ele>
        <time>2021-03-20T01:30:51Z</time>
      </trkpt>
      <trkpt lat="56.45209" lon="-5.33832">
        <ele>11.42</ele>
        <time>2021-03-20T01:30:55Z</time>
      </trkpt>
      <trkpt lat="56.45222" lon="-5.3388">
        <ele>10.61</ele>
        <time>2021-03-20T01:31:00Z</time>
      </trkpt>
      <trkpt lat="56.45252" lon="-5.33918">
        <ele>9.85</ele>
        <time>2021-03-20T01:31:04Z</time>
      </trkpt>
      <trkpt lat="56.45293" lon="-5.33942">
        <ele>6.22</ele>
        <time>2021-03-20T01:31:09Z</time>
      </trkpt>
      <trkpt lat="56.45448" lon="-5.3397">
        <ele>1.8</ele>
        <time>2021-03-20T01:31:13Z</time>
      </trkpt>
      <trkpt lat="56.45511" lon="-5.33997">
        <ele>1</ele>
        <time>2021-03-20T01:31:18Z</time>
      </trkpt>
      <trkpt lat="56.45558" lon="-5.34038">
        <ele>5.62</ele>
        <time>2021-03-20T01:31:22Z</time>
      </trkpt>
      <trkpt lat="56.45612" lon="-5.34118">
        <ele>8.59</ele>
        <time>2021-03-20T01:31:26Z</time>
      </trkpt>
      <trkpt lat="56.45735" lon="-5.34366">
        <ele>15.28</ele>
        <time>2021-03-20T01:31:31Z</time>
      </trkpt>
      <trkpt lat="56.45774" lon="-5.34546">
        <ele>9.18</ele>
        <time>2021-03-20T01:31:35Z</time>
      </trkpt>
      <trkpt lat="56.458" lon="-5.34648">
        <ele>5.44</ele>
        <time>2021-03-20T01:31:40Z</time>
      </trkpt>
      <trkpt lat="56.45848" lon="-5.34744">
        <ele>8.54</ele>
        <time>2021-03-20T01:31:44Z</time>
      </trkpt>
      <trkpt lat="56.45905" lon="-5.34806">
        <ele>6.44</ele>
        <time>2021-03-20T01:31:49Z</time>
      </trkpt>
      <trkpt lat="56.4593" lon="-5.34867">
        <ele>8.4</ele>
        <time>2021-03-20T01:31:53Z</time>
      </trkpt>
      <trkpt lat="56.45939" lon="-5.34942">
        <ele>9.43</ele>
        <time>2021-03-20T01:31:58Z</time>
      </trkpt>
      <trkpt lat="56.45941" lon="-5.3499">
        <ele>7.34</ele>
        <time>2021-03-20T01:32:02Z</time>
      </trkpt>
      <trkpt lat="56.45932" lon="-5.35049">
        <ele>8.42</ele>
        <time>2021-03-20T01:32:07Z</time>
      </trkpt>
      <trkpt lat="56.45816" lon="-5.35396">
        <ele>12.08</ele>
        <time>2021-03-20T01:32:11Z</time>
      </trkpt>
      <trkpt lat="56.45707" lon="-5.35629">
        <ele>11.02</ele>
        <time>2021-03-20T01:32:16Z</time>
      </trkpt>
      <trkpt lat="56.45606" lon="-5.35914">
        <ele>9.3</ele>
        <time>2021-03-20T01:32:20Z</time>
      </trkpt>
      <trkpt lat="56.45587" lon="-5.35996">
        <ele>10.54</ele>
        <time>2021-03-20T01:32:24Z</time>
      </trkpt>
      <trkpt lat="56.45575" lon="-5.36149">
        <ele>5.39</ele>
        <time>2021-03-20T01:32:29Z</time>
      </trkpt>
      <trkpt lat="56.45547" lon="-5.36281">
        <ele>5.51</ele>
        <time>2021-03-20T01:32:33Z</time>
      </trkpt>
      <trkpt lat="56.45456" lon="-5.36499">
        <ele>8.27</ele>
        <time>2021-03-20T01:32:38Z</time>
      </trkpt>
      <trkpt lat="56.45439" lon="-5.36553">
        <ele>8.17</ele>
        <time>2021-03-20T01:32:42Z</time>
      </trkpt>
      <trkpt lat="56.45429" lon="-5.36631">
        <ele>10.02</ele>
        <time>2021-03-20T01:32:47Z</time>
      </trkpt>
      <trkpt lat="56.45445" lon="-5.36842">
        <ele>9.69</ele>
        <time>2021-03-20T01:32:51Z</time>
      </trkpt>
      <trkpt lat="56.45462" lon="-5.36938">
        <ele>8.23</ele>
        <time>2021-03-20T01:32:56Z</time>
      </trkpt>
      <trkpt lat="56.45473" lon="-5.3703">
        <ele>15.01</ele>
        <time>2021-03-20T01:33:00Z</time>
      </trkpt>
      <trkpt lat="56.45475" lon="-5.37109">
        <ele>13.27</ele>
        <time>2021-03-20T01:33:05Z</time>
      </trkpt>
      <trkpt lat="56.45467" lon="-5.37192">
        <ele>9.69</ele>
        <time>2021-03-20T01:33:09Z</time>
      </trkpt>
      <trkpt lat="56.45439" lon="-5.37341">
        <ele>8.1</ele>
        <time>2021-03-20T01:33:13Z</time>
      </trkpt>
      <trkpt lat="56.45401" lon="-5.37459">
        <ele>7.42</ele>
        <time>2021-03-20T01:33:18Z</time>
      </trkpt>
      <trkpt lat="56.45393" lon="-5.37493">
        <ele>7.7</ele>
        <time>2021-03-20T01:33:22Z</time>
      </trkpt>
      <trkpt lat="56.45387" lon="-5.37538">
        <ele>9.06</ele>
        <time>2021-03-20T01:33:27Z</time>
      </trkpt>
      <trkpt lat="56.45383" lon="-5.37647">
        <ele>5.59</ele>
        <time>2021-03-20T01:33:31Z</time>
      </trkpt>
      <trkpt lat="56.4538" lon="-5.37783">
        <ele>3.12</ele>
        <time>2021-03-20T01:33:36Z</time>
      </trkpt>
      <trkpt lat="56.45381" lon="-5.3787">
        <ele>3.81</ele>
        <time>2021-03-20T01:33:40Z</time>
      </trkpt>
      <trkpt lat="56.45362" lon="-5.38135">
        <ele>12.78</ele>
        <time>2021-03-20T01:33:45Z</time>
      </trkpt>
      <trkpt lat="56.45364" lon="-5.38218">
        <ele>12.67</ele>
        <time>2021-03-20T01:33:49Z</time>
      </trkpt>
      <trkpt lat="56.45359" lon="-5.38222">
        <ele>13.27</ele>
        <time>2021-03-20T01:33:54Z</time>
      </trkpt>
      <trkpt lat="56.45352" lon="-5.38222">
        <ele>13.94</ele>
        <time>2021-03-20T01:33:58Z</time>
      </trkpt>
      <trkpt lat="56.45348" lon="-5.38228">
        <ele>14.26</ele>
        <time>2021-03-20T01:34:03Z</time>
      </trkpt>
      <trkpt lat="56.45282" lon="-5.38492">
        <ele>8.14</ele>
        <time>2021-03-20T01:34:07Z</time>
      </trkpt>
      <trkpt lat="56.45271" lon="-5.38558">
        <ele>8.82</ele>
        <time>2021-03-20T01:34:12Z</time>
      </trkpt>
      <trkpt lat="56.45272" lon="-5.38566">
        <ele>9.15</ele>
        <time>2021-03-20T01:34:17Z</time>
      </trkpt>
      <trkpt lat="56.45291" lon="-5.38589">
        <ele>11.6</ele>
        <time>2021-03-20T01:34:21Z</time>
      </trkpt>
      <trkpt lat="56.45305" lon="-5.38583">
        <ele>11.98</ele>
        <time>2021-03-20T01:34:27Z</time>
      </trkpt>
      <trkpt lat="56.45335" lon="-5.38579">
        <ele>11.3</ele>
        <time>2021-03-20T01:34:32Z</time>
      </trkpt>
      <trkpt lat="56.45382" lon="-5.38576">
        <ele>8.42</ele>
        <time>2021-03-20T01:34:37Z</time>
      </trkpt>
      <trkpt lat="56.45454" lon="-5.38587">
        <ele>4.83</ele>
        <time>2021-03-20T01:34:43Z</time>
      </trkpt>
      <trkpt lat="56.45468" lon="-5.38635">
        <ele>5.58</ele>
        <time>2021-03-20T01:34:48Z</time>
      </trkpt>
      <trkpt lat="56.45473" lon="-5.38673">
        <ele>7.01</ele>
        <time>2021-03-20T01:34:54Z</time>
      </trkpt>
      <trkpt lat="56.45475" lon="-5.38737">
        <ele>7.94</ele>
        <time>2021-03-20T01:34:59Z</time>
      </trkpt>
      <trkpt lat="56.45481" lon="-5.38802">
        <ele>8.64</ele>
        <time>2021-03-20T01:35:04Z</time>
      </trkpt>
      <trkpt lat="56.45508" lon="-5.3895">
        <ele>12.18</ele>
        <time>2021-03-20T01:35:10Z</time>
      </trkpt>
      <trkpt lat="56.4551" lon="-5.39002">
        <ele>11.44</ele>
        <time>2021-03-20T01:35:15Z</time>
      </trkpt>
      <trkpt lat="56.45509" lon="-5.3904">
        <ele>11.17</ele>
        <time>2021-03-20T01:35:20Z</time>
      </trkpt>
      <trkpt lat="56.45487" lon="-5.39196">
        <ele>5.39</ele>
        <time>2021-03-20T01:35:26Z</time>
      </trkpt>
      <trkpt lat="56.45476" lon="-5.39354">
        <ele>3.8</ele>
        <time>2021-03-20T01:35:31Z</time>
      </trkpt>
      <trkpt lat="56.45469" lon="-5.39396">
        <ele>3.05</ele>
        <time>2021-03-20T01:35:36Z</time>
      </trkpt>
      <trkpt lat="56.45461" lon="-5.39416">
        <ele>2.82</ele>
        <time>2021-03-20T01:35:42Z</time>
      </trkpt>
      <trkpt lat="56.45446" lon="-5.39442">
        <ele>2.98</ele>
        <time>2021-03-20T01:35:47Z</time>
      </trkpt>
      <trkpt lat="56.45395" lon="-5.39489">
        <ele>3.81</ele>
        <time>2021-03-20T01:35:52Z</time>
      </trkpt>
      <trkpt lat="56.45342" lon="-5.39545">
        <ele>4.36</ele>
        <time>2021-03-20T01:35:58Z</time>
      </trkpt>
      <trkpt lat="56.45297" lon="-5.39597">
        <ele>2.91</ele>
        <time>2021-03-20T01:36:03Z</time>
      </trkpt>
      <trkpt lat="56.45248" lon="-5.39659">
        <ele>5.81</ele>
        <time>2021-03-20T01:36:09Z</time>
      </trkpt>
      <trkpt lat="56.45225" lon="-5.39708">
        <ele>3.81</ele>
        <time>2021-03-20T01:36:14Z</time>
      </trkpt>
      <trkpt lat="56.45179" lon="-5.39837">
        <ele>9.18</ele>
        <time>2021-03-20T01:36:19Z</time>
      </trkpt>
      <trkpt lat="56.45165" lon="-5.3987">
        <ele>10.13</ele>
        <time>2021-03-20T01:36:25Z</time>
      </trkpt>
      <trkpt lat="56.45104" lon="-5.40074">
        <ele>19.89</ele>
        <time>2021-03-20T01:36:30Z</time>
      </trkpt>
      <trkpt lat="56.45087" lon="-5.40141">
        <ele>21</ele>
        <time>2021-03-20T01:36:35Z</time>
      </trkpt>
      <trkpt lat="56.45075" lon="-5.40223">
        <ele>23.65</ele>
        <time>2021-03-20T01:36:41Z</time>
      </trkpt>
      <trkpt lat="56.45071" lon="-5.40278">
        <ele>24.44</ele>
        <time>2021-03-20T01:36:46Z</time>
      </trkpt>
      <trkpt lat="56.45073" lon="-5.40328">
        <ele>24</ele>
        <time>2021-03-20T01:36:51Z</time>
      </trkpt>
      <trkpt lat="56.45082" lon="-5.4044">
        <ele>21.17</ele>
        <time>2021-03-20T01:36:57Z</time>
      </trkpt>
      <trkpt lat="56.45082" lon="-5.40489">
        <ele>17.84</ele>
        <time>2021-03-20T01:37:02Z</time>
      </trkpt>
      <trkpt lat="56.45077" lon="-5.40538">
        <ele>13.41</ele>
        <time>2021-03-20T01:37:08Z</time>
      </trkpt>
      <trkpt lat="56.4506" lon="-5.40663">
        <ele>4.52</ele>
        <time>2021-03-20T01:37:13Z</time>
      </trkpt>
      <trkpt lat="56.44998" lon="-5.41021">
        <ele>5.74</ele>
        <time>2021-03-20T01:37:18Z</time>
      </trkpt>
      <trkpt lat="56.44968" lon="-5.41399">
        <ele>3.2</ele>
        <time>2021-03-20T01:37:24Z</time>
      </trkpt>
      <trkpt lat="56.4492" lon="-5.41963">
        <ele>4.6</ele>
        <time>2021-03-20T01:37:29Z</time>
      </trkpt>
      <trkpt lat="56.44919" lon="-5.42028">
        <ele>5.91</ele>
        <time>2021-03-20T01:37:34Z</time>
      </trkpt>
      <trkpt lat="56.44922" lon="-5.42056">
        <ele>5.82</ele>
        <time>2021-03-20T01:37:40Z</time>
      </trkpt>
      <trkpt lat="56.44935" lon="-5.42118">
        <ele>6.35</ele>
        <time>2021-03-20T01:37:45Z</time>
      </trkpt>
      <trkpt lat="56.44959" lon="-5.42184">
        <ele>6.11</ele>
        <time>2021-03-20T01:37:50Z</time>
      </trkpt>
      <trkpt lat="56.44997" lon="-5.42265">
        <ele>6.93</ele>
        <time>2021-03-20T01:37:56Z</time>
      </trkpt>
      <trkpt lat="56.45019" lon="-5.42335">
        <ele>8.04</ele>
        <time>2021-03-20T01:38:01Z</time>
      </trkpt>
      <trkpt lat="56.45024" lon="-5.42371">
        <ele>8.27</ele>
        <time>2021-03-20T01:38:07Z</time>
      </trkpt>
      <trkpt lat="56.45025" lon="-5.4243">
        <ele>8.49</ele>
        <time>2021-03-20T01:38:12Z</time>
      </trkpt>
      <trkpt lat="56.4502" lon="-5.42519">
        <ele>6.11</ele>
        <time>2021-03-20T01:38:17Z</time>
      </trkpt>
      <trkpt lat="56.45003" lon="-5.42738">
        <ele>6.05</ele>
        <time>2021-03-20T01:38:23Z</time>
      </trkpt>
      <trkpt lat="56.44998" lon="-5.42695">
        <ele>7.27</ele>
        <time>2021-03-20T01:38:28Z</time>
      </trkpt>
      <trkpt lat="56.44981" lon="-5.42725">
        <ele>8.83</ele>
        <time>2021-03-20T01:38:34Z</time>
      </trkpt>
      <trkpt lat="56.44981" lon="-5.42725">
        <ele>8.83</ele>
        <time>2021-03-20T01:38:34Z</time>
      </trkpt>
      <trkpt lat="56.44998" lon="-5.42695">
        <ele>7.27</ele>
        <time>2021-03-20T01:38:39Z</time>
      </trkpt>
      <trkpt lat="56.45003" lon="-5.42738">
        <ele>6.05</ele>
        <time>2021-03-20T01:38:45Z</time>
      </trkpt>
      <trkpt lat="56.4499" lon="-5.42825">
        <ele>6.76</ele>
        <time>2021-03-20T01:38:48Z</time>
      </trkpt>
      <trkpt lat="56.44939" lon="-5.43018">
        <ele>14.92</ele>
        <time>2021-03-20T01:38:51Z</time>
      </trkpt>
      <trkpt lat="56.44849" lon="-5.43177">
        <ele>15.51</ele>
        <time>2021-03-20T01:38:54Z</time>
      </trkpt>
      <trkpt lat="56.44771" lon="-5.43301">
        <ele>11.41</ele>
        <time>2021-03-20T01:38:57Z</time>
      </trkpt>
      <trkpt lat="56.44689" lon="-5.4353">
        <ele>14.93</ele>
        <time>2021-03-20T01:39:00Z</time>
      </trkpt>
      <trkpt lat="56.44653" lon="-5.43621">
        <ele>13.55</ele>
        <time>2021-03-20T01:39:04Z</time>
      </trkpt>
      <trkpt lat="56.44587" lon="-5.43805">
        <ele>14.47</ele>
        <time>2021-03-20T01:39:07Z</time>
      </trkpt>
      <trkpt lat="56.44485" lon="-5.44015">
        <ele>16.49</ele>
        <time>2021-03-20T01:39:10Z</time>
      </trkpt>
      <trkpt lat="56.44444" lon="-5.44116">
        <ele>19.81</ele>
        <time>2021-03-20T01:39:13Z</time>
      </trkpt>
      <trkpt lat="56.44383" lon="-5.44242">
        <ele>20.73</ele>
        <time>2021-03-20T01:39:16Z</time>
      </trkpt>
      <trkpt lat="56.4435" lon="-5.44296">
        <ele>17.92</ele>
        <time>2021-03-20T01:39:19Z</time>
      </trkpt>
      <trkpt lat="56.44256" lon="-5.44403">
        <ele>16.91</ele>
        <time>2021-03-20T01:39:22Z</time>
      </trkpt>
      <trkpt lat="56.44146" lon="-5.44536">
        <ele>11.64</ele>
        <time>2021-03-20T01:39:25Z</time>
      </trkpt>
      <trkpt lat="56.44125" lon="-5.44571">
        <ele>9.39</ele>
        <time>2021-03-20T01:39:28Z</time>
      </trkpt>
      <trkpt lat="56.44106" lon="-5.4465">
        <ele>8.59</ele>
        <time>2021-03-20T01:39:32Z</time>
      </trkpt>
      <trkpt lat="56.44098" lon="-5.44732">
        <ele>10.06</ele>
        <time>2021-03-20T01:39:35Z</time>
      </trkpt>
      <trkpt lat="56.44091" lon="-5.44782">
        <ele>9.67</ele>
        <time>2021-03-20T01:39:38Z</time>
      </trkpt>
      <trkpt lat="56.44077" lon="-5.44831">
        <ele>8.36</ele>
        <time>2021-03-20T01:39:41Z</time>
      </trkpt>
      <trkpt lat="56.44047" lon="-5.4489">
        <ele>8.52</ele>
        <time>2021-03-20T01:39:44Z</time>
      </trkpt>
      <trkpt lat="56.44011" lon="-5.44916">
        <ele>11.33</ele>
        <time>2021-03-20T01:39:47Z</time>
      </trkpt>
      <trkpt lat="56.43943" lon="-5.44953">
        <ele>14.23</ele>
        <time>2021-03-20T01:39:50Z</time>
      </trkpt>
      <trkpt lat="56.43888" lon="-5.45004">
        <ele>14.7</ele>
        <time>2021-03-20T01:39:53Z</time>
      </trkpt>
      <trkpt lat="56.43767" lon="-5.4508">
        <ele>22.63</ele>
        <time>2021-03-20T01:39:57Z</time>
      </trkpt>
      <trkpt lat="56.43735" lon="-5.45111">
        <ele>21.75</ele>
        <time>2021-03-20T01:40:00Z</time>
      </trkpt>
      <trkpt lat="56.43694" lon="-5.4517">
        <ele>21.75</ele>
        <time>2021-03-20T01:40:03Z</time>
      </trkpt>
      <trkpt lat="56.4367" lon="-5.45201">
        <ele>22.78</ele>
        <time>2021-03-20T01:40:06Z</time>
      </trkpt>
      <trkpt lat="56.43645" lon="-5.45215">
        <ele>22.56</ele>
        <time>2021-03-20T01:40:09Z</time>
      </trkpt>
      <trkpt lat="56.43621" lon="-5.45225">
        <ele>22.44</ele>
        <time>2021-03-20T01:40:12Z</time>
      </trkpt>
      <trkpt lat="56.43542" lon="-5.4524">
        <ele>25.25</ele>
        <time>2021-03-20T01:40:15Z</time>
      </trkpt>
      <trkpt lat="56.43464" lon="-5.45275">
        <ele>28.64</ele>
        <time>2021-03-20T01:40:18Z</time>
      </trkpt>
      <trkpt lat="56.43418" lon="-5.4531">
        <ele>31.13</ele>
        <time>2021-03-20T01:40:21Z</time>
      </trkpt>
      <trkpt lat="56.43376" lon="-5.45358">
        <ele>34.2</ele>
        <time>2021-03-20T01:40:25Z</time>
      </trkpt>
      <trkpt lat="56.43322" lon="-5.45401">
        <ele>37.63</ele>
        <time>2021-03-20T01:40:28Z</time>
      </trkpt>
      <trkpt lat="56.43246" lon="-5.4543">
        <ele>42.44</ele>
        <time>2021-03-20T01:40:31Z</time>
      </trkpt>
      <trkpt lat="56.43221" lon="-5.45451">
        <ele>44.16</ele>
        <time>2021-03-20T01:40:34Z</time>
      </trkpt>
      <trkpt lat="56.43197" lon="-5.45477">
        <ele>45.63</ele>
        <time>2021-03-20T01:40:37Z</time>
      </trkpt>
      <trkpt lat="56.43177" lon="-5.45509">
        <ele>47.04</ele>
        <time>2021-03-20T01:40:40Z</time>
      </trkpt>
      <trkpt lat="56.43158" lon="-5.45546">
        <ele>49.08</ele>
        <time>2021-03-20T01:40:43Z</time>
      </trkpt>
      <trkpt lat="56.43114" lon="-5.45655">
        <ele>46.6</ele>
        <time>2021-03-20T01:40:46Z</time>
      </trkpt>
      <trkpt lat="56.43086" lon="-5.45735">
        <ele>49.13</ele>
        <time>2021-03-20T01:40:50Z</time>
      </trkpt>
      <trkpt lat="56.43061" lon="-5.45817">
        <ele>53.87</ele>
        <time>2021-03-20T01:40:53Z</time>
      </trkpt>
      <trkpt lat="56.43046" lon="-5.45857">
        <ele>56.62</ele>
        <time>2021-03-20T01:40:56Z</time>
      </trkpt>
      <trkpt lat="56.4303" lon="-5.45893">
        <ele>56.85</ele>
        <time>2021-03-20T01:40:59Z</time>
      </trkpt>
      <trkpt lat="56.42997" lon="-5.45946">
        <ele>54.89</ele>
        <time>2021-03-20T01:41:02Z</time>
      </trkpt>
      <trkpt lat="56.42959" lon="-5.45985">
        <ele>52.12</ele>
        <time>2021-03-20T01:41:05Z</time>
      </trkpt>
      <trkpt lat="56.42836" lon="-5.46056">
        <ele>50.91</ele>
        <time>2021-03-20T01:41:08Z</time>
      </trkpt>
      <trkpt lat="56.42808" lon="-5.46076">
        <ele>51.25</ele>
        <time>2021-03-20T01:41:11Z</time>
      </trkpt>
      <trkpt lat="56.42789" lon="-5.46099">
        <ele>51</ele>
        <time>2021-03-20T01:41:14Z</time>
      </trkpt>
      <trkpt lat="56.42755" lon="-5.4615">
        <ele>51.8</ele>
        <time>2021-03-20T01:41:18Z</time>
      </trkpt>
      <trkpt lat="56.42738" lon="-5.46194">
        <ele>51.43</ele>
        <time>2021-03-20T01:41:21Z</time>
      </trkpt>
      <trkpt lat="56.42717" lon="-5.463">
        <ele>51.37</ele>
        <time>2021-03-20T01:41:24Z</time>
      </trkpt>
      <trkpt lat="56.42701" lon="-5.46361">
        <ele>51</ele>
        <time>2021-03-20T01:41:27Z</time>
      </trkpt>
      <trkpt lat="56.42684" lon="-5.46409">
        <ele>52.38</ele>
        <time>2021-03-20T01:41:30Z</time>
      </trkpt>
      <trkpt lat="56.4265" lon="-5.46471">
        <ele>54.45</ele>
        <time>2021-03-20T01:41:33Z</time>
      </trkpt>
      <trkpt lat="56.42612" lon="-5.46527">
        <ele>54.01</ele>
        <time>2021-03-20T01:41:36Z</time>
      </trkpt>
      <trkpt lat="56.42594" lon="-5.46567">
        <ele>52.44</ele>
        <time>2021-03-20T01:41:39Z</time>
      </trkpt>
      <trkpt lat="56.42546" lon="-5.46689">
        <ele>53.85</ele>
        <time>2021-03-20T01:41:42Z</time>
      </trkpt>
      <trkpt lat="56.42533" lon="-5.46717">
        <ele>55.17</ele>
        <time>2021-03-20T01:41:46Z</time>
      </trkpt>
      <trkpt lat="56.42505" lon="-5.46766">
        <ele>53.48</ele>
        <time>2021-03-20T01:41:49Z</time>
      </trkpt>
      <trkpt lat="56.42465" lon="-5.46828">
        <ele>52.83</ele>
        <time>2021-03-20T01:41:52Z</time>
      </trkpt>
      <trkpt lat="56.42453" lon="-5.46846">
        <ele>52.28</ele>
        <time>2021-03-20T01:41:55Z</time>
      </trkpt>
      <trkpt lat="56.42426" lon="-5.46873">
        <ele>52.32</ele>
        <time>2021-03-20T01:41:58Z</time>
      </trkpt>
      <trkpt lat="56.42386" lon="-5.46896">
        <ele>53.35</ele>
        <time>2021-03-20T01:42:01Z</time>
      </trkpt>
      <trkpt lat="56.42346" lon="-5.46901">
        <ele>54.88</ele>
        <time>2021-03-20T01:42:04Z</time>
      </trkpt>
      <trkpt lat="56.42313" lon="-5.46891">
        <ele>55.18</ele>
        <time>2021-03-20T01:42:07Z</time>
      </trkpt>
      <trkpt lat="56.42275" lon="-5.46871">
        <ele>55.04</ele>
        <time>2021-03-20T01:42:11Z</time>
      </trkpt>
      <trkpt lat="56.42241" lon="-5.46846">
        <ele>52.84</ele>
        <time>2021-03-20T01:42:14Z</time>
      </trkpt>
      <trkpt lat="56.42227" lon="-5.46855">
        <ele>50.61</ele>
        <time>2021-03-20T01:42:16Z</time>
      </trkpt>
      <trkpt lat="56.4221" lon="-5.46871">
        <ele>48.24</ele>
        <time>2021-03-20T01:42:18Z</time>
      </trkpt>
      <trkpt lat="56.42197" lon="-5.46887">
        <ele>46.34</ele>
        <time>2021-03-20T01:42:21Z</time>
      </trkpt>
      <trkpt lat="56.42184" lon="-5.46915">
        <ele>42.16</ele>
        <time>2021-03-20T01:42:23Z</time>
      </trkpt>
      <trkpt lat="56.42185" lon="-5.46971">
        <ele>39.99</ele>
        <time>2021-03-20T01:42:29Z</time>
      </trkpt>
      <trkpt lat="56.42181" lon="-5.47004">
        <ele>38.65</ele>
        <time>2021-03-20T01:42:34Z</time>
      </trkpt>
      <trkpt lat="56.42158" lon="-5.47049">
        <ele>35.06</ele>
        <time>2021-03-20T01:42:40Z</time>
      </trkpt>
      <trkpt lat="56.4213" lon="-5.47102">
        <ele>35.65</ele>
        <time>2021-03-20T01:42:46Z</time>
      </trkpt>
      <trkpt lat="56.42078" lon="-5.47159">
        <ele>35.38</ele>
        <time>2021-03-20T01:42:52Z</time>
      </trkpt>
      <trkpt lat="56.42041" lon="-5.47206">
        <ele>32.76</ele>
        <time>2021-03-20T01:42:57Z</time>
      </trkpt>
      <trkpt lat="56.41977" lon="-5.47294">
        <ele>24.41</ele>
        <time>2021-03-20T01:43:03Z</time>
      </trkpt>
      <trkpt lat="56.41948" lon="-5.47406">
        <ele>22.45</ele>
        <time>2021-03-20T01:43:09Z</time>
      </trkpt>
      <trkpt lat="56.41933" lon="-5.47437">
        <ele>20.71</ele>
        <time>2021-03-20T01:43:14Z</time>
      </trkpt>
      <trkpt lat="56.41904" lon="-5.47455">
        <ele>15.3</ele>
        <time>2021-03-20T01:43:20Z</time>
      </trkpt>
      <trkpt lat="56.41902" lon="-5.47451">
        <ele>14.59</ele>
        <time>2021-03-20T01:43:22Z</time>
      </trkpt>
      <trkpt lat="56.41899" lon="-5.47451">
        <ele>13.73</ele>
        <time>2021-03-20T01:43:24Z</time>
      </trkpt>
      <trkpt lat="56.41897" lon="-5.47457">
        <ele>13.52</ele>
        <time>2021-03-20T01:43:25Z</time>
      </trkpt>
      <trkpt lat="56.419" lon="-5.47463">
        <ele>14.4</ele>
        <time>2021-03-20T01:43:27Z</time>
      </trkpt>
      <trkpt lat="56.41874" lon="-5.47519">
        <ele>10.06</ele>
        <time>2021-03-20T01:43:29Z</time>
      </trkpt>
      <trkpt lat="56.41868" lon="-5.47532">
        <ele>8.94</ele>
        <time>2021-03-20T01:43:31Z</time>
      </trkpt>
      <trkpt lat="56.41844" lon="-5.47569">
        <ele>6.26</ele>
        <time>2021-03-20T01:43:33Z</time>
      </trkpt>
      <trkpt lat="56.41843" lon="-5.47564">
        <ele>6.41</ele>
        <time>2021-03-20T01:43:35Z</time>
      </trkpt>
      <trkpt lat="56.4184" lon="-5.47557">
        <ele>6.42</ele>
        <time>2021-03-20T01:43:37Z</time>
      </trkpt>
      <trkpt lat="56.41834" lon="-5.47554">
        <ele>6.12</ele>
        <time>2021-03-20T01:43:40Z</time>
      </trkpt>
      <trkpt lat="56.41827" lon="-5.47559">
        <ele>5.65</ele>
        <time>2021-03-20T01:43:42Z</time>
      </trkpt>
      <trkpt lat="56.41825" lon="-5.4757">
        <ele>5.18</ele>
        <time>2021-03-20T01:43:45Z</time>
      </trkpt>
      <trkpt lat="56.41828" lon="-5.47583">
        <ele>4.82</ele>
        <time>2021-03-20T01:43:47Z</time>
      </trkpt>
      <trkpt lat="56.41835" lon="-5.47587">
        <ele>5.01</ele>
        <time>2021-03-20T01:43:49Z</time>
      </trkpt>
      <trkpt lat="56.4184" lon="-5.47611">
        <ele>4.68</ele>
        <time>2021-03-20T01:43:52Z</time>
      </trkpt>
      <trkpt lat="56.41862" lon="-5.47683">
        <ele>6.07</ele>
        <time>2021-03-20T01:43:54Z</time>
      </trkpt>
      <trkpt lat="56.41866" lon="-5.47706">
        <ele>6.36</ele>
        <time>2021-03-20T01:43:56Z</time>
      </trkpt>
      <trkpt lat="56.41874" lon="-5.47782">
        <ele>6.04</ele>
        <time>2021-03-20T01:43:59Z</time>
      </trkpt>
      <trkpt lat="56.41896" lon="-5.47854">
        <ele>4.75</ele>
        <time>2021-03-20T01:44:01Z</time>
      </trkpt>
      <trkpt lat="56.41918" lon="-5.47911">
        <ele>5.26</ele>
        <time>2021-03-20T01:44:03Z</time>
      </trkpt>
      <trkpt lat="56.41931" lon="-5.4794">
        <ele>5.62</ele>
        <time>2021-03-20T01:44:06Z</time>
      </trkpt>
      <trkpt lat="56.41982" lon="-5.48038">
        <ele>7.3</ele>
        <time>2021-03-20T01:44:08Z</time>
      </trkpt>
    </trkseg>
  </trk>
</gpx>